<?xml version="1.0" encoding="UTF-8" standalone="no" ?>
<gpx xmlns="http://www.topografix.com/GPX/1/1" xmlns:xsi="http://www.w3.org/2001/XMLSchema-instance" xsi:schemaLocation="http://www.topografix.com/GPX/1/1 http://www.topografix.com/GPX/1/1/gpx.xsd" version="1.1" creator="VisuGPX - https://www.visugpx.com">
  <metadata>
    <name>Ski de fond à Couraduque</name>
    <desc><![CDATA[Départ du parking de Couraduque]]></desc>
  </metadata>
  <trk>
    <name><![CDATA[Ski Couraduque]]></name>
    <trkseg>
      <trkpt lat="42.99111" lon="-0.20305">
        <ele>1371.4</ele>
        <time>2016-03-11T08:52:54Z</time>
      </trkpt>
      <trkpt lat="42.99111" lon="-0.20305">
        <ele>1371.5</ele>
        <time>2016-03-11T08:52:55Z</time>
      </trkpt>
      <trkpt lat="42.99114" lon="-0.20318">
        <ele>1358.4</ele>
        <time>2016-03-11T08:54:16Z</time>
      </trkpt>
      <trkpt lat="42.99123" lon="-0.20336">
        <ele>1361</ele>
        <time>2016-03-11T08:54:30Z</time>
      </trkpt>
      <trkpt lat="42.99131" lon="-0.20337">
        <ele>1362.4</ele>
        <time>2016-03-11T08:54:37Z</time>
      </trkpt>
      <trkpt lat="42.99138" lon="-0.2034">
        <ele>1364</ele>
        <time>2016-03-11T08:54:42Z</time>
      </trkpt>
      <trkpt lat="42.99145" lon="-0.20342">
        <ele>1366.1</ele>
        <time>2016-03-11T08:54:47Z</time>
      </trkpt>
      <trkpt lat="42.99153" lon="-0.20345">
        <ele>1368.7</ele>
        <time>2016-03-11T08:54:53Z</time>
      </trkpt>
      <trkpt lat="42.99161" lon="-0.20349">
        <ele>1371</ele>
        <time>2016-03-11T08:54:59Z</time>
      </trkpt>
      <trkpt lat="42.99168" lon="-0.20355">
        <ele>1372.9</ele>
        <time>2016-03-11T08:55:06Z</time>
      </trkpt>
      <trkpt lat="42.99174" lon="-0.20361">
        <ele>1374.1</ele>
        <time>2016-03-11T08:55:13Z</time>
      </trkpt>
      <trkpt lat="42.99181" lon="-0.20368">
        <ele>1374.7</ele>
        <time>2016-03-11T08:55:19Z</time>
      </trkpt>
      <trkpt lat="42.99182" lon="-0.20369">
        <ele>1374.5</ele>
        <time>2016-03-11T08:55:20Z</time>
      </trkpt>
      <trkpt lat="42.99195" lon="-0.20381">
        <ele>1374.2</ele>
        <time>2016-03-11T08:55:31Z</time>
      </trkpt>
      <trkpt lat="42.99202" lon="-0.20386">
        <ele>1375.8</ele>
        <time>2016-03-11T08:55:37Z</time>
      </trkpt>
      <trkpt lat="42.99209" lon="-0.20391">
        <ele>1379</ele>
        <time>2016-03-11T08:55:43Z</time>
      </trkpt>
      <trkpt lat="42.99216" lon="-0.20395">
        <ele>1382.9</ele>
        <time>2016-03-11T08:55:49Z</time>
      </trkpt>
      <trkpt lat="42.99223" lon="-0.20402">
        <ele>1386.6</ele>
        <time>2016-03-11T08:55:56Z</time>
      </trkpt>
      <trkpt lat="42.9923" lon="-0.20409">
        <ele>1387.3</ele>
        <time>2016-03-11T08:56:07Z</time>
      </trkpt>
      <trkpt lat="42.99236" lon="-0.20415">
        <ele>1386.2</ele>
        <time>2016-03-11T08:56:16Z</time>
      </trkpt>
      <trkpt lat="42.99243" lon="-0.20423">
        <ele>1384.9</ele>
        <time>2016-03-11T08:56:23Z</time>
      </trkpt>
      <trkpt lat="42.99243" lon="-0.20424">
        <ele>1384.7</ele>
        <time>2016-03-11T08:56:24Z</time>
      </trkpt>
      <trkpt lat="42.99253" lon="-0.20441">
        <ele>1382.9</ele>
        <time>2016-03-11T08:56:35Z</time>
      </trkpt>
      <trkpt lat="42.99259" lon="-0.20448">
        <ele>1382.5</ele>
        <time>2016-03-11T08:56:40Z</time>
      </trkpt>
      <trkpt lat="42.99266" lon="-0.20456">
        <ele>1384.1</ele>
        <time>2016-03-11T08:56:46Z</time>
      </trkpt>
      <trkpt lat="42.99273" lon="-0.20463">
        <ele>1386.5</ele>
        <time>2016-03-11T08:56:54Z</time>
      </trkpt>
      <trkpt lat="42.9928" lon="-0.20468">
        <ele>1388.2</ele>
        <time>2016-03-11T08:57:02Z</time>
      </trkpt>
      <trkpt lat="42.99289" lon="-0.2047">
        <ele>1390.3</ele>
        <time>2016-03-11T08:57:08Z</time>
      </trkpt>
      <trkpt lat="42.99297" lon="-0.2047">
        <ele>1392.4</ele>
        <time>2016-03-11T08:57:15Z</time>
      </trkpt>
      <trkpt lat="42.99306" lon="-0.2047">
        <ele>1394.3</ele>
        <time>2016-03-11T08:57:22Z</time>
      </trkpt>
      <trkpt lat="42.99314" lon="-0.20472">
        <ele>1396.1</ele>
        <time>2016-03-11T08:57:28Z</time>
      </trkpt>
      <trkpt lat="42.99316" lon="-0.20472">
        <ele>1396.3</ele>
        <time>2016-03-11T08:57:29Z</time>
      </trkpt>
      <trkpt lat="42.99328" lon="-0.20473">
        <ele>1397.2</ele>
        <time>2016-03-11T08:57:36Z</time>
      </trkpt>
      <trkpt lat="42.99336" lon="-0.20473">
        <ele>1396.8</ele>
        <time>2016-03-11T08:57:40Z</time>
      </trkpt>
      <trkpt lat="42.99343" lon="-0.20474">
        <ele>1396.6</ele>
        <time>2016-03-11T08:57:44Z</time>
      </trkpt>
      <trkpt lat="42.99352" lon="-0.20477">
        <ele>1397.1</ele>
        <time>2016-03-11T08:57:54Z</time>
      </trkpt>
      <trkpt lat="42.9936" lon="-0.20482">
        <ele>1394</ele>
        <time>2016-03-11T08:58:05Z</time>
      </trkpt>
      <trkpt lat="42.99366" lon="-0.20488">
        <ele>1390.4</ele>
        <time>2016-03-11T08:58:12Z</time>
      </trkpt>
      <trkpt lat="42.99373" lon="-0.20497">
        <ele>1386.7</ele>
        <time>2016-03-11T08:58:20Z</time>
      </trkpt>
      <trkpt lat="42.99378" lon="-0.20505">
        <ele>1383.8</ele>
        <time>2016-03-11T08:58:25Z</time>
      </trkpt>
      <trkpt lat="42.99382" lon="-0.20515">
        <ele>1380.7</ele>
        <time>2016-03-11T08:58:30Z</time>
      </trkpt>
      <trkpt lat="42.99383" lon="-0.20517">
        <ele>1380.1</ele>
        <time>2016-03-11T08:58:31Z</time>
      </trkpt>
      <trkpt lat="42.9939" lon="-0.20534">
        <ele>1379</ele>
        <time>2016-03-11T08:58:39Z</time>
      </trkpt>
      <trkpt lat="42.99394" lon="-0.20542">
        <ele>1380.3</ele>
        <time>2016-03-11T08:58:44Z</time>
      </trkpt>
      <trkpt lat="42.99398" lon="-0.20552">
        <ele>1381.8</ele>
        <time>2016-03-11T08:58:52Z</time>
      </trkpt>
      <trkpt lat="42.99403" lon="-0.20559">
        <ele>1381.6</ele>
        <time>2016-03-11T08:58:56Z</time>
      </trkpt>
      <trkpt lat="42.9941" lon="-0.20566">
        <ele>1380.6</ele>
        <time>2016-03-11T08:59:01Z</time>
      </trkpt>
      <trkpt lat="42.99418" lon="-0.20571">
        <ele>1381.4</ele>
        <time>2016-03-11T08:59:06Z</time>
      </trkpt>
      <trkpt lat="42.99425" lon="-0.20578">
        <ele>1382.2</ele>
        <time>2016-03-11T08:59:10Z</time>
      </trkpt>
      <trkpt lat="42.99432" lon="-0.20585">
        <ele>1382.6</ele>
        <time>2016-03-11T08:59:15Z</time>
      </trkpt>
      <trkpt lat="42.99438" lon="-0.20591">
        <ele>1383.7</ele>
        <time>2016-03-11T08:59:19Z</time>
      </trkpt>
      <trkpt lat="42.99446" lon="-0.20595">
        <ele>1385.8</ele>
        <time>2016-03-11T08:59:24Z</time>
      </trkpt>
      <trkpt lat="42.99454" lon="-0.20599">
        <ele>1387.9</ele>
        <time>2016-03-11T08:59:29Z</time>
      </trkpt>
      <trkpt lat="42.99462" lon="-0.20601">
        <ele>1390.4</ele>
        <time>2016-03-11T08:59:33Z</time>
      </trkpt>
      <trkpt lat="42.99463" lon="-0.20602">
        <ele>1391.1</ele>
        <time>2016-03-11T08:59:34Z</time>
      </trkpt>
      <trkpt lat="42.99477" lon="-0.20604">
        <ele>1394.9</ele>
        <time>2016-03-11T08:59:42Z</time>
      </trkpt>
      <trkpt lat="42.99486" lon="-0.20604">
        <ele>1397.3</ele>
        <time>2016-03-11T08:59:47Z</time>
      </trkpt>
      <trkpt lat="42.99494" lon="-0.20601">
        <ele>1400</ele>
        <time>2016-03-11T08:59:52Z</time>
      </trkpt>
      <trkpt lat="42.99502" lon="-0.206">
        <ele>1399.4</ele>
        <time>2016-03-11T08:59:57Z</time>
      </trkpt>
      <trkpt lat="42.99511" lon="-0.20599">
        <ele>1396.9</ele>
        <time>2016-03-11T09:00:02Z</time>
      </trkpt>
      <trkpt lat="42.99519" lon="-0.20596">
        <ele>1396</ele>
        <time>2016-03-11T09:00:07Z</time>
      </trkpt>
      <trkpt lat="42.99526" lon="-0.2059">
        <ele>1395.7</ele>
        <time>2016-03-11T09:00:13Z</time>
      </trkpt>
      <trkpt lat="42.99533" lon="-0.20583">
        <ele>1396.4</ele>
        <time>2016-03-11T09:00:19Z</time>
      </trkpt>
      <trkpt lat="42.99537" lon="-0.20574">
        <ele>1397.5</ele>
        <time>2016-03-11T09:00:25Z</time>
      </trkpt>
      <trkpt lat="42.99542" lon="-0.20565">
        <ele>1398</ele>
        <time>2016-03-11T09:00:29Z</time>
      </trkpt>
      <trkpt lat="42.99545" lon="-0.20554">
        <ele>1397.9</ele>
        <time>2016-03-11T09:00:33Z</time>
      </trkpt>
      <trkpt lat="42.99548" lon="-0.20544">
        <ele>1397.9</ele>
        <time>2016-03-11T09:00:37Z</time>
      </trkpt>
      <trkpt lat="42.99549" lon="-0.20542">
        <ele>1397.5</ele>
        <time>2016-03-11T09:00:38Z</time>
      </trkpt>
      <trkpt lat="42.9956" lon="-0.20529">
        <ele>1396.7</ele>
        <time>2016-03-11T09:00:44Z</time>
      </trkpt>
      <trkpt lat="42.99566" lon="-0.20524">
        <ele>1396.2</ele>
        <time>2016-03-11T09:00:46Z</time>
      </trkpt>
      <trkpt lat="42.99571" lon="-0.20521">
        <ele>1395.8</ele>
        <time>2016-03-11T09:00:47Z</time>
      </trkpt>
      <trkpt lat="42.99575" lon="-0.20518">
        <ele>1395.4</ele>
        <time>2016-03-11T09:00:48Z</time>
      </trkpt>
      <trkpt lat="42.9958" lon="-0.20514">
        <ele>1395.2</ele>
        <time>2016-03-11T09:00:49Z</time>
      </trkpt>
      <trkpt lat="42.99584" lon="-0.20511">
        <ele>1395</ele>
        <time>2016-03-11T09:00:50Z</time>
      </trkpt>
      <trkpt lat="42.99587" lon="-0.20507">
        <ele>1394.3</ele>
        <time>2016-03-11T09:00:51Z</time>
      </trkpt>
      <trkpt lat="42.99595" lon="-0.20502">
        <ele>1393.4</ele>
        <time>2016-03-11T09:00:53Z</time>
      </trkpt>
      <trkpt lat="42.99602" lon="-0.20496">
        <ele>1393</ele>
        <time>2016-03-11T09:00:55Z</time>
      </trkpt>
      <trkpt lat="42.99607" lon="-0.2049">
        <ele>1392.5</ele>
        <time>2016-03-11T09:00:57Z</time>
      </trkpt>
      <trkpt lat="42.99614" lon="-0.20484">
        <ele>1391.9</ele>
        <time>2016-03-11T09:01:00Z</time>
      </trkpt>
      <trkpt lat="42.99621" lon="-0.20478">
        <ele>1391.6</ele>
        <time>2016-03-11T09:01:03Z</time>
      </trkpt>
      <trkpt lat="42.99628" lon="-0.20474">
        <ele>1391.5</ele>
        <time>2016-03-11T09:01:06Z</time>
      </trkpt>
      <trkpt lat="42.99634" lon="-0.20465">
        <ele>1391.9</ele>
        <time>2016-03-11T09:01:09Z</time>
      </trkpt>
      <trkpt lat="42.99639" lon="-0.20456">
        <ele>1391.5</ele>
        <time>2016-03-11T09:01:12Z</time>
      </trkpt>
      <trkpt lat="42.99646" lon="-0.20451">
        <ele>1391.2</ele>
        <time>2016-03-11T09:01:15Z</time>
      </trkpt>
      <trkpt lat="42.99655" lon="-0.20451">
        <ele>1391.2</ele>
        <time>2016-03-11T09:01:18Z</time>
      </trkpt>
      <trkpt lat="42.99664" lon="-0.20451">
        <ele>1391.4</ele>
        <time>2016-03-11T09:01:24Z</time>
      </trkpt>
      <trkpt lat="42.99672" lon="-0.20454">
        <ele>1391</ele>
        <time>2016-03-11T09:01:30Z</time>
      </trkpt>
      <trkpt lat="42.99679" lon="-0.20457">
        <ele>1392.4</ele>
        <time>2016-03-11T09:01:34Z</time>
      </trkpt>
      <trkpt lat="42.99685" lon="-0.2046">
        <ele>1392.5</ele>
        <time>2016-03-11T09:01:36Z</time>
      </trkpt>
      <trkpt lat="42.99692" lon="-0.20463">
        <ele>1391.9</ele>
        <time>2016-03-11T09:01:38Z</time>
      </trkpt>
      <trkpt lat="42.99697" lon="-0.20465">
        <ele>1391.3</ele>
        <time>2016-03-11T09:01:39Z</time>
      </trkpt>
      <trkpt lat="42.99702" lon="-0.20467">
        <ele>1390.9</ele>
        <time>2016-03-11T09:01:40Z</time>
      </trkpt>
      <trkpt lat="42.9971" lon="-0.20471">
        <ele>1390</ele>
        <time>2016-03-11T09:01:42Z</time>
      </trkpt>
      <trkpt lat="42.99718" lon="-0.20473">
        <ele>1389</ele>
        <time>2016-03-11T09:01:46Z</time>
      </trkpt>
      <trkpt lat="42.99726" lon="-0.20477">
        <ele>1389.4</ele>
        <time>2016-03-11T09:01:51Z</time>
      </trkpt>
      <trkpt lat="42.99733" lon="-0.2048">
        <ele>1389.5</ele>
        <time>2016-03-11T09:01:55Z</time>
      </trkpt>
      <trkpt lat="42.99741" lon="-0.20484">
        <ele>1390</ele>
        <time>2016-03-11T09:01:59Z</time>
      </trkpt>
      <trkpt lat="42.99748" lon="-0.20487">
        <ele>1388.3</ele>
        <time>2016-03-11T09:02:03Z</time>
      </trkpt>
      <trkpt lat="42.99756" lon="-0.20489">
        <ele>1388.4</ele>
        <time>2016-03-11T09:02:07Z</time>
      </trkpt>
      <trkpt lat="42.99763" lon="-0.20491">
        <ele>1389.1</ele>
        <time>2016-03-11T09:02:11Z</time>
      </trkpt>
      <trkpt lat="42.99771" lon="-0.20492">
        <ele>1389.7</ele>
        <time>2016-03-11T09:02:16Z</time>
      </trkpt>
      <trkpt lat="42.99778" lon="-0.20495">
        <ele>1390.4</ele>
        <time>2016-03-11T09:02:20Z</time>
      </trkpt>
      <trkpt lat="42.99787" lon="-0.20497">
        <ele>1391.5</ele>
        <time>2016-03-11T09:02:25Z</time>
      </trkpt>
      <trkpt lat="42.99795" lon="-0.205">
        <ele>1390.7</ele>
        <time>2016-03-11T09:02:30Z</time>
      </trkpt>
      <trkpt lat="42.99802" lon="-0.20503">
        <ele>1390.3</ele>
        <time>2016-03-11T09:02:34Z</time>
      </trkpt>
      <trkpt lat="42.99809" lon="-0.20506">
        <ele>1391</ele>
        <time>2016-03-11T09:02:37Z</time>
      </trkpt>
      <trkpt lat="42.99816" lon="-0.20509">
        <ele>1391.5</ele>
        <time>2016-03-11T09:02:40Z</time>
      </trkpt>
      <trkpt lat="42.99818" lon="-0.20509">
        <ele>1391.6</ele>
        <time>2016-03-11T09:02:41Z</time>
      </trkpt>
      <trkpt lat="42.99831" lon="-0.20514">
        <ele>1391</ele>
        <time>2016-03-11T09:02:49Z</time>
      </trkpt>
      <trkpt lat="42.99839" lon="-0.20515">
        <ele>1391.2</ele>
        <time>2016-03-11T09:02:53Z</time>
      </trkpt>
      <trkpt lat="42.99847" lon="-0.20516">
        <ele>1391.6</ele>
        <time>2016-03-11T09:02:57Z</time>
      </trkpt>
      <trkpt lat="42.99854" lon="-0.20516">
        <ele>1391.6</ele>
        <time>2016-03-11T09:03:01Z</time>
      </trkpt>
      <trkpt lat="42.99863" lon="-0.20515">
        <ele>1392</ele>
        <time>2016-03-11T09:03:06Z</time>
      </trkpt>
      <trkpt lat="42.99871" lon="-0.20511">
        <ele>1391.7</ele>
        <time>2016-03-11T09:03:11Z</time>
      </trkpt>
      <trkpt lat="42.99878" lon="-0.20505">
        <ele>1393.3</ele>
        <time>2016-03-11T09:03:17Z</time>
      </trkpt>
      <trkpt lat="42.99886" lon="-0.20503">
        <ele>1393.4</ele>
        <time>2016-03-11T09:03:21Z</time>
      </trkpt>
      <trkpt lat="42.99894" lon="-0.20506">
        <ele>1393.8</ele>
        <time>2016-03-11T09:03:26Z</time>
      </trkpt>
      <trkpt lat="42.99898" lon="-0.20516">
        <ele>1393.5</ele>
        <time>2016-03-11T09:03:32Z</time>
      </trkpt>
      <trkpt lat="42.99895" lon="-0.20527">
        <ele>1393.9</ele>
        <time>2016-03-11T09:03:39Z</time>
      </trkpt>
      <trkpt lat="42.99892" lon="-0.20538">
        <ele>1394.3</ele>
        <time>2016-03-11T09:03:46Z</time>
      </trkpt>
      <trkpt lat="42.99892" lon="-0.20539">
        <ele>1394.2</ele>
        <time>2016-03-11T09:03:47Z</time>
      </trkpt>
      <trkpt lat="42.99889" lon="-0.20561">
        <ele>1396.2</ele>
        <time>2016-03-11T09:03:59Z</time>
      </trkpt>
      <trkpt lat="42.99887" lon="-0.2057">
        <ele>1396.2</ele>
        <time>2016-03-11T09:04:03Z</time>
      </trkpt>
      <trkpt lat="42.99885" lon="-0.20581">
        <ele>1396</ele>
        <time>2016-03-11T09:04:07Z</time>
      </trkpt>
      <trkpt lat="42.99882" lon="-0.2059">
        <ele>1395.2</ele>
        <time>2016-03-11T09:04:10Z</time>
      </trkpt>
      <trkpt lat="42.9988" lon="-0.206">
        <ele>1395.4</ele>
        <time>2016-03-11T09:04:13Z</time>
      </trkpt>
      <trkpt lat="42.99877" lon="-0.2061">
        <ele>1395</ele>
        <time>2016-03-11T09:04:16Z</time>
      </trkpt>
      <trkpt lat="42.99875" lon="-0.20621">
        <ele>1394.8</ele>
        <time>2016-03-11T09:04:19Z</time>
      </trkpt>
      <trkpt lat="42.99873" lon="-0.20631">
        <ele>1394.9</ele>
        <time>2016-03-11T09:04:22Z</time>
      </trkpt>
      <trkpt lat="42.9987" lon="-0.20641">
        <ele>1393.3</ele>
        <time>2016-03-11T09:04:25Z</time>
      </trkpt>
      <trkpt lat="42.99869" lon="-0.2065">
        <ele>1392.4</ele>
        <time>2016-03-11T09:04:27Z</time>
      </trkpt>
      <trkpt lat="42.99869" lon="-0.20662">
        <ele>1391.9</ele>
        <time>2016-03-11T09:04:30Z</time>
      </trkpt>
      <trkpt lat="42.99868" lon="-0.20673">
        <ele>1391.7</ele>
        <time>2016-03-11T09:04:33Z</time>
      </trkpt>
      <trkpt lat="42.99868" lon="-0.20685">
        <ele>1390.7</ele>
        <time>2016-03-11T09:04:36Z</time>
      </trkpt>
      <trkpt lat="42.99869" lon="-0.20695">
        <ele>1390.9</ele>
        <time>2016-03-11T09:04:39Z</time>
      </trkpt>
      <trkpt lat="42.9987" lon="-0.20706">
        <ele>1390.4</ele>
        <time>2016-03-11T09:04:42Z</time>
      </trkpt>
      <trkpt lat="42.99871" lon="-0.20715">
        <ele>1390.4</ele>
        <time>2016-03-11T09:04:45Z</time>
      </trkpt>
      <trkpt lat="42.99872" lon="-0.20725">
        <ele>1390.3</ele>
        <time>2016-03-11T09:04:48Z</time>
      </trkpt>
      <trkpt lat="42.99872" lon="-0.20728">
        <ele>1390.2</ele>
        <time>2016-03-11T09:04:49Z</time>
      </trkpt>
      <trkpt lat="42.9987" lon="-0.20748">
        <ele>1388.6</ele>
        <time>2016-03-11T09:04:57Z</time>
      </trkpt>
      <trkpt lat="42.9987" lon="-0.2076">
        <ele>1388.8</ele>
        <time>2016-03-11T09:05:02Z</time>
      </trkpt>
      <trkpt lat="42.9987" lon="-0.20772">
        <ele>1389.1</ele>
        <time>2016-03-11T09:05:07Z</time>
      </trkpt>
      <trkpt lat="42.99869" lon="-0.20783">
        <ele>1389.4</ele>
        <time>2016-03-11T09:05:12Z</time>
      </trkpt>
      <trkpt lat="42.9987" lon="-0.20793">
        <ele>1390.6</ele>
        <time>2016-03-11T09:05:17Z</time>
      </trkpt>
      <trkpt lat="42.99872" lon="-0.20803">
        <ele>1390.1</ele>
        <time>2016-03-11T09:05:22Z</time>
      </trkpt>
      <trkpt lat="42.99874" lon="-0.20815">
        <ele>1390.6</ele>
        <time>2016-03-11T09:05:27Z</time>
      </trkpt>
      <trkpt lat="42.99874" lon="-0.20827">
        <ele>1390.4</ele>
        <time>2016-03-11T09:05:32Z</time>
      </trkpt>
      <trkpt lat="42.99874" lon="-0.20839">
        <ele>1390.7</ele>
        <time>2016-03-11T09:05:37Z</time>
      </trkpt>
      <trkpt lat="42.99874" lon="-0.2085">
        <ele>1391.4</ele>
        <time>2016-03-11T09:05:42Z</time>
      </trkpt>
      <trkpt lat="42.99876" lon="-0.20862">
        <ele>1392.3</ele>
        <time>2016-03-11T09:05:48Z</time>
      </trkpt>
      <trkpt lat="42.99876" lon="-0.20874">
        <ele>1392.7</ele>
        <time>2016-03-11T09:05:54Z</time>
      </trkpt>
      <trkpt lat="42.99877" lon="-0.20876">
        <ele>1392.9</ele>
        <time>2016-03-11T09:05:55Z</time>
      </trkpt>
      <trkpt lat="42.99882" lon="-0.20897">
        <ele>1395.6</ele>
        <time>2016-03-11T09:06:06Z</time>
      </trkpt>
      <trkpt lat="42.99884" lon="-0.20908">
        <ele>1396.3</ele>
        <time>2016-03-11T09:06:12Z</time>
      </trkpt>
      <trkpt lat="42.99888" lon="-0.20918">
        <ele>1397.5</ele>
        <time>2016-03-11T09:06:19Z</time>
      </trkpt>
      <trkpt lat="42.99891" lon="-0.20928">
        <ele>1398.5</ele>
        <time>2016-03-11T09:06:25Z</time>
      </trkpt>
      <trkpt lat="42.99893" lon="-0.20939">
        <ele>1399.6</ele>
        <time>2016-03-11T09:06:31Z</time>
      </trkpt>
      <trkpt lat="42.99892" lon="-0.20951">
        <ele>1400.7</ele>
        <time>2016-03-11T09:06:37Z</time>
      </trkpt>
      <trkpt lat="42.99888" lon="-0.20961">
        <ele>1400.5</ele>
        <time>2016-03-11T09:06:43Z</time>
      </trkpt>
      <trkpt lat="42.99883" lon="-0.2097">
        <ele>1400.7</ele>
        <time>2016-03-11T09:06:49Z</time>
      </trkpt>
      <trkpt lat="42.99878" lon="-0.20977">
        <ele>1401.4</ele>
        <time>2016-03-11T09:06:54Z</time>
      </trkpt>
      <trkpt lat="42.99873" lon="-0.20987">
        <ele>1401.9</ele>
        <time>2016-03-11T09:06:59Z</time>
      </trkpt>
      <trkpt lat="42.99871" lon="-0.20989">
        <ele>1402</ele>
        <time>2016-03-11T09:07:00Z</time>
      </trkpt>
      <trkpt lat="42.99863" lon="-0.21003">
        <ele>1400.8</ele>
        <time>2016-03-11T09:07:07Z</time>
      </trkpt>
      <trkpt lat="42.99856" lon="-0.21011">
        <ele>1401.7</ele>
        <time>2016-03-11T09:07:11Z</time>
      </trkpt>
      <trkpt lat="42.9985" lon="-0.21019">
        <ele>1401.8</ele>
        <time>2016-03-11T09:07:15Z</time>
      </trkpt>
      <trkpt lat="42.99843" lon="-0.21024">
        <ele>1401.4</ele>
        <time>2016-03-11T09:07:20Z</time>
      </trkpt>
      <trkpt lat="42.99835" lon="-0.21029">
        <ele>1401.6</ele>
        <time>2016-03-11T09:07:25Z</time>
      </trkpt>
      <trkpt lat="42.99828" lon="-0.21034">
        <ele>1401.2</ele>
        <time>2016-03-11T09:07:29Z</time>
      </trkpt>
      <trkpt lat="42.99821" lon="-0.21042">
        <ele>1400.4</ele>
        <time>2016-03-11T09:07:33Z</time>
      </trkpt>
      <trkpt lat="42.99813" lon="-0.21047">
        <ele>1400.6</ele>
        <time>2016-03-11T09:07:38Z</time>
      </trkpt>
      <trkpt lat="42.99804" lon="-0.21049">
        <ele>1400.6</ele>
        <time>2016-03-11T09:07:43Z</time>
      </trkpt>
      <trkpt lat="42.99797" lon="-0.21052">
        <ele>1401.7</ele>
        <time>2016-03-11T09:07:48Z</time>
      </trkpt>
      <trkpt lat="42.99789" lon="-0.21054">
        <ele>1402</ele>
        <time>2016-03-11T09:07:53Z</time>
      </trkpt>
      <trkpt lat="42.99781" lon="-0.21057">
        <ele>1403.2</ele>
        <time>2016-03-11T09:07:59Z</time>
      </trkpt>
      <trkpt lat="42.99772" lon="-0.2106">
        <ele>1403.5</ele>
        <time>2016-03-11T09:08:05Z</time>
      </trkpt>
      <trkpt lat="42.99771" lon="-0.21061">
        <ele>1403.2</ele>
        <time>2016-03-11T09:08:06Z</time>
      </trkpt>
      <trkpt lat="42.99757" lon="-0.21065">
        <ele>1404.3</ele>
        <time>2016-03-11T09:08:16Z</time>
      </trkpt>
      <trkpt lat="42.99749" lon="-0.21069">
        <ele>1405.3</ele>
        <time>2016-03-11T09:08:22Z</time>
      </trkpt>
      <trkpt lat="42.99741" lon="-0.21073">
        <ele>1405.1</ele>
        <time>2016-03-11T09:08:27Z</time>
      </trkpt>
      <trkpt lat="42.99735" lon="-0.21079">
        <ele>1405.3</ele>
        <time>2016-03-11T09:08:32Z</time>
      </trkpt>
      <trkpt lat="42.99729" lon="-0.21086">
        <ele>1406.3</ele>
        <time>2016-03-11T09:08:37Z</time>
      </trkpt>
      <trkpt lat="42.99722" lon="-0.21092">
        <ele>1406.8</ele>
        <time>2016-03-11T09:08:42Z</time>
      </trkpt>
      <trkpt lat="42.99715" lon="-0.21098">
        <ele>1407</ele>
        <time>2016-03-11T09:08:47Z</time>
      </trkpt>
      <trkpt lat="42.99708" lon="-0.21105">
        <ele>1408</ele>
        <time>2016-03-11T09:08:52Z</time>
      </trkpt>
      <trkpt lat="42.99702" lon="-0.21111">
        <ele>1407.7</ele>
        <time>2016-03-11T09:08:56Z</time>
      </trkpt>
      <trkpt lat="42.99696" lon="-0.21118">
        <ele>1408.2</ele>
        <time>2016-03-11T09:09:00Z</time>
      </trkpt>
      <trkpt lat="42.9969" lon="-0.21125">
        <ele>1408.7</ele>
        <time>2016-03-11T09:09:03Z</time>
      </trkpt>
      <trkpt lat="42.99686" lon="-0.21132">
        <ele>1408.8</ele>
        <time>2016-03-11T09:09:06Z</time>
      </trkpt>
      <trkpt lat="42.99684" lon="-0.21135">
        <ele>1408.7</ele>
        <time>2016-03-11T09:09:07Z</time>
      </trkpt>
      <trkpt lat="42.99677" lon="-0.21149">
        <ele>1408.3</ele>
        <time>2016-03-11T09:09:13Z</time>
      </trkpt>
      <trkpt lat="42.99671" lon="-0.21158">
        <ele>1408.8</ele>
        <time>2016-03-11T09:09:18Z</time>
      </trkpt>
      <trkpt lat="42.99665" lon="-0.21165">
        <ele>1408.8</ele>
        <time>2016-03-11T09:09:24Z</time>
      </trkpt>
      <trkpt lat="42.99657" lon="-0.2117">
        <ele>1409.7</ele>
        <time>2016-03-11T09:09:30Z</time>
      </trkpt>
      <trkpt lat="42.99649" lon="-0.21174">
        <ele>1409.7</ele>
        <time>2016-03-11T09:09:51Z</time>
      </trkpt>
      <trkpt lat="42.99642" lon="-0.21178">
        <ele>1410.1</ele>
        <time>2016-03-11T09:09:57Z</time>
      </trkpt>
      <trkpt lat="42.99635" lon="-0.21181">
        <ele>1410.2</ele>
        <time>2016-03-11T09:10:03Z</time>
      </trkpt>
      <trkpt lat="42.99626" lon="-0.21183">
        <ele>1410.6</ele>
        <time>2016-03-11T09:10:10Z</time>
      </trkpt>
      <trkpt lat="42.99626" lon="-0.21184">
        <ele>1410.6</ele>
        <time>2016-03-11T09:10:11Z</time>
      </trkpt>
      <trkpt lat="42.9961" lon="-0.21183">
        <ele>1411</ele>
        <time>2016-03-11T09:10:24Z</time>
      </trkpt>
      <trkpt lat="42.99603" lon="-0.2118">
        <ele>1413.1</ele>
        <time>2016-03-11T09:10:29Z</time>
      </trkpt>
      <trkpt lat="42.99594" lon="-0.21179">
        <ele>1413.3</ele>
        <time>2016-03-11T09:10:34Z</time>
      </trkpt>
      <trkpt lat="42.99586" lon="-0.21177">
        <ele>1413.8</ele>
        <time>2016-03-11T09:10:39Z</time>
      </trkpt>
      <trkpt lat="42.99578" lon="-0.21176">
        <ele>1414.8</ele>
        <time>2016-03-11T09:10:45Z</time>
      </trkpt>
      <trkpt lat="42.9957" lon="-0.21175">
        <ele>1416</ele>
        <time>2016-03-11T09:10:50Z</time>
      </trkpt>
      <trkpt lat="42.99561" lon="-0.21172">
        <ele>1415</ele>
        <time>2016-03-11T09:10:56Z</time>
      </trkpt>
      <trkpt lat="42.99552" lon="-0.2117">
        <ele>1416.1</ele>
        <time>2016-03-11T09:11:02Z</time>
      </trkpt>
      <trkpt lat="42.99544" lon="-0.21167">
        <ele>1417.3</ele>
        <time>2016-03-11T09:11:08Z</time>
      </trkpt>
      <trkpt lat="42.99536" lon="-0.21165">
        <ele>1417.1</ele>
        <time>2016-03-11T09:11:14Z</time>
      </trkpt>
      <trkpt lat="42.99534" lon="-0.21164">
        <ele>1417.2</ele>
        <time>2016-03-11T09:11:15Z</time>
      </trkpt>
      <trkpt lat="42.99521" lon="-0.21158">
        <ele>1419.1</ele>
        <time>2016-03-11T09:11:25Z</time>
      </trkpt>
      <trkpt lat="42.99514" lon="-0.21154">
        <ele>1419.3</ele>
        <time>2016-03-11T09:11:30Z</time>
      </trkpt>
      <trkpt lat="42.99507" lon="-0.21149">
        <ele>1419.6</ele>
        <time>2016-03-11T09:11:36Z</time>
      </trkpt>
      <trkpt lat="42.99499" lon="-0.21146">
        <ele>1421</ele>
        <time>2016-03-11T09:11:42Z</time>
      </trkpt>
      <trkpt lat="42.99491" lon="-0.21142">
        <ele>1422.6</ele>
        <time>2016-03-11T09:11:50Z</time>
      </trkpt>
      <trkpt lat="42.99483" lon="-0.21137">
        <ele>1423.8</ele>
        <time>2016-03-11T09:11:57Z</time>
      </trkpt>
      <trkpt lat="42.99475" lon="-0.21132">
        <ele>1424.5</ele>
        <time>2016-03-11T09:12:03Z</time>
      </trkpt>
      <trkpt lat="42.99467" lon="-0.2113">
        <ele>1425.1</ele>
        <time>2016-03-11T09:12:09Z</time>
      </trkpt>
      <trkpt lat="42.99459" lon="-0.21132">
        <ele>1425.9</ele>
        <time>2016-03-11T09:12:14Z</time>
      </trkpt>
      <trkpt lat="42.99456" lon="-0.21133">
        <ele>1426.2</ele>
        <time>2016-03-11T09:12:16Z</time>
      </trkpt>
      <trkpt lat="42.99443" lon="-0.21129">
        <ele>1426.7</ele>
        <time>2016-03-11T09:12:24Z</time>
      </trkpt>
      <trkpt lat="42.99435" lon="-0.21126">
        <ele>1426.9</ele>
        <time>2016-03-11T09:12:29Z</time>
      </trkpt>
      <trkpt lat="42.99427" lon="-0.21125">
        <ele>1427.5</ele>
        <time>2016-03-11T09:12:35Z</time>
      </trkpt>
      <trkpt lat="42.99418" lon="-0.21123">
        <ele>1428.4</ele>
        <time>2016-03-11T09:12:42Z</time>
      </trkpt>
      <trkpt lat="42.9941" lon="-0.21122">
        <ele>1429.6</ele>
        <time>2016-03-11T09:12:48Z</time>
      </trkpt>
      <trkpt lat="42.99401" lon="-0.21119">
        <ele>1430.6</ele>
        <time>2016-03-11T09:12:54Z</time>
      </trkpt>
      <trkpt lat="42.99393" lon="-0.21116">
        <ele>1430.3</ele>
        <time>2016-03-11T09:13:01Z</time>
      </trkpt>
      <trkpt lat="42.99386" lon="-0.21114">
        <ele>1430.9</ele>
        <time>2016-03-11T09:13:07Z</time>
      </trkpt>
      <trkpt lat="42.99377" lon="-0.21111">
        <ele>1431.6</ele>
        <time>2016-03-11T09:13:13Z</time>
      </trkpt>
      <trkpt lat="42.99369" lon="-0.21107">
        <ele>1432.1</ele>
        <time>2016-03-11T09:13:19Z</time>
      </trkpt>
      <trkpt lat="42.99368" lon="-0.21107">
        <ele>1432.2</ele>
        <time>2016-03-11T09:13:20Z</time>
      </trkpt>
      <trkpt lat="42.99354" lon="-0.21099">
        <ele>1434.3</ele>
        <time>2016-03-11T09:13:31Z</time>
      </trkpt>
      <trkpt lat="42.99346" lon="-0.21095">
        <ele>1435.8</ele>
        <time>2016-03-11T09:13:37Z</time>
      </trkpt>
      <trkpt lat="42.99338" lon="-0.21091">
        <ele>1436</ele>
        <time>2016-03-11T09:13:43Z</time>
      </trkpt>
      <trkpt lat="42.9933" lon="-0.21088">
        <ele>1436.9</ele>
        <time>2016-03-11T09:13:49Z</time>
      </trkpt>
      <trkpt lat="42.99321" lon="-0.21085">
        <ele>1438.6</ele>
        <time>2016-03-11T09:13:56Z</time>
      </trkpt>
      <trkpt lat="42.99313" lon="-0.21083">
        <ele>1439.9</ele>
        <time>2016-03-11T09:14:02Z</time>
      </trkpt>
      <trkpt lat="42.99305" lon="-0.21079">
        <ele>1440.1</ele>
        <time>2016-03-11T09:14:09Z</time>
      </trkpt>
      <trkpt lat="42.99297" lon="-0.21075">
        <ele>1440.8</ele>
        <time>2016-03-11T09:14:14Z</time>
      </trkpt>
      <trkpt lat="42.99289" lon="-0.21071">
        <ele>1442.2</ele>
        <time>2016-03-11T09:14:20Z</time>
      </trkpt>
      <trkpt lat="42.99288" lon="-0.2107">
        <ele>1441.9</ele>
        <time>2016-03-11T09:14:21Z</time>
      </trkpt>
      <trkpt lat="42.99274" lon="-0.21065">
        <ele>1443.5</ele>
        <time>2016-03-11T09:14:32Z</time>
      </trkpt>
      <trkpt lat="42.99266" lon="-0.21062">
        <ele>1444.6</ele>
        <time>2016-03-11T09:14:38Z</time>
      </trkpt>
      <trkpt lat="42.99258" lon="-0.21058">
        <ele>1445.9</ele>
        <time>2016-03-11T09:14:44Z</time>
      </trkpt>
      <trkpt lat="42.9925" lon="-0.21056">
        <ele>1446.7</ele>
        <time>2016-03-11T09:14:50Z</time>
      </trkpt>
      <trkpt lat="42.99242" lon="-0.21054">
        <ele>1447.7</ele>
        <time>2016-03-11T09:14:57Z</time>
      </trkpt>
      <trkpt lat="42.99233" lon="-0.21054">
        <ele>1448.6</ele>
        <time>2016-03-11T09:15:04Z</time>
      </trkpt>
      <trkpt lat="42.99225" lon="-0.21054">
        <ele>1449</ele>
        <time>2016-03-11T09:15:10Z</time>
      </trkpt>
      <trkpt lat="42.99216" lon="-0.21054">
        <ele>1450.6</ele>
        <time>2016-03-11T09:15:16Z</time>
      </trkpt>
      <trkpt lat="42.99208" lon="-0.21053">
        <ele>1450.9</ele>
        <time>2016-03-11T09:15:21Z</time>
      </trkpt>
      <trkpt lat="42.99206" lon="-0.21053">
        <ele>1451.2</ele>
        <time>2016-03-11T09:15:22Z</time>
      </trkpt>
      <trkpt lat="42.99192" lon="-0.21058">
        <ele>1451</ele>
        <time>2016-03-11T09:15:31Z</time>
      </trkpt>
      <trkpt lat="42.99184" lon="-0.21061">
        <ele>1452.3</ele>
        <time>2016-03-11T09:15:36Z</time>
      </trkpt>
      <trkpt lat="42.99177" lon="-0.21064">
        <ele>1453</ele>
        <time>2016-03-11T09:15:41Z</time>
      </trkpt>
      <trkpt lat="42.9917" lon="-0.21068">
        <ele>1453.4</ele>
        <time>2016-03-11T09:15:46Z</time>
      </trkpt>
      <trkpt lat="42.99162" lon="-0.21073">
        <ele>1453.2</ele>
        <time>2016-03-11T09:15:51Z</time>
      </trkpt>
      <trkpt lat="42.99154" lon="-0.21077">
        <ele>1453.5</ele>
        <time>2016-03-11T09:15:56Z</time>
      </trkpt>
      <trkpt lat="42.99147" lon="-0.2108">
        <ele>1454.2</ele>
        <time>2016-03-11T09:16:01Z</time>
      </trkpt>
      <trkpt lat="42.99139" lon="-0.21085">
        <ele>1453.8</ele>
        <time>2016-03-11T09:16:06Z</time>
      </trkpt>
      <trkpt lat="42.99132" lon="-0.21089">
        <ele>1454.5</ele>
        <time>2016-03-11T09:16:11Z</time>
      </trkpt>
      <trkpt lat="42.99125" lon="-0.21094">
        <ele>1455</ele>
        <time>2016-03-11T09:16:16Z</time>
      </trkpt>
      <trkpt lat="42.99118" lon="-0.211">
        <ele>1455.4</ele>
        <time>2016-03-11T09:16:21Z</time>
      </trkpt>
      <trkpt lat="42.99112" lon="-0.21106">
        <ele>1457.2</ele>
        <time>2016-03-11T09:16:29Z</time>
      </trkpt>
      <trkpt lat="42.99111" lon="-0.21106">
        <ele>1457</ele>
        <time>2016-03-11T09:16:30Z</time>
      </trkpt>
      <trkpt lat="42.991" lon="-0.2112">
        <ele>1457.3</ele>
        <time>2016-03-11T09:17:12Z</time>
      </trkpt>
      <trkpt lat="42.99095" lon="-0.21129">
        <ele>1458.1</ele>
        <time>2016-03-11T09:17:26Z</time>
      </trkpt>
      <trkpt lat="42.99091" lon="-0.2114">
        <ele>1458.4</ele>
        <time>2016-03-11T09:17:33Z</time>
      </trkpt>
      <trkpt lat="42.9909" lon="-0.21142">
        <ele>1458.7</ele>
        <time>2016-03-11T09:17:34Z</time>
      </trkpt>
      <trkpt lat="42.99079" lon="-0.21154">
        <ele>1458.6</ele>
        <time>2016-03-11T09:18:28Z</time>
      </trkpt>
      <trkpt lat="42.99076" lon="-0.21166">
        <ele>1460.6</ele>
        <time>2016-03-11T09:18:34Z</time>
      </trkpt>
      <trkpt lat="42.99075" lon="-0.21167">
        <ele>1460.9</ele>
        <time>2016-03-11T09:18:35Z</time>
      </trkpt>
      <trkpt lat="42.99073" lon="-0.21188">
        <ele>1461.1</ele>
        <time>2016-03-11T09:18:45Z</time>
      </trkpt>
      <trkpt lat="42.99072" lon="-0.21198">
        <ele>1461.8</ele>
        <time>2016-03-11T09:18:51Z</time>
      </trkpt>
      <trkpt lat="42.99067" lon="-0.21208">
        <ele>1462.8</ele>
        <time>2016-03-11T09:18:57Z</time>
      </trkpt>
      <trkpt lat="42.99063" lon="-0.21217">
        <ele>1463.7</ele>
        <time>2016-03-11T09:19:02Z</time>
      </trkpt>
      <trkpt lat="42.99059" lon="-0.21225">
        <ele>1463.8</ele>
        <time>2016-03-11T09:19:07Z</time>
      </trkpt>
      <trkpt lat="42.99054" lon="-0.21235">
        <ele>1464.1</ele>
        <time>2016-03-11T09:19:12Z</time>
      </trkpt>
      <trkpt lat="42.99049" lon="-0.21244">
        <ele>1463.9</ele>
        <time>2016-03-11T09:19:18Z</time>
      </trkpt>
      <trkpt lat="42.99043" lon="-0.21252">
        <ele>1464.4</ele>
        <time>2016-03-11T09:19:23Z</time>
      </trkpt>
      <trkpt lat="42.99036" lon="-0.21259">
        <ele>1465.7</ele>
        <time>2016-03-11T09:19:29Z</time>
      </trkpt>
      <trkpt lat="42.99031" lon="-0.21266">
        <ele>1466.5</ele>
        <time>2016-03-11T09:19:34Z</time>
      </trkpt>
      <trkpt lat="42.99025" lon="-0.21274">
        <ele>1466.3</ele>
        <time>2016-03-11T09:19:39Z</time>
      </trkpt>
      <trkpt lat="42.99024" lon="-0.21276">
        <ele>1466.8</ele>
        <time>2016-03-11T09:19:40Z</time>
      </trkpt>
      <trkpt lat="42.99016" lon="-0.21294">
        <ele>1467.4</ele>
        <time>2016-03-11T09:19:49Z</time>
      </trkpt>
      <trkpt lat="42.99013" lon="-0.21306">
        <ele>1467.7</ele>
        <time>2016-03-11T09:19:54Z</time>
      </trkpt>
      <trkpt lat="42.99011" lon="-0.21317">
        <ele>1468.4</ele>
        <time>2016-03-11T09:20:00Z</time>
      </trkpt>
      <trkpt lat="42.99008" lon="-0.21327">
        <ele>1468.6</ele>
        <time>2016-03-11T09:20:06Z</time>
      </trkpt>
      <trkpt lat="42.99002" lon="-0.21336">
        <ele>1469.6</ele>
        <time>2016-03-11T09:20:12Z</time>
      </trkpt>
      <trkpt lat="42.98997" lon="-0.21345">
        <ele>1471.2</ele>
        <time>2016-03-11T09:20:18Z</time>
      </trkpt>
      <trkpt lat="42.98991" lon="-0.21353">
        <ele>1471.9</ele>
        <time>2016-03-11T09:20:24Z</time>
      </trkpt>
      <trkpt lat="42.98985" lon="-0.21359">
        <ele>1473.1</ele>
        <time>2016-03-11T09:20:30Z</time>
      </trkpt>
      <trkpt lat="42.98977" lon="-0.21364">
        <ele>1474.4</ele>
        <time>2016-03-11T09:20:37Z</time>
      </trkpt>
      <trkpt lat="42.98969" lon="-0.21367">
        <ele>1474.1</ele>
        <time>2016-03-11T09:20:43Z</time>
      </trkpt>
      <trkpt lat="42.98967" lon="-0.21367">
        <ele>1474.6</ele>
        <time>2016-03-11T09:20:44Z</time>
      </trkpt>
      <trkpt lat="42.98954" lon="-0.21374">
        <ele>1476</ele>
        <time>2016-03-11T09:20:56Z</time>
      </trkpt>
      <trkpt lat="42.98946" lon="-0.21378">
        <ele>1477.7</ele>
        <time>2016-03-11T09:21:02Z</time>
      </trkpt>
      <trkpt lat="42.98941" lon="-0.21386">
        <ele>1477.5</ele>
        <time>2016-03-11T09:21:08Z</time>
      </trkpt>
      <trkpt lat="42.98937" lon="-0.21396">
        <ele>1478.8</ele>
        <time>2016-03-11T09:21:14Z</time>
      </trkpt>
      <trkpt lat="42.98932" lon="-0.21407">
        <ele>1479.7</ele>
        <time>2016-03-11T09:21:20Z</time>
      </trkpt>
      <trkpt lat="42.98928" lon="-0.21416">
        <ele>1480.3</ele>
        <time>2016-03-11T09:21:26Z</time>
      </trkpt>
      <trkpt lat="42.98925" lon="-0.21427">
        <ele>1480.9</ele>
        <time>2016-03-11T09:21:32Z</time>
      </trkpt>
      <trkpt lat="42.98921" lon="-0.21438">
        <ele>1481.2</ele>
        <time>2016-03-11T09:21:38Z</time>
      </trkpt>
      <trkpt lat="42.98917" lon="-0.21447">
        <ele>1481.5</ele>
        <time>2016-03-11T09:21:43Z</time>
      </trkpt>
      <trkpt lat="42.98912" lon="-0.21456">
        <ele>1482</ele>
        <time>2016-03-11T09:21:48Z</time>
      </trkpt>
      <trkpt lat="42.98911" lon="-0.21458">
        <ele>1482.2</ele>
        <time>2016-03-11T09:21:49Z</time>
      </trkpt>
      <trkpt lat="42.98902" lon="-0.21475">
        <ele>1482.6</ele>
        <time>2016-03-11T09:21:58Z</time>
      </trkpt>
      <trkpt lat="42.98899" lon="-0.21484">
        <ele>1482.8</ele>
        <time>2016-03-11T09:22:03Z</time>
      </trkpt>
      <trkpt lat="42.98895" lon="-0.21495">
        <ele>1483.3</ele>
        <time>2016-03-11T09:22:08Z</time>
      </trkpt>
      <trkpt lat="42.98891" lon="-0.21506">
        <ele>1483.3</ele>
        <time>2016-03-11T09:22:14Z</time>
      </trkpt>
      <trkpt lat="42.98887" lon="-0.21516">
        <ele>1484.6</ele>
        <time>2016-03-11T09:22:19Z</time>
      </trkpt>
      <trkpt lat="42.98884" lon="-0.21525">
        <ele>1484.5</ele>
        <time>2016-03-11T09:22:23Z</time>
      </trkpt>
      <trkpt lat="42.98881" lon="-0.21536">
        <ele>1484.7</ele>
        <time>2016-03-11T09:22:28Z</time>
      </trkpt>
      <trkpt lat="42.98876" lon="-0.21546">
        <ele>1485.3</ele>
        <time>2016-03-11T09:22:34Z</time>
      </trkpt>
      <trkpt lat="42.98872" lon="-0.21555">
        <ele>1486.1</ele>
        <time>2016-03-11T09:22:39Z</time>
      </trkpt>
      <trkpt lat="42.98865" lon="-0.21561">
        <ele>1488.4</ele>
        <time>2016-03-11T09:22:46Z</time>
      </trkpt>
      <trkpt lat="42.98858" lon="-0.21566">
        <ele>1489.1</ele>
        <time>2016-03-11T09:22:52Z</time>
      </trkpt>
      <trkpt lat="42.98857" lon="-0.21566">
        <ele>1489</ele>
        <time>2016-03-11T09:22:53Z</time>
      </trkpt>
      <trkpt lat="42.98844" lon="-0.21576">
        <ele>1490.4</ele>
        <time>2016-03-11T09:23:03Z</time>
      </trkpt>
      <trkpt lat="42.98838" lon="-0.21582">
        <ele>1491.1</ele>
        <time>2016-03-11T09:23:08Z</time>
      </trkpt>
      <trkpt lat="42.98832" lon="-0.21589">
        <ele>1491.1</ele>
        <time>2016-03-11T09:23:13Z</time>
      </trkpt>
      <trkpt lat="42.98826" lon="-0.21598">
        <ele>1492.6</ele>
        <time>2016-03-11T09:23:19Z</time>
      </trkpt>
      <trkpt lat="42.9882" lon="-0.21607">
        <ele>1492.8</ele>
        <time>2016-03-11T09:23:25Z</time>
      </trkpt>
      <trkpt lat="42.98813" lon="-0.21613">
        <ele>1494.1</ele>
        <time>2016-03-11T09:23:30Z</time>
      </trkpt>
      <trkpt lat="42.98806" lon="-0.21616">
        <ele>1494.5</ele>
        <time>2016-03-11T09:23:35Z</time>
      </trkpt>
      <trkpt lat="42.98799" lon="-0.21622">
        <ele>1495.1</ele>
        <time>2016-03-11T09:23:40Z</time>
      </trkpt>
      <trkpt lat="42.98791" lon="-0.21626">
        <ele>1495.9</ele>
        <time>2016-03-11T09:23:45Z</time>
      </trkpt>
      <trkpt lat="42.98783" lon="-0.21628">
        <ele>1496.1</ele>
        <time>2016-03-11T09:23:50Z</time>
      </trkpt>
      <trkpt lat="42.98775" lon="-0.2163">
        <ele>1496.5</ele>
        <time>2016-03-11T09:23:55Z</time>
      </trkpt>
      <trkpt lat="42.98774" lon="-0.2163">
        <ele>1496.3</ele>
        <time>2016-03-11T09:23:56Z</time>
      </trkpt>
      <trkpt lat="42.98759" lon="-0.21633">
        <ele>1496.7</ele>
        <time>2016-03-11T09:24:06Z</time>
      </trkpt>
      <trkpt lat="42.98751" lon="-0.21636">
        <ele>1496.5</ele>
        <time>2016-03-11T09:24:11Z</time>
      </trkpt>
      <trkpt lat="42.98742" lon="-0.21636">
        <ele>1497.6</ele>
        <time>2016-03-11T09:24:16Z</time>
      </trkpt>
      <trkpt lat="42.98734" lon="-0.21636">
        <ele>1497.9</ele>
        <time>2016-03-11T09:24:21Z</time>
      </trkpt>
      <trkpt lat="42.98726" lon="-0.21635">
        <ele>1498.3</ele>
        <time>2016-03-11T09:24:26Z</time>
      </trkpt>
      <trkpt lat="42.98718" lon="-0.21634">
        <ele>1498.9</ele>
        <time>2016-03-11T09:24:32Z</time>
      </trkpt>
      <trkpt lat="42.98711" lon="-0.21632">
        <ele>1499.1</ele>
        <time>2016-03-11T09:24:36Z</time>
      </trkpt>
      <trkpt lat="42.98702" lon="-0.2163">
        <ele>1501.1</ele>
        <time>2016-03-11T09:24:41Z</time>
      </trkpt>
      <trkpt lat="42.98695" lon="-0.21632">
        <ele>1501.6</ele>
        <time>2016-03-11T09:24:44Z</time>
      </trkpt>
      <trkpt lat="42.98689" lon="-0.21633">
        <ele>1501.2</ele>
        <time>2016-03-11T09:24:46Z</time>
      </trkpt>
      <trkpt lat="42.98681" lon="-0.21634">
        <ele>1500.3</ele>
        <time>2016-03-11T09:24:48Z</time>
      </trkpt>
      <trkpt lat="42.98674" lon="-0.21635">
        <ele>1499</ele>
        <time>2016-03-11T09:24:50Z</time>
      </trkpt>
      <trkpt lat="42.98666" lon="-0.21639">
        <ele>1497.9</ele>
        <time>2016-03-11T09:24:53Z</time>
      </trkpt>
      <trkpt lat="42.98657" lon="-0.21641">
        <ele>1498.3</ele>
        <time>2016-03-11T09:24:57Z</time>
      </trkpt>
      <trkpt lat="42.98656" lon="-0.21641">
        <ele>1498.4</ele>
        <time>2016-03-11T09:24:58Z</time>
      </trkpt>
      <trkpt lat="42.98642" lon="-0.21645">
        <ele>1498.9</ele>
        <time>2016-03-11T09:25:05Z</time>
      </trkpt>
      <trkpt lat="42.98633" lon="-0.21647">
        <ele>1499.1</ele>
        <time>2016-03-11T09:25:10Z</time>
      </trkpt>
      <trkpt lat="42.9864" lon="-0.21652">
        <ele>1500.7</ele>
        <time>2016-03-11T09:25:24Z</time>
      </trkpt>
      <trkpt lat="42.98648" lon="-0.21652">
        <ele>1502.2</ele>
        <time>2016-03-11T09:25:29Z</time>
      </trkpt>
      <trkpt lat="42.98657" lon="-0.2165">
        <ele>1502.5</ele>
        <time>2016-03-11T09:25:34Z</time>
      </trkpt>
      <trkpt lat="42.98665" lon="-0.21648">
        <ele>1502.3</ele>
        <time>2016-03-11T09:25:40Z</time>
      </trkpt>
      <trkpt lat="42.98674" lon="-0.21647">
        <ele>1502.8</ele>
        <time>2016-03-11T09:25:45Z</time>
      </trkpt>
      <trkpt lat="42.98682" lon="-0.21649">
        <ele>1502.7</ele>
        <time>2016-03-11T09:25:50Z</time>
      </trkpt>
      <trkpt lat="42.9869" lon="-0.21649">
        <ele>1504.9</ele>
        <time>2016-03-11T09:25:56Z</time>
      </trkpt>
      <trkpt lat="42.98699" lon="-0.21652">
        <ele>1505.5</ele>
        <time>2016-03-11T09:26:02Z</time>
      </trkpt>
      <trkpt lat="42.987" lon="-0.21653">
        <ele>1505.7</ele>
        <time>2016-03-11T09:26:03Z</time>
      </trkpt>
      <trkpt lat="42.98714" lon="-0.2166">
        <ele>1506.7</ele>
        <time>2016-03-11T09:26:14Z</time>
      </trkpt>
      <trkpt lat="42.98721" lon="-0.21663">
        <ele>1508</ele>
        <time>2016-03-11T09:26:19Z</time>
      </trkpt>
      <trkpt lat="42.98728" lon="-0.21666">
        <ele>1508.8</ele>
        <time>2016-03-11T09:26:24Z</time>
      </trkpt>
      <trkpt lat="42.98736" lon="-0.2167">
        <ele>1508.8</ele>
        <time>2016-03-11T09:26:29Z</time>
      </trkpt>
      <trkpt lat="42.98745" lon="-0.21672">
        <ele>1509.2</ele>
        <time>2016-03-11T09:26:34Z</time>
      </trkpt>
      <trkpt lat="42.98753" lon="-0.21674">
        <ele>1509.7</ele>
        <time>2016-03-11T09:26:39Z</time>
      </trkpt>
      <trkpt lat="42.98761" lon="-0.21676">
        <ele>1510.7</ele>
        <time>2016-03-11T09:26:44Z</time>
      </trkpt>
      <trkpt lat="42.98769" lon="-0.21677">
        <ele>1510.8</ele>
        <time>2016-03-11T09:26:49Z</time>
      </trkpt>
      <trkpt lat="42.98778" lon="-0.21676">
        <ele>1511.9</ele>
        <time>2016-03-11T09:26:54Z</time>
      </trkpt>
      <trkpt lat="42.98786" lon="-0.21674">
        <ele>1512.8</ele>
        <time>2016-03-11T09:27:00Z</time>
      </trkpt>
      <trkpt lat="42.98794" lon="-0.21672">
        <ele>1513.8</ele>
        <time>2016-03-11T09:27:06Z</time>
      </trkpt>
      <trkpt lat="42.98795" lon="-0.21671">
        <ele>1514</ele>
        <time>2016-03-11T09:27:07Z</time>
      </trkpt>
      <trkpt lat="42.98809" lon="-0.21664">
        <ele>1515.1</ele>
        <time>2016-03-11T09:27:17Z</time>
      </trkpt>
      <trkpt lat="42.98816" lon="-0.21659">
        <ele>1515.4</ele>
        <time>2016-03-11T09:27:22Z</time>
      </trkpt>
      <trkpt lat="42.98825" lon="-0.21657">
        <ele>1516.1</ele>
        <time>2016-03-11T09:27:27Z</time>
      </trkpt>
      <trkpt lat="42.98833" lon="-0.21654">
        <ele>1516.8</ele>
        <time>2016-03-11T09:27:32Z</time>
      </trkpt>
      <trkpt lat="42.98841" lon="-0.21653">
        <ele>1516.9</ele>
        <time>2016-03-11T09:27:37Z</time>
      </trkpt>
      <trkpt lat="42.98849" lon="-0.21653">
        <ele>1517.8</ele>
        <time>2016-03-11T09:27:42Z</time>
      </trkpt>
      <trkpt lat="42.98856" lon="-0.21656">
        <ele>1518.6</ele>
        <time>2016-03-11T09:27:46Z</time>
      </trkpt>
      <trkpt lat="42.98863" lon="-0.21661">
        <ele>1518.1</ele>
        <time>2016-03-11T09:27:50Z</time>
      </trkpt>
      <trkpt lat="42.98869" lon="-0.21669">
        <ele>1518.2</ele>
        <time>2016-03-11T09:27:55Z</time>
      </trkpt>
      <trkpt lat="42.98874" lon="-0.21679">
        <ele>1518.1</ele>
        <time>2016-03-11T09:28:00Z</time>
      </trkpt>
      <trkpt lat="42.98879" lon="-0.21688">
        <ele>1517.9</ele>
        <time>2016-03-11T09:28:06Z</time>
      </trkpt>
      <trkpt lat="42.98882" lon="-0.21699">
        <ele>1518.9</ele>
        <time>2016-03-11T09:28:12Z</time>
      </trkpt>
      <trkpt lat="42.98882" lon="-0.21701">
        <ele>1518.8</ele>
        <time>2016-03-11T09:28:13Z</time>
      </trkpt>
      <trkpt lat="42.98887" lon="-0.21721">
        <ele>1519.5</ele>
        <time>2016-03-11T09:28:23Z</time>
      </trkpt>
      <trkpt lat="42.98887" lon="-0.21731">
        <ele>1520.2</ele>
        <time>2016-03-11T09:28:29Z</time>
      </trkpt>
      <trkpt lat="42.98887" lon="-0.21742">
        <ele>1520.7</ele>
        <time>2016-03-11T09:28:35Z</time>
      </trkpt>
      <trkpt lat="42.98887" lon="-0.21753">
        <ele>1521.9</ele>
        <time>2016-03-11T09:28:41Z</time>
      </trkpt>
      <trkpt lat="42.98887" lon="-0.21765">
        <ele>1522.9</ele>
        <time>2016-03-11T09:28:47Z</time>
      </trkpt>
      <trkpt lat="42.98887" lon="-0.21777">
        <ele>1524.3</ele>
        <time>2016-03-11T09:28:53Z</time>
      </trkpt>
      <trkpt lat="42.98888" lon="-0.21787">
        <ele>1525.1</ele>
        <time>2016-03-11T09:28:58Z</time>
      </trkpt>
      <trkpt lat="42.98889" lon="-0.21797">
        <ele>1524.9</ele>
        <time>2016-03-11T09:29:03Z</time>
      </trkpt>
      <trkpt lat="42.9889" lon="-0.21808">
        <ele>1525.4</ele>
        <time>2016-03-11T09:29:08Z</time>
      </trkpt>
      <trkpt lat="42.98892" lon="-0.21818">
        <ele>1526.3</ele>
        <time>2016-03-11T09:29:13Z</time>
      </trkpt>
      <trkpt lat="42.98893" lon="-0.2182">
        <ele>1526.4</ele>
        <time>2016-03-11T09:29:14Z</time>
      </trkpt>
      <trkpt lat="42.98895" lon="-0.21839">
        <ele>1525.8</ele>
        <time>2016-03-11T09:29:23Z</time>
      </trkpt>
      <trkpt lat="42.98894" lon="-0.21849">
        <ele>1527.1</ele>
        <time>2016-03-11T09:29:28Z</time>
      </trkpt>
      <trkpt lat="42.98892" lon="-0.2186">
        <ele>1527.9</ele>
        <time>2016-03-11T09:29:33Z</time>
      </trkpt>
      <trkpt lat="42.98888" lon="-0.21871">
        <ele>1528</ele>
        <time>2016-03-11T09:29:39Z</time>
      </trkpt>
      <trkpt lat="42.98885" lon="-0.2188">
        <ele>1529.2</ele>
        <time>2016-03-11T09:29:44Z</time>
      </trkpt>
      <trkpt lat="42.98883" lon="-0.21891">
        <ele>1529.5</ele>
        <time>2016-03-11T09:29:50Z</time>
      </trkpt>
      <trkpt lat="42.9888" lon="-0.21901">
        <ele>1529.5</ele>
        <time>2016-03-11T09:29:55Z</time>
      </trkpt>
      <trkpt lat="42.98878" lon="-0.21913">
        <ele>1530.5</ele>
        <time>2016-03-11T09:30:01Z</time>
      </trkpt>
      <trkpt lat="42.98877" lon="-0.21923">
        <ele>1531</ele>
        <time>2016-03-11T09:30:06Z</time>
      </trkpt>
      <trkpt lat="42.98876" lon="-0.21934">
        <ele>1532.7</ele>
        <time>2016-03-11T09:30:12Z</time>
      </trkpt>
      <trkpt lat="42.98875" lon="-0.21944">
        <ele>1532.3</ele>
        <time>2016-03-11T09:30:17Z</time>
      </trkpt>
      <trkpt lat="42.98875" lon="-0.21946">
        <ele>1532.2</ele>
        <time>2016-03-11T09:30:18Z</time>
      </trkpt>
      <trkpt lat="42.9887" lon="-0.21965">
        <ele>1532.7</ele>
        <time>2016-03-11T09:30:27Z</time>
      </trkpt>
      <trkpt lat="42.98868" lon="-0.21977">
        <ele>1533.9</ele>
        <time>2016-03-11T09:30:33Z</time>
      </trkpt>
      <trkpt lat="42.98865" lon="-0.21987">
        <ele>1534.6</ele>
        <time>2016-03-11T09:30:38Z</time>
      </trkpt>
      <trkpt lat="42.98863" lon="-0.21997">
        <ele>1534.7</ele>
        <time>2016-03-11T09:30:43Z</time>
      </trkpt>
      <trkpt lat="42.98861" lon="-0.22009">
        <ele>1535.2</ele>
        <time>2016-03-11T09:30:48Z</time>
      </trkpt>
      <trkpt lat="42.98859" lon="-0.22019">
        <ele>1535.3</ele>
        <time>2016-03-11T09:30:52Z</time>
      </trkpt>
      <trkpt lat="42.98859" lon="-0.22028">
        <ele>1535.6</ele>
        <time>2016-03-11T09:30:56Z</time>
      </trkpt>
      <trkpt lat="42.98859" lon="-0.22039">
        <ele>1535.2</ele>
        <time>2016-03-11T09:31:00Z</time>
      </trkpt>
      <trkpt lat="42.98859" lon="-0.22051">
        <ele>1534.8</ele>
        <time>2016-03-11T09:31:05Z</time>
      </trkpt>
      <trkpt lat="42.98859" lon="-0.22061">
        <ele>1535.8</ele>
        <time>2016-03-11T09:31:09Z</time>
      </trkpt>
      <trkpt lat="42.9886" lon="-0.22072">
        <ele>1535.6</ele>
        <time>2016-03-11T09:31:13Z</time>
      </trkpt>
      <trkpt lat="42.98862" lon="-0.22083">
        <ele>1535.4</ele>
        <time>2016-03-11T09:31:17Z</time>
      </trkpt>
      <trkpt lat="42.98863" lon="-0.22093">
        <ele>1534.8</ele>
        <time>2016-03-11T09:31:21Z</time>
      </trkpt>
      <trkpt lat="42.98863" lon="-0.22096">
        <ele>1534.6</ele>
        <time>2016-03-11T09:31:22Z</time>
      </trkpt>
      <trkpt lat="42.98866" lon="-0.22114">
        <ele>1534.1</ele>
        <time>2016-03-11T09:31:29Z</time>
      </trkpt>
      <trkpt lat="42.98868" lon="-0.22125">
        <ele>1533.9</ele>
        <time>2016-03-11T09:31:34Z</time>
      </trkpt>
      <trkpt lat="42.98871" lon="-0.22137">
        <ele>1534.4</ele>
        <time>2016-03-11T09:31:39Z</time>
      </trkpt>
      <trkpt lat="42.98875" lon="-0.22147">
        <ele>1534.4</ele>
        <time>2016-03-11T09:31:44Z</time>
      </trkpt>
      <trkpt lat="42.98878" lon="-0.22157">
        <ele>1534.5</ele>
        <time>2016-03-11T09:31:48Z</time>
      </trkpt>
      <trkpt lat="42.98883" lon="-0.22166">
        <ele>1534.6</ele>
        <time>2016-03-11T09:31:53Z</time>
      </trkpt>
      <trkpt lat="42.98891" lon="-0.22171">
        <ele>1534.9</ele>
        <time>2016-03-11T09:31:59Z</time>
      </trkpt>
      <trkpt lat="42.98897" lon="-0.22173">
        <ele>1535.1</ele>
        <time>2016-03-11T09:32:02Z</time>
      </trkpt>
      <trkpt lat="42.98905" lon="-0.22174">
        <ele>1535.6</ele>
        <time>2016-03-11T09:32:05Z</time>
      </trkpt>
      <trkpt lat="42.98913" lon="-0.22178">
        <ele>1534.9</ele>
        <time>2016-03-11T09:32:09Z</time>
      </trkpt>
      <trkpt lat="42.9892" lon="-0.22182">
        <ele>1534.9</ele>
        <time>2016-03-11T09:32:14Z</time>
      </trkpt>
      <trkpt lat="42.98928" lon="-0.22189">
        <ele>1535.3</ele>
        <time>2016-03-11T09:32:19Z</time>
      </trkpt>
      <trkpt lat="42.98934" lon="-0.22195">
        <ele>1535.2</ele>
        <time>2016-03-11T09:32:23Z</time>
      </trkpt>
      <trkpt lat="42.98936" lon="-0.22196">
        <ele>1535.3</ele>
        <time>2016-03-11T09:32:24Z</time>
      </trkpt>
      <trkpt lat="42.98947" lon="-0.22205">
        <ele>1537</ele>
        <time>2016-03-11T09:32:31Z</time>
      </trkpt>
      <trkpt lat="42.98954" lon="-0.22211">
        <ele>1536.7</ele>
        <time>2016-03-11T09:32:35Z</time>
      </trkpt>
      <trkpt lat="42.98959" lon="-0.22218">
        <ele>1536.3</ele>
        <time>2016-03-11T09:32:39Z</time>
      </trkpt>
      <trkpt lat="42.98964" lon="-0.22225">
        <ele>1536.9</ele>
        <time>2016-03-11T09:32:43Z</time>
      </trkpt>
      <trkpt lat="42.9897" lon="-0.22232">
        <ele>1537</ele>
        <time>2016-03-11T09:32:47Z</time>
      </trkpt>
      <trkpt lat="42.98976" lon="-0.2224">
        <ele>1536.8</ele>
        <time>2016-03-11T09:32:51Z</time>
      </trkpt>
      <trkpt lat="42.98981" lon="-0.22247">
        <ele>1536.3</ele>
        <time>2016-03-11T09:32:55Z</time>
      </trkpt>
      <trkpt lat="42.98988" lon="-0.22254">
        <ele>1535.8</ele>
        <time>2016-03-11T09:33:00Z</time>
      </trkpt>
      <trkpt lat="42.98994" lon="-0.22261">
        <ele>1535.6</ele>
        <time>2016-03-11T09:33:04Z</time>
      </trkpt>
      <trkpt lat="42.99001" lon="-0.22267">
        <ele>1535</ele>
        <time>2016-03-11T09:33:08Z</time>
      </trkpt>
      <trkpt lat="42.99007" lon="-0.22274">
        <ele>1534.5</ele>
        <time>2016-03-11T09:33:12Z</time>
      </trkpt>
      <trkpt lat="42.99013" lon="-0.2228">
        <ele>1534.6</ele>
        <time>2016-03-11T09:33:16Z</time>
      </trkpt>
      <trkpt lat="42.99019" lon="-0.22286">
        <ele>1535.2</ele>
        <time>2016-03-11T09:33:20Z</time>
      </trkpt>
      <trkpt lat="42.99025" lon="-0.22294">
        <ele>1535.2</ele>
        <time>2016-03-11T09:33:25Z</time>
      </trkpt>
      <trkpt lat="42.99026" lon="-0.22296">
        <ele>1534.8</ele>
        <time>2016-03-11T09:33:26Z</time>
      </trkpt>
      <trkpt lat="42.99038" lon="-0.22311">
        <ele>1536.6</ele>
        <time>2016-03-11T09:33:35Z</time>
      </trkpt>
      <trkpt lat="42.99044" lon="-0.22319">
        <ele>1537.2</ele>
        <time>2016-03-11T09:33:40Z</time>
      </trkpt>
      <trkpt lat="42.99048" lon="-0.22328">
        <ele>1537.1</ele>
        <time>2016-03-11T09:33:45Z</time>
      </trkpt>
      <trkpt lat="42.99052" lon="-0.22336">
        <ele>1536.8</ele>
        <time>2016-03-11T09:33:49Z</time>
      </trkpt>
      <trkpt lat="42.99055" lon="-0.22348">
        <ele>1537</ele>
        <time>2016-03-11T09:33:54Z</time>
      </trkpt>
      <trkpt lat="42.99058" lon="-0.22358">
        <ele>1537.2</ele>
        <time>2016-03-11T09:33:59Z</time>
      </trkpt>
      <trkpt lat="42.9906" lon="-0.22368">
        <ele>1536.8</ele>
        <time>2016-03-11T09:34:04Z</time>
      </trkpt>
      <trkpt lat="42.99064" lon="-0.22379">
        <ele>1537.6</ele>
        <time>2016-03-11T09:34:09Z</time>
      </trkpt>
      <trkpt lat="42.99067" lon="-0.2239">
        <ele>1537.3</ele>
        <time>2016-03-11T09:34:14Z</time>
      </trkpt>
      <trkpt lat="42.99071" lon="-0.224">
        <ele>1537.8</ele>
        <time>2016-03-11T09:34:18Z</time>
      </trkpt>
      <trkpt lat="42.99074" lon="-0.2241">
        <ele>1537.2</ele>
        <time>2016-03-11T09:34:21Z</time>
      </trkpt>
      <trkpt lat="42.99076" lon="-0.22417">
        <ele>1535.8</ele>
        <time>2016-03-11T09:34:23Z</time>
      </trkpt>
      <trkpt lat="42.99079" lon="-0.22426">
        <ele>1535.7</ele>
        <time>2016-03-11T09:34:25Z</time>
      </trkpt>
      <trkpt lat="42.99082" lon="-0.22435">
        <ele>1535.7</ele>
        <time>2016-03-11T09:34:27Z</time>
      </trkpt>
      <trkpt lat="42.99083" lon="-0.2244">
        <ele>1535.5</ele>
        <time>2016-03-11T09:34:28Z</time>
      </trkpt>
      <trkpt lat="42.99087" lon="-0.22455">
        <ele>1534.9</ele>
        <time>2016-03-11T09:34:31Z</time>
      </trkpt>
      <trkpt lat="42.99089" lon="-0.22464">
        <ele>1534.1</ele>
        <time>2016-03-11T09:34:34Z</time>
      </trkpt>
      <trkpt lat="42.99092" lon="-0.22473">
        <ele>1533.5</ele>
        <time>2016-03-11T09:34:37Z</time>
      </trkpt>
      <trkpt lat="42.99095" lon="-0.22482">
        <ele>1533.3</ele>
        <time>2016-03-11T09:34:40Z</time>
      </trkpt>
      <trkpt lat="42.99096" lon="-0.22493">
        <ele>1533.4</ele>
        <time>2016-03-11T09:34:44Z</time>
      </trkpt>
      <trkpt lat="42.991" lon="-0.22503">
        <ele>1532.8</ele>
        <time>2016-03-11T09:34:48Z</time>
      </trkpt>
      <trkpt lat="42.99105" lon="-0.22513">
        <ele>1532.7</ele>
        <time>2016-03-11T09:34:52Z</time>
      </trkpt>
      <trkpt lat="42.9911" lon="-0.22522">
        <ele>1533.2</ele>
        <time>2016-03-11T09:34:56Z</time>
      </trkpt>
      <trkpt lat="42.99115" lon="-0.2253">
        <ele>1533</ele>
        <time>2016-03-11T09:35:00Z</time>
      </trkpt>
      <trkpt lat="42.99121" lon="-0.22539">
        <ele>1534.1</ele>
        <time>2016-03-11T09:35:05Z</time>
      </trkpt>
      <trkpt lat="42.99126" lon="-0.22548">
        <ele>1534</ele>
        <time>2016-03-11T09:35:09Z</time>
      </trkpt>
      <trkpt lat="42.99131" lon="-0.22558">
        <ele>1534</ele>
        <time>2016-03-11T09:35:14Z</time>
      </trkpt>
      <trkpt lat="42.99136" lon="-0.22568">
        <ele>1534.5</ele>
        <time>2016-03-11T09:35:19Z</time>
      </trkpt>
      <trkpt lat="42.99141" lon="-0.22576">
        <ele>1534.1</ele>
        <time>2016-03-11T09:35:25Z</time>
      </trkpt>
      <trkpt lat="42.99144" lon="-0.22587">
        <ele>1533.4</ele>
        <time>2016-03-11T09:36:06Z</time>
      </trkpt>
      <trkpt lat="42.99144" lon="-0.22588">
        <ele>1533.6</ele>
        <time>2016-03-11T09:36:07Z</time>
      </trkpt>
      <trkpt lat="42.99147" lon="-0.22611">
        <ele>1533.2</ele>
        <time>2016-03-11T09:36:26Z</time>
      </trkpt>
      <trkpt lat="42.99151" lon="-0.22621">
        <ele>1530.8</ele>
        <time>2016-03-11T09:39:13Z</time>
      </trkpt>
      <trkpt lat="42.99151" lon="-0.22622">
        <ele>1530.9</ele>
        <time>2016-03-11T09:39:14Z</time>
      </trkpt>
      <trkpt lat="42.99143" lon="-0.22625">
        <ele>1531.1</ele>
        <time>2016-03-11T09:42:49Z</time>
      </trkpt>
      <trkpt lat="42.99135" lon="-0.22642">
        <ele>1530.4</ele>
        <time>2016-03-11T09:42:56Z</time>
      </trkpt>
      <trkpt lat="42.9913" lon="-0.2265">
        <ele>1530.6</ele>
        <time>2016-03-11T09:42:59Z</time>
      </trkpt>
      <trkpt lat="42.99125" lon="-0.22656">
        <ele>1530.3</ele>
        <time>2016-03-11T09:43:02Z</time>
      </trkpt>
      <trkpt lat="42.9912" lon="-0.22663">
        <ele>1529.6</ele>
        <time>2016-03-11T09:43:05Z</time>
      </trkpt>
      <trkpt lat="42.99114" lon="-0.22668">
        <ele>1529.6</ele>
        <time>2016-03-11T09:43:08Z</time>
      </trkpt>
      <trkpt lat="42.99107" lon="-0.22674">
        <ele>1529.2</ele>
        <time>2016-03-11T09:43:12Z</time>
      </trkpt>
      <trkpt lat="42.99101" lon="-0.2268">
        <ele>1529.5</ele>
        <time>2016-03-11T09:43:16Z</time>
      </trkpt>
      <trkpt lat="42.99094" lon="-0.22686">
        <ele>1528.8</ele>
        <time>2016-03-11T09:43:20Z</time>
      </trkpt>
      <trkpt lat="42.99087" lon="-0.22692">
        <ele>1528.5</ele>
        <time>2016-03-11T09:43:24Z</time>
      </trkpt>
      <trkpt lat="42.99081" lon="-0.22698">
        <ele>1528.6</ele>
        <time>2016-03-11T09:43:28Z</time>
      </trkpt>
      <trkpt lat="42.99073" lon="-0.22703">
        <ele>1529.3</ele>
        <time>2016-03-11T09:43:33Z</time>
      </trkpt>
      <trkpt lat="42.99065" lon="-0.22707">
        <ele>1529.3</ele>
        <time>2016-03-11T09:43:39Z</time>
      </trkpt>
      <trkpt lat="42.99058" lon="-0.2271">
        <ele>1530</ele>
        <time>2016-03-11T09:43:45Z</time>
      </trkpt>
      <trkpt lat="42.99049" lon="-0.22713">
        <ele>1529.9</ele>
        <time>2016-03-11T09:44:00Z</time>
      </trkpt>
      <trkpt lat="42.99048" lon="-0.22713">
        <ele>1530</ele>
        <time>2016-03-11T09:44:01Z</time>
      </trkpt>
      <trkpt lat="42.99033" lon="-0.22712">
        <ele>1530.6</ele>
        <time>2016-03-11T09:44:15Z</time>
      </trkpt>
      <trkpt lat="42.99024" lon="-0.22709">
        <ele>1530</ele>
        <time>2016-03-11T09:44:22Z</time>
      </trkpt>
      <trkpt lat="42.99017" lon="-0.22705">
        <ele>1531.3</ele>
        <time>2016-03-11T09:44:27Z</time>
      </trkpt>
      <trkpt lat="42.99009" lon="-0.22701">
        <ele>1530.9</ele>
        <time>2016-03-11T09:44:32Z</time>
      </trkpt>
      <trkpt lat="42.99002" lon="-0.22694">
        <ele>1531.1</ele>
        <time>2016-03-11T09:44:38Z</time>
      </trkpt>
      <trkpt lat="42.98995" lon="-0.22689">
        <ele>1531.8</ele>
        <time>2016-03-11T09:44:43Z</time>
      </trkpt>
      <trkpt lat="42.98988" lon="-0.22684">
        <ele>1532.2</ele>
        <time>2016-03-11T09:44:48Z</time>
      </trkpt>
      <trkpt lat="42.9898" lon="-0.22681">
        <ele>1532.9</ele>
        <time>2016-03-11T09:44:53Z</time>
      </trkpt>
      <trkpt lat="42.98972" lon="-0.22678">
        <ele>1534.2</ele>
        <time>2016-03-11T09:44:58Z</time>
      </trkpt>
      <trkpt lat="42.98964" lon="-0.22675">
        <ele>1534.5</ele>
        <time>2016-03-11T09:45:03Z</time>
      </trkpt>
      <trkpt lat="42.98963" lon="-0.22675">
        <ele>1534.7</ele>
        <time>2016-03-11T09:45:04Z</time>
      </trkpt>
      <trkpt lat="42.98947" lon="-0.22672">
        <ele>1533.7</ele>
        <time>2016-03-11T09:45:13Z</time>
      </trkpt>
      <trkpt lat="42.98939" lon="-0.22673">
        <ele>1535.3</ele>
        <time>2016-03-11T09:45:18Z</time>
      </trkpt>
      <trkpt lat="42.9893" lon="-0.22674">
        <ele>1534.9</ele>
        <time>2016-03-11T09:45:23Z</time>
      </trkpt>
      <trkpt lat="42.98924" lon="-0.22677">
        <ele>1534.9</ele>
        <time>2016-03-11T09:45:26Z</time>
      </trkpt>
      <trkpt lat="42.98917" lon="-0.2268">
        <ele>1535.2</ele>
        <time>2016-03-11T09:45:29Z</time>
      </trkpt>
      <trkpt lat="42.9891" lon="-0.22683">
        <ele>1534.8</ele>
        <time>2016-03-11T09:45:33Z</time>
      </trkpt>
      <trkpt lat="42.98903" lon="-0.22686">
        <ele>1535.6</ele>
        <time>2016-03-11T09:45:37Z</time>
      </trkpt>
      <trkpt lat="42.98895" lon="-0.22688">
        <ele>1535.1</ele>
        <time>2016-03-11T09:45:41Z</time>
      </trkpt>
      <trkpt lat="42.98887" lon="-0.22688">
        <ele>1534.9</ele>
        <time>2016-03-11T09:45:47Z</time>
      </trkpt>
      <trkpt lat="42.98878" lon="-0.22688">
        <ele>1535.6</ele>
        <time>2016-03-11T09:45:53Z</time>
      </trkpt>
      <trkpt lat="42.9887" lon="-0.22691">
        <ele>1536.4</ele>
        <time>2016-03-11T09:45:58Z</time>
      </trkpt>
      <trkpt lat="42.98863" lon="-0.22694">
        <ele>1535.9</ele>
        <time>2016-03-11T09:46:02Z</time>
      </trkpt>
      <trkpt lat="42.98855" lon="-0.22696">
        <ele>1535.8</ele>
        <time>2016-03-11T09:46:06Z</time>
      </trkpt>
      <trkpt lat="42.98854" lon="-0.22696">
        <ele>1535.5</ele>
        <time>2016-03-11T09:46:07Z</time>
      </trkpt>
      <trkpt lat="42.98838" lon="-0.22703">
        <ele>1536.3</ele>
        <time>2016-03-11T09:46:15Z</time>
      </trkpt>
      <trkpt lat="42.98831" lon="-0.22707">
        <ele>1536.8</ele>
        <time>2016-03-11T09:46:19Z</time>
      </trkpt>
      <trkpt lat="42.98823" lon="-0.2271">
        <ele>1536.7</ele>
        <time>2016-03-11T09:46:24Z</time>
      </trkpt>
      <trkpt lat="42.98815" lon="-0.22714">
        <ele>1537.4</ele>
        <time>2016-03-11T09:46:28Z</time>
      </trkpt>
      <trkpt lat="42.98807" lon="-0.22719">
        <ele>1536.8</ele>
        <time>2016-03-11T09:46:32Z</time>
      </trkpt>
      <trkpt lat="42.988" lon="-0.22723">
        <ele>1536.8</ele>
        <time>2016-03-11T09:46:36Z</time>
      </trkpt>
      <trkpt lat="42.98792" lon="-0.22727">
        <ele>1537.6</ele>
        <time>2016-03-11T09:46:41Z</time>
      </trkpt>
      <trkpt lat="42.98784" lon="-0.22731">
        <ele>1537.6</ele>
        <time>2016-03-11T09:46:45Z</time>
      </trkpt>
      <trkpt lat="42.98777" lon="-0.22736">
        <ele>1537.8</ele>
        <time>2016-03-11T09:46:49Z</time>
      </trkpt>
      <trkpt lat="42.9877" lon="-0.22739">
        <ele>1538.3</ele>
        <time>2016-03-11T09:46:53Z</time>
      </trkpt>
      <trkpt lat="42.98763" lon="-0.22742">
        <ele>1537.3</ele>
        <time>2016-03-11T09:46:57Z</time>
      </trkpt>
      <trkpt lat="42.98755" lon="-0.22744">
        <ele>1538.8</ele>
        <time>2016-03-11T09:47:01Z</time>
      </trkpt>
      <trkpt lat="42.98747" lon="-0.22745">
        <ele>1538.3</ele>
        <time>2016-03-11T09:47:05Z</time>
      </trkpt>
      <trkpt lat="42.98739" lon="-0.22748">
        <ele>1538.4</ele>
        <time>2016-03-11T09:47:09Z</time>
      </trkpt>
      <trkpt lat="42.98737" lon="-0.22749">
        <ele>1538.4</ele>
        <time>2016-03-11T09:47:10Z</time>
      </trkpt>
      <trkpt lat="42.98725" lon="-0.22756">
        <ele>1538.8</ele>
        <time>2016-03-11T09:47:17Z</time>
      </trkpt>
      <trkpt lat="42.98717" lon="-0.22761">
        <ele>1539.2</ele>
        <time>2016-03-11T09:47:22Z</time>
      </trkpt>
      <trkpt lat="42.9871" lon="-0.22766">
        <ele>1539.7</ele>
        <time>2016-03-11T09:47:26Z</time>
      </trkpt>
      <trkpt lat="42.98706" lon="-0.22774">
        <ele>1539.2</ele>
        <time>2016-03-11T09:47:31Z</time>
      </trkpt>
      <trkpt lat="42.98704" lon="-0.22784">
        <ele>1539.3</ele>
        <time>2016-03-11T09:47:35Z</time>
      </trkpt>
      <trkpt lat="42.98701" lon="-0.22793">
        <ele>1540.1</ele>
        <time>2016-03-11T09:47:38Z</time>
      </trkpt>
      <trkpt lat="42.98697" lon="-0.22803">
        <ele>1539.5</ele>
        <time>2016-03-11T09:47:42Z</time>
      </trkpt>
      <trkpt lat="42.98691" lon="-0.22812">
        <ele>1539.5</ele>
        <time>2016-03-11T09:47:47Z</time>
      </trkpt>
      <trkpt lat="42.98685" lon="-0.22817">
        <ele>1539.6</ele>
        <time>2016-03-11T09:47:51Z</time>
      </trkpt>
      <trkpt lat="42.98677" lon="-0.22821">
        <ele>1539.9</ele>
        <time>2016-03-11T09:47:55Z</time>
      </trkpt>
      <trkpt lat="42.98669" lon="-0.22823">
        <ele>1539.8</ele>
        <time>2016-03-11T09:47:59Z</time>
      </trkpt>
      <trkpt lat="42.98661" lon="-0.22824">
        <ele>1539.2</ele>
        <time>2016-03-11T09:48:03Z</time>
      </trkpt>
      <trkpt lat="42.98652" lon="-0.22825">
        <ele>1539</ele>
        <time>2016-03-11T09:48:07Z</time>
      </trkpt>
      <trkpt lat="42.98643" lon="-0.22825">
        <ele>1538.4</ele>
        <time>2016-03-11T09:48:11Z</time>
      </trkpt>
      <trkpt lat="42.98641" lon="-0.22825">
        <ele>1538.3</ele>
        <time>2016-03-11T09:48:12Z</time>
      </trkpt>
      <trkpt lat="42.98629" lon="-0.22825">
        <ele>1538.5</ele>
        <time>2016-03-11T09:48:17Z</time>
      </trkpt>
      <trkpt lat="42.98621" lon="-0.22826">
        <ele>1537.7</ele>
        <time>2016-03-11T09:48:20Z</time>
      </trkpt>
      <trkpt lat="42.98614" lon="-0.22827">
        <ele>1537.6</ele>
        <time>2016-03-11T09:48:23Z</time>
      </trkpt>
      <trkpt lat="42.98607" lon="-0.2283">
        <ele>1536.8</ele>
        <time>2016-03-11T09:48:26Z</time>
      </trkpt>
      <trkpt lat="42.986" lon="-0.22832">
        <ele>1537.1</ele>
        <time>2016-03-11T09:48:29Z</time>
      </trkpt>
      <trkpt lat="42.98593" lon="-0.22834">
        <ele>1537.2</ele>
        <time>2016-03-11T09:48:32Z</time>
      </trkpt>
      <trkpt lat="42.98586" lon="-0.22837">
        <ele>1536.9</ele>
        <time>2016-03-11T09:48:35Z</time>
      </trkpt>
      <trkpt lat="42.98579" lon="-0.2284">
        <ele>1536.6</ele>
        <time>2016-03-11T09:48:38Z</time>
      </trkpt>
      <trkpt lat="42.98572" lon="-0.22844">
        <ele>1536.2</ele>
        <time>2016-03-11T09:48:41Z</time>
      </trkpt>
      <trkpt lat="42.98566" lon="-0.22848">
        <ele>1536.5</ele>
        <time>2016-03-11T09:48:44Z</time>
      </trkpt>
      <trkpt lat="42.98558" lon="-0.22854">
        <ele>1536</ele>
        <time>2016-03-11T09:48:48Z</time>
      </trkpt>
      <trkpt lat="42.98551" lon="-0.22859">
        <ele>1534.9</ele>
        <time>2016-03-11T09:48:52Z</time>
      </trkpt>
      <trkpt lat="42.98543" lon="-0.22863">
        <ele>1535.7</ele>
        <time>2016-03-11T09:48:56Z</time>
      </trkpt>
      <trkpt lat="42.98538" lon="-0.22869">
        <ele>1535.2</ele>
        <time>2016-03-11T09:48:59Z</time>
      </trkpt>
      <trkpt lat="42.98532" lon="-0.22877">
        <ele>1534.7</ele>
        <time>2016-03-11T09:49:03Z</time>
      </trkpt>
      <trkpt lat="42.98525" lon="-0.22885">
        <ele>1534.6</ele>
        <time>2016-03-11T09:49:10Z</time>
      </trkpt>
      <trkpt lat="42.98522" lon="-0.22895">
        <ele>1535</ele>
        <time>2016-03-11T09:50:59Z</time>
      </trkpt>
      <trkpt lat="42.98522" lon="-0.22898">
        <ele>1534.8</ele>
        <time>2016-03-11T09:51:00Z</time>
      </trkpt>
      <trkpt lat="42.98521" lon="-0.22915">
        <ele>1533.7</ele>
        <time>2016-03-11T09:51:05Z</time>
      </trkpt>
      <trkpt lat="42.9852" lon="-0.22926">
        <ele>1533.5</ele>
        <time>2016-03-11T09:51:08Z</time>
      </trkpt>
      <trkpt lat="42.9852" lon="-0.22936">
        <ele>1533.3</ele>
        <time>2016-03-11T09:51:11Z</time>
      </trkpt>
      <trkpt lat="42.98521" lon="-0.22946">
        <ele>1533.2</ele>
        <time>2016-03-11T09:51:14Z</time>
      </trkpt>
      <trkpt lat="42.98522" lon="-0.22955">
        <ele>1532.9</ele>
        <time>2016-03-11T09:51:16Z</time>
      </trkpt>
      <trkpt lat="42.98524" lon="-0.22964">
        <ele>1532.6</ele>
        <time>2016-03-11T09:51:18Z</time>
      </trkpt>
      <trkpt lat="42.98527" lon="-0.22974">
        <ele>1531.2</ele>
        <time>2016-03-11T09:51:20Z</time>
      </trkpt>
      <trkpt lat="42.98531" lon="-0.22983">
        <ele>1530.5</ele>
        <time>2016-03-11T09:51:22Z</time>
      </trkpt>
      <trkpt lat="42.98536" lon="-0.22992">
        <ele>1529.3</ele>
        <time>2016-03-11T09:51:24Z</time>
      </trkpt>
      <trkpt lat="42.98541" lon="-0.23001">
        <ele>1528.7</ele>
        <time>2016-03-11T09:51:26Z</time>
      </trkpt>
      <trkpt lat="42.98546" lon="-0.23008">
        <ele>1528.3</ele>
        <time>2016-03-11T09:51:28Z</time>
      </trkpt>
      <trkpt lat="42.98551" lon="-0.23014">
        <ele>1527</ele>
        <time>2016-03-11T09:51:30Z</time>
      </trkpt>
      <trkpt lat="42.98556" lon="-0.23022">
        <ele>1526</ele>
        <time>2016-03-11T09:51:33Z</time>
      </trkpt>
      <trkpt lat="42.98561" lon="-0.23032">
        <ele>1525.1</ele>
        <time>2016-03-11T09:51:37Z</time>
      </trkpt>
      <trkpt lat="42.98564" lon="-0.23043">
        <ele>1524.9</ele>
        <time>2016-03-11T09:51:40Z</time>
      </trkpt>
      <trkpt lat="42.98566" lon="-0.23052">
        <ele>1524.4</ele>
        <time>2016-03-11T09:51:42Z</time>
      </trkpt>
      <trkpt lat="42.98568" lon="-0.2306">
        <ele>1523.9</ele>
        <time>2016-03-11T09:51:44Z</time>
      </trkpt>
      <trkpt lat="42.9857" lon="-0.23069">
        <ele>1523.7</ele>
        <time>2016-03-11T09:51:46Z</time>
      </trkpt>
      <trkpt lat="42.98572" lon="-0.23079">
        <ele>1523.5</ele>
        <time>2016-03-11T09:51:48Z</time>
      </trkpt>
      <trkpt lat="42.98574" lon="-0.23088">
        <ele>1523.3</ele>
        <time>2016-03-11T09:51:50Z</time>
      </trkpt>
      <trkpt lat="42.98576" lon="-0.23098">
        <ele>1522.7</ele>
        <time>2016-03-11T09:51:52Z</time>
      </trkpt>
      <trkpt lat="42.98577" lon="-0.23109">
        <ele>1522.4</ele>
        <time>2016-03-11T09:51:54Z</time>
      </trkpt>
      <trkpt lat="42.98578" lon="-0.23119">
        <ele>1520.5</ele>
        <time>2016-03-11T09:51:56Z</time>
      </trkpt>
      <trkpt lat="42.98579" lon="-0.23131">
        <ele>1519.7</ele>
        <time>2016-03-11T09:51:58Z</time>
      </trkpt>
      <trkpt lat="42.9858" lon="-0.23142">
        <ele>1519.3</ele>
        <time>2016-03-11T09:52:00Z</time>
      </trkpt>
      <trkpt lat="42.9858" lon="-0.23147">
        <ele>1518.8</ele>
        <time>2016-03-11T09:52:01Z</time>
      </trkpt>
      <trkpt lat="42.98581" lon="-0.23163">
        <ele>1517.7</ele>
        <time>2016-03-11T09:52:04Z</time>
      </trkpt>
      <trkpt lat="42.9858" lon="-0.23174">
        <ele>1517</ele>
        <time>2016-03-11T09:52:06Z</time>
      </trkpt>
      <trkpt lat="42.98579" lon="-0.23184">
        <ele>1516.4</ele>
        <time>2016-03-11T09:52:08Z</time>
      </trkpt>
      <trkpt lat="42.98578" lon="-0.23195">
        <ele>1515.3</ele>
        <time>2016-03-11T09:52:10Z</time>
      </trkpt>
      <trkpt lat="42.98578" lon="-0.23204">
        <ele>1514</ele>
        <time>2016-03-11T09:52:12Z</time>
      </trkpt>
      <trkpt lat="42.98576" lon="-0.23215">
        <ele>1513.9</ele>
        <time>2016-03-11T09:52:15Z</time>
      </trkpt>
      <trkpt lat="42.98575" lon="-0.23227">
        <ele>1514</ele>
        <time>2016-03-11T09:52:19Z</time>
      </trkpt>
      <trkpt lat="42.98574" lon="-0.23238">
        <ele>1513.5</ele>
        <time>2016-03-11T09:52:23Z</time>
      </trkpt>
      <trkpt lat="42.98573" lon="-0.23249">
        <ele>1513.4</ele>
        <time>2016-03-11T09:52:27Z</time>
      </trkpt>
      <trkpt lat="42.98571" lon="-0.23258">
        <ele>1513</ele>
        <time>2016-03-11T09:52:31Z</time>
      </trkpt>
      <trkpt lat="42.98568" lon="-0.2327">
        <ele>1514</ele>
        <time>2016-03-11T09:52:36Z</time>
      </trkpt>
      <trkpt lat="42.98567" lon="-0.23281">
        <ele>1514.3</ele>
        <time>2016-03-11T09:52:41Z</time>
      </trkpt>
      <trkpt lat="42.98566" lon="-0.23293">
        <ele>1514.8</ele>
        <time>2016-03-11T09:52:46Z</time>
      </trkpt>
      <trkpt lat="42.98566" lon="-0.23305">
        <ele>1514.1</ele>
        <time>2016-03-11T09:52:50Z</time>
      </trkpt>
      <trkpt lat="42.9857" lon="-0.23316">
        <ele>1514.3</ele>
        <time>2016-03-11T09:52:54Z</time>
      </trkpt>
      <trkpt lat="42.98575" lon="-0.23325">
        <ele>1513.8</ele>
        <time>2016-03-11T09:52:58Z</time>
      </trkpt>
      <trkpt lat="42.98578" lon="-0.23333">
        <ele>1514.1</ele>
        <time>2016-03-11T09:53:01Z</time>
      </trkpt>
      <trkpt lat="42.9858" lon="-0.23335">
        <ele>1513.7</ele>
        <time>2016-03-11T09:53:02Z</time>
      </trkpt>
      <trkpt lat="42.98584" lon="-0.23351">
        <ele>1513.2</ele>
        <time>2016-03-11T09:53:07Z</time>
      </trkpt>
      <trkpt lat="42.98585" lon="-0.23362">
        <ele>1512.5</ele>
        <time>2016-03-11T09:53:10Z</time>
      </trkpt>
      <trkpt lat="42.98585" lon="-0.23372">
        <ele>1512.7</ele>
        <time>2016-03-11T09:53:13Z</time>
      </trkpt>
      <trkpt lat="42.98585" lon="-0.23384">
        <ele>1512.1</ele>
        <time>2016-03-11T09:53:16Z</time>
      </trkpt>
      <trkpt lat="42.98585" lon="-0.23396">
        <ele>1511.1</ele>
        <time>2016-03-11T09:53:19Z</time>
      </trkpt>
      <trkpt lat="42.98584" lon="-0.23405">
        <ele>1510.7</ele>
        <time>2016-03-11T09:53:21Z</time>
      </trkpt>
      <trkpt lat="42.98583" lon="-0.23415">
        <ele>1510.5</ele>
        <time>2016-03-11T09:53:23Z</time>
      </trkpt>
      <trkpt lat="42.98582" lon="-0.23425">
        <ele>1509.9</ele>
        <time>2016-03-11T09:53:25Z</time>
      </trkpt>
      <trkpt lat="42.98581" lon="-0.23436">
        <ele>1509.4</ele>
        <time>2016-03-11T09:53:27Z</time>
      </trkpt>
      <trkpt lat="42.98579" lon="-0.23445">
        <ele>1509.1</ele>
        <time>2016-03-11T09:53:29Z</time>
      </trkpt>
      <trkpt lat="42.98577" lon="-0.23454">
        <ele>1507.9</ele>
        <time>2016-03-11T09:53:31Z</time>
      </trkpt>
      <trkpt lat="42.98574" lon="-0.23462">
        <ele>1507.3</ele>
        <time>2016-03-11T09:53:33Z</time>
      </trkpt>
      <trkpt lat="42.98571" lon="-0.2347">
        <ele>1507</ele>
        <time>2016-03-11T09:53:35Z</time>
      </trkpt>
      <trkpt lat="42.98569" lon="-0.23478">
        <ele>1506.7</ele>
        <time>2016-03-11T09:53:37Z</time>
      </trkpt>
      <trkpt lat="42.98565" lon="-0.23487">
        <ele>1506.5</ele>
        <time>2016-03-11T09:53:39Z</time>
      </trkpt>
      <trkpt lat="42.98562" lon="-0.23495">
        <ele>1505.5</ele>
        <time>2016-03-11T09:53:41Z</time>
      </trkpt>
      <trkpt lat="42.98558" lon="-0.23504">
        <ele>1504.9</ele>
        <time>2016-03-11T09:53:43Z</time>
      </trkpt>
      <trkpt lat="42.98553" lon="-0.23513">
        <ele>1504.4</ele>
        <time>2016-03-11T09:53:45Z</time>
      </trkpt>
      <trkpt lat="42.9855" lon="-0.23522">
        <ele>1502.5</ele>
        <time>2016-03-11T09:53:47Z</time>
      </trkpt>
      <trkpt lat="42.9855" lon="-0.23532">
        <ele>1501.5</ele>
        <time>2016-03-11T09:53:50Z</time>
      </trkpt>
      <trkpt lat="42.9855" lon="-0.23543">
        <ele>1501.2</ele>
        <time>2016-03-11T09:53:53Z</time>
      </trkpt>
      <trkpt lat="42.9855" lon="-0.23554">
        <ele>1501.1</ele>
        <time>2016-03-11T09:53:57Z</time>
      </trkpt>
      <trkpt lat="42.98551" lon="-0.23564">
        <ele>1500.9</ele>
        <time>2016-03-11T09:54:00Z</time>
      </trkpt>
      <trkpt lat="42.9855" lon="-0.23573">
        <ele>1500.7</ele>
        <time>2016-03-11T09:54:02Z</time>
      </trkpt>
      <trkpt lat="42.9855" lon="-0.23577">
        <ele>1500.5</ele>
        <time>2016-03-11T09:54:03Z</time>
      </trkpt>
      <trkpt lat="42.98548" lon="-0.23594">
        <ele>1499.3</ele>
        <time>2016-03-11T09:54:07Z</time>
      </trkpt>
      <trkpt lat="42.98549" lon="-0.23602">
        <ele>1498.6</ele>
        <time>2016-03-11T09:54:09Z</time>
      </trkpt>
      <trkpt lat="42.9855" lon="-0.23613">
        <ele>1498.1</ele>
        <time>2016-03-11T09:54:11Z</time>
      </trkpt>
      <trkpt lat="42.98552" lon="-0.23623">
        <ele>1497</ele>
        <time>2016-03-11T09:54:13Z</time>
      </trkpt>
      <trkpt lat="42.98554" lon="-0.23632">
        <ele>1496.3</ele>
        <time>2016-03-11T09:54:15Z</time>
      </trkpt>
      <trkpt lat="42.98555" lon="-0.2364">
        <ele>1495.8</ele>
        <time>2016-03-11T09:54:17Z</time>
      </trkpt>
      <trkpt lat="42.98556" lon="-0.23649">
        <ele>1494.9</ele>
        <time>2016-03-11T09:54:19Z</time>
      </trkpt>
      <trkpt lat="42.98556" lon="-0.23657">
        <ele>1494.2</ele>
        <time>2016-03-11T09:54:21Z</time>
      </trkpt>
      <trkpt lat="42.98556" lon="-0.23667">
        <ele>1493.8</ele>
        <time>2016-03-11T09:54:23Z</time>
      </trkpt>
      <trkpt lat="42.98557" lon="-0.23678">
        <ele>1493.1</ele>
        <time>2016-03-11T09:54:25Z</time>
      </trkpt>
      <trkpt lat="42.98558" lon="-0.2369">
        <ele>1492.5</ele>
        <time>2016-03-11T09:54:27Z</time>
      </trkpt>
      <trkpt lat="42.98559" lon="-0.23702">
        <ele>1491.3</ele>
        <time>2016-03-11T09:54:29Z</time>
      </trkpt>
      <trkpt lat="42.98561" lon="-0.23713">
        <ele>1490.3</ele>
        <time>2016-03-11T09:54:31Z</time>
      </trkpt>
      <trkpt lat="42.98563" lon="-0.23724">
        <ele>1489.4</ele>
        <time>2016-03-11T09:54:33Z</time>
      </trkpt>
      <trkpt lat="42.98565" lon="-0.23733">
        <ele>1488.2</ele>
        <time>2016-03-11T09:54:35Z</time>
      </trkpt>
      <trkpt lat="42.98567" lon="-0.23742">
        <ele>1487.3</ele>
        <time>2016-03-11T09:54:37Z</time>
      </trkpt>
      <trkpt lat="42.9857" lon="-0.2375">
        <ele>1486.7</ele>
        <time>2016-03-11T09:54:39Z</time>
      </trkpt>
      <trkpt lat="42.98572" lon="-0.23758">
        <ele>1486.2</ele>
        <time>2016-03-11T09:54:41Z</time>
      </trkpt>
      <trkpt lat="42.98574" lon="-0.23766">
        <ele>1485.9</ele>
        <time>2016-03-11T09:54:43Z</time>
      </trkpt>
      <trkpt lat="42.98576" lon="-0.23775">
        <ele>1485.3</ele>
        <time>2016-03-11T09:54:45Z</time>
      </trkpt>
      <trkpt lat="42.98578" lon="-0.23783">
        <ele>1484.8</ele>
        <time>2016-03-11T09:54:47Z</time>
      </trkpt>
      <trkpt lat="42.98579" lon="-0.23791">
        <ele>1484.3</ele>
        <time>2016-03-11T09:54:49Z</time>
      </trkpt>
      <trkpt lat="42.9858" lon="-0.23799">
        <ele>1484.9</ele>
        <time>2016-03-11T09:54:51Z</time>
      </trkpt>
      <trkpt lat="42.98584" lon="-0.2381">
        <ele>1483.8</ele>
        <time>2016-03-11T09:54:54Z</time>
      </trkpt>
      <trkpt lat="42.98588" lon="-0.23818">
        <ele>1483.7</ele>
        <time>2016-03-11T09:54:57Z</time>
      </trkpt>
      <trkpt lat="42.98592" lon="-0.23825">
        <ele>1483.7</ele>
        <time>2016-03-11T09:55:00Z</time>
      </trkpt>
      <trkpt lat="42.98598" lon="-0.23832">
        <ele>1483.2</ele>
        <time>2016-03-11T09:55:03Z</time>
      </trkpt>
      <trkpt lat="42.98601" lon="-0.23835">
        <ele>1483.1</ele>
        <time>2016-03-11T09:55:04Z</time>
      </trkpt>
      <trkpt lat="42.98611" lon="-0.23846">
        <ele>1482.9</ele>
        <time>2016-03-11T09:55:09Z</time>
      </trkpt>
      <trkpt lat="42.98617" lon="-0.23854">
        <ele>1482.3</ele>
        <time>2016-03-11T09:55:12Z</time>
      </trkpt>
      <trkpt lat="42.98622" lon="-0.23859">
        <ele>1482</ele>
        <time>2016-03-11T09:55:14Z</time>
      </trkpt>
      <trkpt lat="42.98629" lon="-0.23865">
        <ele>1481.2</ele>
        <time>2016-03-11T09:55:17Z</time>
      </trkpt>
      <trkpt lat="42.98634" lon="-0.2387">
        <ele>1480.2</ele>
        <time>2016-03-11T09:55:19Z</time>
      </trkpt>
      <trkpt lat="42.9864" lon="-0.23876">
        <ele>1479.6</ele>
        <time>2016-03-11T09:55:22Z</time>
      </trkpt>
      <trkpt lat="42.98646" lon="-0.23882">
        <ele>1479.9</ele>
        <time>2016-03-11T09:55:25Z</time>
      </trkpt>
      <trkpt lat="42.98652" lon="-0.2389">
        <ele>1479.6</ele>
        <time>2016-03-11T09:55:28Z</time>
      </trkpt>
      <trkpt lat="42.98656" lon="-0.239">
        <ele>1479.1</ele>
        <time>2016-03-11T09:55:32Z</time>
      </trkpt>
      <trkpt lat="42.98659" lon="-0.2391">
        <ele>1479.5</ele>
        <time>2016-03-11T09:55:36Z</time>
      </trkpt>
      <trkpt lat="42.98661" lon="-0.23921">
        <ele>1478.9</ele>
        <time>2016-03-11T09:55:40Z</time>
      </trkpt>
      <trkpt lat="42.98662" lon="-0.23932">
        <ele>1478.5</ele>
        <time>2016-03-11T09:55:44Z</time>
      </trkpt>
      <trkpt lat="42.98662" lon="-0.23942">
        <ele>1478</ele>
        <time>2016-03-11T09:55:47Z</time>
      </trkpt>
      <trkpt lat="42.98663" lon="-0.23953">
        <ele>1479.3</ele>
        <time>2016-03-11T09:55:50Z</time>
      </trkpt>
      <trkpt lat="42.98662" lon="-0.23963">
        <ele>1478.8</ele>
        <time>2016-03-11T09:55:53Z</time>
      </trkpt>
      <trkpt lat="42.98662" lon="-0.23975">
        <ele>1477.2</ele>
        <time>2016-03-11T09:55:56Z</time>
      </trkpt>
      <trkpt lat="42.98661" lon="-0.23987">
        <ele>1477.9</ele>
        <time>2016-03-11T09:55:59Z</time>
      </trkpt>
      <trkpt lat="42.9866" lon="-0.23999">
        <ele>1476.8</ele>
        <time>2016-03-11T09:56:02Z</time>
      </trkpt>
      <trkpt lat="42.98659" lon="-0.24008">
        <ele>1476.4</ele>
        <time>2016-03-11T09:56:04Z</time>
      </trkpt>
      <trkpt lat="42.98659" lon="-0.24012">
        <ele>1476.2</ele>
        <time>2016-03-11T09:56:05Z</time>
      </trkpt>
      <trkpt lat="42.98655" lon="-0.2403">
        <ele>1475.7</ele>
        <time>2016-03-11T09:56:10Z</time>
      </trkpt>
      <trkpt lat="42.98654" lon="-0.24038">
        <ele>1475.3</ele>
        <time>2016-03-11T09:56:12Z</time>
      </trkpt>
      <trkpt lat="42.98652" lon="-0.24047">
        <ele>1474.6</ele>
        <time>2016-03-11T09:56:14Z</time>
      </trkpt>
      <trkpt lat="42.9865" lon="-0.24056">
        <ele>1474.1</ele>
        <time>2016-03-11T09:56:16Z</time>
      </trkpt>
      <trkpt lat="42.98648" lon="-0.24065">
        <ele>1473.7</ele>
        <time>2016-03-11T09:56:18Z</time>
      </trkpt>
      <trkpt lat="42.98645" lon="-0.24073">
        <ele>1473</ele>
        <time>2016-03-11T09:56:20Z</time>
      </trkpt>
      <trkpt lat="42.98643" lon="-0.24081">
        <ele>1472.5</ele>
        <time>2016-03-11T09:56:22Z</time>
      </trkpt>
      <trkpt lat="42.98642" lon="-0.2409">
        <ele>1472.2</ele>
        <time>2016-03-11T09:56:24Z</time>
      </trkpt>
      <trkpt lat="42.9864" lon="-0.241">
        <ele>1471.7</ele>
        <time>2016-03-11T09:56:26Z</time>
      </trkpt>
      <trkpt lat="42.98639" lon="-0.2411">
        <ele>1471.1</ele>
        <time>2016-03-11T09:56:28Z</time>
      </trkpt>
      <trkpt lat="42.98639" lon="-0.2412">
        <ele>1470</ele>
        <time>2016-03-11T09:56:30Z</time>
      </trkpt>
      <trkpt lat="42.98638" lon="-0.24131">
        <ele>1469.1</ele>
        <time>2016-03-11T09:56:32Z</time>
      </trkpt>
      <trkpt lat="42.98638" lon="-0.24142">
        <ele>1468.3</ele>
        <time>2016-03-11T09:56:34Z</time>
      </trkpt>
      <trkpt lat="42.98637" lon="-0.24153">
        <ele>1466.9</ele>
        <time>2016-03-11T09:56:36Z</time>
      </trkpt>
      <trkpt lat="42.98637" lon="-0.24159">
        <ele>1466.4</ele>
        <time>2016-03-11T09:56:37Z</time>
      </trkpt>
      <trkpt lat="42.98636" lon="-0.24166">
        <ele>1466.1</ele>
        <time>2016-03-11T09:56:38Z</time>
      </trkpt>
      <trkpt lat="42.98636" lon="-0.24178">
        <ele>1464.7</ele>
        <time>2016-03-11T09:56:40Z</time>
      </trkpt>
      <trkpt lat="42.98635" lon="-0.24189">
        <ele>1463.9</ele>
        <time>2016-03-11T09:56:42Z</time>
      </trkpt>
      <trkpt lat="42.98634" lon="-0.24198">
        <ele>1463.4</ele>
        <time>2016-03-11T09:56:44Z</time>
      </trkpt>
      <trkpt lat="42.98633" lon="-0.24208">
        <ele>1463.6</ele>
        <time>2016-03-11T09:56:46Z</time>
      </trkpt>
      <trkpt lat="42.98633" lon="-0.24216">
        <ele>1463.5</ele>
        <time>2016-03-11T09:56:48Z</time>
      </trkpt>
      <trkpt lat="42.98632" lon="-0.24225">
        <ele>1463.2</ele>
        <time>2016-03-11T09:56:50Z</time>
      </trkpt>
      <trkpt lat="42.98632" lon="-0.24234">
        <ele>1462</ele>
        <time>2016-03-11T09:56:52Z</time>
      </trkpt>
      <trkpt lat="42.98632" lon="-0.24243">
        <ele>1461.4</ele>
        <time>2016-03-11T09:56:54Z</time>
      </trkpt>
      <trkpt lat="42.98632" lon="-0.24251">
        <ele>1459.9</ele>
        <time>2016-03-11T09:56:56Z</time>
      </trkpt>
      <trkpt lat="42.98632" lon="-0.24261">
        <ele>1459.6</ele>
        <time>2016-03-11T09:56:58Z</time>
      </trkpt>
      <trkpt lat="42.98633" lon="-0.24272">
        <ele>1459.8</ele>
        <time>2016-03-11T09:57:00Z</time>
      </trkpt>
      <trkpt lat="42.98632" lon="-0.24282">
        <ele>1458.7</ele>
        <time>2016-03-11T09:57:02Z</time>
      </trkpt>
      <trkpt lat="42.98632" lon="-0.24293">
        <ele>1457.9</ele>
        <time>2016-03-11T09:57:04Z</time>
      </trkpt>
      <trkpt lat="42.98632" lon="-0.24302">
        <ele>1457.4</ele>
        <time>2016-03-11T09:57:06Z</time>
      </trkpt>
      <trkpt lat="42.98631" lon="-0.24307">
        <ele>1456.7</ele>
        <time>2016-03-11T09:57:07Z</time>
      </trkpt>
      <trkpt lat="42.98629" lon="-0.24324">
        <ele>1455.5</ele>
        <time>2016-03-11T09:57:10Z</time>
      </trkpt>
      <trkpt lat="42.98628" lon="-0.24335">
        <ele>1454.5</ele>
        <time>2016-03-11T09:57:12Z</time>
      </trkpt>
      <trkpt lat="42.98627" lon="-0.24344">
        <ele>1453.8</ele>
        <time>2016-03-11T09:57:14Z</time>
      </trkpt>
      <trkpt lat="42.98626" lon="-0.24356">
        <ele>1452.9</ele>
        <time>2016-03-11T09:57:17Z</time>
      </trkpt>
      <trkpt lat="42.98624" lon="-0.24367">
        <ele>1452.3</ele>
        <time>2016-03-11T09:57:21Z</time>
      </trkpt>
      <trkpt lat="42.98623" lon="-0.24378">
        <ele>1452</ele>
        <time>2016-03-11T09:57:25Z</time>
      </trkpt>
      <trkpt lat="42.98623" lon="-0.24389">
        <ele>1452</ele>
        <time>2016-03-11T09:57:29Z</time>
      </trkpt>
      <trkpt lat="42.98623" lon="-0.244">
        <ele>1451.3</ele>
        <time>2016-03-11T09:57:33Z</time>
      </trkpt>
      <trkpt lat="42.98623" lon="-0.24411">
        <ele>1451.3</ele>
        <time>2016-03-11T09:57:37Z</time>
      </trkpt>
      <trkpt lat="42.98623" lon="-0.24422">
        <ele>1451.8</ele>
        <time>2016-03-11T09:57:41Z</time>
      </trkpt>
      <trkpt lat="42.98623" lon="-0.24432">
        <ele>1451.2</ele>
        <time>2016-03-11T09:57:45Z</time>
      </trkpt>
      <trkpt lat="42.98624" lon="-0.24444">
        <ele>1451.8</ele>
        <time>2016-03-11T09:57:50Z</time>
      </trkpt>
      <trkpt lat="42.98625" lon="-0.24456">
        <ele>1452.3</ele>
        <time>2016-03-11T09:57:55Z</time>
      </trkpt>
      <trkpt lat="42.98625" lon="-0.24468">
        <ele>1452.6</ele>
        <time>2016-03-11T09:58:00Z</time>
      </trkpt>
      <trkpt lat="42.98626" lon="-0.24478">
        <ele>1453.2</ele>
        <time>2016-03-11T09:58:04Z</time>
      </trkpt>
      <trkpt lat="42.98627" lon="-0.24489">
        <ele>1453.8</ele>
        <time>2016-03-11T09:58:09Z</time>
      </trkpt>
      <trkpt lat="42.98627" lon="-0.24492">
        <ele>1453.9</ele>
        <time>2016-03-11T09:58:10Z</time>
      </trkpt>
      <trkpt lat="42.98628" lon="-0.24509">
        <ele>1454.9</ele>
        <time>2016-03-11T09:58:17Z</time>
      </trkpt>
      <trkpt lat="42.98629" lon="-0.24521">
        <ele>1455.3</ele>
        <time>2016-03-11T09:58:22Z</time>
      </trkpt>
      <trkpt lat="42.9863" lon="-0.24533">
        <ele>1455.2</ele>
        <time>2016-03-11T09:58:27Z</time>
      </trkpt>
      <trkpt lat="42.9863" lon="-0.24543">
        <ele>1455.8</ele>
        <time>2016-03-11T09:58:32Z</time>
      </trkpt>
      <trkpt lat="42.98628" lon="-0.24554">
        <ele>1456.1</ele>
        <time>2016-03-11T09:58:37Z</time>
      </trkpt>
      <trkpt lat="42.98627" lon="-0.24565">
        <ele>1456.1</ele>
        <time>2016-03-11T09:58:43Z</time>
      </trkpt>
      <trkpt lat="42.98624" lon="-0.24576">
        <ele>1456.1</ele>
        <time>2016-03-11T09:58:49Z</time>
      </trkpt>
      <trkpt lat="42.9862" lon="-0.24584">
        <ele>1456.4</ele>
        <time>2016-03-11T09:58:54Z</time>
      </trkpt>
      <trkpt lat="42.98613" lon="-0.2459">
        <ele>1458.5</ele>
        <time>2016-03-11T09:58:59Z</time>
      </trkpt>
      <trkpt lat="42.98604" lon="-0.24593">
        <ele>1458.6</ele>
        <time>2016-03-11T09:59:04Z</time>
      </trkpt>
      <trkpt lat="42.98596" lon="-0.24595">
        <ele>1459.1</ele>
        <time>2016-03-11T09:59:10Z</time>
      </trkpt>
      <trkpt lat="42.98594" lon="-0.24596">
        <ele>1459</ele>
        <time>2016-03-11T09:59:11Z</time>
      </trkpt>
      <trkpt lat="42.98581" lon="-0.24601">
        <ele>1459.5</ele>
        <time>2016-03-11T09:59:20Z</time>
      </trkpt>
      <trkpt lat="42.98573" lon="-0.24603">
        <ele>1461.4</ele>
        <time>2016-03-11T09:59:25Z</time>
      </trkpt>
      <trkpt lat="42.98565" lon="-0.24604">
        <ele>1461.8</ele>
        <time>2016-03-11T09:59:31Z</time>
      </trkpt>
      <trkpt lat="42.98557" lon="-0.24604">
        <ele>1461.3</ele>
        <time>2016-03-11T09:59:36Z</time>
      </trkpt>
      <trkpt lat="42.98549" lon="-0.24603">
        <ele>1462.7</ele>
        <time>2016-03-11T09:59:41Z</time>
      </trkpt>
      <trkpt lat="42.98541" lon="-0.246">
        <ele>1464.8</ele>
        <time>2016-03-11T09:59:47Z</time>
      </trkpt>
      <trkpt lat="42.98533" lon="-0.24596">
        <ele>1464.7</ele>
        <time>2016-03-11T09:59:53Z</time>
      </trkpt>
      <trkpt lat="42.98527" lon="-0.24589">
        <ele>1465.1</ele>
        <time>2016-03-11T09:59:59Z</time>
      </trkpt>
      <trkpt lat="42.98521" lon="-0.2458">
        <ele>1466.1</ele>
        <time>2016-03-11T10:00:06Z</time>
      </trkpt>
      <trkpt lat="42.98515" lon="-0.24573">
        <ele>1466.5</ele>
        <time>2016-03-11T10:00:14Z</time>
      </trkpt>
      <trkpt lat="42.98514" lon="-0.24571">
        <ele>1466.6</ele>
        <time>2016-03-11T10:00:15Z</time>
      </trkpt>
      <trkpt lat="42.98505" lon="-0.24555">
        <ele>1468.5</ele>
        <time>2016-03-11T10:00:26Z</time>
      </trkpt>
      <trkpt lat="42.985" lon="-0.24547">
        <ele>1468.8</ele>
        <time>2016-03-11T10:00:31Z</time>
      </trkpt>
      <trkpt lat="42.98493" lon="-0.24539">
        <ele>1469.7</ele>
        <time>2016-03-11T10:00:37Z</time>
      </trkpt>
      <trkpt lat="42.98487" lon="-0.2453">
        <ele>1471.4</ele>
        <time>2016-03-11T10:00:43Z</time>
      </trkpt>
      <trkpt lat="42.98481" lon="-0.24524">
        <ele>1471.9</ele>
        <time>2016-03-11T10:00:48Z</time>
      </trkpt>
      <trkpt lat="42.98474" lon="-0.24517">
        <ele>1473.1</ele>
        <time>2016-03-11T10:00:53Z</time>
      </trkpt>
      <trkpt lat="42.98467" lon="-0.2451">
        <ele>1474.1</ele>
        <time>2016-03-11T10:00:58Z</time>
      </trkpt>
      <trkpt lat="42.98461" lon="-0.24503">
        <ele>1474.6</ele>
        <time>2016-03-11T10:01:03Z</time>
      </trkpt>
      <trkpt lat="42.98454" lon="-0.24497">
        <ele>1474.9</ele>
        <time>2016-03-11T10:01:07Z</time>
      </trkpt>
      <trkpt lat="42.98447" lon="-0.24491">
        <ele>1474.2</ele>
        <time>2016-03-11T10:01:12Z</time>
      </trkpt>
      <trkpt lat="42.98441" lon="-0.24485">
        <ele>1475</ele>
        <time>2016-03-11T10:01:16Z</time>
      </trkpt>
      <trkpt lat="42.98439" lon="-0.24484">
        <ele>1474.9</ele>
        <time>2016-03-11T10:01:17Z</time>
      </trkpt>
      <trkpt lat="42.98427" lon="-0.24476">
        <ele>1475.5</ele>
        <time>2016-03-11T10:01:23Z</time>
      </trkpt>
      <trkpt lat="42.98419" lon="-0.24473">
        <ele>1474</ele>
        <time>2016-03-11T10:01:28Z</time>
      </trkpt>
      <trkpt lat="42.98411" lon="-0.24469">
        <ele>1475.4</ele>
        <time>2016-03-11T10:01:33Z</time>
      </trkpt>
      <trkpt lat="42.98403" lon="-0.24464">
        <ele>1476.7</ele>
        <time>2016-03-11T10:01:38Z</time>
      </trkpt>
      <trkpt lat="42.98395" lon="-0.2446">
        <ele>1476.8</ele>
        <time>2016-03-11T10:01:43Z</time>
      </trkpt>
      <trkpt lat="42.98387" lon="-0.24459">
        <ele>1477.4</ele>
        <time>2016-03-11T10:01:48Z</time>
      </trkpt>
      <trkpt lat="42.98378" lon="-0.24458">
        <ele>1476.9</ele>
        <time>2016-03-11T10:01:53Z</time>
      </trkpt>
      <trkpt lat="42.9837" lon="-0.24455">
        <ele>1477</ele>
        <time>2016-03-11T10:01:57Z</time>
      </trkpt>
      <trkpt lat="42.98363" lon="-0.24452">
        <ele>1476.6</ele>
        <time>2016-03-11T10:02:01Z</time>
      </trkpt>
      <trkpt lat="42.98356" lon="-0.2445">
        <ele>1477.3</ele>
        <time>2016-03-11T10:02:05Z</time>
      </trkpt>
      <trkpt lat="42.98347" lon="-0.2445">
        <ele>1477.7</ele>
        <time>2016-03-11T10:02:10Z</time>
      </trkpt>
      <trkpt lat="42.9834" lon="-0.24452">
        <ele>1479.1</ele>
        <time>2016-03-11T10:02:15Z</time>
      </trkpt>
      <trkpt lat="42.98332" lon="-0.24453">
        <ele>1478.3</ele>
        <time>2016-03-11T10:02:19Z</time>
      </trkpt>
      <trkpt lat="42.9833" lon="-0.24452">
        <ele>1478.7</ele>
        <time>2016-03-11T10:02:20Z</time>
      </trkpt>
      <trkpt lat="42.98318" lon="-0.24447">
        <ele>1479.9</ele>
        <time>2016-03-11T10:02:27Z</time>
      </trkpt>
      <trkpt lat="42.98312" lon="-0.24441">
        <ele>1479.7</ele>
        <time>2016-03-11T10:02:30Z</time>
      </trkpt>
      <trkpt lat="42.98308" lon="-0.24435">
        <ele>1479.2</ele>
        <time>2016-03-11T10:02:32Z</time>
      </trkpt>
      <trkpt lat="42.98302" lon="-0.24428">
        <ele>1479.2</ele>
        <time>2016-03-11T10:02:34Z</time>
      </trkpt>
      <trkpt lat="42.98293" lon="-0.24423">
        <ele>1478.4</ele>
        <time>2016-03-11T10:02:38Z</time>
      </trkpt>
      <trkpt lat="42.98286" lon="-0.24426">
        <ele>1478.2</ele>
        <time>2016-03-11T10:02:43Z</time>
      </trkpt>
      <trkpt lat="42.98279" lon="-0.24435">
        <ele>1479.7</ele>
        <time>2016-03-11T10:02:49Z</time>
      </trkpt>
      <trkpt lat="42.98274" lon="-0.24443">
        <ele>1479.5</ele>
        <time>2016-03-11T10:02:54Z</time>
      </trkpt>
      <trkpt lat="42.9827" lon="-0.24451">
        <ele>1481.2</ele>
        <time>2016-03-11T10:02:58Z</time>
      </trkpt>
      <trkpt lat="42.98264" lon="-0.24457">
        <ele>1481.5</ele>
        <time>2016-03-11T10:03:02Z</time>
      </trkpt>
      <trkpt lat="42.98258" lon="-0.24464">
        <ele>1482.2</ele>
        <time>2016-03-11T10:03:06Z</time>
      </trkpt>
      <trkpt lat="42.98252" lon="-0.24471">
        <ele>1481.6</ele>
        <time>2016-03-11T10:03:11Z</time>
      </trkpt>
      <trkpt lat="42.98244" lon="-0.24476">
        <ele>1482</ele>
        <time>2016-03-11T10:03:17Z</time>
      </trkpt>
      <trkpt lat="42.98236" lon="-0.24476">
        <ele>1482.5</ele>
        <time>2016-03-11T10:03:22Z</time>
      </trkpt>
      <trkpt lat="42.98234" lon="-0.24476">
        <ele>1482.8</ele>
        <time>2016-03-11T10:03:23Z</time>
      </trkpt>
      <trkpt lat="42.9822" lon="-0.24474">
        <ele>1483.3</ele>
        <time>2016-03-11T10:03:31Z</time>
      </trkpt>
      <trkpt lat="42.98212" lon="-0.24477">
        <ele>1483.1</ele>
        <time>2016-03-11T10:03:36Z</time>
      </trkpt>
      <trkpt lat="42.98205" lon="-0.2448">
        <ele>1484.5</ele>
        <time>2016-03-11T10:03:41Z</time>
      </trkpt>
      <trkpt lat="42.98198" lon="-0.24484">
        <ele>1485.4</ele>
        <time>2016-03-11T10:03:46Z</time>
      </trkpt>
      <trkpt lat="42.9819" lon="-0.24488">
        <ele>1485.1</ele>
        <time>2016-03-11T10:03:51Z</time>
      </trkpt>
      <trkpt lat="42.98182" lon="-0.24493">
        <ele>1485.7</ele>
        <time>2016-03-11T10:03:56Z</time>
      </trkpt>
      <trkpt lat="42.98174" lon="-0.24496">
        <ele>1486.2</ele>
        <time>2016-03-11T10:04:01Z</time>
      </trkpt>
      <trkpt lat="42.98166" lon="-0.24501">
        <ele>1487.2</ele>
        <time>2016-03-11T10:04:06Z</time>
      </trkpt>
      <trkpt lat="42.98159" lon="-0.24505">
        <ele>1487.6</ele>
        <time>2016-03-11T10:04:11Z</time>
      </trkpt>
      <trkpt lat="42.98151" lon="-0.24509">
        <ele>1487.5</ele>
        <time>2016-03-11T10:04:16Z</time>
      </trkpt>
      <trkpt lat="42.98144" lon="-0.24513">
        <ele>1488</ele>
        <time>2016-03-11T10:04:21Z</time>
      </trkpt>
      <trkpt lat="42.98137" lon="-0.24519">
        <ele>1489.3</ele>
        <time>2016-03-11T10:04:26Z</time>
      </trkpt>
      <trkpt lat="42.98135" lon="-0.2452">
        <ele>1489.3</ele>
        <time>2016-03-11T10:04:27Z</time>
      </trkpt>
      <trkpt lat="42.98126" lon="-0.24532">
        <ele>1490.5</ele>
        <time>2016-03-11T10:04:36Z</time>
      </trkpt>
      <trkpt lat="42.9812" lon="-0.2454">
        <ele>1491.8</ele>
        <time>2016-03-11T10:04:41Z</time>
      </trkpt>
      <trkpt lat="42.98114" lon="-0.24548">
        <ele>1492</ele>
        <time>2016-03-11T10:04:47Z</time>
      </trkpt>
      <trkpt lat="42.98109" lon="-0.24556">
        <ele>1493.2</ele>
        <time>2016-03-11T10:04:52Z</time>
      </trkpt>
      <trkpt lat="42.98104" lon="-0.24566">
        <ele>1494.2</ele>
        <time>2016-03-11T10:04:58Z</time>
      </trkpt>
      <trkpt lat="42.98099" lon="-0.24574">
        <ele>1494</ele>
        <time>2016-03-11T10:05:03Z</time>
      </trkpt>
      <trkpt lat="42.98093" lon="-0.24582">
        <ele>1493.1</ele>
        <time>2016-03-11T10:05:08Z</time>
      </trkpt>
      <trkpt lat="42.98087" lon="-0.24589">
        <ele>1494.6</ele>
        <time>2016-03-11T10:05:13Z</time>
      </trkpt>
      <trkpt lat="42.98082" lon="-0.24597">
        <ele>1494.5</ele>
        <time>2016-03-11T10:05:18Z</time>
      </trkpt>
      <trkpt lat="42.98076" lon="-0.24607">
        <ele>1495.1</ele>
        <time>2016-03-11T10:05:24Z</time>
      </trkpt>
      <trkpt lat="42.98073" lon="-0.24616">
        <ele>1496</ele>
        <time>2016-03-11T10:05:29Z</time>
      </trkpt>
      <trkpt lat="42.98072" lon="-0.24618">
        <ele>1495.8</ele>
        <time>2016-03-11T10:05:30Z</time>
      </trkpt>
      <trkpt lat="42.98068" lon="-0.24636">
        <ele>1496.8</ele>
        <time>2016-03-11T10:05:39Z</time>
      </trkpt>
      <trkpt lat="42.98067" lon="-0.24648">
        <ele>1497.8</ele>
        <time>2016-03-11T10:05:45Z</time>
      </trkpt>
      <trkpt lat="42.98066" lon="-0.24659">
        <ele>1499</ele>
        <time>2016-03-11T10:05:51Z</time>
      </trkpt>
      <trkpt lat="42.98065" lon="-0.24671">
        <ele>1500.3</ele>
        <time>2016-03-11T10:05:58Z</time>
      </trkpt>
      <trkpt lat="42.98065" lon="-0.24682">
        <ele>1501.6</ele>
        <time>2016-03-11T10:06:04Z</time>
      </trkpt>
      <trkpt lat="42.98064" lon="-0.24693">
        <ele>1502</ele>
        <time>2016-03-11T10:06:10Z</time>
      </trkpt>
      <trkpt lat="42.98057" lon="-0.24701">
        <ele>1503.4</ele>
        <time>2016-03-11T10:06:16Z</time>
      </trkpt>
      <trkpt lat="42.98054" lon="-0.2469">
        <ele>1504.1</ele>
        <time>2016-03-11T10:06:25Z</time>
      </trkpt>
      <trkpt lat="42.98054" lon="-0.2468">
        <ele>1504.7</ele>
        <time>2016-03-11T10:06:31Z</time>
      </trkpt>
      <trkpt lat="42.98053" lon="-0.24678">
        <ele>1505</ele>
        <time>2016-03-11T10:06:32Z</time>
      </trkpt>
      <trkpt lat="42.98052" lon="-0.24656">
        <ele>1506.9</ele>
        <time>2016-03-11T10:06:46Z</time>
      </trkpt>
      <trkpt lat="42.9805" lon="-0.24646">
        <ele>1507.7</ele>
        <time>2016-03-11T10:06:52Z</time>
      </trkpt>
      <trkpt lat="42.98049" lon="-0.24635">
        <ele>1508.6</ele>
        <time>2016-03-11T10:06:58Z</time>
      </trkpt>
      <trkpt lat="42.98047" lon="-0.24623">
        <ele>1509</ele>
        <time>2016-03-11T10:07:05Z</time>
      </trkpt>
      <trkpt lat="42.98046" lon="-0.24613">
        <ele>1509.1</ele>
        <time>2016-03-11T10:07:10Z</time>
      </trkpt>
      <trkpt lat="42.98048" lon="-0.24603">
        <ele>1510.7</ele>
        <time>2016-03-11T10:07:15Z</time>
      </trkpt>
      <trkpt lat="42.98051" lon="-0.24593">
        <ele>1511.5</ele>
        <time>2016-03-11T10:07:20Z</time>
      </trkpt>
      <trkpt lat="42.98054" lon="-0.24582">
        <ele>1511.5</ele>
        <time>2016-03-11T10:07:25Z</time>
      </trkpt>
      <trkpt lat="42.98058" lon="-0.24572">
        <ele>1511</ele>
        <time>2016-03-11T10:07:30Z</time>
      </trkpt>
      <trkpt lat="42.98061" lon="-0.24561">
        <ele>1512.1</ele>
        <time>2016-03-11T10:07:36Z</time>
      </trkpt>
      <trkpt lat="42.98062" lon="-0.24559">
        <ele>1512.1</ele>
        <time>2016-03-11T10:07:37Z</time>
      </trkpt>
      <trkpt lat="42.98065" lon="-0.24539">
        <ele>1513.2</ele>
        <time>2016-03-11T10:07:47Z</time>
      </trkpt>
      <trkpt lat="42.98064" lon="-0.24528">
        <ele>1513.8</ele>
        <time>2016-03-11T10:07:53Z</time>
      </trkpt>
      <trkpt lat="42.98062" lon="-0.24517">
        <ele>1514.7</ele>
        <time>2016-03-11T10:07:59Z</time>
      </trkpt>
      <trkpt lat="42.9806" lon="-0.24507">
        <ele>1515.5</ele>
        <time>2016-03-11T10:08:04Z</time>
      </trkpt>
      <trkpt lat="42.98059" lon="-0.24496">
        <ele>1515.3</ele>
        <time>2016-03-11T10:08:09Z</time>
      </trkpt>
      <trkpt lat="42.9806" lon="-0.24486">
        <ele>1516</ele>
        <time>2016-03-11T10:08:14Z</time>
      </trkpt>
      <trkpt lat="42.98063" lon="-0.24476">
        <ele>1516.6</ele>
        <time>2016-03-11T10:08:19Z</time>
      </trkpt>
      <trkpt lat="42.98068" lon="-0.24467">
        <ele>1517</ele>
        <time>2016-03-11T10:08:25Z</time>
      </trkpt>
      <trkpt lat="42.98075" lon="-0.24461">
        <ele>1518</ele>
        <time>2016-03-11T10:08:31Z</time>
      </trkpt>
      <trkpt lat="42.98083" lon="-0.24456">
        <ele>1519.2</ele>
        <time>2016-03-11T10:08:37Z</time>
      </trkpt>
      <trkpt lat="42.98084" lon="-0.24455">
        <ele>1519.3</ele>
        <time>2016-03-11T10:08:38Z</time>
      </trkpt>
      <trkpt lat="42.98097" lon="-0.24445">
        <ele>1519.9</ele>
        <time>2016-03-11T10:08:50Z</time>
      </trkpt>
      <trkpt lat="42.98105" lon="-0.24439">
        <ele>1520.6</ele>
        <time>2016-03-11T10:08:58Z</time>
      </trkpt>
      <trkpt lat="42.98114" lon="-0.24435">
        <ele>1522.3</ele>
        <time>2016-03-11T10:09:05Z</time>
      </trkpt>
      <trkpt lat="42.98121" lon="-0.2443">
        <ele>1523.4</ele>
        <time>2016-03-11T10:09:11Z</time>
      </trkpt>
      <trkpt lat="42.98128" lon="-0.24424">
        <ele>1523.5</ele>
        <time>2016-03-11T10:09:17Z</time>
      </trkpt>
      <trkpt lat="42.98134" lon="-0.24415">
        <ele>1524.5</ele>
        <time>2016-03-11T10:09:23Z</time>
      </trkpt>
      <trkpt lat="42.98138" lon="-0.24405">
        <ele>1525</ele>
        <time>2016-03-11T10:09:29Z</time>
      </trkpt>
      <trkpt lat="42.9814" lon="-0.24395">
        <ele>1526</ele>
        <time>2016-03-11T10:09:34Z</time>
      </trkpt>
      <trkpt lat="42.98142" lon="-0.24383">
        <ele>1526.7</ele>
        <time>2016-03-11T10:09:39Z</time>
      </trkpt>
      <trkpt lat="42.98143" lon="-0.24381">
        <ele>1526.3</ele>
        <time>2016-03-11T10:09:40Z</time>
      </trkpt>
      <trkpt lat="42.9815" lon="-0.24364">
        <ele>1527.4</ele>
        <time>2016-03-11T10:09:49Z</time>
      </trkpt>
      <trkpt lat="42.98156" lon="-0.24357">
        <ele>1526.8</ele>
        <time>2016-03-11T10:09:54Z</time>
      </trkpt>
      <trkpt lat="42.98162" lon="-0.24348">
        <ele>1527.7</ele>
        <time>2016-03-11T10:10:00Z</time>
      </trkpt>
      <trkpt lat="42.98167" lon="-0.24339">
        <ele>1528.7</ele>
        <time>2016-03-11T10:10:07Z</time>
      </trkpt>
      <trkpt lat="42.98174" lon="-0.24332">
        <ele>1530.4</ele>
        <time>2016-03-11T10:10:13Z</time>
      </trkpt>
      <trkpt lat="42.98181" lon="-0.24326">
        <ele>1531.4</ele>
        <time>2016-03-11T10:10:20Z</time>
      </trkpt>
      <trkpt lat="42.98188" lon="-0.24321">
        <ele>1531.6</ele>
        <time>2016-03-11T10:10:26Z</time>
      </trkpt>
      <trkpt lat="42.98195" lon="-0.24314">
        <ele>1532.2</ele>
        <time>2016-03-11T10:10:32Z</time>
      </trkpt>
      <trkpt lat="42.98201" lon="-0.24308">
        <ele>1532.8</ele>
        <time>2016-03-11T10:10:37Z</time>
      </trkpt>
      <trkpt lat="42.98207" lon="-0.24301">
        <ele>1533.1</ele>
        <time>2016-03-11T10:10:42Z</time>
      </trkpt>
      <trkpt lat="42.98208" lon="-0.24299">
        <ele>1533.1</ele>
        <time>2016-03-11T10:10:43Z</time>
      </trkpt>
      <trkpt lat="42.98218" lon="-0.24282">
        <ele>1534.5</ele>
        <time>2016-03-11T10:10:54Z</time>
      </trkpt>
      <trkpt lat="42.98222" lon="-0.24272">
        <ele>1534.9</ele>
        <time>2016-03-11T10:11:00Z</time>
      </trkpt>
      <trkpt lat="42.98225" lon="-0.24263">
        <ele>1535</ele>
        <time>2016-03-11T10:11:05Z</time>
      </trkpt>
      <trkpt lat="42.98228" lon="-0.24252">
        <ele>1536.5</ele>
        <time>2016-03-11T10:11:11Z</time>
      </trkpt>
      <trkpt lat="42.98231" lon="-0.24242">
        <ele>1536.6</ele>
        <time>2016-03-11T10:11:16Z</time>
      </trkpt>
      <trkpt lat="42.98233" lon="-0.24231">
        <ele>1536.9</ele>
        <time>2016-03-11T10:11:21Z</time>
      </trkpt>
      <trkpt lat="42.98236" lon="-0.24221">
        <ele>1536.5</ele>
        <time>2016-03-11T10:11:26Z</time>
      </trkpt>
      <trkpt lat="42.9824" lon="-0.24211">
        <ele>1537.3</ele>
        <time>2016-03-11T10:11:31Z</time>
      </trkpt>
      <trkpt lat="42.98243" lon="-0.24202">
        <ele>1538.4</ele>
        <time>2016-03-11T10:11:36Z</time>
      </trkpt>
      <trkpt lat="42.98247" lon="-0.24193">
        <ele>1539.4</ele>
        <time>2016-03-11T10:11:41Z</time>
      </trkpt>
      <trkpt lat="42.98252" lon="-0.24184">
        <ele>1539.9</ele>
        <time>2016-03-11T10:11:46Z</time>
      </trkpt>
      <trkpt lat="42.98252" lon="-0.24182">
        <ele>1540</ele>
        <time>2016-03-11T10:11:47Z</time>
      </trkpt>
      <trkpt lat="42.98259" lon="-0.24164">
        <ele>1540.1</ele>
        <time>2016-03-11T10:11:57Z</time>
      </trkpt>
      <trkpt lat="42.98261" lon="-0.24154">
        <ele>1541.9</ele>
        <time>2016-03-11T10:12:04Z</time>
      </trkpt>
      <trkpt lat="42.98265" lon="-0.24144">
        <ele>1543.4</ele>
        <time>2016-03-11T10:12:10Z</time>
      </trkpt>
      <trkpt lat="42.9827" lon="-0.24134">
        <ele>1544</ele>
        <time>2016-03-11T10:12:16Z</time>
      </trkpt>
      <trkpt lat="42.98272" lon="-0.24124">
        <ele>1544.7</ele>
        <time>2016-03-11T10:12:22Z</time>
      </trkpt>
      <trkpt lat="42.98272" lon="-0.24113">
        <ele>1546.2</ele>
        <time>2016-03-11T10:12:30Z</time>
      </trkpt>
      <trkpt lat="42.98269" lon="-0.24123">
        <ele>1545.4</ele>
        <time>2016-03-11T10:19:03Z</time>
      </trkpt>
      <trkpt lat="42.98267" lon="-0.24125">
        <ele>1545.3</ele>
        <time>2016-03-11T10:19:04Z</time>
      </trkpt>
      <trkpt lat="42.9826" lon="-0.24139">
        <ele>1544.9</ele>
        <time>2016-03-11T10:19:10Z</time>
      </trkpt>
      <trkpt lat="42.98255" lon="-0.24148">
        <ele>1545.1</ele>
        <time>2016-03-11T10:19:14Z</time>
      </trkpt>
      <trkpt lat="42.98251" lon="-0.24158">
        <ele>1545.8</ele>
        <time>2016-03-11T10:19:18Z</time>
      </trkpt>
      <trkpt lat="42.98246" lon="-0.24168">
        <ele>1545.9</ele>
        <time>2016-03-11T10:19:22Z</time>
      </trkpt>
      <trkpt lat="42.98242" lon="-0.24176">
        <ele>1545.6</ele>
        <time>2016-03-11T10:19:25Z</time>
      </trkpt>
      <trkpt lat="42.98238" lon="-0.24185">
        <ele>1545.2</ele>
        <time>2016-03-11T10:19:28Z</time>
      </trkpt>
      <trkpt lat="42.98233" lon="-0.24195">
        <ele>1545.3</ele>
        <time>2016-03-11T10:19:32Z</time>
      </trkpt>
      <trkpt lat="42.9823" lon="-0.24204">
        <ele>1544.8</ele>
        <time>2016-03-11T10:19:35Z</time>
      </trkpt>
      <trkpt lat="42.98226" lon="-0.24213">
        <ele>1544</ele>
        <time>2016-03-11T10:19:38Z</time>
      </trkpt>
      <trkpt lat="42.98223" lon="-0.24223">
        <ele>1543.7</ele>
        <time>2016-03-11T10:19:41Z</time>
      </trkpt>
      <trkpt lat="42.98221" lon="-0.24234">
        <ele>1543.6</ele>
        <time>2016-03-11T10:19:44Z</time>
      </trkpt>
      <trkpt lat="42.98217" lon="-0.24245">
        <ele>1543.4</ele>
        <time>2016-03-11T10:19:47Z</time>
      </trkpt>
      <trkpt lat="42.98214" lon="-0.24255">
        <ele>1542.9</ele>
        <time>2016-03-11T10:19:50Z</time>
      </trkpt>
      <trkpt lat="42.98209" lon="-0.24264">
        <ele>1542.5</ele>
        <time>2016-03-11T10:19:53Z</time>
      </trkpt>
      <trkpt lat="42.98203" lon="-0.24273">
        <ele>1542.5</ele>
        <time>2016-03-11T10:19:56Z</time>
      </trkpt>
      <trkpt lat="42.98198" lon="-0.24279">
        <ele>1541.3</ele>
        <time>2016-03-11T10:19:59Z</time>
      </trkpt>
      <trkpt lat="42.98193" lon="-0.24286">
        <ele>1541.1</ele>
        <time>2016-03-11T10:20:02Z</time>
      </trkpt>
      <trkpt lat="42.98186" lon="-0.24292">
        <ele>1541.1</ele>
        <time>2016-03-11T10:20:06Z</time>
      </trkpt>
      <trkpt lat="42.98185" lon="-0.24293">
        <ele>1541.2</ele>
        <time>2016-03-11T10:20:07Z</time>
      </trkpt>
      <trkpt lat="42.98174" lon="-0.24303">
        <ele>1540.8</ele>
        <time>2016-03-11T10:20:13Z</time>
      </trkpt>
      <trkpt lat="42.98168" lon="-0.2431">
        <ele>1540.7</ele>
        <time>2016-03-11T10:20:16Z</time>
      </trkpt>
      <trkpt lat="42.98161" lon="-0.24316">
        <ele>1540.4</ele>
        <time>2016-03-11T10:20:19Z</time>
      </trkpt>
      <trkpt lat="42.98154" lon="-0.24323">
        <ele>1539.4</ele>
        <time>2016-03-11T10:20:23Z</time>
      </trkpt>
      <trkpt lat="42.98149" lon="-0.24329">
        <ele>1539.3</ele>
        <time>2016-03-11T10:20:26Z</time>
      </trkpt>
      <trkpt lat="42.98144" lon="-0.24335">
        <ele>1539.4</ele>
        <time>2016-03-11T10:20:29Z</time>
      </trkpt>
      <trkpt lat="42.98138" lon="-0.24341">
        <ele>1539.6</ele>
        <time>2016-03-11T10:20:32Z</time>
      </trkpt>
      <trkpt lat="42.98131" lon="-0.24349">
        <ele>1539.6</ele>
        <time>2016-03-11T10:20:35Z</time>
      </trkpt>
      <trkpt lat="42.98125" lon="-0.24357">
        <ele>1539.2</ele>
        <time>2016-03-11T10:20:38Z</time>
      </trkpt>
      <trkpt lat="42.98119" lon="-0.24365">
        <ele>1538.5</ele>
        <time>2016-03-11T10:20:41Z</time>
      </trkpt>
      <trkpt lat="42.98113" lon="-0.24371">
        <ele>1538.1</ele>
        <time>2016-03-11T10:20:44Z</time>
      </trkpt>
      <trkpt lat="42.98108" lon="-0.24377">
        <ele>1538.2</ele>
        <time>2016-03-11T10:20:47Z</time>
      </trkpt>
      <trkpt lat="42.98102" lon="-0.24383">
        <ele>1537.6</ele>
        <time>2016-03-11T10:20:50Z</time>
      </trkpt>
      <trkpt lat="42.98095" lon="-0.24389">
        <ele>1537.6</ele>
        <time>2016-03-11T10:20:53Z</time>
      </trkpt>
      <trkpt lat="42.98089" lon="-0.24394">
        <ele>1537.5</ele>
        <time>2016-03-11T10:20:56Z</time>
      </trkpt>
      <trkpt lat="42.98083" lon="-0.24398">
        <ele>1537.7</ele>
        <time>2016-03-11T10:20:59Z</time>
      </trkpt>
      <trkpt lat="42.98076" lon="-0.24402">
        <ele>1537.5</ele>
        <time>2016-03-11T10:21:02Z</time>
      </trkpt>
      <trkpt lat="42.98068" lon="-0.24407">
        <ele>1537</ele>
        <time>2016-03-11T10:21:05Z</time>
      </trkpt>
      <trkpt lat="42.9806" lon="-0.24412">
        <ele>1537.1</ele>
        <time>2016-03-11T10:21:08Z</time>
      </trkpt>
      <trkpt lat="42.98058" lon="-0.24413">
        <ele>1537.1</ele>
        <time>2016-03-11T10:21:09Z</time>
      </trkpt>
      <trkpt lat="42.98047" lon="-0.24425">
        <ele>1536</ele>
        <time>2016-03-11T10:21:16Z</time>
      </trkpt>
      <trkpt lat="42.98042" lon="-0.24431">
        <ele>1535.1</ele>
        <time>2016-03-11T10:21:19Z</time>
      </trkpt>
      <trkpt lat="42.98036" lon="-0.24438">
        <ele>1534</ele>
        <time>2016-03-11T10:21:22Z</time>
      </trkpt>
      <trkpt lat="42.98031" lon="-0.24445">
        <ele>1533.9</ele>
        <time>2016-03-11T10:21:25Z</time>
      </trkpt>
      <trkpt lat="42.98026" lon="-0.24453">
        <ele>1534.1</ele>
        <time>2016-03-11T10:21:28Z</time>
      </trkpt>
      <trkpt lat="42.98022" lon="-0.24462">
        <ele>1533.9</ele>
        <time>2016-03-11T10:21:31Z</time>
      </trkpt>
      <trkpt lat="42.98019" lon="-0.2447">
        <ele>1533.7</ele>
        <time>2016-03-11T10:21:34Z</time>
      </trkpt>
      <trkpt lat="42.98017" lon="-0.24479">
        <ele>1533.7</ele>
        <time>2016-03-11T10:21:37Z</time>
      </trkpt>
      <trkpt lat="42.98016" lon="-0.24489">
        <ele>1533.5</ele>
        <time>2016-03-11T10:21:40Z</time>
      </trkpt>
      <trkpt lat="42.98016" lon="-0.24499">
        <ele>1533.1</ele>
        <time>2016-03-11T10:21:43Z</time>
      </trkpt>
      <trkpt lat="42.98017" lon="-0.2451">
        <ele>1532.6</ele>
        <time>2016-03-11T10:21:46Z</time>
      </trkpt>
      <trkpt lat="42.98017" lon="-0.24521">
        <ele>1531.9</ele>
        <time>2016-03-11T10:21:50Z</time>
      </trkpt>
      <trkpt lat="42.98017" lon="-0.24532">
        <ele>1531.3</ele>
        <time>2016-03-11T10:21:54Z</time>
      </trkpt>
      <trkpt lat="42.98016" lon="-0.24543">
        <ele>1532.1</ele>
        <time>2016-03-11T10:21:58Z</time>
      </trkpt>
      <trkpt lat="42.98015" lon="-0.24554">
        <ele>1532.3</ele>
        <time>2016-03-11T10:22:02Z</time>
      </trkpt>
      <trkpt lat="42.98014" lon="-0.24564">
        <ele>1531.9</ele>
        <time>2016-03-11T10:22:06Z</time>
      </trkpt>
      <trkpt lat="42.98012" lon="-0.24575">
        <ele>1533.4</ele>
        <time>2016-03-11T10:22:10Z</time>
      </trkpt>
      <trkpt lat="42.98012" lon="-0.24578">
        <ele>1533</ele>
        <time>2016-03-11T10:22:11Z</time>
      </trkpt>
      <trkpt lat="42.9801" lon="-0.24598">
        <ele>1531.5</ele>
        <time>2016-03-11T10:22:18Z</time>
      </trkpt>
      <trkpt lat="42.98008" lon="-0.24609">
        <ele>1531.3</ele>
        <time>2016-03-11T10:22:21Z</time>
      </trkpt>
      <trkpt lat="42.98006" lon="-0.24619">
        <ele>1531.8</ele>
        <time>2016-03-11T10:22:24Z</time>
      </trkpt>
      <trkpt lat="42.98005" lon="-0.24629">
        <ele>1530.9</ele>
        <time>2016-03-11T10:22:27Z</time>
      </trkpt>
      <trkpt lat="42.98003" lon="-0.24638">
        <ele>1530.4</ele>
        <time>2016-03-11T10:22:30Z</time>
      </trkpt>
      <trkpt lat="42.98" lon="-0.24648">
        <ele>1530.9</ele>
        <time>2016-03-11T10:22:34Z</time>
      </trkpt>
      <trkpt lat="42.97994" lon="-0.24657">
        <ele>1530.7</ele>
        <time>2016-03-11T10:22:39Z</time>
      </trkpt>
      <trkpt lat="42.97987" lon="-0.24664">
        <ele>1531.8</ele>
        <time>2016-03-11T10:22:44Z</time>
      </trkpt>
      <trkpt lat="42.97981" lon="-0.24669">
        <ele>1531.4</ele>
        <time>2016-03-11T10:22:48Z</time>
      </trkpt>
      <trkpt lat="42.97975" lon="-0.24676">
        <ele>1531.2</ele>
        <time>2016-03-11T10:22:52Z</time>
      </trkpt>
      <trkpt lat="42.97967" lon="-0.24682">
        <ele>1530.5</ele>
        <time>2016-03-11T10:22:56Z</time>
      </trkpt>
      <trkpt lat="42.97961" lon="-0.24687">
        <ele>1530.5</ele>
        <time>2016-03-11T10:22:59Z</time>
      </trkpt>
      <trkpt lat="42.97954" lon="-0.2469">
        <ele>1530.2</ele>
        <time>2016-03-11T10:23:02Z</time>
      </trkpt>
      <trkpt lat="42.97948" lon="-0.24692">
        <ele>1529.7</ele>
        <time>2016-03-11T10:23:05Z</time>
      </trkpt>
      <trkpt lat="42.9794" lon="-0.24694">
        <ele>1529.5</ele>
        <time>2016-03-11T10:23:09Z</time>
      </trkpt>
      <trkpt lat="42.97932" lon="-0.24696">
        <ele>1529.9</ele>
        <time>2016-03-11T10:23:13Z</time>
      </trkpt>
      <trkpt lat="42.97931" lon="-0.24696">
        <ele>1530</ele>
        <time>2016-03-11T10:23:14Z</time>
      </trkpt>
      <trkpt lat="42.97917" lon="-0.24702">
        <ele>1529.5</ele>
        <time>2016-03-11T10:23:21Z</time>
      </trkpt>
      <trkpt lat="42.97909" lon="-0.24705">
        <ele>1529.3</ele>
        <time>2016-03-11T10:23:25Z</time>
      </trkpt>
      <trkpt lat="42.97901" lon="-0.2471">
        <ele>1529.7</ele>
        <time>2016-03-11T10:23:29Z</time>
      </trkpt>
      <trkpt lat="42.97895" lon="-0.24716">
        <ele>1528.3</ele>
        <time>2016-03-11T10:23:33Z</time>
      </trkpt>
      <trkpt lat="42.97888" lon="-0.24724">
        <ele>1528.3</ele>
        <time>2016-03-11T10:23:37Z</time>
      </trkpt>
      <trkpt lat="42.97882" lon="-0.24729">
        <ele>1528.6</ele>
        <time>2016-03-11T10:23:40Z</time>
      </trkpt>
      <trkpt lat="42.97876" lon="-0.24735">
        <ele>1528.6</ele>
        <time>2016-03-11T10:23:43Z</time>
      </trkpt>
      <trkpt lat="42.9787" lon="-0.2474">
        <ele>1528.3</ele>
        <time>2016-03-11T10:23:46Z</time>
      </trkpt>
      <trkpt lat="42.97864" lon="-0.24746">
        <ele>1528.3</ele>
        <time>2016-03-11T10:23:49Z</time>
      </trkpt>
      <trkpt lat="42.97858" lon="-0.24752">
        <ele>1528.5</ele>
        <time>2016-03-11T10:23:52Z</time>
      </trkpt>
      <trkpt lat="42.97852" lon="-0.24757">
        <ele>1527.5</ele>
        <time>2016-03-11T10:23:55Z</time>
      </trkpt>
      <trkpt lat="42.97845" lon="-0.24761">
        <ele>1527.3</ele>
        <time>2016-03-11T10:23:58Z</time>
      </trkpt>
      <trkpt lat="42.97837" lon="-0.24765">
        <ele>1528.2</ele>
        <time>2016-03-11T10:24:02Z</time>
      </trkpt>
      <trkpt lat="42.97829" lon="-0.24768">
        <ele>1527.5</ele>
        <time>2016-03-11T10:24:06Z</time>
      </trkpt>
      <trkpt lat="42.97822" lon="-0.2477">
        <ele>1527</ele>
        <time>2016-03-11T10:24:10Z</time>
      </trkpt>
      <trkpt lat="42.97814" lon="-0.24769">
        <ele>1527.2</ele>
        <time>2016-03-11T10:24:13Z</time>
      </trkpt>
      <trkpt lat="42.97807" lon="-0.24768">
        <ele>1527</ele>
        <time>2016-03-11T10:24:16Z</time>
      </trkpt>
      <trkpt lat="42.97805" lon="-0.24767">
        <ele>1526.9</ele>
        <time>2016-03-11T10:24:17Z</time>
      </trkpt>
      <trkpt lat="42.97792" lon="-0.24762">
        <ele>1526.4</ele>
        <time>2016-03-11T10:24:22Z</time>
      </trkpt>
      <trkpt lat="42.97785" lon="-0.24759">
        <ele>1526.4</ele>
        <time>2016-03-11T10:24:25Z</time>
      </trkpt>
      <trkpt lat="42.97777" lon="-0.24757">
        <ele>1525.9</ele>
        <time>2016-03-11T10:24:28Z</time>
      </trkpt>
      <trkpt lat="42.97769" lon="-0.24754">
        <ele>1525.4</ele>
        <time>2016-03-11T10:24:31Z</time>
      </trkpt>
      <trkpt lat="42.97763" lon="-0.24749">
        <ele>1524.5</ele>
        <time>2016-03-11T10:24:34Z</time>
      </trkpt>
      <trkpt lat="42.97759" lon="-0.24742">
        <ele>1523.8</ele>
        <time>2016-03-11T10:24:37Z</time>
      </trkpt>
      <trkpt lat="42.97754" lon="-0.24733">
        <ele>1524.1</ele>
        <time>2016-03-11T10:24:40Z</time>
      </trkpt>
      <trkpt lat="42.97749" lon="-0.24725">
        <ele>1523.7</ele>
        <time>2016-03-11T10:24:43Z</time>
      </trkpt>
      <trkpt lat="42.97744" lon="-0.24716">
        <ele>1522</ele>
        <time>2016-03-11T10:24:47Z</time>
      </trkpt>
      <trkpt lat="42.97737" lon="-0.24709">
        <ele>1523</ele>
        <time>2016-03-11T10:24:52Z</time>
      </trkpt>
      <trkpt lat="42.97729" lon="-0.24706">
        <ele>1521.6</ele>
        <time>2016-03-11T10:24:57Z</time>
      </trkpt>
      <trkpt lat="42.9772" lon="-0.24705">
        <ele>1521.5</ele>
        <time>2016-03-11T10:25:02Z</time>
      </trkpt>
      <trkpt lat="42.97712" lon="-0.24702">
        <ele>1522.2</ele>
        <time>2016-03-11T10:25:07Z</time>
      </trkpt>
      <trkpt lat="42.97705" lon="-0.24699">
        <ele>1521.8</ele>
        <time>2016-03-11T10:25:10Z</time>
      </trkpt>
      <trkpt lat="42.97698" lon="-0.24696">
        <ele>1521.7</ele>
        <time>2016-03-11T10:25:14Z</time>
      </trkpt>
      <trkpt lat="42.9769" lon="-0.24693">
        <ele>1521.8</ele>
        <time>2016-03-11T10:25:18Z</time>
      </trkpt>
      <trkpt lat="42.97688" lon="-0.24693">
        <ele>1521.8</ele>
        <time>2016-03-11T10:25:19Z</time>
      </trkpt>
      <trkpt lat="42.97674" lon="-0.2469">
        <ele>1520.8</ele>
        <time>2016-03-11T10:25:26Z</time>
      </trkpt>
      <trkpt lat="42.97666" lon="-0.24688">
        <ele>1520.9</ele>
        <time>2016-03-11T10:25:30Z</time>
      </trkpt>
      <trkpt lat="42.97657" lon="-0.24688">
        <ele>1520.5</ele>
        <time>2016-03-11T10:25:34Z</time>
      </trkpt>
      <trkpt lat="42.97649" lon="-0.24689">
        <ele>1519.8</ele>
        <time>2016-03-11T10:25:38Z</time>
      </trkpt>
      <trkpt lat="42.97642" lon="-0.24692">
        <ele>1519.3</ele>
        <time>2016-03-11T10:25:41Z</time>
      </trkpt>
      <trkpt lat="42.97635" lon="-0.24696">
        <ele>1519.3</ele>
        <time>2016-03-11T10:25:44Z</time>
      </trkpt>
      <trkpt lat="42.97627" lon="-0.24702">
        <ele>1519.2</ele>
        <time>2016-03-11T10:25:48Z</time>
      </trkpt>
      <trkpt lat="42.97621" lon="-0.24708">
        <ele>1519</ele>
        <time>2016-03-11T10:25:52Z</time>
      </trkpt>
      <trkpt lat="42.97615" lon="-0.24714">
        <ele>1519.3</ele>
        <time>2016-03-11T10:25:56Z</time>
      </trkpt>
      <trkpt lat="42.97609" lon="-0.24719">
        <ele>1519.1</ele>
        <time>2016-03-11T10:26:00Z</time>
      </trkpt>
      <trkpt lat="42.97602" lon="-0.24724">
        <ele>1518.9</ele>
        <time>2016-03-11T10:26:04Z</time>
      </trkpt>
      <trkpt lat="42.97595" lon="-0.24728">
        <ele>1519.9</ele>
        <time>2016-03-11T10:26:08Z</time>
      </trkpt>
      <trkpt lat="42.97587" lon="-0.24734">
        <ele>1519.9</ele>
        <time>2016-03-11T10:26:13Z</time>
      </trkpt>
      <trkpt lat="42.97581" lon="-0.24738">
        <ele>1519.8</ele>
        <time>2016-03-11T10:26:17Z</time>
      </trkpt>
      <trkpt lat="42.97574" lon="-0.24742">
        <ele>1520.9</ele>
        <time>2016-03-11T10:26:21Z</time>
      </trkpt>
      <trkpt lat="42.97572" lon="-0.24743">
        <ele>1521.1</ele>
        <time>2016-03-11T10:26:22Z</time>
      </trkpt>
      <trkpt lat="42.97558" lon="-0.24748">
        <ele>1520.5</ele>
        <time>2016-03-11T10:26:29Z</time>
      </trkpt>
      <trkpt lat="42.97549" lon="-0.24749">
        <ele>1520.8</ele>
        <time>2016-03-11T10:26:33Z</time>
      </trkpt>
      <trkpt lat="42.97542" lon="-0.24751">
        <ele>1520.6</ele>
        <time>2016-03-11T10:26:37Z</time>
      </trkpt>
      <trkpt lat="42.97533" lon="-0.24747">
        <ele>1519.9</ele>
        <time>2016-03-11T10:26:42Z</time>
      </trkpt>
      <trkpt lat="42.97527" lon="-0.24739">
        <ele>1520</ele>
        <time>2016-03-11T10:26:47Z</time>
      </trkpt>
      <trkpt lat="42.97521" lon="-0.24732">
        <ele>1519.6</ele>
        <time>2016-03-11T10:26:52Z</time>
      </trkpt>
      <trkpt lat="42.97514" lon="-0.24726">
        <ele>1520.2</ele>
        <time>2016-03-11T10:26:57Z</time>
      </trkpt>
      <trkpt lat="42.97506" lon="-0.24727">
        <ele>1520</ele>
        <time>2016-03-11T10:27:05Z</time>
      </trkpt>
      <trkpt lat="42.97498" lon="-0.24731">
        <ele>1521.4</ele>
        <time>2016-03-11T10:27:29Z</time>
      </trkpt>
      <trkpt lat="42.97497" lon="-0.24731">
        <ele>1521.3</ele>
        <time>2016-03-11T10:27:30Z</time>
      </trkpt>
      <trkpt lat="42.97482" lon="-0.24733">
        <ele>1521.5</ele>
        <time>2016-03-11T10:27:43Z</time>
      </trkpt>
      <trkpt lat="42.97474" lon="-0.24734">
        <ele>1521.7</ele>
        <time>2016-03-11T10:27:48Z</time>
      </trkpt>
      <trkpt lat="42.97466" lon="-0.24734">
        <ele>1521.7</ele>
        <time>2016-03-11T10:27:53Z</time>
      </trkpt>
      <trkpt lat="42.97458" lon="-0.24735">
        <ele>1521.9</ele>
        <time>2016-03-11T10:27:58Z</time>
      </trkpt>
      <trkpt lat="42.9745" lon="-0.24737">
        <ele>1522.8</ele>
        <time>2016-03-11T10:28:03Z</time>
      </trkpt>
      <trkpt lat="42.97441" lon="-0.24738">
        <ele>1523</ele>
        <time>2016-03-11T10:28:09Z</time>
      </trkpt>
      <trkpt lat="42.97433" lon="-0.2474">
        <ele>1524.1</ele>
        <time>2016-03-11T10:28:15Z</time>
      </trkpt>
      <trkpt lat="42.97425" lon="-0.24745">
        <ele>1524.8</ele>
        <time>2016-03-11T10:28:21Z</time>
      </trkpt>
      <trkpt lat="42.97418" lon="-0.24751">
        <ele>1526.4</ele>
        <time>2016-03-11T10:28:27Z</time>
      </trkpt>
      <trkpt lat="42.97411" lon="-0.24756">
        <ele>1528.5</ele>
        <time>2016-03-11T10:28:33Z</time>
      </trkpt>
      <trkpt lat="42.97409" lon="-0.24757">
        <ele>1528.7</ele>
        <time>2016-03-11T10:28:34Z</time>
      </trkpt>
      <trkpt lat="42.97395" lon="-0.24759">
        <ele>1529.4</ele>
        <time>2016-03-11T10:28:46Z</time>
      </trkpt>
      <trkpt lat="42.97387" lon="-0.24759">
        <ele>1530.7</ele>
        <time>2016-03-11T10:28:52Z</time>
      </trkpt>
      <trkpt lat="42.97379" lon="-0.24758">
        <ele>1531.5</ele>
        <time>2016-03-11T10:28:58Z</time>
      </trkpt>
      <trkpt lat="42.9737" lon="-0.24759">
        <ele>1531.7</ele>
        <time>2016-03-11T10:29:04Z</time>
      </trkpt>
      <trkpt lat="42.97362" lon="-0.24759">
        <ele>1532.2</ele>
        <time>2016-03-11T10:29:10Z</time>
      </trkpt>
      <trkpt lat="42.97354" lon="-0.24759">
        <ele>1533.4</ele>
        <time>2016-03-11T10:29:16Z</time>
      </trkpt>
      <trkpt lat="42.97346" lon="-0.2476">
        <ele>1535.5</ele>
        <time>2016-03-11T10:29:22Z</time>
      </trkpt>
      <trkpt lat="42.97339" lon="-0.24761">
        <ele>1536.6</ele>
        <time>2016-03-11T10:29:28Z</time>
      </trkpt>
      <trkpt lat="42.9733" lon="-0.24763">
        <ele>1537.1</ele>
        <time>2016-03-11T10:29:34Z</time>
      </trkpt>
      <trkpt lat="42.97328" lon="-0.24764">
        <ele>1537.1</ele>
        <time>2016-03-11T10:29:35Z</time>
      </trkpt>
      <trkpt lat="42.97314" lon="-0.24771">
        <ele>1537.7</ele>
        <time>2016-03-11T10:29:45Z</time>
      </trkpt>
      <trkpt lat="42.97307" lon="-0.24775">
        <ele>1537.8</ele>
        <time>2016-03-11T10:29:50Z</time>
      </trkpt>
      <trkpt lat="42.973" lon="-0.24781">
        <ele>1538.5</ele>
        <time>2016-03-11T10:29:55Z</time>
      </trkpt>
      <trkpt lat="42.97294" lon="-0.24788">
        <ele>1539.1</ele>
        <time>2016-03-11T10:30:00Z</time>
      </trkpt>
      <trkpt lat="42.97288" lon="-0.24796">
        <ele>1539.7</ele>
        <time>2016-03-11T10:30:05Z</time>
      </trkpt>
      <trkpt lat="42.97283" lon="-0.24804">
        <ele>1539.6</ele>
        <time>2016-03-11T10:30:10Z</time>
      </trkpt>
      <trkpt lat="42.97278" lon="-0.24812">
        <ele>1541</ele>
        <time>2016-03-11T10:30:15Z</time>
      </trkpt>
      <trkpt lat="42.97273" lon="-0.24819">
        <ele>1541.4</ele>
        <time>2016-03-11T10:30:19Z</time>
      </trkpt>
      <trkpt lat="42.97268" lon="-0.24828">
        <ele>1541.4</ele>
        <time>2016-03-11T10:30:23Z</time>
      </trkpt>
      <trkpt lat="42.97263" lon="-0.24837">
        <ele>1541.4</ele>
        <time>2016-03-11T10:30:28Z</time>
      </trkpt>
      <trkpt lat="42.97257" lon="-0.24846">
        <ele>1541.6</ele>
        <time>2016-03-11T10:30:33Z</time>
      </trkpt>
      <trkpt lat="42.97253" lon="-0.24855">
        <ele>1542.5</ele>
        <time>2016-03-11T10:30:38Z</time>
      </trkpt>
      <trkpt lat="42.97252" lon="-0.24857">
        <ele>1542.7</ele>
        <time>2016-03-11T10:30:39Z</time>
      </trkpt>
      <trkpt lat="42.97241" lon="-0.2487">
        <ele>1543.7</ele>
        <time>2016-03-11T10:30:49Z</time>
      </trkpt>
      <trkpt lat="42.97235" lon="-0.24877">
        <ele>1544.2</ele>
        <time>2016-03-11T10:30:54Z</time>
      </trkpt>
      <trkpt lat="42.97228" lon="-0.24884">
        <ele>1544.2</ele>
        <time>2016-03-11T10:30:58Z</time>
      </trkpt>
      <trkpt lat="42.97223" lon="-0.24891">
        <ele>1543.9</ele>
        <time>2016-03-11T10:31:01Z</time>
      </trkpt>
      <trkpt lat="42.97218" lon="-0.24898">
        <ele>1543.7</ele>
        <time>2016-03-11T10:31:04Z</time>
      </trkpt>
      <trkpt lat="42.97212" lon="-0.24904">
        <ele>1543.4</ele>
        <time>2016-03-11T10:31:07Z</time>
      </trkpt>
      <trkpt lat="42.97207" lon="-0.2491">
        <ele>1543.2</ele>
        <time>2016-03-11T10:31:09Z</time>
      </trkpt>
      <trkpt lat="42.97204" lon="-0.24921">
        <ele>1542.4</ele>
        <time>2016-03-11T10:31:13Z</time>
      </trkpt>
      <trkpt lat="42.97202" lon="-0.24932">
        <ele>1542.7</ele>
        <time>2016-03-11T10:31:18Z</time>
      </trkpt>
      <trkpt lat="42.972" lon="-0.24943">
        <ele>1542.4</ele>
        <time>2016-03-11T10:31:22Z</time>
      </trkpt>
      <trkpt lat="42.97197" lon="-0.24952">
        <ele>1542.5</ele>
        <time>2016-03-11T10:31:26Z</time>
      </trkpt>
      <trkpt lat="42.97195" lon="-0.24962">
        <ele>1542.6</ele>
        <time>2016-03-11T10:31:30Z</time>
      </trkpt>
      <trkpt lat="42.97192" lon="-0.24971">
        <ele>1542.1</ele>
        <time>2016-03-11T10:31:34Z</time>
      </trkpt>
      <trkpt lat="42.9719" lon="-0.24981">
        <ele>1542.2</ele>
        <time>2016-03-11T10:31:38Z</time>
      </trkpt>
      <trkpt lat="42.97188" lon="-0.24991">
        <ele>1542.8</ele>
        <time>2016-03-11T10:31:42Z</time>
      </trkpt>
      <trkpt lat="42.97188" lon="-0.24994">
        <ele>1542.9</ele>
        <time>2016-03-11T10:31:43Z</time>
      </trkpt>
      <trkpt lat="42.97186" lon="-0.25012">
        <ele>1543.2</ele>
        <time>2016-03-11T10:31:49Z</time>
      </trkpt>
      <trkpt lat="42.97184" lon="-0.25023">
        <ele>1542.9</ele>
        <time>2016-03-11T10:31:53Z</time>
      </trkpt>
      <trkpt lat="42.97182" lon="-0.25034">
        <ele>1542.3</ele>
        <time>2016-03-11T10:31:57Z</time>
      </trkpt>
      <trkpt lat="42.9718" lon="-0.25045">
        <ele>1542.1</ele>
        <time>2016-03-11T10:32:01Z</time>
      </trkpt>
      <trkpt lat="42.97178" lon="-0.25055">
        <ele>1542.4</ele>
        <time>2016-03-11T10:32:05Z</time>
      </trkpt>
      <trkpt lat="42.97176" lon="-0.25067">
        <ele>1542.7</ele>
        <time>2016-03-11T10:32:10Z</time>
      </trkpt>
      <trkpt lat="42.97174" lon="-0.25076">
        <ele>1542.5</ele>
        <time>2016-03-11T10:32:14Z</time>
      </trkpt>
      <trkpt lat="42.97172" lon="-0.25087">
        <ele>1542</ele>
        <time>2016-03-11T10:32:19Z</time>
      </trkpt>
      <trkpt lat="42.97169" lon="-0.25098">
        <ele>1543.2</ele>
        <time>2016-03-11T10:32:24Z</time>
      </trkpt>
      <trkpt lat="42.97167" lon="-0.25109">
        <ele>1543.5</ele>
        <time>2016-03-11T10:32:29Z</time>
      </trkpt>
      <trkpt lat="42.97165" lon="-0.25121">
        <ele>1543.5</ele>
        <time>2016-03-11T10:32:34Z</time>
      </trkpt>
      <trkpt lat="42.97165" lon="-0.25132">
        <ele>1543.7</ele>
        <time>2016-03-11T10:32:38Z</time>
      </trkpt>
      <trkpt lat="42.97168" lon="-0.25143">
        <ele>1544</ele>
        <time>2016-03-11T10:32:42Z</time>
      </trkpt>
      <trkpt lat="42.97171" lon="-0.25153">
        <ele>1544.2</ele>
        <time>2016-03-11T10:32:46Z</time>
      </trkpt>
      <trkpt lat="42.97172" lon="-0.25157">
        <ele>1544.1</ele>
        <time>2016-03-11T10:32:47Z</time>
      </trkpt>
      <trkpt lat="42.97176" lon="-0.25171">
        <ele>1543.1</ele>
        <time>2016-03-11T10:32:51Z</time>
      </trkpt>
      <trkpt lat="42.97179" lon="-0.25179">
        <ele>1542.5</ele>
        <time>2016-03-11T10:32:53Z</time>
      </trkpt>
      <trkpt lat="42.97182" lon="-0.2519">
        <ele>1542.6</ele>
        <time>2016-03-11T10:32:56Z</time>
      </trkpt>
      <trkpt lat="42.97184" lon="-0.252">
        <ele>1542.4</ele>
        <time>2016-03-11T10:32:59Z</time>
      </trkpt>
      <trkpt lat="42.97187" lon="-0.25208">
        <ele>1542.4</ele>
        <time>2016-03-11T10:33:02Z</time>
      </trkpt>
      <trkpt lat="42.97189" lon="-0.25218">
        <ele>1542.3</ele>
        <time>2016-03-11T10:33:05Z</time>
      </trkpt>
      <trkpt lat="42.97193" lon="-0.25228">
        <ele>1541.5</ele>
        <time>2016-03-11T10:33:08Z</time>
      </trkpt>
      <trkpt lat="42.97196" lon="-0.25239">
        <ele>1541</ele>
        <time>2016-03-11T10:33:11Z</time>
      </trkpt>
      <trkpt lat="42.97199" lon="-0.2525">
        <ele>1540.6</ele>
        <time>2016-03-11T10:33:14Z</time>
      </trkpt>
      <trkpt lat="42.97201" lon="-0.2526">
        <ele>1540.1</ele>
        <time>2016-03-11T10:33:17Z</time>
      </trkpt>
      <trkpt lat="42.97202" lon="-0.25272">
        <ele>1539.7</ele>
        <time>2016-03-11T10:33:21Z</time>
      </trkpt>
      <trkpt lat="42.97203" lon="-0.25284">
        <ele>1539.2</ele>
        <time>2016-03-11T10:33:25Z</time>
      </trkpt>
      <trkpt lat="42.97204" lon="-0.25295">
        <ele>1538.9</ele>
        <time>2016-03-11T10:33:28Z</time>
      </trkpt>
      <trkpt lat="42.97204" lon="-0.25307">
        <ele>1538.4</ele>
        <time>2016-03-11T10:33:32Z</time>
      </trkpt>
      <trkpt lat="42.97204" lon="-0.25318">
        <ele>1538.4</ele>
        <time>2016-03-11T10:33:36Z</time>
      </trkpt>
      <trkpt lat="42.97202" lon="-0.2533">
        <ele>1539.2</ele>
        <time>2016-03-11T10:33:40Z</time>
      </trkpt>
      <trkpt lat="42.97201" lon="-0.25339">
        <ele>1539.7</ele>
        <time>2016-03-11T10:33:43Z</time>
      </trkpt>
      <trkpt lat="42.972" lon="-0.2535">
        <ele>1539.2</ele>
        <time>2016-03-11T10:33:46Z</time>
      </trkpt>
      <trkpt lat="42.97198" lon="-0.25361">
        <ele>1538.5</ele>
        <time>2016-03-11T10:33:49Z</time>
      </trkpt>
      <trkpt lat="42.97197" lon="-0.25366">
        <ele>1538.3</ele>
        <time>2016-03-11T10:33:50Z</time>
      </trkpt>
      <trkpt lat="42.97195" lon="-0.25381">
        <ele>1537.3</ele>
        <time>2016-03-11T10:33:53Z</time>
      </trkpt>
      <trkpt lat="42.97194" lon="-0.25392">
        <ele>1536.2</ele>
        <time>2016-03-11T10:33:55Z</time>
      </trkpt>
      <trkpt lat="42.97191" lon="-0.25402">
        <ele>1535.9</ele>
        <time>2016-03-11T10:33:57Z</time>
      </trkpt>
      <trkpt lat="42.97189" lon="-0.25412">
        <ele>1535.5</ele>
        <time>2016-03-11T10:33:59Z</time>
      </trkpt>
      <trkpt lat="42.97186" lon="-0.25422">
        <ele>1534.5</ele>
        <time>2016-03-11T10:34:02Z</time>
      </trkpt>
      <trkpt lat="42.97183" lon="-0.2543">
        <ele>1533.4</ele>
        <time>2016-03-11T10:34:05Z</time>
      </trkpt>
      <trkpt lat="42.97179" lon="-0.25439">
        <ele>1532.9</ele>
        <time>2016-03-11T10:34:08Z</time>
      </trkpt>
      <trkpt lat="42.97175" lon="-0.25449">
        <ele>1532.1</ele>
        <time>2016-03-11T10:34:11Z</time>
      </trkpt>
      <trkpt lat="42.97171" lon="-0.25458">
        <ele>1532.1</ele>
        <time>2016-03-11T10:34:13Z</time>
      </trkpt>
      <trkpt lat="42.97168" lon="-0.25465">
        <ele>1531.8</ele>
        <time>2016-03-11T10:34:15Z</time>
      </trkpt>
      <trkpt lat="42.97165" lon="-0.25473">
        <ele>1531.2</ele>
        <time>2016-03-11T10:34:17Z</time>
      </trkpt>
      <trkpt lat="42.97162" lon="-0.25481">
        <ele>1530.9</ele>
        <time>2016-03-11T10:34:19Z</time>
      </trkpt>
      <trkpt lat="42.97159" lon="-0.25489">
        <ele>1530.7</ele>
        <time>2016-03-11T10:34:21Z</time>
      </trkpt>
      <trkpt lat="42.97157" lon="-0.25497">
        <ele>1530.5</ele>
        <time>2016-03-11T10:34:23Z</time>
      </trkpt>
      <trkpt lat="42.97153" lon="-0.25507">
        <ele>1529.5</ele>
        <time>2016-03-11T10:34:26Z</time>
      </trkpt>
      <trkpt lat="42.9715" lon="-0.25516">
        <ele>1528.8</ele>
        <time>2016-03-11T10:34:30Z</time>
      </trkpt>
      <trkpt lat="42.97147" lon="-0.25526">
        <ele>1529.1</ele>
        <time>2016-03-11T10:34:34Z</time>
      </trkpt>
      <trkpt lat="42.97144" lon="-0.25535">
        <ele>1530</ele>
        <time>2016-03-11T10:34:38Z</time>
      </trkpt>
      <trkpt lat="42.97141" lon="-0.25545">
        <ele>1529.5</ele>
        <time>2016-03-11T10:34:42Z</time>
      </trkpt>
      <trkpt lat="42.97138" lon="-0.25556">
        <ele>1529</ele>
        <time>2016-03-11T10:34:48Z</time>
      </trkpt>
      <trkpt lat="42.97136" lon="-0.25566">
        <ele>1528.7</ele>
        <time>2016-03-11T10:35:07Z</time>
      </trkpt>
      <trkpt lat="42.97135" lon="-0.25568">
        <ele>1528.7</ele>
        <time>2016-03-11T10:35:08Z</time>
      </trkpt>
      <trkpt lat="42.97121" lon="-0.25577">
        <ele>1528.3</ele>
        <time>2016-03-11T10:35:16Z</time>
      </trkpt>
      <trkpt lat="42.97115" lon="-0.25584">
        <ele>1527.8</ele>
        <time>2016-03-11T10:35:19Z</time>
      </trkpt>
      <trkpt lat="42.97118" lon="-0.25594">
        <ele>1527.1</ele>
        <time>2016-03-11T10:35:24Z</time>
      </trkpt>
      <trkpt lat="42.97123" lon="-0.25601">
        <ele>1527.6</ele>
        <time>2016-03-11T10:35:29Z</time>
      </trkpt>
      <trkpt lat="42.97129" lon="-0.2561">
        <ele>1527</ele>
        <time>2016-03-11T10:35:34Z</time>
      </trkpt>
      <trkpt lat="42.97132" lon="-0.25621">
        <ele>1527.6</ele>
        <time>2016-03-11T10:35:39Z</time>
      </trkpt>
      <trkpt lat="42.97134" lon="-0.25633">
        <ele>1528</ele>
        <time>2016-03-11T10:35:44Z</time>
      </trkpt>
      <trkpt lat="42.97135" lon="-0.25644">
        <ele>1528.6</ele>
        <time>2016-03-11T10:35:49Z</time>
      </trkpt>
      <trkpt lat="42.97135" lon="-0.25655">
        <ele>1528.9</ele>
        <time>2016-03-11T10:35:53Z</time>
      </trkpt>
      <trkpt lat="42.97134" lon="-0.25667">
        <ele>1528.3</ele>
        <time>2016-03-11T10:35:58Z</time>
      </trkpt>
      <trkpt lat="42.97133" lon="-0.25678">
        <ele>1528.5</ele>
        <time>2016-03-11T10:36:03Z</time>
      </trkpt>
      <trkpt lat="42.97131" lon="-0.25688">
        <ele>1529.2</ele>
        <time>2016-03-11T10:36:08Z</time>
      </trkpt>
      <trkpt lat="42.97129" lon="-0.257">
        <ele>1530.7</ele>
        <time>2016-03-11T10:36:14Z</time>
      </trkpt>
      <trkpt lat="42.97128" lon="-0.25701">
        <ele>1530.9</ele>
        <time>2016-03-11T10:36:15Z</time>
      </trkpt>
      <trkpt lat="42.97124" lon="-0.25721">
        <ele>1533.7</ele>
        <time>2016-03-11T10:36:26Z</time>
      </trkpt>
      <trkpt lat="42.97121" lon="-0.25732">
        <ele>1534</ele>
        <time>2016-03-11T10:36:32Z</time>
      </trkpt>
      <trkpt lat="42.97117" lon="-0.25742">
        <ele>1535</ele>
        <time>2016-03-11T10:36:38Z</time>
      </trkpt>
      <trkpt lat="42.97115" lon="-0.25753">
        <ele>1535.2</ele>
        <time>2016-03-11T10:36:43Z</time>
      </trkpt>
      <trkpt lat="42.97112" lon="-0.25763">
        <ele>1535</ele>
        <time>2016-03-11T10:36:48Z</time>
      </trkpt>
      <trkpt lat="42.9711" lon="-0.25774">
        <ele>1536.2</ele>
        <time>2016-03-11T10:36:53Z</time>
      </trkpt>
      <trkpt lat="42.97109" lon="-0.25784">
        <ele>1536</ele>
        <time>2016-03-11T10:36:57Z</time>
      </trkpt>
      <trkpt lat="42.97107" lon="-0.25795">
        <ele>1535.8</ele>
        <time>2016-03-11T10:37:01Z</time>
      </trkpt>
      <trkpt lat="42.97106" lon="-0.25804">
        <ele>1536.5</ele>
        <time>2016-03-11T10:37:04Z</time>
      </trkpt>
      <trkpt lat="42.97105" lon="-0.25815">
        <ele>1536</ele>
        <time>2016-03-11T10:37:07Z</time>
      </trkpt>
      <trkpt lat="42.97108" lon="-0.25824">
        <ele>1534.9</ele>
        <time>2016-03-11T10:37:12Z</time>
      </trkpt>
      <trkpt lat="42.97113" lon="-0.25832">
        <ele>1536</ele>
        <time>2016-03-11T10:37:18Z</time>
      </trkpt>
      <trkpt lat="42.97114" lon="-0.25833">
        <ele>1536.1</ele>
        <time>2016-03-11T10:37:19Z</time>
      </trkpt>
      <trkpt lat="42.97126" lon="-0.25847">
        <ele>1537.6</ele>
        <time>2016-03-11T10:37:28Z</time>
      </trkpt>
      <trkpt lat="42.9713" lon="-0.25856">
        <ele>1538.5</ele>
        <time>2016-03-11T10:37:33Z</time>
      </trkpt>
      <trkpt lat="42.97133" lon="-0.25867">
        <ele>1538.6</ele>
        <time>2016-03-11T10:37:38Z</time>
      </trkpt>
      <trkpt lat="42.97136" lon="-0.25877">
        <ele>1537.9</ele>
        <time>2016-03-11T10:37:43Z</time>
      </trkpt>
      <trkpt lat="42.9714" lon="-0.25888">
        <ele>1539</ele>
        <time>2016-03-11T10:37:48Z</time>
      </trkpt>
      <trkpt lat="42.97144" lon="-0.25897">
        <ele>1538.7</ele>
        <time>2016-03-11T10:37:53Z</time>
      </trkpt>
      <trkpt lat="42.97149" lon="-0.25906">
        <ele>1539.9</ele>
        <time>2016-03-11T10:37:58Z</time>
      </trkpt>
      <trkpt lat="42.97154" lon="-0.25915">
        <ele>1540.9</ele>
        <time>2016-03-11T10:38:03Z</time>
      </trkpt>
      <trkpt lat="42.97158" lon="-0.25925">
        <ele>1540.5</ele>
        <time>2016-03-11T10:38:08Z</time>
      </trkpt>
      <trkpt lat="42.97161" lon="-0.25937">
        <ele>1540.7</ele>
        <time>2016-03-11T10:38:13Z</time>
      </trkpt>
      <trkpt lat="42.97163" lon="-0.25947">
        <ele>1541.8</ele>
        <time>2016-03-11T10:38:17Z</time>
      </trkpt>
      <trkpt lat="42.97164" lon="-0.25958">
        <ele>1541.3</ele>
        <time>2016-03-11T10:38:21Z</time>
      </trkpt>
      <trkpt lat="42.97165" lon="-0.2596">
        <ele>1540.9</ele>
        <time>2016-03-11T10:38:22Z</time>
      </trkpt>
      <trkpt lat="42.97167" lon="-0.25979">
        <ele>1542.2</ele>
        <time>2016-03-11T10:38:29Z</time>
      </trkpt>
      <trkpt lat="42.97169" lon="-0.25989">
        <ele>1541.7</ele>
        <time>2016-03-11T10:38:33Z</time>
      </trkpt>
      <trkpt lat="42.97171" lon="-0.26">
        <ele>1541.4</ele>
        <time>2016-03-11T10:38:37Z</time>
      </trkpt>
      <trkpt lat="42.97173" lon="-0.26011">
        <ele>1541.9</ele>
        <time>2016-03-11T10:38:41Z</time>
      </trkpt>
      <trkpt lat="42.97175" lon="-0.2602">
        <ele>1542.4</ele>
        <time>2016-03-11T10:38:45Z</time>
      </trkpt>
      <trkpt lat="42.97177" lon="-0.26031">
        <ele>1541.8</ele>
        <time>2016-03-11T10:38:49Z</time>
      </trkpt>
      <trkpt lat="42.97178" lon="-0.26041">
        <ele>1541.9</ele>
        <time>2016-03-11T10:38:53Z</time>
      </trkpt>
      <trkpt lat="42.97179" lon="-0.26052">
        <ele>1542</ele>
        <time>2016-03-11T10:38:57Z</time>
      </trkpt>
      <trkpt lat="42.97179" lon="-0.26063">
        <ele>1541.9</ele>
        <time>2016-03-11T10:39:01Z</time>
      </trkpt>
      <trkpt lat="42.97178" lon="-0.26074">
        <ele>1541.8</ele>
        <time>2016-03-11T10:39:05Z</time>
      </trkpt>
      <trkpt lat="42.97177" lon="-0.26085">
        <ele>1541.4</ele>
        <time>2016-03-11T10:39:09Z</time>
      </trkpt>
      <trkpt lat="42.97177" lon="-0.26095">
        <ele>1540.7</ele>
        <time>2016-03-11T10:39:13Z</time>
      </trkpt>
      <trkpt lat="42.97176" lon="-0.26105">
        <ele>1542.1</ele>
        <time>2016-03-11T10:39:17Z</time>
      </trkpt>
      <trkpt lat="42.97175" lon="-0.26117">
        <ele>1542.2</ele>
        <time>2016-03-11T10:39:22Z</time>
      </trkpt>
      <trkpt lat="42.97175" lon="-0.2612">
        <ele>1542.3</ele>
        <time>2016-03-11T10:39:23Z</time>
      </trkpt>
      <trkpt lat="42.97171" lon="-0.26138">
        <ele>1541.8</ele>
        <time>2016-03-11T10:39:31Z</time>
      </trkpt>
      <trkpt lat="42.97168" lon="-0.26148">
        <ele>1541.9</ele>
        <time>2016-03-11T10:39:36Z</time>
      </trkpt>
      <trkpt lat="42.97166" lon="-0.26158">
        <ele>1543.1</ele>
        <time>2016-03-11T10:39:42Z</time>
      </trkpt>
      <trkpt lat="42.97161" lon="-0.26168">
        <ele>1543.7</ele>
        <time>2016-03-11T10:40:24Z</time>
      </trkpt>
      <trkpt lat="42.97161" lon="-0.26169">
        <ele>1543.5</ele>
        <time>2016-03-11T10:40:25Z</time>
      </trkpt>
      <trkpt lat="42.97153" lon="-0.26185">
        <ele>1543.8</ele>
        <time>2016-03-11T10:40:35Z</time>
      </trkpt>
      <trkpt lat="42.97147" lon="-0.26192">
        <ele>1545.6</ele>
        <time>2016-03-11T10:40:40Z</time>
      </trkpt>
      <trkpt lat="42.97141" lon="-0.26199">
        <ele>1545.8</ele>
        <time>2016-03-11T10:40:45Z</time>
      </trkpt>
      <trkpt lat="42.97135" lon="-0.26207">
        <ele>1546</ele>
        <time>2016-03-11T10:40:51Z</time>
      </trkpt>
      <trkpt lat="42.97129" lon="-0.26214">
        <ele>1547.1</ele>
        <time>2016-03-11T10:40:57Z</time>
      </trkpt>
      <trkpt lat="42.97122" lon="-0.26223">
        <ele>1548.4</ele>
        <time>2016-03-11T10:41:04Z</time>
      </trkpt>
      <trkpt lat="42.97116" lon="-0.26229">
        <ele>1550.1</ele>
        <time>2016-03-11T10:41:10Z</time>
      </trkpt>
      <trkpt lat="42.97109" lon="-0.26235">
        <ele>1550.4</ele>
        <time>2016-03-11T10:41:17Z</time>
      </trkpt>
      <trkpt lat="42.97101" lon="-0.2624">
        <ele>1551.4</ele>
        <time>2016-03-11T10:41:25Z</time>
      </trkpt>
      <trkpt lat="42.97093" lon="-0.26241">
        <ele>1553.1</ele>
        <time>2016-03-11T10:41:39Z</time>
      </trkpt>
      <trkpt lat="42.97092" lon="-0.26241">
        <ele>1552.8</ele>
        <time>2016-03-11T10:41:40Z</time>
      </trkpt>
      <trkpt lat="42.97076" lon="-0.26238">
        <ele>1553.2</ele>
        <time>2016-03-11T10:41:54Z</time>
      </trkpt>
      <trkpt lat="42.97068" lon="-0.26235">
        <ele>1554.2</ele>
        <time>2016-03-11T10:42:00Z</time>
      </trkpt>
      <trkpt lat="42.9706" lon="-0.26232">
        <ele>1553.5</ele>
        <time>2016-03-11T10:42:06Z</time>
      </trkpt>
      <trkpt lat="42.97052" lon="-0.26228">
        <ele>1555.5</ele>
        <time>2016-03-11T10:42:12Z</time>
      </trkpt>
      <trkpt lat="42.97044" lon="-0.26223">
        <ele>1556.3</ele>
        <time>2016-03-11T10:42:18Z</time>
      </trkpt>
      <trkpt lat="42.97037" lon="-0.26219">
        <ele>1556.7</ele>
        <time>2016-03-11T10:42:23Z</time>
      </trkpt>
      <trkpt lat="42.9703" lon="-0.26216">
        <ele>1557.5</ele>
        <time>2016-03-11T10:42:28Z</time>
      </trkpt>
      <trkpt lat="42.97021" lon="-0.26212">
        <ele>1557.2</ele>
        <time>2016-03-11T10:42:34Z</time>
      </trkpt>
      <trkpt lat="42.97013" lon="-0.26211">
        <ele>1558</ele>
        <time>2016-03-11T10:42:39Z</time>
      </trkpt>
      <trkpt lat="42.97004" lon="-0.26212">
        <ele>1559.1</ele>
        <time>2016-03-11T10:42:45Z</time>
      </trkpt>
      <trkpt lat="42.97003" lon="-0.26212">
        <ele>1559.4</ele>
        <time>2016-03-11T10:42:46Z</time>
      </trkpt>
      <trkpt lat="42.96989" lon="-0.26218">
        <ele>1561.1</ele>
        <time>2016-03-11T10:42:56Z</time>
      </trkpt>
      <trkpt lat="42.96981" lon="-0.26222">
        <ele>1561</ele>
        <time>2016-03-11T10:43:02Z</time>
      </trkpt>
      <trkpt lat="42.96973" lon="-0.26224">
        <ele>1561.8</ele>
        <time>2016-03-11T10:43:08Z</time>
      </trkpt>
      <trkpt lat="42.96964" lon="-0.26224">
        <ele>1563</ele>
        <time>2016-03-11T10:43:14Z</time>
      </trkpt>
      <trkpt lat="42.96958" lon="-0.26218">
        <ele>1563.5</ele>
        <time>2016-03-11T10:43:20Z</time>
      </trkpt>
      <trkpt lat="42.96952" lon="-0.2621">
        <ele>1564.8</ele>
        <time>2016-03-11T10:43:26Z</time>
      </trkpt>
      <trkpt lat="42.96946" lon="-0.26201">
        <ele>1565.7</ele>
        <time>2016-03-11T10:43:32Z</time>
      </trkpt>
      <trkpt lat="42.9694" lon="-0.26193">
        <ele>1565.7</ele>
        <time>2016-03-11T10:43:38Z</time>
      </trkpt>
      <trkpt lat="42.96934" lon="-0.26185">
        <ele>1565.6</ele>
        <time>2016-03-11T10:43:44Z</time>
      </trkpt>
      <trkpt lat="42.96927" lon="-0.26176">
        <ele>1567</ele>
        <time>2016-03-11T10:43:49Z</time>
      </trkpt>
      <trkpt lat="42.96926" lon="-0.26175">
        <ele>1567.1</ele>
        <time>2016-03-11T10:43:50Z</time>
      </trkpt>
      <trkpt lat="42.96913" lon="-0.26163">
        <ele>1567.2</ele>
        <time>2016-03-11T10:44:00Z</time>
      </trkpt>
      <trkpt lat="42.96906" lon="-0.26159">
        <ele>1567.5</ele>
        <time>2016-03-11T10:44:05Z</time>
      </trkpt>
      <trkpt lat="42.96899" lon="-0.26155">
        <ele>1568.1</ele>
        <time>2016-03-11T10:44:10Z</time>
      </trkpt>
      <trkpt lat="42.96891" lon="-0.26151">
        <ele>1568.8</ele>
        <time>2016-03-11T10:44:15Z</time>
      </trkpt>
      <trkpt lat="42.96884" lon="-0.26146">
        <ele>1569</ele>
        <time>2016-03-11T10:44:20Z</time>
      </trkpt>
      <trkpt lat="42.96876" lon="-0.26142">
        <ele>1569.4</ele>
        <time>2016-03-11T10:44:26Z</time>
      </trkpt>
      <trkpt lat="42.96869" lon="-0.26138">
        <ele>1570.8</ele>
        <time>2016-03-11T10:44:31Z</time>
      </trkpt>
      <trkpt lat="42.96861" lon="-0.26134">
        <ele>1572</ele>
        <time>2016-03-11T10:44:37Z</time>
      </trkpt>
      <trkpt lat="42.96853" lon="-0.2613">
        <ele>1573</ele>
        <time>2016-03-11T10:44:43Z</time>
      </trkpt>
      <trkpt lat="42.96845" lon="-0.26126">
        <ele>1574</ele>
        <time>2016-03-11T10:44:49Z</time>
      </trkpt>
      <trkpt lat="42.96837" lon="-0.26122">
        <ele>1574.5</ele>
        <time>2016-03-11T10:44:55Z</time>
      </trkpt>
      <trkpt lat="42.96835" lon="-0.26121">
        <ele>1574.7</ele>
        <time>2016-03-11T10:44:56Z</time>
      </trkpt>
      <trkpt lat="42.96821" lon="-0.26114">
        <ele>1576.1</ele>
        <time>2016-03-11T10:45:06Z</time>
      </trkpt>
      <trkpt lat="42.96814" lon="-0.26109">
        <ele>1576.8</ele>
        <time>2016-03-11T10:45:12Z</time>
      </trkpt>
      <trkpt lat="42.96806" lon="-0.26104">
        <ele>1577.2</ele>
        <time>2016-03-11T10:45:18Z</time>
      </trkpt>
      <trkpt lat="42.96798" lon="-0.261">
        <ele>1578.3</ele>
        <time>2016-03-11T10:45:24Z</time>
      </trkpt>
      <trkpt lat="42.96791" lon="-0.26097">
        <ele>1578.1</ele>
        <time>2016-03-11T10:45:29Z</time>
      </trkpt>
      <trkpt lat="42.96783" lon="-0.26093">
        <ele>1578.3</ele>
        <time>2016-03-11T10:45:34Z</time>
      </trkpt>
      <trkpt lat="42.96776" lon="-0.26088">
        <ele>1580</ele>
        <time>2016-03-11T10:45:39Z</time>
      </trkpt>
      <trkpt lat="42.96769" lon="-0.26084">
        <ele>1581.2</ele>
        <time>2016-03-11T10:45:44Z</time>
      </trkpt>
      <trkpt lat="42.96763" lon="-0.26077">
        <ele>1582</ele>
        <time>2016-03-11T10:45:49Z</time>
      </trkpt>
      <trkpt lat="42.96757" lon="-0.26069">
        <ele>1581.6</ele>
        <time>2016-03-11T10:45:54Z</time>
      </trkpt>
      <trkpt lat="42.96754" lon="-0.26058">
        <ele>1581.6</ele>
        <time>2016-03-11T10:45:59Z</time>
      </trkpt>
      <trkpt lat="42.96755" lon="-0.26056">
        <ele>1581.5</ele>
        <time>2016-03-11T10:46:00Z</time>
      </trkpt>
      <trkpt lat="42.96763" lon="-0.26041">
        <ele>1581.7</ele>
        <time>2016-03-11T10:46:08Z</time>
      </trkpt>
      <trkpt lat="42.96771" lon="-0.26039">
        <ele>1582</ele>
        <time>2016-03-11T10:46:16Z</time>
      </trkpt>
      <trkpt lat="42.9678" lon="-0.26042">
        <ele>1581.9</ele>
        <time>2016-03-11T10:46:23Z</time>
      </trkpt>
      <trkpt lat="42.96788" lon="-0.26045">
        <ele>1581.7</ele>
        <time>2016-03-11T10:46:32Z</time>
      </trkpt>
      <trkpt lat="42.96795" lon="-0.2605">
        <ele>1581.5</ele>
        <time>2016-03-11T10:46:38Z</time>
      </trkpt>
      <trkpt lat="42.96804" lon="-0.26055">
        <ele>1582.1</ele>
        <time>2016-03-11T10:46:44Z</time>
      </trkpt>
      <trkpt lat="42.96812" lon="-0.26058">
        <ele>1582</ele>
        <time>2016-03-11T10:46:49Z</time>
      </trkpt>
      <trkpt lat="42.9682" lon="-0.26062">
        <ele>1581.7</ele>
        <time>2016-03-11T10:46:53Z</time>
      </trkpt>
      <trkpt lat="42.96827" lon="-0.26066">
        <ele>1582.2</ele>
        <time>2016-03-11T10:46:58Z</time>
      </trkpt>
      <trkpt lat="42.96835" lon="-0.26069">
        <ele>1582</ele>
        <time>2016-03-11T10:47:02Z</time>
      </trkpt>
      <trkpt lat="42.96836" lon="-0.26069">
        <ele>1582</ele>
        <time>2016-03-11T10:47:03Z</time>
      </trkpt>
      <trkpt lat="42.9685" lon="-0.26071">
        <ele>1582.9</ele>
        <time>2016-03-11T10:47:11Z</time>
      </trkpt>
      <trkpt lat="42.96857" lon="-0.26071">
        <ele>1582.6</ele>
        <time>2016-03-11T10:47:15Z</time>
      </trkpt>
      <trkpt lat="42.96866" lon="-0.26072">
        <ele>1583.6</ele>
        <time>2016-03-11T10:47:20Z</time>
      </trkpt>
      <trkpt lat="42.96874" lon="-0.26073">
        <ele>1583.6</ele>
        <time>2016-03-11T10:47:25Z</time>
      </trkpt>
      <trkpt lat="42.96882" lon="-0.26073">
        <ele>1584</ele>
        <time>2016-03-11T10:47:30Z</time>
      </trkpt>
      <trkpt lat="42.96891" lon="-0.26072">
        <ele>1584.8</ele>
        <time>2016-03-11T10:47:36Z</time>
      </trkpt>
      <trkpt lat="42.96899" lon="-0.2607">
        <ele>1585.7</ele>
        <time>2016-03-11T10:47:42Z</time>
      </trkpt>
      <trkpt lat="42.96908" lon="-0.26068">
        <ele>1587</ele>
        <time>2016-03-11T10:47:49Z</time>
      </trkpt>
      <trkpt lat="42.96915" lon="-0.26065">
        <ele>1587.5</ele>
        <time>2016-03-11T10:47:55Z</time>
      </trkpt>
      <trkpt lat="42.96924" lon="-0.26061">
        <ele>1588.2</ele>
        <time>2016-03-11T10:48:01Z</time>
      </trkpt>
      <trkpt lat="42.96932" lon="-0.26057">
        <ele>1589.8</ele>
        <time>2016-03-11T10:48:08Z</time>
      </trkpt>
      <trkpt lat="42.96933" lon="-0.26056">
        <ele>1590</ele>
        <time>2016-03-11T10:48:09Z</time>
      </trkpt>
      <trkpt lat="42.96946" lon="-0.26045">
        <ele>1592.1</ele>
        <time>2016-03-11T10:48:20Z</time>
      </trkpt>
      <trkpt lat="42.96954" lon="-0.26039">
        <ele>1591.6</ele>
        <time>2016-03-11T10:48:26Z</time>
      </trkpt>
      <trkpt lat="42.96962" lon="-0.26038">
        <ele>1592.1</ele>
        <time>2016-03-11T10:48:32Z</time>
      </trkpt>
      <trkpt lat="42.96971" lon="-0.26039">
        <ele>1594.2</ele>
        <time>2016-03-11T10:48:40Z</time>
      </trkpt>
      <trkpt lat="42.96979" lon="-0.2604">
        <ele>1595.6</ele>
        <time>2016-03-11T10:48:47Z</time>
      </trkpt>
      <trkpt lat="42.96987" lon="-0.26043">
        <ele>1597.1</ele>
        <time>2016-03-11T10:48:53Z</time>
      </trkpt>
      <trkpt lat="42.96996" lon="-0.26045">
        <ele>1598</ele>
        <time>2016-03-11T10:48:59Z</time>
      </trkpt>
      <trkpt lat="42.97004" lon="-0.26045">
        <ele>1597.9</ele>
        <time>2016-03-11T10:49:04Z</time>
      </trkpt>
      <trkpt lat="42.97012" lon="-0.26045">
        <ele>1598.5</ele>
        <time>2016-03-11T10:49:09Z</time>
      </trkpt>
      <trkpt lat="42.97013" lon="-0.26045">
        <ele>1598.7</ele>
        <time>2016-03-11T10:49:10Z</time>
      </trkpt>
      <trkpt lat="42.97026" lon="-0.26036">
        <ele>1599.4</ele>
        <time>2016-03-11T10:49:20Z</time>
      </trkpt>
      <trkpt lat="42.97029" lon="-0.26024">
        <ele>1600.6</ele>
        <time>2016-03-11T10:49:26Z</time>
      </trkpt>
      <trkpt lat="42.97028" lon="-0.26013">
        <ele>1600.3</ele>
        <time>2016-03-11T10:49:31Z</time>
      </trkpt>
      <trkpt lat="42.97024" lon="-0.26002">
        <ele>1599.8</ele>
        <time>2016-03-11T10:49:37Z</time>
      </trkpt>
      <trkpt lat="42.97021" lon="-0.25993">
        <ele>1599.8</ele>
        <time>2016-03-11T10:49:42Z</time>
      </trkpt>
      <trkpt lat="42.97019" lon="-0.25984">
        <ele>1601</ele>
        <time>2016-03-11T10:49:46Z</time>
      </trkpt>
      <trkpt lat="42.97017" lon="-0.25974">
        <ele>1601</ele>
        <time>2016-03-11T10:49:50Z</time>
      </trkpt>
      <trkpt lat="42.97014" lon="-0.25964">
        <ele>1601.1</ele>
        <time>2016-03-11T10:49:54Z</time>
      </trkpt>
      <trkpt lat="42.97011" lon="-0.25953">
        <ele>1601</ele>
        <time>2016-03-11T10:49:59Z</time>
      </trkpt>
      <trkpt lat="42.97006" lon="-0.25944">
        <ele>1600.7</ele>
        <time>2016-03-11T10:50:04Z</time>
      </trkpt>
      <trkpt lat="42.97001" lon="-0.25935">
        <ele>1601.4</ele>
        <time>2016-03-11T10:50:10Z</time>
      </trkpt>
      <trkpt lat="42.97" lon="-0.25933">
        <ele>1601.2</ele>
        <time>2016-03-11T10:50:11Z</time>
      </trkpt>
      <trkpt lat="42.9699" lon="-0.25919">
        <ele>1603.4</ele>
        <time>2016-03-11T10:50:20Z</time>
      </trkpt>
      <trkpt lat="42.96984" lon="-0.25911">
        <ele>1603.8</ele>
        <time>2016-03-11T10:50:25Z</time>
      </trkpt>
      <trkpt lat="42.96979" lon="-0.25903">
        <ele>1603.9</ele>
        <time>2016-03-11T10:50:30Z</time>
      </trkpt>
      <trkpt lat="42.96974" lon="-0.25895">
        <ele>1603.4</ele>
        <time>2016-03-11T10:50:34Z</time>
      </trkpt>
      <trkpt lat="42.96969" lon="-0.25886">
        <ele>1604.1</ele>
        <time>2016-03-11T10:50:39Z</time>
      </trkpt>
      <trkpt lat="42.96962" lon="-0.25878">
        <ele>1602.7</ele>
        <time>2016-03-11T10:50:44Z</time>
      </trkpt>
      <trkpt lat="42.96957" lon="-0.25868">
        <ele>1601.8</ele>
        <time>2016-03-11T10:50:48Z</time>
      </trkpt>
      <trkpt lat="42.96954" lon="-0.25858">
        <ele>1600.6</ele>
        <time>2016-03-11T10:50:51Z</time>
      </trkpt>
      <trkpt lat="42.9695" lon="-0.25847">
        <ele>1600.5</ele>
        <time>2016-03-11T10:50:56Z</time>
      </trkpt>
      <trkpt lat="42.96948" lon="-0.25837">
        <ele>1599.3</ele>
        <time>2016-03-11T10:51:00Z</time>
      </trkpt>
      <trkpt lat="42.96948" lon="-0.25827">
        <ele>1598.6</ele>
        <time>2016-03-11T10:51:03Z</time>
      </trkpt>
      <trkpt lat="42.96947" lon="-0.25817">
        <ele>1598.6</ele>
        <time>2016-03-11T10:51:06Z</time>
      </trkpt>
      <trkpt lat="42.96947" lon="-0.25807">
        <ele>1598.2</ele>
        <time>2016-03-11T10:51:09Z</time>
      </trkpt>
      <trkpt lat="42.96947" lon="-0.25795">
        <ele>1598.7</ele>
        <time>2016-03-11T10:51:12Z</time>
      </trkpt>
      <trkpt lat="42.96947" lon="-0.25791">
        <ele>1598.6</ele>
        <time>2016-03-11T10:51:13Z</time>
      </trkpt>
      <trkpt lat="42.96947" lon="-0.25778">
        <ele>1598.2</ele>
        <time>2016-03-11T10:51:16Z</time>
      </trkpt>
      <trkpt lat="42.96947" lon="-0.25766">
        <ele>1597.7</ele>
        <time>2016-03-11T10:51:19Z</time>
      </trkpt>
      <trkpt lat="42.96947" lon="-0.25758">
        <ele>1598</ele>
        <time>2016-03-11T10:51:21Z</time>
      </trkpt>
      <trkpt lat="42.96947" lon="-0.25746">
        <ele>1598</ele>
        <time>2016-03-11T10:51:24Z</time>
      </trkpt>
      <trkpt lat="42.96948" lon="-0.25735">
        <ele>1597.8</ele>
        <time>2016-03-11T10:51:27Z</time>
      </trkpt>
      <trkpt lat="42.96948" lon="-0.25725">
        <ele>1597.5</ele>
        <time>2016-03-11T10:51:30Z</time>
      </trkpt>
      <trkpt lat="42.96948" lon="-0.25715">
        <ele>1597.6</ele>
        <time>2016-03-11T10:51:33Z</time>
      </trkpt>
      <trkpt lat="42.96949" lon="-0.25704">
        <ele>1597</ele>
        <time>2016-03-11T10:51:36Z</time>
      </trkpt>
      <trkpt lat="42.9695" lon="-0.25695">
        <ele>1596.3</ele>
        <time>2016-03-11T10:51:39Z</time>
      </trkpt>
      <trkpt lat="42.96952" lon="-0.25684">
        <ele>1596</ele>
        <time>2016-03-11T10:51:42Z</time>
      </trkpt>
      <trkpt lat="42.96953" lon="-0.25673">
        <ele>1595.4</ele>
        <time>2016-03-11T10:51:45Z</time>
      </trkpt>
      <trkpt lat="42.96954" lon="-0.25662">
        <ele>1594.4</ele>
        <time>2016-03-11T10:51:48Z</time>
      </trkpt>
      <trkpt lat="42.96954" lon="-0.25652">
        <ele>1593.2</ele>
        <time>2016-03-11T10:51:51Z</time>
      </trkpt>
      <trkpt lat="42.96955" lon="-0.25641">
        <ele>1592.3</ele>
        <time>2016-03-11T10:51:54Z</time>
      </trkpt>
      <trkpt lat="42.96956" lon="-0.25629">
        <ele>1592</ele>
        <time>2016-03-11T10:51:57Z</time>
      </trkpt>
      <trkpt lat="42.96957" lon="-0.25618">
        <ele>1591.4</ele>
        <time>2016-03-11T10:52:00Z</time>
      </trkpt>
      <trkpt lat="42.96958" lon="-0.25609">
        <ele>1591.9</ele>
        <time>2016-03-11T10:52:02Z</time>
      </trkpt>
      <trkpt lat="42.9696" lon="-0.256">
        <ele>1591.4</ele>
        <time>2016-03-11T10:52:04Z</time>
      </trkpt>
      <trkpt lat="42.96962" lon="-0.2559">
        <ele>1590.5</ele>
        <time>2016-03-11T10:52:06Z</time>
      </trkpt>
      <trkpt lat="42.96963" lon="-0.25581">
        <ele>1589.4</ele>
        <time>2016-03-11T10:52:08Z</time>
      </trkpt>
      <trkpt lat="42.96965" lon="-0.25572">
        <ele>1588.8</ele>
        <time>2016-03-11T10:52:10Z</time>
      </trkpt>
      <trkpt lat="42.96967" lon="-0.25562">
        <ele>1588.1</ele>
        <time>2016-03-11T10:52:12Z</time>
      </trkpt>
      <trkpt lat="42.96969" lon="-0.25553">
        <ele>1587.6</ele>
        <time>2016-03-11T10:52:14Z</time>
      </trkpt>
      <trkpt lat="42.9697" lon="-0.25548">
        <ele>1587.4</ele>
        <time>2016-03-11T10:52:15Z</time>
      </trkpt>
      <trkpt lat="42.96973" lon="-0.25532">
        <ele>1585.7</ele>
        <time>2016-03-11T10:52:19Z</time>
      </trkpt>
      <trkpt lat="42.96974" lon="-0.25523">
        <ele>1585.2</ele>
        <time>2016-03-11T10:52:22Z</time>
      </trkpt>
      <trkpt lat="42.96976" lon="-0.25511">
        <ele>1584.8</ele>
        <time>2016-03-11T10:52:26Z</time>
      </trkpt>
      <trkpt lat="42.96976" lon="-0.25501">
        <ele>1584.4</ele>
        <time>2016-03-11T10:52:30Z</time>
      </trkpt>
      <trkpt lat="42.96978" lon="-0.2549">
        <ele>1583.4</ele>
        <time>2016-03-11T10:52:34Z</time>
      </trkpt>
      <trkpt lat="42.96981" lon="-0.25478">
        <ele>1584</ele>
        <time>2016-03-11T10:52:38Z</time>
      </trkpt>
      <trkpt lat="42.96984" lon="-0.25468">
        <ele>1583.5</ele>
        <time>2016-03-11T10:52:42Z</time>
      </trkpt>
      <trkpt lat="42.96989" lon="-0.2546">
        <ele>1583.4</ele>
        <time>2016-03-11T10:52:46Z</time>
      </trkpt>
      <trkpt lat="42.96994" lon="-0.25452">
        <ele>1583.5</ele>
        <time>2016-03-11T10:52:50Z</time>
      </trkpt>
      <trkpt lat="42.96999" lon="-0.25445">
        <ele>1583.7</ele>
        <time>2016-03-11T10:52:53Z</time>
      </trkpt>
      <trkpt lat="42.97005" lon="-0.25438">
        <ele>1583.9</ele>
        <time>2016-03-11T10:52:56Z</time>
      </trkpt>
      <trkpt lat="42.9701" lon="-0.2543">
        <ele>1583</ele>
        <time>2016-03-11T10:53:00Z</time>
      </trkpt>
      <trkpt lat="42.97017" lon="-0.25423">
        <ele>1583.4</ele>
        <time>2016-03-11T10:53:05Z</time>
      </trkpt>
      <trkpt lat="42.97022" lon="-0.25415">
        <ele>1583.4</ele>
        <time>2016-03-11T10:53:09Z</time>
      </trkpt>
      <trkpt lat="42.97028" lon="-0.25408">
        <ele>1583.5</ele>
        <time>2016-03-11T10:53:13Z</time>
      </trkpt>
      <trkpt lat="42.97033" lon="-0.25401">
        <ele>1583.7</ele>
        <time>2016-03-11T10:53:17Z</time>
      </trkpt>
      <trkpt lat="42.97034" lon="-0.25399">
        <ele>1583.5</ele>
        <time>2016-03-11T10:53:18Z</time>
      </trkpt>
      <trkpt lat="42.97043" lon="-0.25385">
        <ele>1582.8</ele>
        <time>2016-03-11T10:53:25Z</time>
      </trkpt>
      <trkpt lat="42.97048" lon="-0.25378">
        <ele>1583</ele>
        <time>2016-03-11T10:53:29Z</time>
      </trkpt>
      <trkpt lat="42.97053" lon="-0.2537">
        <ele>1583.6</ele>
        <time>2016-03-11T10:53:32Z</time>
      </trkpt>
      <trkpt lat="42.97058" lon="-0.25361">
        <ele>1583.6</ele>
        <time>2016-03-11T10:53:35Z</time>
      </trkpt>
      <trkpt lat="42.97063" lon="-0.25352">
        <ele>1582.4</ele>
        <time>2016-03-11T10:53:38Z</time>
      </trkpt>
      <trkpt lat="42.97066" lon="-0.25345">
        <ele>1581.9</ele>
        <time>2016-03-11T10:53:40Z</time>
      </trkpt>
      <trkpt lat="42.97069" lon="-0.25337">
        <ele>1581.7</ele>
        <time>2016-03-11T10:53:42Z</time>
      </trkpt>
      <trkpt lat="42.97072" lon="-0.25327">
        <ele>1582.2</ele>
        <time>2016-03-11T10:53:45Z</time>
      </trkpt>
      <trkpt lat="42.97075" lon="-0.25317">
        <ele>1581.4</ele>
        <time>2016-03-11T10:53:48Z</time>
      </trkpt>
      <trkpt lat="42.97078" lon="-0.25306">
        <ele>1581.1</ele>
        <time>2016-03-11T10:53:52Z</time>
      </trkpt>
      <trkpt lat="42.97081" lon="-0.25295">
        <ele>1580.5</ele>
        <time>2016-03-11T10:53:56Z</time>
      </trkpt>
      <trkpt lat="42.97082" lon="-0.25284">
        <ele>1580.7</ele>
        <time>2016-03-11T10:54:00Z</time>
      </trkpt>
      <trkpt lat="42.97083" lon="-0.25273">
        <ele>1580.5</ele>
        <time>2016-03-11T10:54:03Z</time>
      </trkpt>
      <trkpt lat="42.97083" lon="-0.25265">
        <ele>1580.4</ele>
        <time>2016-03-11T10:54:05Z</time>
      </trkpt>
      <trkpt lat="42.97084" lon="-0.25256">
        <ele>1580.2</ele>
        <time>2016-03-11T10:54:07Z</time>
      </trkpt>
      <trkpt lat="42.97083" lon="-0.25248">
        <ele>1579.9</ele>
        <time>2016-03-11T10:54:09Z</time>
      </trkpt>
      <trkpt lat="42.97083" lon="-0.25236">
        <ele>1579.4</ele>
        <time>2016-03-11T10:54:12Z</time>
      </trkpt>
      <trkpt lat="42.97083" lon="-0.25227">
        <ele>1579.2</ele>
        <time>2016-03-11T10:54:14Z</time>
      </trkpt>
      <trkpt lat="42.97082" lon="-0.25217">
        <ele>1579.5</ele>
        <time>2016-03-11T10:54:16Z</time>
      </trkpt>
      <trkpt lat="42.97082" lon="-0.25206">
        <ele>1578.9</ele>
        <time>2016-03-11T10:54:18Z</time>
      </trkpt>
      <trkpt lat="42.97082" lon="-0.252">
        <ele>1578.5</ele>
        <time>2016-03-11T10:54:19Z</time>
      </trkpt>
      <trkpt lat="42.97083" lon="-0.25182">
        <ele>1576.1</ele>
        <time>2016-03-11T10:54:22Z</time>
      </trkpt>
      <trkpt lat="42.97084" lon="-0.25172">
        <ele>1574.9</ele>
        <time>2016-03-11T10:54:24Z</time>
      </trkpt>
      <trkpt lat="42.97084" lon="-0.25161">
        <ele>1574.3</ele>
        <time>2016-03-11T10:54:26Z</time>
      </trkpt>
      <trkpt lat="42.97085" lon="-0.25151">
        <ele>1574</ele>
        <time>2016-03-11T10:54:28Z</time>
      </trkpt>
      <trkpt lat="42.97086" lon="-0.25141">
        <ele>1573.9</ele>
        <time>2016-03-11T10:54:30Z</time>
      </trkpt>
      <trkpt lat="42.97086" lon="-0.2513">
        <ele>1573.3</ele>
        <time>2016-03-11T10:54:32Z</time>
      </trkpt>
      <trkpt lat="42.97086" lon="-0.2512">
        <ele>1573.1</ele>
        <time>2016-03-11T10:54:34Z</time>
      </trkpt>
      <trkpt lat="42.97087" lon="-0.2511">
        <ele>1572.9</ele>
        <time>2016-03-11T10:54:36Z</time>
      </trkpt>
      <trkpt lat="42.97087" lon="-0.25099">
        <ele>1571.9</ele>
        <time>2016-03-11T10:54:38Z</time>
      </trkpt>
      <trkpt lat="42.97087" lon="-0.25089">
        <ele>1571.3</ele>
        <time>2016-03-11T10:54:40Z</time>
      </trkpt>
      <trkpt lat="42.97088" lon="-0.2508">
        <ele>1570.6</ele>
        <time>2016-03-11T10:54:42Z</time>
      </trkpt>
      <trkpt lat="42.97088" lon="-0.25069">
        <ele>1569.8</ele>
        <time>2016-03-11T10:54:44Z</time>
      </trkpt>
      <trkpt lat="42.97088" lon="-0.25058">
        <ele>1569.2</ele>
        <time>2016-03-11T10:54:46Z</time>
      </trkpt>
      <trkpt lat="42.97089" lon="-0.25048">
        <ele>1568.6</ele>
        <time>2016-03-11T10:54:48Z</time>
      </trkpt>
      <trkpt lat="42.97089" lon="-0.25038">
        <ele>1568</ele>
        <time>2016-03-11T10:54:50Z</time>
      </trkpt>
      <trkpt lat="42.97089" lon="-0.25028">
        <ele>1567.6</ele>
        <time>2016-03-11T10:54:52Z</time>
      </trkpt>
      <trkpt lat="42.97089" lon="-0.2502">
        <ele>1567</ele>
        <time>2016-03-11T10:54:54Z</time>
      </trkpt>
      <trkpt lat="42.97091" lon="-0.25009">
        <ele>1566.6</ele>
        <time>2016-03-11T10:54:57Z</time>
      </trkpt>
      <trkpt lat="42.97094" lon="-0.24999">
        <ele>1566</ele>
        <time>2016-03-11T10:55:03Z</time>
      </trkpt>
      <trkpt lat="42.97098" lon="-0.24989">
        <ele>1565.5</ele>
        <time>2016-03-11T10:55:11Z</time>
      </trkpt>
      <trkpt lat="42.97101" lon="-0.24978">
        <ele>1567.2</ele>
        <time>2016-03-11T10:55:15Z</time>
      </trkpt>
      <trkpt lat="42.97104" lon="-0.24967">
        <ele>1566.1</ele>
        <time>2016-03-11T10:55:18Z</time>
      </trkpt>
      <trkpt lat="42.97107" lon="-0.2496">
        <ele>1565.5</ele>
        <time>2016-03-11T10:55:20Z</time>
      </trkpt>
      <trkpt lat="42.97108" lon="-0.24956">
        <ele>1565.4</ele>
        <time>2016-03-11T10:55:21Z</time>
      </trkpt>
      <trkpt lat="42.97111" lon="-0.24944">
        <ele>1564.9</ele>
        <time>2016-03-11T10:55:24Z</time>
      </trkpt>
      <trkpt lat="42.97113" lon="-0.24935">
        <ele>1564.6</ele>
        <time>2016-03-11T10:55:26Z</time>
      </trkpt>
      <trkpt lat="42.97115" lon="-0.24926">
        <ele>1564.4</ele>
        <time>2016-03-11T10:55:28Z</time>
      </trkpt>
      <trkpt lat="42.97117" lon="-0.24916">
        <ele>1563.3</ele>
        <time>2016-03-11T10:55:30Z</time>
      </trkpt>
      <trkpt lat="42.97119" lon="-0.24906">
        <ele>1562.7</ele>
        <time>2016-03-11T10:55:32Z</time>
      </trkpt>
      <trkpt lat="42.97121" lon="-0.24895">
        <ele>1562.3</ele>
        <time>2016-03-11T10:55:34Z</time>
      </trkpt>
      <trkpt lat="42.97123" lon="-0.24884">
        <ele>1561.3</ele>
        <time>2016-03-11T10:55:36Z</time>
      </trkpt>
      <trkpt lat="42.97125" lon="-0.24878">
        <ele>1560.9</ele>
        <time>2016-03-11T10:55:37Z</time>
      </trkpt>
      <trkpt lat="42.97128" lon="-0.24872">
        <ele>1560.4</ele>
        <time>2016-03-11T10:55:38Z</time>
      </trkpt>
      <trkpt lat="42.97131" lon="-0.24866">
        <ele>1559.9</ele>
        <time>2016-03-11T10:55:39Z</time>
      </trkpt>
      <trkpt lat="42.97134" lon="-0.24859">
        <ele>1559.6</ele>
        <time>2016-03-11T10:55:40Z</time>
      </trkpt>
      <trkpt lat="42.97138" lon="-0.24854">
        <ele>1558.2</ele>
        <time>2016-03-11T10:55:41Z</time>
      </trkpt>
      <trkpt lat="42.97144" lon="-0.24846">
        <ele>1556.5</ele>
        <time>2016-03-11T10:55:43Z</time>
      </trkpt>
      <trkpt lat="42.97151" lon="-0.24839">
        <ele>1555.5</ele>
        <time>2016-03-11T10:55:45Z</time>
      </trkpt>
      <trkpt lat="42.97157" lon="-0.24834">
        <ele>1555</ele>
        <time>2016-03-11T10:55:47Z</time>
      </trkpt>
      <trkpt lat="42.97164" lon="-0.24831">
        <ele>1553.7</ele>
        <time>2016-03-11T10:55:50Z</time>
      </trkpt>
      <trkpt lat="42.97172" lon="-0.24828">
        <ele>1553.1</ele>
        <time>2016-03-11T10:55:55Z</time>
      </trkpt>
      <trkpt lat="42.9718" lon="-0.24826">
        <ele>1553.6</ele>
        <time>2016-03-11T10:56:01Z</time>
      </trkpt>
      <trkpt lat="42.97188" lon="-0.24822">
        <ele>1555.2</ele>
        <time>2016-03-11T10:56:06Z</time>
      </trkpt>
      <trkpt lat="42.97195" lon="-0.24818">
        <ele>1555.2</ele>
        <time>2016-03-11T10:56:10Z</time>
      </trkpt>
      <trkpt lat="42.97202" lon="-0.24813">
        <ele>1555.2</ele>
        <time>2016-03-11T10:56:14Z</time>
      </trkpt>
      <trkpt lat="42.97209" lon="-0.24808">
        <ele>1554.8</ele>
        <time>2016-03-11T10:56:17Z</time>
      </trkpt>
      <trkpt lat="42.97214" lon="-0.24804">
        <ele>1554.5</ele>
        <time>2016-03-11T10:56:19Z</time>
      </trkpt>
      <trkpt lat="42.97221" lon="-0.24796">
        <ele>1554.2</ele>
        <time>2016-03-11T10:56:22Z</time>
      </trkpt>
      <trkpt lat="42.97222" lon="-0.24794">
        <ele>1554.1</ele>
        <time>2016-03-11T10:56:23Z</time>
      </trkpt>
      <trkpt lat="42.97231" lon="-0.24782">
        <ele>1553.8</ele>
        <time>2016-03-11T10:56:27Z</time>
      </trkpt>
      <trkpt lat="42.97235" lon="-0.24776">
        <ele>1553.7</ele>
        <time>2016-03-11T10:56:29Z</time>
      </trkpt>
      <trkpt lat="42.97238" lon="-0.24769">
        <ele>1553.8</ele>
        <time>2016-03-11T10:56:31Z</time>
      </trkpt>
      <trkpt lat="42.97242" lon="-0.24761">
        <ele>1552.8</ele>
        <time>2016-03-11T10:56:33Z</time>
      </trkpt>
      <trkpt lat="42.97246" lon="-0.24753">
        <ele>1552.2</ele>
        <time>2016-03-11T10:56:35Z</time>
      </trkpt>
      <trkpt lat="42.97251" lon="-0.24743">
        <ele>1552.3</ele>
        <time>2016-03-11T10:56:37Z</time>
      </trkpt>
      <trkpt lat="42.97254" lon="-0.24738">
        <ele>1552.3</ele>
        <time>2016-03-11T10:56:38Z</time>
      </trkpt>
      <trkpt lat="42.97256" lon="-0.24732">
        <ele>1551.5</ele>
        <time>2016-03-11T10:56:39Z</time>
      </trkpt>
      <trkpt lat="42.97259" lon="-0.24726">
        <ele>1550.9</ele>
        <time>2016-03-11T10:56:40Z</time>
      </trkpt>
      <trkpt lat="42.97261" lon="-0.2472">
        <ele>1550.4</ele>
        <time>2016-03-11T10:56:41Z</time>
      </trkpt>
      <trkpt lat="42.97263" lon="-0.24715">
        <ele>1549.7</ele>
        <time>2016-03-11T10:56:42Z</time>
      </trkpt>
      <trkpt lat="42.97266" lon="-0.24709">
        <ele>1549.3</ele>
        <time>2016-03-11T10:56:43Z</time>
      </trkpt>
      <trkpt lat="42.9727" lon="-0.24699">
        <ele>1548.2</ele>
        <time>2016-03-11T10:56:45Z</time>
      </trkpt>
      <trkpt lat="42.97275" lon="-0.2469">
        <ele>1547.3</ele>
        <time>2016-03-11T10:56:47Z</time>
      </trkpt>
      <trkpt lat="42.97281" lon="-0.24681">
        <ele>1545.4</ele>
        <time>2016-03-11T10:56:50Z</time>
      </trkpt>
      <trkpt lat="42.97286" lon="-0.24674">
        <ele>1544.9</ele>
        <time>2016-03-11T10:56:53Z</time>
      </trkpt>
      <trkpt lat="42.97291" lon="-0.24665">
        <ele>1543.9</ele>
        <time>2016-03-11T10:56:57Z</time>
      </trkpt>
      <trkpt lat="42.97297" lon="-0.24657">
        <ele>1543.9</ele>
        <time>2016-03-11T10:57:01Z</time>
      </trkpt>
      <trkpt lat="42.97303" lon="-0.24648">
        <ele>1544.6</ele>
        <time>2016-03-11T10:57:06Z</time>
      </trkpt>
      <trkpt lat="42.97308" lon="-0.24639">
        <ele>1545.4</ele>
        <time>2016-03-11T10:57:11Z</time>
      </trkpt>
      <trkpt lat="42.97313" lon="-0.24629">
        <ele>1545.3</ele>
        <time>2016-03-11T10:57:16Z</time>
      </trkpt>
      <trkpt lat="42.97319" lon="-0.24622">
        <ele>1546.1</ele>
        <time>2016-03-11T10:57:20Z</time>
      </trkpt>
      <trkpt lat="42.97326" lon="-0.24618">
        <ele>1546.2</ele>
        <time>2016-03-11T10:57:23Z</time>
      </trkpt>
      <trkpt lat="42.97328" lon="-0.24618">
        <ele>1546.1</ele>
        <time>2016-03-11T10:57:24Z</time>
      </trkpt>
      <trkpt lat="42.97342" lon="-0.24617">
        <ele>1544.8</ele>
        <time>2016-03-11T10:57:31Z</time>
      </trkpt>
      <trkpt lat="42.97349" lon="-0.24615">
        <ele>1545.5</ele>
        <time>2016-03-11T10:57:34Z</time>
      </trkpt>
      <trkpt lat="42.97356" lon="-0.24612">
        <ele>1545.5</ele>
        <time>2016-03-11T10:57:36Z</time>
      </trkpt>
      <trkpt lat="42.97363" lon="-0.24607">
        <ele>1545.1</ele>
        <time>2016-03-11T10:57:38Z</time>
      </trkpt>
      <trkpt lat="42.97367" lon="-0.24603">
        <ele>1544.1</ele>
        <time>2016-03-11T10:57:39Z</time>
      </trkpt>
      <trkpt lat="42.9737" lon="-0.24597">
        <ele>1543.3</ele>
        <time>2016-03-11T10:57:40Z</time>
      </trkpt>
      <trkpt lat="42.97373" lon="-0.24591">
        <ele>1542.7</ele>
        <time>2016-03-11T10:57:41Z</time>
      </trkpt>
      <trkpt lat="42.97377" lon="-0.24585">
        <ele>1541.9</ele>
        <time>2016-03-11T10:57:42Z</time>
      </trkpt>
      <trkpt lat="42.9738" lon="-0.24579">
        <ele>1541.3</ele>
        <time>2016-03-11T10:57:43Z</time>
      </trkpt>
      <trkpt lat="42.97384" lon="-0.24573">
        <ele>1540.9</ele>
        <time>2016-03-11T10:57:44Z</time>
      </trkpt>
      <trkpt lat="42.97388" lon="-0.24568">
        <ele>1540.6</ele>
        <time>2016-03-11T10:57:45Z</time>
      </trkpt>
      <trkpt lat="42.97392" lon="-0.24563">
        <ele>1539.7</ele>
        <time>2016-03-11T10:57:46Z</time>
      </trkpt>
      <trkpt lat="42.97397" lon="-0.2456">
        <ele>1539.1</ele>
        <time>2016-03-11T10:57:47Z</time>
      </trkpt>
      <trkpt lat="42.97403" lon="-0.24554">
        <ele>1537.8</ele>
        <time>2016-03-11T10:57:49Z</time>
      </trkpt>
      <trkpt lat="42.97411" lon="-0.24546">
        <ele>1536.2</ele>
        <time>2016-03-11T10:57:52Z</time>
      </trkpt>
      <trkpt lat="42.97416" lon="-0.2454">
        <ele>1535.3</ele>
        <time>2016-03-11T10:57:55Z</time>
      </trkpt>
      <trkpt lat="42.97422" lon="-0.24533">
        <ele>1534.9</ele>
        <time>2016-03-11T10:57:58Z</time>
      </trkpt>
      <trkpt lat="42.97427" lon="-0.24526">
        <ele>1534.2</ele>
        <time>2016-03-11T10:58:02Z</time>
      </trkpt>
      <trkpt lat="42.97431" lon="-0.24515">
        <ele>1534.8</ele>
        <time>2016-03-11T10:58:08Z</time>
      </trkpt>
      <trkpt lat="42.97424" lon="-0.24509">
        <ele>1534.7</ele>
        <time>2016-03-11T10:58:13Z</time>
      </trkpt>
      <trkpt lat="42.97419" lon="-0.245">
        <ele>1534</ele>
        <time>2016-03-11T10:58:17Z</time>
      </trkpt>
      <trkpt lat="42.97416" lon="-0.2449">
        <ele>1533.8</ele>
        <time>2016-03-11T10:58:21Z</time>
      </trkpt>
      <trkpt lat="42.97411" lon="-0.24481">
        <ele>1533.3</ele>
        <time>2016-03-11T10:58:24Z</time>
      </trkpt>
      <trkpt lat="42.97403" lon="-0.24478">
        <ele>1532.3</ele>
        <time>2016-03-11T10:58:27Z</time>
      </trkpt>
      <trkpt lat="42.974" lon="-0.24477">
        <ele>1532</ele>
        <time>2016-03-11T10:58:28Z</time>
      </trkpt>
      <trkpt lat="42.97389" lon="-0.2447">
        <ele>1530.6</ele>
        <time>2016-03-11T10:58:31Z</time>
      </trkpt>
      <trkpt lat="42.97386" lon="-0.24466">
        <ele>1530.3</ele>
        <time>2016-03-11T10:58:32Z</time>
      </trkpt>
      <trkpt lat="42.97382" lon="-0.24455">
        <ele>1529.4</ele>
        <time>2016-03-11T10:58:34Z</time>
      </trkpt>
      <trkpt lat="42.97381" lon="-0.24445">
        <ele>1528.5</ele>
        <time>2016-03-11T10:58:36Z</time>
      </trkpt>
      <trkpt lat="42.97382" lon="-0.24433">
        <ele>1526</ele>
        <time>2016-03-11T10:58:40Z</time>
      </trkpt>
      <trkpt lat="42.97381" lon="-0.24422">
        <ele>1525.4</ele>
        <time>2016-03-11T10:58:46Z</time>
      </trkpt>
      <trkpt lat="42.97376" lon="-0.24413">
        <ele>1526.3</ele>
        <time>2016-03-11T10:59:01Z</time>
      </trkpt>
      <trkpt lat="42.97368" lon="-0.24409">
        <ele>1525.3</ele>
        <time>2016-03-11T10:59:09Z</time>
      </trkpt>
      <trkpt lat="42.9736" lon="-0.24406">
        <ele>1525.6</ele>
        <time>2016-03-11T10:59:15Z</time>
      </trkpt>
      <trkpt lat="42.97353" lon="-0.24401">
        <ele>1525.9</ele>
        <time>2016-03-11T10:59:39Z</time>
      </trkpt>
      <trkpt lat="42.97352" lon="-0.24401">
        <ele>1525.8</ele>
        <time>2016-03-11T10:59:40Z</time>
      </trkpt>
      <trkpt lat="42.97368" lon="-0.2441">
        <ele>1526.3</ele>
        <time>2016-03-11T11:00:09Z</time>
      </trkpt>
      <trkpt lat="42.97375" lon="-0.24415">
        <ele>1526</ele>
        <time>2016-03-11T11:00:13Z</time>
      </trkpt>
      <trkpt lat="42.9738" lon="-0.24422">
        <ele>1526.1</ele>
        <time>2016-03-11T11:00:17Z</time>
      </trkpt>
      <trkpt lat="42.97383" lon="-0.24433">
        <ele>1525.4</ele>
        <time>2016-03-11T11:00:22Z</time>
      </trkpt>
      <trkpt lat="42.97385" lon="-0.24444">
        <ele>1525.1</ele>
        <time>2016-03-11T11:00:31Z</time>
      </trkpt>
      <trkpt lat="42.97389" lon="-0.24454">
        <ele>1525.3</ele>
        <time>2016-03-11T11:00:35Z</time>
      </trkpt>
      <trkpt lat="42.97396" lon="-0.2446">
        <ele>1525.1</ele>
        <time>2016-03-11T11:00:40Z</time>
      </trkpt>
      <trkpt lat="42.97397" lon="-0.2446">
        <ele>1525.4</ele>
        <time>2016-03-11T11:00:41Z</time>
      </trkpt>
      <trkpt lat="42.97412" lon="-0.24458">
        <ele>1525.2</ele>
        <time>2016-03-11T11:00:50Z</time>
      </trkpt>
      <trkpt lat="42.97419" lon="-0.24455">
        <ele>1525.1</ele>
        <time>2016-03-11T11:00:54Z</time>
      </trkpt>
      <trkpt lat="42.97424" lon="-0.2445">
        <ele>1525.1</ele>
        <time>2016-03-11T11:00:57Z</time>
      </trkpt>
      <trkpt lat="42.97431" lon="-0.24446">
        <ele>1525.2</ele>
        <time>2016-03-11T11:01:00Z</time>
      </trkpt>
      <trkpt lat="42.97438" lon="-0.24444">
        <ele>1525.1</ele>
        <time>2016-03-11T11:01:03Z</time>
      </trkpt>
      <trkpt lat="42.97445" lon="-0.24442">
        <ele>1524</ele>
        <time>2016-03-11T11:01:06Z</time>
      </trkpt>
      <trkpt lat="42.97454" lon="-0.24442">
        <ele>1524.7</ele>
        <time>2016-03-11T11:01:10Z</time>
      </trkpt>
      <trkpt lat="42.97461" lon="-0.24441">
        <ele>1524.7</ele>
        <time>2016-03-11T11:01:13Z</time>
      </trkpt>
      <trkpt lat="42.9747" lon="-0.24441">
        <ele>1524.4</ele>
        <time>2016-03-11T11:01:16Z</time>
      </trkpt>
      <trkpt lat="42.97477" lon="-0.24441">
        <ele>1524</ele>
        <time>2016-03-11T11:01:19Z</time>
      </trkpt>
      <trkpt lat="42.97485" lon="-0.2444">
        <ele>1523.7</ele>
        <time>2016-03-11T11:01:23Z</time>
      </trkpt>
      <trkpt lat="42.97493" lon="-0.24437">
        <ele>1524.3</ele>
        <time>2016-03-11T11:01:27Z</time>
      </trkpt>
      <trkpt lat="42.975" lon="-0.24432">
        <ele>1523.8</ele>
        <time>2016-03-11T11:01:31Z</time>
      </trkpt>
      <trkpt lat="42.97507" lon="-0.24427">
        <ele>1524.3</ele>
        <time>2016-03-11T11:01:35Z</time>
      </trkpt>
      <trkpt lat="42.97514" lon="-0.24421">
        <ele>1524.7</ele>
        <time>2016-03-11T11:01:40Z</time>
      </trkpt>
      <trkpt lat="42.9752" lon="-0.24414">
        <ele>1524.4</ele>
        <time>2016-03-11T11:01:44Z</time>
      </trkpt>
      <trkpt lat="42.97522" lon="-0.24413">
        <ele>1524.5</ele>
        <time>2016-03-11T11:01:45Z</time>
      </trkpt>
      <trkpt lat="42.97533" lon="-0.24402">
        <ele>1524.6</ele>
        <time>2016-03-11T11:01:51Z</time>
      </trkpt>
      <trkpt lat="42.97538" lon="-0.24398">
        <ele>1524.6</ele>
        <time>2016-03-11T11:01:54Z</time>
      </trkpt>
      <trkpt lat="42.97545" lon="-0.24393">
        <ele>1524.3</ele>
        <time>2016-03-11T11:01:57Z</time>
      </trkpt>
      <trkpt lat="42.97552" lon="-0.24388">
        <ele>1524.6</ele>
        <time>2016-03-11T11:02:01Z</time>
      </trkpt>
      <trkpt lat="42.97559" lon="-0.24384">
        <ele>1524.2</ele>
        <time>2016-03-11T11:02:05Z</time>
      </trkpt>
      <trkpt lat="42.97566" lon="-0.24378">
        <ele>1524.1</ele>
        <time>2016-03-11T11:02:09Z</time>
      </trkpt>
      <trkpt lat="42.97572" lon="-0.24373">
        <ele>1524</ele>
        <time>2016-03-11T11:02:13Z</time>
      </trkpt>
      <trkpt lat="42.97578" lon="-0.24367">
        <ele>1523.7</ele>
        <time>2016-03-11T11:02:16Z</time>
      </trkpt>
      <trkpt lat="42.97584" lon="-0.24362">
        <ele>1523.6</ele>
        <time>2016-03-11T11:02:19Z</time>
      </trkpt>
      <trkpt lat="42.9759" lon="-0.24358">
        <ele>1524.4</ele>
        <time>2016-03-11T11:02:22Z</time>
      </trkpt>
      <trkpt lat="42.97598" lon="-0.24353">
        <ele>1524.1</ele>
        <time>2016-03-11T11:02:26Z</time>
      </trkpt>
      <trkpt lat="42.97604" lon="-0.24349">
        <ele>1523.8</ele>
        <time>2016-03-11T11:02:29Z</time>
      </trkpt>
      <trkpt lat="42.97611" lon="-0.24344">
        <ele>1524</ele>
        <time>2016-03-11T11:02:32Z</time>
      </trkpt>
      <trkpt lat="42.97618" lon="-0.24339">
        <ele>1523.4</ele>
        <time>2016-03-11T11:02:35Z</time>
      </trkpt>
      <trkpt lat="42.97626" lon="-0.24333">
        <ele>1523.2</ele>
        <time>2016-03-11T11:02:38Z</time>
      </trkpt>
      <trkpt lat="42.97633" lon="-0.24328">
        <ele>1523.6</ele>
        <time>2016-03-11T11:02:42Z</time>
      </trkpt>
      <trkpt lat="42.9764" lon="-0.24321">
        <ele>1523.5</ele>
        <time>2016-03-11T11:02:47Z</time>
      </trkpt>
      <trkpt lat="42.97642" lon="-0.2432">
        <ele>1523.5</ele>
        <time>2016-03-11T11:02:48Z</time>
      </trkpt>
      <trkpt lat="42.97653" lon="-0.24308">
        <ele>1524.5</ele>
        <time>2016-03-11T11:02:56Z</time>
      </trkpt>
      <trkpt lat="42.9766" lon="-0.24303">
        <ele>1524.8</ele>
        <time>2016-03-11T11:03:01Z</time>
      </trkpt>
      <trkpt lat="42.97668" lon="-0.24297">
        <ele>1525.5</ele>
        <time>2016-03-11T11:03:06Z</time>
      </trkpt>
      <trkpt lat="42.97674" lon="-0.24291">
        <ele>1525.1</ele>
        <time>2016-03-11T11:03:10Z</time>
      </trkpt>
      <trkpt lat="42.97679" lon="-0.24283">
        <ele>1525.1</ele>
        <time>2016-03-11T11:03:14Z</time>
      </trkpt>
      <trkpt lat="42.97684" lon="-0.24275">
        <ele>1525.4</ele>
        <time>2016-03-11T11:03:18Z</time>
      </trkpt>
      <trkpt lat="42.97692" lon="-0.24271">
        <ele>1525.8</ele>
        <time>2016-03-11T11:03:22Z</time>
      </trkpt>
      <trkpt lat="42.97699" lon="-0.24269">
        <ele>1526.2</ele>
        <time>2016-03-11T11:03:25Z</time>
      </trkpt>
      <trkpt lat="42.97706" lon="-0.24269">
        <ele>1526</ele>
        <time>2016-03-11T11:03:28Z</time>
      </trkpt>
      <trkpt lat="42.97713" lon="-0.24268">
        <ele>1525.5</ele>
        <time>2016-03-11T11:03:31Z</time>
      </trkpt>
      <trkpt lat="42.97721" lon="-0.24266">
        <ele>1524.8</ele>
        <time>2016-03-11T11:03:35Z</time>
      </trkpt>
      <trkpt lat="42.97728" lon="-0.24264">
        <ele>1524.2</ele>
        <time>2016-03-11T11:03:39Z</time>
      </trkpt>
      <trkpt lat="42.97736" lon="-0.24261">
        <ele>1524.5</ele>
        <time>2016-03-11T11:03:43Z</time>
      </trkpt>
      <trkpt lat="42.97743" lon="-0.2426">
        <ele>1524.7</ele>
        <time>2016-03-11T11:03:47Z</time>
      </trkpt>
      <trkpt lat="42.9775" lon="-0.24259">
        <ele>1525.4</ele>
        <time>2016-03-11T11:03:51Z</time>
      </trkpt>
      <trkpt lat="42.97752" lon="-0.2426">
        <ele>1525.5</ele>
        <time>2016-03-11T11:03:52Z</time>
      </trkpt>
      <trkpt lat="42.97765" lon="-0.24267">
        <ele>1525.3</ele>
        <time>2016-03-11T11:03:59Z</time>
      </trkpt>
      <trkpt lat="42.97773" lon="-0.24269">
        <ele>1525.4</ele>
        <time>2016-03-11T11:04:03Z</time>
      </trkpt>
      <trkpt lat="42.97781" lon="-0.2427">
        <ele>1526</ele>
        <time>2016-03-11T11:04:08Z</time>
      </trkpt>
      <trkpt lat="42.97789" lon="-0.24265">
        <ele>1525.7</ele>
        <time>2016-03-11T11:04:13Z</time>
      </trkpt>
      <trkpt lat="42.97794" lon="-0.24259">
        <ele>1526.3</ele>
        <time>2016-03-11T11:04:17Z</time>
      </trkpt>
      <trkpt lat="42.97801" lon="-0.24253">
        <ele>1526.6</ele>
        <time>2016-03-11T11:04:21Z</time>
      </trkpt>
      <trkpt lat="42.97806" lon="-0.24247">
        <ele>1527</ele>
        <time>2016-03-11T11:04:24Z</time>
      </trkpt>
      <trkpt lat="42.97811" lon="-0.24238">
        <ele>1526.5</ele>
        <time>2016-03-11T11:04:28Z</time>
      </trkpt>
      <trkpt lat="42.97815" lon="-0.24229">
        <ele>1526.4</ele>
        <time>2016-03-11T11:04:32Z</time>
      </trkpt>
      <trkpt lat="42.97819" lon="-0.24218">
        <ele>1526.7</ele>
        <time>2016-03-11T11:04:37Z</time>
      </trkpt>
      <trkpt lat="42.9782" lon="-0.24209">
        <ele>1527.3</ele>
        <time>2016-03-11T11:04:41Z</time>
      </trkpt>
      <trkpt lat="42.97823" lon="-0.24199">
        <ele>1526.9</ele>
        <time>2016-03-11T11:04:45Z</time>
      </trkpt>
      <trkpt lat="42.97827" lon="-0.24188">
        <ele>1527</ele>
        <time>2016-03-11T11:04:50Z</time>
      </trkpt>
      <trkpt lat="42.97834" lon="-0.24183">
        <ele>1528.2</ele>
        <time>2016-03-11T11:04:55Z</time>
      </trkpt>
      <trkpt lat="42.97835" lon="-0.24182">
        <ele>1528.3</ele>
        <time>2016-03-11T11:04:56Z</time>
      </trkpt>
      <trkpt lat="42.97848" lon="-0.24176">
        <ele>1528.2</ele>
        <time>2016-03-11T11:05:05Z</time>
      </trkpt>
      <trkpt lat="42.97856" lon="-0.24171">
        <ele>1528.6</ele>
        <time>2016-03-11T11:05:10Z</time>
      </trkpt>
      <trkpt lat="42.97863" lon="-0.24167">
        <ele>1529.2</ele>
        <time>2016-03-11T11:05:15Z</time>
      </trkpt>
      <trkpt lat="42.9787" lon="-0.24164">
        <ele>1530.7</ele>
        <time>2016-03-11T11:05:20Z</time>
      </trkpt>
      <trkpt lat="42.97879" lon="-0.24162">
        <ele>1530.9</ele>
        <time>2016-03-11T11:05:25Z</time>
      </trkpt>
      <trkpt lat="42.97887" lon="-0.24163">
        <ele>1531.9</ele>
        <time>2016-03-11T11:05:30Z</time>
      </trkpt>
      <trkpt lat="42.97895" lon="-0.24164">
        <ele>1532.2</ele>
        <time>2016-03-11T11:05:34Z</time>
      </trkpt>
      <trkpt lat="42.97904" lon="-0.24167">
        <ele>1531.9</ele>
        <time>2016-03-11T11:05:38Z</time>
      </trkpt>
      <trkpt lat="42.97912" lon="-0.24167">
        <ele>1532</ele>
        <time>2016-03-11T11:05:42Z</time>
      </trkpt>
      <trkpt lat="42.97921" lon="-0.24165">
        <ele>1531.7</ele>
        <time>2016-03-11T11:05:46Z</time>
      </trkpt>
      <trkpt lat="42.97928" lon="-0.24162">
        <ele>1531.3</ele>
        <time>2016-03-11T11:05:50Z</time>
      </trkpt>
      <trkpt lat="42.97936" lon="-0.24155">
        <ele>1531.9</ele>
        <time>2016-03-11T11:05:55Z</time>
      </trkpt>
      <trkpt lat="42.97943" lon="-0.24149">
        <ele>1532.6</ele>
        <time>2016-03-11T11:06:00Z</time>
      </trkpt>
      <trkpt lat="42.97945" lon="-0.24148">
        <ele>1532.5</ele>
        <time>2016-03-11T11:06:01Z</time>
      </trkpt>
      <trkpt lat="42.97958" lon="-0.24146">
        <ele>1532.7</ele>
        <time>2016-03-11T11:06:09Z</time>
      </trkpt>
      <trkpt lat="42.97967" lon="-0.24147">
        <ele>1533.4</ele>
        <time>2016-03-11T11:06:13Z</time>
      </trkpt>
      <trkpt lat="42.97976" lon="-0.24149">
        <ele>1533.2</ele>
        <time>2016-03-11T11:06:18Z</time>
      </trkpt>
      <trkpt lat="42.97984" lon="-0.24149">
        <ele>1534.1</ele>
        <time>2016-03-11T11:06:23Z</time>
      </trkpt>
      <trkpt lat="42.97993" lon="-0.24148">
        <ele>1534.3</ele>
        <time>2016-03-11T11:06:28Z</time>
      </trkpt>
      <trkpt lat="42.98" lon="-0.24148">
        <ele>1534.9</ele>
        <time>2016-03-11T11:06:32Z</time>
      </trkpt>
      <trkpt lat="42.98008" lon="-0.24146">
        <ele>1535.1</ele>
        <time>2016-03-11T11:06:37Z</time>
      </trkpt>
      <trkpt lat="42.98015" lon="-0.24145">
        <ele>1535.5</ele>
        <time>2016-03-11T11:06:41Z</time>
      </trkpt>
      <trkpt lat="42.98022" lon="-0.24142">
        <ele>1535.8</ele>
        <time>2016-03-11T11:06:45Z</time>
      </trkpt>
      <trkpt lat="42.9803" lon="-0.24137">
        <ele>1535.9</ele>
        <time>2016-03-11T11:06:49Z</time>
      </trkpt>
      <trkpt lat="42.98035" lon="-0.2413">
        <ele>1535.8</ele>
        <time>2016-03-11T11:06:53Z</time>
      </trkpt>
      <trkpt lat="42.9804" lon="-0.24122">
        <ele>1536</ele>
        <time>2016-03-11T11:06:57Z</time>
      </trkpt>
      <trkpt lat="42.98044" lon="-0.24115">
        <ele>1537.3</ele>
        <time>2016-03-11T11:07:01Z</time>
      </trkpt>
      <trkpt lat="42.98046" lon="-0.24113">
        <ele>1537.2</ele>
        <time>2016-03-11T11:07:02Z</time>
      </trkpt>
      <trkpt lat="42.98057" lon="-0.24105">
        <ele>1536.4</ele>
        <time>2016-03-11T11:07:08Z</time>
      </trkpt>
      <trkpt lat="42.98065" lon="-0.24102">
        <ele>1536</ele>
        <time>2016-03-11T11:07:12Z</time>
      </trkpt>
      <trkpt lat="42.98072" lon="-0.24101">
        <ele>1535.6</ele>
        <time>2016-03-11T11:07:16Z</time>
      </trkpt>
      <trkpt lat="42.98079" lon="-0.241">
        <ele>1536.1</ele>
        <time>2016-03-11T11:07:19Z</time>
      </trkpt>
      <trkpt lat="42.98088" lon="-0.24098">
        <ele>1535.4</ele>
        <time>2016-03-11T11:07:23Z</time>
      </trkpt>
      <trkpt lat="42.98095" lon="-0.24093">
        <ele>1535.7</ele>
        <time>2016-03-11T11:07:28Z</time>
      </trkpt>
      <trkpt lat="42.98101" lon="-0.24086">
        <ele>1536.1</ele>
        <time>2016-03-11T11:07:33Z</time>
      </trkpt>
      <trkpt lat="42.98104" lon="-0.24076">
        <ele>1536.5</ele>
        <time>2016-03-11T11:07:37Z</time>
      </trkpt>
      <trkpt lat="42.98108" lon="-0.24067">
        <ele>1537.5</ele>
        <time>2016-03-11T11:07:42Z</time>
      </trkpt>
      <trkpt lat="42.98112" lon="-0.24057">
        <ele>1537.7</ele>
        <time>2016-03-11T11:07:47Z</time>
      </trkpt>
      <trkpt lat="42.98117" lon="-0.24046">
        <ele>1538.5</ele>
        <time>2016-03-11T11:07:51Z</time>
      </trkpt>
      <trkpt lat="42.98122" lon="-0.24037">
        <ele>1538.3</ele>
        <time>2016-03-11T11:07:55Z</time>
      </trkpt>
      <trkpt lat="42.98126" lon="-0.2403">
        <ele>1538</ele>
        <time>2016-03-11T11:07:58Z</time>
      </trkpt>
      <trkpt lat="42.98132" lon="-0.24023">
        <ele>1537.7</ele>
        <time>2016-03-11T11:08:02Z</time>
      </trkpt>
      <trkpt lat="42.98134" lon="-0.24021">
        <ele>1537.4</ele>
        <time>2016-03-11T11:08:03Z</time>
      </trkpt>
      <trkpt lat="42.98144" lon="-0.24008">
        <ele>1538</ele>
        <time>2016-03-11T11:08:11Z</time>
      </trkpt>
      <trkpt lat="42.98151" lon="-0.24003">
        <ele>1538.2</ele>
        <time>2016-03-11T11:08:16Z</time>
      </trkpt>
      <trkpt lat="42.98158" lon="-0.24002">
        <ele>1538.6</ele>
        <time>2016-03-11T11:08:20Z</time>
      </trkpt>
      <trkpt lat="42.98165" lon="-0.24008">
        <ele>1538.9</ele>
        <time>2016-03-11T11:08:25Z</time>
      </trkpt>
      <trkpt lat="42.98168" lon="-0.24017">
        <ele>1538.6</ele>
        <time>2016-03-11T11:08:30Z</time>
      </trkpt>
      <trkpt lat="42.98174" lon="-0.24027">
        <ele>1539.2</ele>
        <time>2016-03-11T11:08:35Z</time>
      </trkpt>
      <trkpt lat="42.98181" lon="-0.24031">
        <ele>1539.1</ele>
        <time>2016-03-11T11:08:39Z</time>
      </trkpt>
      <trkpt lat="42.98188" lon="-0.24033">
        <ele>1539.1</ele>
        <time>2016-03-11T11:08:43Z</time>
      </trkpt>
      <trkpt lat="42.98196" lon="-0.2403">
        <ele>1539.3</ele>
        <time>2016-03-11T11:08:48Z</time>
      </trkpt>
      <trkpt lat="42.98203" lon="-0.24025">
        <ele>1539.5</ele>
        <time>2016-03-11T11:08:53Z</time>
      </trkpt>
      <trkpt lat="42.9821" lon="-0.24019">
        <ele>1540</ele>
        <time>2016-03-11T11:08:58Z</time>
      </trkpt>
      <trkpt lat="42.98215" lon="-0.24012">
        <ele>1539.7</ele>
        <time>2016-03-11T11:09:02Z</time>
      </trkpt>
      <trkpt lat="42.98222" lon="-0.24007">
        <ele>1539.8</ele>
        <time>2016-03-11T11:09:06Z</time>
      </trkpt>
      <trkpt lat="42.98223" lon="-0.24006">
        <ele>1539.9</ele>
        <time>2016-03-11T11:09:07Z</time>
      </trkpt>
      <trkpt lat="42.98236" lon="-0.24003">
        <ele>1539.9</ele>
        <time>2016-03-11T11:09:14Z</time>
      </trkpt>
      <trkpt lat="42.98244" lon="-0.24003">
        <ele>1541.1</ele>
        <time>2016-03-11T11:09:18Z</time>
      </trkpt>
      <trkpt lat="42.98252" lon="-0.24005">
        <ele>1540.9</ele>
        <time>2016-03-11T11:09:23Z</time>
      </trkpt>
      <trkpt lat="42.98259" lon="-0.24013">
        <ele>1541.3</ele>
        <time>2016-03-11T11:09:29Z</time>
      </trkpt>
      <trkpt lat="42.98262" lon="-0.24024">
        <ele>1541.9</ele>
        <time>2016-03-11T11:09:36Z</time>
      </trkpt>
      <trkpt lat="42.98263" lon="-0.24035">
        <ele>1543</ele>
        <time>2016-03-11T11:09:42Z</time>
      </trkpt>
      <trkpt lat="42.98266" lon="-0.24047">
        <ele>1544.5</ele>
        <time>2016-03-11T11:09:48Z</time>
      </trkpt>
      <trkpt lat="42.98268" lon="-0.24058">
        <ele>1545.1</ele>
        <time>2016-03-11T11:09:55Z</time>
      </trkpt>
      <trkpt lat="42.98271" lon="-0.24069">
        <ele>1546.1</ele>
        <time>2016-03-11T11:10:01Z</time>
      </trkpt>
      <trkpt lat="42.98273" lon="-0.24079">
        <ele>1546</ele>
        <time>2016-03-11T11:10:06Z</time>
      </trkpt>
      <trkpt lat="42.98275" lon="-0.24091">
        <ele>1546.1</ele>
        <time>2016-03-11T11:10:12Z</time>
      </trkpt>
      <trkpt lat="42.98275" lon="-0.24092">
        <ele>1546.4</ele>
        <time>2016-03-11T11:10:13Z</time>
      </trkpt>
      <trkpt lat="42.98275" lon="-0.24103">
        <ele>1545.5</ele>
        <time>2016-03-11T11:11:34Z</time>
      </trkpt>
      <trkpt lat="42.98271" lon="-0.24115">
        <ele>1547.4</ele>
        <time>2016-03-11T11:18:02Z</time>
      </trkpt>
      <trkpt lat="42.98262" lon="-0.2413">
        <ele>1546.2</ele>
        <time>2016-03-11T11:18:11Z</time>
      </trkpt>
      <trkpt lat="42.98257" lon="-0.24139">
        <ele>1546</ele>
        <time>2016-03-11T11:18:15Z</time>
      </trkpt>
      <trkpt lat="42.98253" lon="-0.24148">
        <ele>1546.4</ele>
        <time>2016-03-11T11:18:20Z</time>
      </trkpt>
      <trkpt lat="42.98249" lon="-0.24157">
        <ele>1545.8</ele>
        <time>2016-03-11T11:18:24Z</time>
      </trkpt>
      <trkpt lat="42.98245" lon="-0.24166">
        <ele>1545.8</ele>
        <time>2016-03-11T11:18:28Z</time>
      </trkpt>
      <trkpt lat="42.9824" lon="-0.24175">
        <ele>1545.9</ele>
        <time>2016-03-11T11:18:32Z</time>
      </trkpt>
      <trkpt lat="42.98236" lon="-0.24184">
        <ele>1545.9</ele>
        <time>2016-03-11T11:18:35Z</time>
      </trkpt>
      <trkpt lat="42.98232" lon="-0.24193">
        <ele>1545.6</ele>
        <time>2016-03-11T11:18:38Z</time>
      </trkpt>
      <trkpt lat="42.98229" lon="-0.24204">
        <ele>1544.7</ele>
        <time>2016-03-11T11:18:41Z</time>
      </trkpt>
      <trkpt lat="42.98226" lon="-0.24214">
        <ele>1544.3</ele>
        <time>2016-03-11T11:18:44Z</time>
      </trkpt>
      <trkpt lat="42.98223" lon="-0.24225">
        <ele>1544.5</ele>
        <time>2016-03-11T11:18:47Z</time>
      </trkpt>
      <trkpt lat="42.98221" lon="-0.24233">
        <ele>1544.6</ele>
        <time>2016-03-11T11:18:49Z</time>
      </trkpt>
      <trkpt lat="42.98218" lon="-0.24242">
        <ele>1544.3</ele>
        <time>2016-03-11T11:18:51Z</time>
      </trkpt>
      <trkpt lat="42.98215" lon="-0.2425">
        <ele>1543.8</ele>
        <time>2016-03-11T11:18:53Z</time>
      </trkpt>
      <trkpt lat="42.98212" lon="-0.24258">
        <ele>1543.2</ele>
        <time>2016-03-11T11:18:55Z</time>
      </trkpt>
      <trkpt lat="42.98208" lon="-0.24265">
        <ele>1542.9</ele>
        <time>2016-03-11T11:18:57Z</time>
      </trkpt>
      <trkpt lat="42.98202" lon="-0.24273">
        <ele>1542.7</ele>
        <time>2016-03-11T11:19:00Z</time>
      </trkpt>
      <trkpt lat="42.98197" lon="-0.2428">
        <ele>1542</ele>
        <time>2016-03-11T11:19:03Z</time>
      </trkpt>
      <trkpt lat="42.98196" lon="-0.24282">
        <ele>1541.8</ele>
        <time>2016-03-11T11:19:04Z</time>
      </trkpt>
      <trkpt lat="42.98183" lon="-0.24294">
        <ele>1541.6</ele>
        <time>2016-03-11T11:19:11Z</time>
      </trkpt>
      <trkpt lat="42.98178" lon="-0.243">
        <ele>1541.4</ele>
        <time>2016-03-11T11:19:14Z</time>
      </trkpt>
      <trkpt lat="42.98171" lon="-0.24306">
        <ele>1541.3</ele>
        <time>2016-03-11T11:19:17Z</time>
      </trkpt>
      <trkpt lat="42.98164" lon="-0.24313">
        <ele>1541.7</ele>
        <time>2016-03-11T11:19:20Z</time>
      </trkpt>
      <trkpt lat="42.98158" lon="-0.24319">
        <ele>1541.1</ele>
        <time>2016-03-11T11:19:23Z</time>
      </trkpt>
      <trkpt lat="42.98151" lon="-0.24327">
        <ele>1540.8</ele>
        <time>2016-03-11T11:19:27Z</time>
      </trkpt>
      <trkpt lat="42.98144" lon="-0.24335">
        <ele>1540.8</ele>
        <time>2016-03-11T11:19:31Z</time>
      </trkpt>
      <trkpt lat="42.98139" lon="-0.24341">
        <ele>1540.2</ele>
        <time>2016-03-11T11:19:34Z</time>
      </trkpt>
      <trkpt lat="42.98134" lon="-0.24347">
        <ele>1539.5</ele>
        <time>2016-03-11T11:19:37Z</time>
      </trkpt>
      <trkpt lat="42.98128" lon="-0.24353">
        <ele>1538.8</ele>
        <time>2016-03-11T11:19:40Z</time>
      </trkpt>
      <trkpt lat="42.98122" lon="-0.2436">
        <ele>1539.2</ele>
        <time>2016-03-11T11:19:43Z</time>
      </trkpt>
      <trkpt lat="42.98116" lon="-0.24368">
        <ele>1539.2</ele>
        <time>2016-03-11T11:19:47Z</time>
      </trkpt>
      <trkpt lat="42.9811" lon="-0.24375">
        <ele>1539.6</ele>
        <time>2016-03-11T11:19:51Z</time>
      </trkpt>
      <trkpt lat="42.98103" lon="-0.24381">
        <ele>1539.1</ele>
        <time>2016-03-11T11:19:54Z</time>
      </trkpt>
      <trkpt lat="42.98097" lon="-0.24388">
        <ele>1538.5</ele>
        <time>2016-03-11T11:19:58Z</time>
      </trkpt>
      <trkpt lat="42.9809" lon="-0.24393">
        <ele>1538.4</ele>
        <time>2016-03-11T11:20:01Z</time>
      </trkpt>
      <trkpt lat="42.98084" lon="-0.24398">
        <ele>1538.5</ele>
        <time>2016-03-11T11:20:04Z</time>
      </trkpt>
      <trkpt lat="42.98082" lon="-0.24399">
        <ele>1538.5</ele>
        <time>2016-03-11T11:20:05Z</time>
      </trkpt>
      <trkpt lat="42.98069" lon="-0.24407">
        <ele>1537.7</ele>
        <time>2016-03-11T11:20:10Z</time>
      </trkpt>
      <trkpt lat="42.98063" lon="-0.24412">
        <ele>1537.1</ele>
        <time>2016-03-11T11:20:13Z</time>
      </trkpt>
      <trkpt lat="42.98055" lon="-0.24419">
        <ele>1536.6</ele>
        <time>2016-03-11T11:20:17Z</time>
      </trkpt>
      <trkpt lat="42.9805" lon="-0.24426">
        <ele>1536.5</ele>
        <time>2016-03-11T11:20:21Z</time>
      </trkpt>
      <trkpt lat="42.98044" lon="-0.24434">
        <ele>1536.1</ele>
        <time>2016-03-11T11:20:25Z</time>
      </trkpt>
      <trkpt lat="42.98038" lon="-0.24443">
        <ele>1535.7</ele>
        <time>2016-03-11T11:20:29Z</time>
      </trkpt>
      <trkpt lat="42.98033" lon="-0.24452">
        <ele>1535</ele>
        <time>2016-03-11T11:20:33Z</time>
      </trkpt>
      <trkpt lat="42.98029" lon="-0.2446">
        <ele>1534.5</ele>
        <time>2016-03-11T11:20:36Z</time>
      </trkpt>
      <trkpt lat="42.98025" lon="-0.2447">
        <ele>1534.9</ele>
        <time>2016-03-11T11:20:40Z</time>
      </trkpt>
      <trkpt lat="42.98023" lon="-0.24481">
        <ele>1534.4</ele>
        <time>2016-03-11T11:20:44Z</time>
      </trkpt>
      <trkpt lat="42.98022" lon="-0.24491">
        <ele>1534.6</ele>
        <time>2016-03-11T11:20:47Z</time>
      </trkpt>
      <trkpt lat="42.98023" lon="-0.24501">
        <ele>1533.3</ele>
        <time>2016-03-11T11:20:50Z</time>
      </trkpt>
      <trkpt lat="42.98024" lon="-0.24513">
        <ele>1532.9</ele>
        <time>2016-03-11T11:20:54Z</time>
      </trkpt>
      <trkpt lat="42.98024" lon="-0.24522">
        <ele>1532.3</ele>
        <time>2016-03-11T11:20:58Z</time>
      </trkpt>
      <trkpt lat="42.98024" lon="-0.24534">
        <ele>1533.3</ele>
        <time>2016-03-11T11:21:02Z</time>
      </trkpt>
      <trkpt lat="42.98023" lon="-0.24545">
        <ele>1533.7</ele>
        <time>2016-03-11T11:21:06Z</time>
      </trkpt>
      <trkpt lat="42.98023" lon="-0.24548">
        <ele>1533.5</ele>
        <time>2016-03-11T11:21:07Z</time>
      </trkpt>
      <trkpt lat="42.9802" lon="-0.24566">
        <ele>1533.3</ele>
        <time>2016-03-11T11:21:14Z</time>
      </trkpt>
      <trkpt lat="42.98019" lon="-0.24578">
        <ele>1531.9</ele>
        <time>2016-03-11T11:21:18Z</time>
      </trkpt>
      <trkpt lat="42.98017" lon="-0.2459">
        <ele>1531.9</ele>
        <time>2016-03-11T11:21:22Z</time>
      </trkpt>
      <trkpt lat="42.98017" lon="-0.24599">
        <ele>1532.5</ele>
        <time>2016-03-11T11:21:25Z</time>
      </trkpt>
      <trkpt lat="42.98015" lon="-0.24609">
        <ele>1532.1</ele>
        <time>2016-03-11T11:21:28Z</time>
      </trkpt>
      <trkpt lat="42.98013" lon="-0.24619">
        <ele>1532.2</ele>
        <time>2016-03-11T11:21:31Z</time>
      </trkpt>
      <trkpt lat="42.98011" lon="-0.24629">
        <ele>1531.8</ele>
        <time>2016-03-11T11:21:34Z</time>
      </trkpt>
      <trkpt lat="42.98008" lon="-0.24639">
        <ele>1530.9</ele>
        <time>2016-03-11T11:21:38Z</time>
      </trkpt>
      <trkpt lat="42.98004" lon="-0.24649">
        <ele>1531.1</ele>
        <time>2016-03-11T11:21:43Z</time>
      </trkpt>
      <trkpt lat="42.97997" lon="-0.24656">
        <ele>1531.5</ele>
        <time>2016-03-11T11:21:48Z</time>
      </trkpt>
      <trkpt lat="42.97991" lon="-0.24662">
        <ele>1532.1</ele>
        <time>2016-03-11T11:21:52Z</time>
      </trkpt>
      <trkpt lat="42.97985" lon="-0.24668">
        <ele>1531.8</ele>
        <time>2016-03-11T11:21:56Z</time>
      </trkpt>
      <trkpt lat="42.97979" lon="-0.24674">
        <ele>1531.5</ele>
        <time>2016-03-11T11:22:00Z</time>
      </trkpt>
      <trkpt lat="42.97973" lon="-0.2468">
        <ele>1531.6</ele>
        <time>2016-03-11T11:22:04Z</time>
      </trkpt>
      <trkpt lat="42.97966" lon="-0.24685">
        <ele>1531.8</ele>
        <time>2016-03-11T11:22:08Z</time>
      </trkpt>
      <trkpt lat="42.97964" lon="-0.24686">
        <ele>1531.9</ele>
        <time>2016-03-11T11:22:09Z</time>
      </trkpt>
      <trkpt lat="42.97951" lon="-0.24691">
        <ele>1530.4</ele>
        <time>2016-03-11T11:22:15Z</time>
      </trkpt>
      <trkpt lat="42.97943" lon="-0.24693">
        <ele>1529.9</ele>
        <time>2016-03-11T11:22:19Z</time>
      </trkpt>
      <trkpt lat="42.97936" lon="-0.24694">
        <ele>1530.1</ele>
        <time>2016-03-11T11:22:23Z</time>
      </trkpt>
      <trkpt lat="42.97929" lon="-0.24697">
        <ele>1529.7</ele>
        <time>2016-03-11T11:22:27Z</time>
      </trkpt>
      <trkpt lat="42.97921" lon="-0.24699">
        <ele>1530.5</ele>
        <time>2016-03-11T11:22:31Z</time>
      </trkpt>
      <trkpt lat="42.97913" lon="-0.24702">
        <ele>1530.4</ele>
        <time>2016-03-11T11:22:35Z</time>
      </trkpt>
      <trkpt lat="42.97904" lon="-0.24706">
        <ele>1530.2</ele>
        <time>2016-03-11T11:22:39Z</time>
      </trkpt>
      <trkpt lat="42.97897" lon="-0.24711">
        <ele>1530.3</ele>
        <time>2016-03-11T11:22:43Z</time>
      </trkpt>
      <trkpt lat="42.97892" lon="-0.24718">
        <ele>1529.9</ele>
        <time>2016-03-11T11:22:47Z</time>
      </trkpt>
      <trkpt lat="42.97885" lon="-0.24725">
        <ele>1529.5</ele>
        <time>2016-03-11T11:22:51Z</time>
      </trkpt>
      <trkpt lat="42.97879" lon="-0.24731">
        <ele>1529</ele>
        <time>2016-03-11T11:22:54Z</time>
      </trkpt>
      <trkpt lat="42.97873" lon="-0.24736">
        <ele>1528.8</ele>
        <time>2016-03-11T11:22:57Z</time>
      </trkpt>
      <trkpt lat="42.97867" lon="-0.24741">
        <ele>1528.7</ele>
        <time>2016-03-11T11:23:00Z</time>
      </trkpt>
      <trkpt lat="42.97861" lon="-0.24747">
        <ele>1528.4</ele>
        <time>2016-03-11T11:23:03Z</time>
      </trkpt>
      <trkpt lat="42.97855" lon="-0.24752">
        <ele>1528.2</ele>
        <time>2016-03-11T11:23:06Z</time>
      </trkpt>
      <trkpt lat="42.97849" lon="-0.24757">
        <ele>1528</ele>
        <time>2016-03-11T11:23:09Z</time>
      </trkpt>
      <trkpt lat="42.97847" lon="-0.24759">
        <ele>1528</ele>
        <time>2016-03-11T11:23:10Z</time>
      </trkpt>
      <trkpt lat="42.97834" lon="-0.24765">
        <ele>1528</ele>
        <time>2016-03-11T11:23:17Z</time>
      </trkpt>
      <trkpt lat="42.97825" lon="-0.24767">
        <ele>1527.6</ele>
        <time>2016-03-11T11:23:21Z</time>
      </trkpt>
      <trkpt lat="42.97819" lon="-0.24767">
        <ele>1527.1</ele>
        <time>2016-03-11T11:23:24Z</time>
      </trkpt>
      <trkpt lat="42.97811" lon="-0.24766">
        <ele>1527.2</ele>
        <time>2016-03-11T11:23:27Z</time>
      </trkpt>
      <trkpt lat="42.97804" lon="-0.24765">
        <ele>1527.2</ele>
        <time>2016-03-11T11:23:30Z</time>
      </trkpt>
      <trkpt lat="42.97795" lon="-0.24762">
        <ele>1527.1</ele>
        <time>2016-03-11T11:23:33Z</time>
      </trkpt>
      <trkpt lat="42.97787" lon="-0.24759">
        <ele>1526.8</ele>
        <time>2016-03-11T11:23:36Z</time>
      </trkpt>
      <trkpt lat="42.97779" lon="-0.24755">
        <ele>1526.2</ele>
        <time>2016-03-11T11:23:39Z</time>
      </trkpt>
      <trkpt lat="42.97771" lon="-0.24753">
        <ele>1526.3</ele>
        <time>2016-03-11T11:23:42Z</time>
      </trkpt>
      <trkpt lat="42.97763" lon="-0.24749">
        <ele>1525.7</ele>
        <time>2016-03-11T11:23:45Z</time>
      </trkpt>
      <trkpt lat="42.97757" lon="-0.24743">
        <ele>1524.6</ele>
        <time>2016-03-11T11:23:48Z</time>
      </trkpt>
      <trkpt lat="42.97753" lon="-0.24735">
        <ele>1524.5</ele>
        <time>2016-03-11T11:23:51Z</time>
      </trkpt>
      <trkpt lat="42.9775" lon="-0.24725">
        <ele>1524</ele>
        <time>2016-03-11T11:23:54Z</time>
      </trkpt>
      <trkpt lat="42.97746" lon="-0.24714">
        <ele>1523.5</ele>
        <time>2016-03-11T11:23:58Z</time>
      </trkpt>
      <trkpt lat="42.97741" lon="-0.24707">
        <ele>1523.1</ele>
        <time>2016-03-11T11:24:02Z</time>
      </trkpt>
      <trkpt lat="42.97733" lon="-0.24702">
        <ele>1523</ele>
        <time>2016-03-11T11:24:06Z</time>
      </trkpt>
      <trkpt lat="42.97725" lon="-0.247">
        <ele>1523.1</ele>
        <time>2016-03-11T11:24:10Z</time>
      </trkpt>
      <trkpt lat="42.97723" lon="-0.24699">
        <ele>1523.2</ele>
        <time>2016-03-11T11:24:11Z</time>
      </trkpt>
      <trkpt lat="42.9771" lon="-0.24696">
        <ele>1521.3</ele>
        <time>2016-03-11T11:24:18Z</time>
      </trkpt>
      <trkpt lat="42.97702" lon="-0.24693">
        <ele>1521.1</ele>
        <time>2016-03-11T11:24:22Z</time>
      </trkpt>
      <trkpt lat="42.97693" lon="-0.24689">
        <ele>1521.5</ele>
        <time>2016-03-11T11:24:26Z</time>
      </trkpt>
      <trkpt lat="42.97685" lon="-0.24687">
        <ele>1521.4</ele>
        <time>2016-03-11T11:24:30Z</time>
      </trkpt>
      <trkpt lat="42.97676" lon="-0.24686">
        <ele>1521.3</ele>
        <time>2016-03-11T11:24:34Z</time>
      </trkpt>
      <trkpt lat="42.97669" lon="-0.24685">
        <ele>1521.4</ele>
        <time>2016-03-11T11:24:37Z</time>
      </trkpt>
      <trkpt lat="42.9766" lon="-0.24685">
        <ele>1521.2</ele>
        <time>2016-03-11T11:24:41Z</time>
      </trkpt>
      <trkpt lat="42.97653" lon="-0.24684">
        <ele>1520.6</ele>
        <time>2016-03-11T11:24:45Z</time>
      </trkpt>
      <trkpt lat="42.97645" lon="-0.24685">
        <ele>1520.9</ele>
        <time>2016-03-11T11:24:49Z</time>
      </trkpt>
      <trkpt lat="42.97638" lon="-0.24687">
        <ele>1520.8</ele>
        <time>2016-03-11T11:24:52Z</time>
      </trkpt>
      <trkpt lat="42.97631" lon="-0.24692">
        <ele>1520.4</ele>
        <time>2016-03-11T11:24:55Z</time>
      </trkpt>
      <trkpt lat="42.97626" lon="-0.24697">
        <ele>1520.4</ele>
        <time>2016-03-11T11:24:58Z</time>
      </trkpt>
      <trkpt lat="42.9762" lon="-0.24703">
        <ele>1520.6</ele>
        <time>2016-03-11T11:25:02Z</time>
      </trkpt>
      <trkpt lat="42.97612" lon="-0.2471">
        <ele>1520.1</ele>
        <time>2016-03-11T11:25:07Z</time>
      </trkpt>
      <trkpt lat="42.97606" lon="-0.24716">
        <ele>1520.5</ele>
        <time>2016-03-11T11:25:12Z</time>
      </trkpt>
      <trkpt lat="42.97605" lon="-0.24718">
        <ele>1520.4</ele>
        <time>2016-03-11T11:25:13Z</time>
      </trkpt>
      <trkpt lat="42.97592" lon="-0.24727">
        <ele>1520.7</ele>
        <time>2016-03-11T11:25:22Z</time>
      </trkpt>
      <trkpt lat="42.97584" lon="-0.24732">
        <ele>1520.8</ele>
        <time>2016-03-11T11:25:27Z</time>
      </trkpt>
      <trkpt lat="42.97576" lon="-0.24737">
        <ele>1520.6</ele>
        <time>2016-03-11T11:25:32Z</time>
      </trkpt>
      <trkpt lat="42.97569" lon="-0.2474">
        <ele>1521.2</ele>
        <time>2016-03-11T11:25:36Z</time>
      </trkpt>
      <trkpt lat="42.97562" lon="-0.24743">
        <ele>1520.9</ele>
        <time>2016-03-11T11:25:40Z</time>
      </trkpt>
      <trkpt lat="42.97554" lon="-0.24745">
        <ele>1521.3</ele>
        <time>2016-03-11T11:25:44Z</time>
      </trkpt>
      <trkpt lat="42.97546" lon="-0.24746">
        <ele>1521.1</ele>
        <time>2016-03-11T11:25:48Z</time>
      </trkpt>
      <trkpt lat="42.97538" lon="-0.24747">
        <ele>1520.8</ele>
        <time>2016-03-11T11:25:52Z</time>
      </trkpt>
      <trkpt lat="42.9753" lon="-0.24742">
        <ele>1520.2</ele>
        <time>2016-03-11T11:25:56Z</time>
      </trkpt>
      <trkpt lat="42.97524" lon="-0.24735">
        <ele>1520.4</ele>
        <time>2016-03-11T11:26:00Z</time>
      </trkpt>
      <trkpt lat="42.97517" lon="-0.24728">
        <ele>1520.5</ele>
        <time>2016-03-11T11:26:06Z</time>
      </trkpt>
      <trkpt lat="42.9751" lon="-0.24724">
        <ele>1521.7</ele>
        <time>2016-03-11T11:26:11Z</time>
      </trkpt>
      <trkpt lat="42.97502" lon="-0.24727">
        <ele>1521.6</ele>
        <time>2016-03-11T11:26:16Z</time>
      </trkpt>
      <trkpt lat="42.97501" lon="-0.24727">
        <ele>1521.6</ele>
        <time>2016-03-11T11:26:17Z</time>
      </trkpt>
      <trkpt lat="42.97487" lon="-0.24729">
        <ele>1521.4</ele>
        <time>2016-03-11T11:26:24Z</time>
      </trkpt>
      <trkpt lat="42.97478" lon="-0.2473">
        <ele>1522</ele>
        <time>2016-03-11T11:26:29Z</time>
      </trkpt>
      <trkpt lat="42.97471" lon="-0.24729">
        <ele>1523.2</ele>
        <time>2016-03-11T11:26:34Z</time>
      </trkpt>
      <trkpt lat="42.97463" lon="-0.2473">
        <ele>1523.1</ele>
        <time>2016-03-11T11:26:39Z</time>
      </trkpt>
      <trkpt lat="42.97454" lon="-0.24732">
        <ele>1523.6</ele>
        <time>2016-03-11T11:26:45Z</time>
      </trkpt>
      <trkpt lat="42.97447" lon="-0.24735">
        <ele>1524</ele>
        <time>2016-03-11T11:26:50Z</time>
      </trkpt>
      <trkpt lat="42.97439" lon="-0.24738">
        <ele>1525.4</ele>
        <time>2016-03-11T11:26:55Z</time>
      </trkpt>
      <trkpt lat="42.97431" lon="-0.2474">
        <ele>1526</ele>
        <time>2016-03-11T11:27:01Z</time>
      </trkpt>
      <trkpt lat="42.97424" lon="-0.24744">
        <ele>1526.2</ele>
        <time>2016-03-11T11:27:07Z</time>
      </trkpt>
      <trkpt lat="42.97417" lon="-0.24749">
        <ele>1526.9</ele>
        <time>2016-03-11T11:27:13Z</time>
      </trkpt>
      <trkpt lat="42.9741" lon="-0.24755">
        <ele>1529</ele>
        <time>2016-03-11T11:27:19Z</time>
      </trkpt>
      <trkpt lat="42.97409" lon="-0.24755">
        <ele>1529.2</ele>
        <time>2016-03-11T11:27:20Z</time>
      </trkpt>
      <trkpt lat="42.97394" lon="-0.24758">
        <ele>1530.1</ele>
        <time>2016-03-11T11:27:31Z</time>
      </trkpt>
      <trkpt lat="42.97385" lon="-0.24759">
        <ele>1531</ele>
        <time>2016-03-11T11:27:37Z</time>
      </trkpt>
      <trkpt lat="42.97378" lon="-0.24758">
        <ele>1531.9</ele>
        <time>2016-03-11T11:27:42Z</time>
      </trkpt>
      <trkpt lat="42.97369" lon="-0.24758">
        <ele>1532.7</ele>
        <time>2016-03-11T11:27:47Z</time>
      </trkpt>
      <trkpt lat="42.97361" lon="-0.24758">
        <ele>1533</ele>
        <time>2016-03-11T11:27:53Z</time>
      </trkpt>
      <trkpt lat="42.97352" lon="-0.24758">
        <ele>1534.3</ele>
        <time>2016-03-11T11:28:00Z</time>
      </trkpt>
      <trkpt lat="42.97343" lon="-0.24759">
        <ele>1535.8</ele>
        <time>2016-03-11T11:28:08Z</time>
      </trkpt>
      <trkpt lat="42.97335" lon="-0.2476">
        <ele>1537.3</ele>
        <time>2016-03-11T11:28:15Z</time>
      </trkpt>
      <trkpt lat="42.97327" lon="-0.24762">
        <ele>1537.7</ele>
        <time>2016-03-11T11:28:21Z</time>
      </trkpt>
      <trkpt lat="42.97325" lon="-0.24762">
        <ele>1537.9</ele>
        <time>2016-03-11T11:28:22Z</time>
      </trkpt>
      <trkpt lat="42.9731" lon="-0.24768">
        <ele>1539.3</ele>
        <time>2016-03-11T11:28:31Z</time>
      </trkpt>
      <trkpt lat="42.97302" lon="-0.24773">
        <ele>1539.4</ele>
        <time>2016-03-11T11:28:36Z</time>
      </trkpt>
      <trkpt lat="42.97296" lon="-0.24778">
        <ele>1538.6</ele>
        <time>2016-03-11T11:28:41Z</time>
      </trkpt>
      <trkpt lat="42.9729" lon="-0.24786">
        <ele>1539.8</ele>
        <time>2016-03-11T11:28:46Z</time>
      </trkpt>
      <trkpt lat="42.97285" lon="-0.24794">
        <ele>1541.2</ele>
        <time>2016-03-11T11:28:51Z</time>
      </trkpt>
      <trkpt lat="42.9728" lon="-0.24803">
        <ele>1540.9</ele>
        <time>2016-03-11T11:28:56Z</time>
      </trkpt>
      <trkpt lat="42.97275" lon="-0.24812">
        <ele>1541.9</ele>
        <time>2016-03-11T11:29:01Z</time>
      </trkpt>
      <trkpt lat="42.9727" lon="-0.24822">
        <ele>1542.2</ele>
        <time>2016-03-11T11:29:06Z</time>
      </trkpt>
      <trkpt lat="42.97265" lon="-0.24832">
        <ele>1542.1</ele>
        <time>2016-03-11T11:29:11Z</time>
      </trkpt>
      <trkpt lat="42.9726" lon="-0.24842">
        <ele>1542.4</ele>
        <time>2016-03-11T11:29:16Z</time>
      </trkpt>
      <trkpt lat="42.97255" lon="-0.24852">
        <ele>1543.3</ele>
        <time>2016-03-11T11:29:22Z</time>
      </trkpt>
      <trkpt lat="42.97255" lon="-0.24853">
        <ele>1543.5</ele>
        <time>2016-03-11T11:29:23Z</time>
      </trkpt>
      <trkpt lat="42.97245" lon="-0.24869">
        <ele>1544.5</ele>
        <time>2016-03-11T11:29:34Z</time>
      </trkpt>
      <trkpt lat="42.97239" lon="-0.24877">
        <ele>1545.3</ele>
        <time>2016-03-11T11:29:39Z</time>
      </trkpt>
      <trkpt lat="42.97233" lon="-0.24885">
        <ele>1545.7</ele>
        <time>2016-03-11T11:29:43Z</time>
      </trkpt>
      <trkpt lat="42.97228" lon="-0.24891">
        <ele>1545.5</ele>
        <time>2016-03-11T11:29:46Z</time>
      </trkpt>
      <trkpt lat="42.97222" lon="-0.24898">
        <ele>1545</ele>
        <time>2016-03-11T11:29:49Z</time>
      </trkpt>
      <trkpt lat="42.97215" lon="-0.24906">
        <ele>1544.3</ele>
        <time>2016-03-11T11:29:52Z</time>
      </trkpt>
      <trkpt lat="42.9721" lon="-0.24912">
        <ele>1543.9</ele>
        <time>2016-03-11T11:29:54Z</time>
      </trkpt>
      <trkpt lat="42.97208" lon="-0.24923">
        <ele>1542.8</ele>
        <time>2016-03-11T11:29:59Z</time>
      </trkpt>
      <trkpt lat="42.97205" lon="-0.24935">
        <ele>1543.6</ele>
        <time>2016-03-11T11:30:04Z</time>
      </trkpt>
      <trkpt lat="42.97202" lon="-0.24947">
        <ele>1543.8</ele>
        <time>2016-03-11T11:30:09Z</time>
      </trkpt>
      <trkpt lat="42.972" lon="-0.24956">
        <ele>1544</ele>
        <time>2016-03-11T11:30:13Z</time>
      </trkpt>
      <trkpt lat="42.97197" lon="-0.24966">
        <ele>1543.5</ele>
        <time>2016-03-11T11:30:17Z</time>
      </trkpt>
      <trkpt lat="42.97194" lon="-0.24975">
        <ele>1542.9</ele>
        <time>2016-03-11T11:30:21Z</time>
      </trkpt>
      <trkpt lat="42.97192" lon="-0.24987">
        <ele>1543.7</ele>
        <time>2016-03-11T11:30:26Z</time>
      </trkpt>
      <trkpt lat="42.97192" lon="-0.2499">
        <ele>1543.7</ele>
        <time>2016-03-11T11:30:27Z</time>
      </trkpt>
      <trkpt lat="42.97189" lon="-0.25009">
        <ele>1545.1</ele>
        <time>2016-03-11T11:30:34Z</time>
      </trkpt>
      <trkpt lat="42.97187" lon="-0.2502">
        <ele>1543.6</ele>
        <time>2016-03-11T11:30:38Z</time>
      </trkpt>
      <trkpt lat="42.97186" lon="-0.25032">
        <ele>1543.3</ele>
        <time>2016-03-11T11:30:42Z</time>
      </trkpt>
      <trkpt lat="42.97184" lon="-0.25042">
        <ele>1543.7</ele>
        <time>2016-03-11T11:30:46Z</time>
      </trkpt>
      <trkpt lat="42.97183" lon="-0.25052">
        <ele>1543.3</ele>
        <time>2016-03-11T11:30:50Z</time>
      </trkpt>
      <trkpt lat="42.97182" lon="-0.25062">
        <ele>1543.3</ele>
        <time>2016-03-11T11:30:54Z</time>
      </trkpt>
      <trkpt lat="42.9718" lon="-0.25074">
        <ele>1542.2</ele>
        <time>2016-03-11T11:30:59Z</time>
      </trkpt>
      <trkpt lat="42.97178" lon="-0.25084">
        <ele>1543.3</ele>
        <time>2016-03-11T11:31:04Z</time>
      </trkpt>
      <trkpt lat="42.97175" lon="-0.25095">
        <ele>1544</ele>
        <time>2016-03-11T11:31:09Z</time>
      </trkpt>
      <trkpt lat="42.97173" lon="-0.25106">
        <ele>1544.2</ele>
        <time>2016-03-11T11:31:14Z</time>
      </trkpt>
      <trkpt lat="42.97172" lon="-0.25117">
        <ele>1544.3</ele>
        <time>2016-03-11T11:31:19Z</time>
      </trkpt>
      <trkpt lat="42.97172" lon="-0.25128">
        <ele>1545.6</ele>
        <time>2016-03-11T11:31:23Z</time>
      </trkpt>
      <trkpt lat="42.97174" lon="-0.25137">
        <ele>1544.9</ele>
        <time>2016-03-11T11:31:27Z</time>
      </trkpt>
      <trkpt lat="42.97174" lon="-0.25139">
        <ele>1544.7</ele>
        <time>2016-03-11T11:31:28Z</time>
      </trkpt>
      <trkpt lat="42.97179" lon="-0.25157">
        <ele>1545.5</ele>
        <time>2016-03-11T11:31:34Z</time>
      </trkpt>
      <trkpt lat="42.97181" lon="-0.25168">
        <ele>1545.2</ele>
        <time>2016-03-11T11:31:37Z</time>
      </trkpt>
      <trkpt lat="42.97184" lon="-0.25179">
        <ele>1544.3</ele>
        <time>2016-03-11T11:31:40Z</time>
      </trkpt>
      <trkpt lat="42.97186" lon="-0.25189">
        <ele>1543.8</ele>
        <time>2016-03-11T11:31:43Z</time>
      </trkpt>
      <trkpt lat="42.97188" lon="-0.25199">
        <ele>1543</ele>
        <time>2016-03-11T11:31:47Z</time>
      </trkpt>
      <trkpt lat="42.97191" lon="-0.25207">
        <ele>1542.8</ele>
        <time>2016-03-11T11:31:50Z</time>
      </trkpt>
      <trkpt lat="42.97194" lon="-0.25216">
        <ele>1541.9</ele>
        <time>2016-03-11T11:31:53Z</time>
      </trkpt>
      <trkpt lat="42.97197" lon="-0.25228">
        <ele>1542.1</ele>
        <time>2016-03-11T11:31:56Z</time>
      </trkpt>
      <trkpt lat="42.97201" lon="-0.25238">
        <ele>1542</ele>
        <time>2016-03-11T11:31:59Z</time>
      </trkpt>
      <trkpt lat="42.97203" lon="-0.25248">
        <ele>1541.8</ele>
        <time>2016-03-11T11:32:02Z</time>
      </trkpt>
      <trkpt lat="42.97206" lon="-0.25259">
        <ele>1540.7</ele>
        <time>2016-03-11T11:32:06Z</time>
      </trkpt>
      <trkpt lat="42.97207" lon="-0.25271">
        <ele>1539.9</ele>
        <time>2016-03-11T11:32:10Z</time>
      </trkpt>
      <trkpt lat="42.97208" lon="-0.25283">
        <ele>1540.1</ele>
        <time>2016-03-11T11:32:14Z</time>
      </trkpt>
      <trkpt lat="42.97208" lon="-0.25294">
        <ele>1540</ele>
        <time>2016-03-11T11:32:18Z</time>
      </trkpt>
      <trkpt lat="42.97208" lon="-0.25305">
        <ele>1538.8</ele>
        <time>2016-03-11T11:32:22Z</time>
      </trkpt>
      <trkpt lat="42.97207" lon="-0.25316">
        <ele>1539.6</ele>
        <time>2016-03-11T11:32:26Z</time>
      </trkpt>
      <trkpt lat="42.97206" lon="-0.25326">
        <ele>1539.1</ele>
        <time>2016-03-11T11:32:30Z</time>
      </trkpt>
      <trkpt lat="42.97205" lon="-0.25329">
        <ele>1539</ele>
        <time>2016-03-11T11:32:31Z</time>
      </trkpt>
      <trkpt lat="42.97203" lon="-0.25348">
        <ele>1538.5</ele>
        <time>2016-03-11T11:32:37Z</time>
      </trkpt>
      <trkpt lat="42.97202" lon="-0.25358">
        <ele>1538.4</ele>
        <time>2016-03-11T11:32:40Z</time>
      </trkpt>
      <trkpt lat="42.97201" lon="-0.25367">
        <ele>1538.4</ele>
        <time>2016-03-11T11:32:42Z</time>
      </trkpt>
      <trkpt lat="42.972" lon="-0.25377">
        <ele>1538.1</ele>
        <time>2016-03-11T11:32:44Z</time>
      </trkpt>
      <trkpt lat="42.97198" lon="-0.25388">
        <ele>1537.9</ele>
        <time>2016-03-11T11:32:46Z</time>
      </trkpt>
      <trkpt lat="42.97196" lon="-0.25399">
        <ele>1537.6</ele>
        <time>2016-03-11T11:32:48Z</time>
      </trkpt>
      <trkpt lat="42.97194" lon="-0.25409">
        <ele>1536.5</ele>
        <time>2016-03-11T11:32:50Z</time>
      </trkpt>
      <trkpt lat="42.97191" lon="-0.2542">
        <ele>1535.2</ele>
        <time>2016-03-11T11:32:53Z</time>
      </trkpt>
      <trkpt lat="42.97188" lon="-0.25429">
        <ele>1534.5</ele>
        <time>2016-03-11T11:32:57Z</time>
      </trkpt>
      <trkpt lat="42.97184" lon="-0.25437">
        <ele>1533.9</ele>
        <time>2016-03-11T11:33:00Z</time>
      </trkpt>
      <trkpt lat="42.97179" lon="-0.25448">
        <ele>1533.7</ele>
        <time>2016-03-11T11:33:03Z</time>
      </trkpt>
      <trkpt lat="42.97175" lon="-0.25459">
        <ele>1533.7</ele>
        <time>2016-03-11T11:33:06Z</time>
      </trkpt>
      <trkpt lat="42.97172" lon="-0.25469">
        <ele>1533.4</ele>
        <time>2016-03-11T11:33:09Z</time>
      </trkpt>
      <trkpt lat="42.97169" lon="-0.25478">
        <ele>1532.9</ele>
        <time>2016-03-11T11:33:12Z</time>
      </trkpt>
      <trkpt lat="42.97166" lon="-0.25488">
        <ele>1532.2</ele>
        <time>2016-03-11T11:33:15Z</time>
      </trkpt>
      <trkpt lat="42.97162" lon="-0.25499">
        <ele>1530.8</ele>
        <time>2016-03-11T11:33:19Z</time>
      </trkpt>
      <trkpt lat="42.97159" lon="-0.2551">
        <ele>1531.2</ele>
        <time>2016-03-11T11:33:23Z</time>
      </trkpt>
      <trkpt lat="42.97156" lon="-0.2552">
        <ele>1530.4</ele>
        <time>2016-03-11T11:33:27Z</time>
      </trkpt>
      <trkpt lat="42.97153" lon="-0.25529">
        <ele>1530</ele>
        <time>2016-03-11T11:33:31Z</time>
      </trkpt>
      <trkpt lat="42.97152" lon="-0.25531">
        <ele>1530.1</ele>
        <time>2016-03-11T11:33:32Z</time>
      </trkpt>
      <trkpt lat="42.97146" lon="-0.25548">
        <ele>1530.6</ele>
        <time>2016-03-11T11:33:39Z</time>
      </trkpt>
      <trkpt lat="42.97142" lon="-0.25557">
        <ele>1530.7</ele>
        <time>2016-03-11T11:33:42Z</time>
      </trkpt>
      <trkpt lat="42.97137" lon="-0.25566">
        <ele>1529.6</ele>
        <time>2016-03-11T11:33:46Z</time>
      </trkpt>
      <trkpt lat="42.97129" lon="-0.25572">
        <ele>1529.2</ele>
        <time>2016-03-11T11:33:51Z</time>
      </trkpt>
      <trkpt lat="42.97123" lon="-0.25575">
        <ele>1529.3</ele>
        <time>2016-03-11T11:33:55Z</time>
      </trkpt>
      <trkpt lat="42.97118" lon="-0.25584">
        <ele>1529</ele>
        <time>2016-03-11T11:33:59Z</time>
      </trkpt>
      <trkpt lat="42.9712" lon="-0.25595">
        <ele>1527.3</ele>
        <time>2016-03-11T11:34:05Z</time>
      </trkpt>
      <trkpt lat="42.97126" lon="-0.25601">
        <ele>1528.2</ele>
        <time>2016-03-11T11:34:10Z</time>
      </trkpt>
      <trkpt lat="42.97131" lon="-0.2561">
        <ele>1528.3</ele>
        <time>2016-03-11T11:34:15Z</time>
      </trkpt>
      <trkpt lat="42.97134" lon="-0.2562">
        <ele>1529.4</ele>
        <time>2016-03-11T11:34:21Z</time>
      </trkpt>
      <trkpt lat="42.97136" lon="-0.25632">
        <ele>1528.6</ele>
        <time>2016-03-11T11:34:26Z</time>
      </trkpt>
      <trkpt lat="42.97137" lon="-0.25643">
        <ele>1528.7</ele>
        <time>2016-03-11T11:34:31Z</time>
      </trkpt>
      <trkpt lat="42.97137" lon="-0.25655">
        <ele>1529.5</ele>
        <time>2016-03-11T11:34:36Z</time>
      </trkpt>
      <trkpt lat="42.97137" lon="-0.25658">
        <ele>1529.6</ele>
        <time>2016-03-11T11:34:37Z</time>
      </trkpt>
      <trkpt lat="42.97136" lon="-0.25677">
        <ele>1529.9</ele>
        <time>2016-03-11T11:34:46Z</time>
      </trkpt>
      <trkpt lat="42.97134" lon="-0.25687">
        <ele>1531</ele>
        <time>2016-03-11T11:34:51Z</time>
      </trkpt>
      <trkpt lat="42.97132" lon="-0.25698">
        <ele>1532.1</ele>
        <time>2016-03-11T11:34:57Z</time>
      </trkpt>
      <trkpt lat="42.9713" lon="-0.25709">
        <ele>1533.7</ele>
        <time>2016-03-11T11:35:04Z</time>
      </trkpt>
      <trkpt lat="42.97127" lon="-0.2572">
        <ele>1534</ele>
        <time>2016-03-11T11:35:10Z</time>
      </trkpt>
      <trkpt lat="42.97124" lon="-0.2573">
        <ele>1534.7</ele>
        <time>2016-03-11T11:35:15Z</time>
      </trkpt>
      <trkpt lat="42.97122" lon="-0.25741">
        <ele>1535.4</ele>
        <time>2016-03-11T11:35:21Z</time>
      </trkpt>
      <trkpt lat="42.97119" lon="-0.25752">
        <ele>1536.1</ele>
        <time>2016-03-11T11:35:26Z</time>
      </trkpt>
      <trkpt lat="42.97116" lon="-0.25763">
        <ele>1536.8</ele>
        <time>2016-03-11T11:35:31Z</time>
      </trkpt>
      <trkpt lat="42.97115" lon="-0.25774">
        <ele>1536.3</ele>
        <time>2016-03-11T11:35:36Z</time>
      </trkpt>
      <trkpt lat="42.97114" lon="-0.25786">
        <ele>1536.6</ele>
        <time>2016-03-11T11:35:41Z</time>
      </trkpt>
      <trkpt lat="42.97114" lon="-0.25788">
        <ele>1536.7</ele>
        <time>2016-03-11T11:35:42Z</time>
      </trkpt>
      <trkpt lat="42.97112" lon="-0.25806">
        <ele>1536.1</ele>
        <time>2016-03-11T11:35:48Z</time>
      </trkpt>
      <trkpt lat="42.97113" lon="-0.25817">
        <ele>1536.2</ele>
        <time>2016-03-11T11:35:52Z</time>
      </trkpt>
      <trkpt lat="42.97119" lon="-0.25824">
        <ele>1536.6</ele>
        <time>2016-03-11T11:35:57Z</time>
      </trkpt>
      <trkpt lat="42.97125" lon="-0.25832">
        <ele>1537.7</ele>
        <time>2016-03-11T11:36:03Z</time>
      </trkpt>
      <trkpt lat="42.97131" lon="-0.2584">
        <ele>1538.4</ele>
        <time>2016-03-11T11:36:08Z</time>
      </trkpt>
      <trkpt lat="42.97135" lon="-0.25849">
        <ele>1539.2</ele>
        <time>2016-03-11T11:36:13Z</time>
      </trkpt>
      <trkpt lat="42.97138" lon="-0.25859">
        <ele>1539.5</ele>
        <time>2016-03-11T11:36:18Z</time>
      </trkpt>
      <trkpt lat="42.97139" lon="-0.25871">
        <ele>1540</ele>
        <time>2016-03-11T11:36:23Z</time>
      </trkpt>
      <trkpt lat="42.97143" lon="-0.25881">
        <ele>1539.9</ele>
        <time>2016-03-11T11:36:28Z</time>
      </trkpt>
      <trkpt lat="42.97147" lon="-0.2589">
        <ele>1541.6</ele>
        <time>2016-03-11T11:36:33Z</time>
      </trkpt>
      <trkpt lat="42.97151" lon="-0.25899">
        <ele>1541.7</ele>
        <time>2016-03-11T11:36:38Z</time>
      </trkpt>
      <trkpt lat="42.97155" lon="-0.25908">
        <ele>1541</ele>
        <time>2016-03-11T11:36:43Z</time>
      </trkpt>
      <trkpt lat="42.97156" lon="-0.25909">
        <ele>1541</ele>
        <time>2016-03-11T11:36:44Z</time>
      </trkpt>
      <trkpt lat="42.97162" lon="-0.25927">
        <ele>1542.7</ele>
        <time>2016-03-11T11:36:52Z</time>
      </trkpt>
      <trkpt lat="42.97165" lon="-0.25937">
        <ele>1542.6</ele>
        <time>2016-03-11T11:36:56Z</time>
      </trkpt>
      <trkpt lat="42.97166" lon="-0.25947">
        <ele>1542.1</ele>
        <time>2016-03-11T11:37:00Z</time>
      </trkpt>
      <trkpt lat="42.97168" lon="-0.25957">
        <ele>1543</ele>
        <time>2016-03-11T11:37:04Z</time>
      </trkpt>
      <trkpt lat="42.97169" lon="-0.25968">
        <ele>1542.7</ele>
        <time>2016-03-11T11:37:08Z</time>
      </trkpt>
      <trkpt lat="42.97171" lon="-0.25978">
        <ele>1542.5</ele>
        <time>2016-03-11T11:37:12Z</time>
      </trkpt>
      <trkpt lat="42.97173" lon="-0.25988">
        <ele>1542.3</ele>
        <time>2016-03-11T11:37:16Z</time>
      </trkpt>
      <trkpt lat="42.97175" lon="-0.25998">
        <ele>1542.3</ele>
        <time>2016-03-11T11:37:20Z</time>
      </trkpt>
      <trkpt lat="42.97177" lon="-0.26008">
        <ele>1542.3</ele>
        <time>2016-03-11T11:37:24Z</time>
      </trkpt>
      <trkpt lat="42.97179" lon="-0.26018">
        <ele>1542.3</ele>
        <time>2016-03-11T11:37:28Z</time>
      </trkpt>
      <trkpt lat="42.97181" lon="-0.26029">
        <ele>1542.1</ele>
        <time>2016-03-11T11:37:32Z</time>
      </trkpt>
      <trkpt lat="42.97182" lon="-0.2604">
        <ele>1542.2</ele>
        <time>2016-03-11T11:37:36Z</time>
      </trkpt>
      <trkpt lat="42.97183" lon="-0.26051">
        <ele>1542.6</ele>
        <time>2016-03-11T11:37:40Z</time>
      </trkpt>
      <trkpt lat="42.97183" lon="-0.26061">
        <ele>1542.5</ele>
        <time>2016-03-11T11:37:44Z</time>
      </trkpt>
      <trkpt lat="42.97183" lon="-0.26063">
        <ele>1542.4</ele>
        <time>2016-03-11T11:37:45Z</time>
      </trkpt>
      <trkpt lat="42.97183" lon="-0.26083">
        <ele>1542.2</ele>
        <time>2016-03-11T11:37:52Z</time>
      </trkpt>
      <trkpt lat="42.97183" lon="-0.26093">
        <ele>1542.7</ele>
        <time>2016-03-11T11:37:56Z</time>
      </trkpt>
      <trkpt lat="42.97182" lon="-0.26103">
        <ele>1542.8</ele>
        <time>2016-03-11T11:38:00Z</time>
      </trkpt>
      <trkpt lat="42.97181" lon="-0.26115">
        <ele>1542.4</ele>
        <time>2016-03-11T11:38:05Z</time>
      </trkpt>
      <trkpt lat="42.97179" lon="-0.26125">
        <ele>1543</ele>
        <time>2016-03-11T11:38:09Z</time>
      </trkpt>
      <trkpt lat="42.97176" lon="-0.26134">
        <ele>1542.9</ele>
        <time>2016-03-11T11:38:13Z</time>
      </trkpt>
      <trkpt lat="42.97173" lon="-0.26145">
        <ele>1543.5</ele>
        <time>2016-03-11T11:38:18Z</time>
      </trkpt>
      <trkpt lat="42.97169" lon="-0.26156">
        <ele>1544.5</ele>
        <time>2016-03-11T11:38:23Z</time>
      </trkpt>
      <trkpt lat="42.97166" lon="-0.26166">
        <ele>1544.3</ele>
        <time>2016-03-11T11:38:28Z</time>
      </trkpt>
      <trkpt lat="42.97162" lon="-0.26176">
        <ele>1545</ele>
        <time>2016-03-11T11:38:33Z</time>
      </trkpt>
      <trkpt lat="42.97157" lon="-0.26184">
        <ele>1545</ele>
        <time>2016-03-11T11:38:38Z</time>
      </trkpt>
      <trkpt lat="42.9715" lon="-0.26191">
        <ele>1545.5</ele>
        <time>2016-03-11T11:38:43Z</time>
      </trkpt>
      <trkpt lat="42.97145" lon="-0.26199">
        <ele>1546</ele>
        <time>2016-03-11T11:38:48Z</time>
      </trkpt>
      <trkpt lat="42.97144" lon="-0.262">
        <ele>1546.2</ele>
        <time>2016-03-11T11:38:49Z</time>
      </trkpt>
      <trkpt lat="42.97132" lon="-0.26214">
        <ele>1548.9</ele>
        <time>2016-03-11T11:39:00Z</time>
      </trkpt>
      <trkpt lat="42.97126" lon="-0.26222">
        <ele>1549.4</ele>
        <time>2016-03-11T11:39:06Z</time>
      </trkpt>
      <trkpt lat="42.97119" lon="-0.26228">
        <ele>1550.3</ele>
        <time>2016-03-11T11:39:12Z</time>
      </trkpt>
      <trkpt lat="42.97112" lon="-0.26235">
        <ele>1552.1</ele>
        <time>2016-03-11T11:39:19Z</time>
      </trkpt>
      <trkpt lat="42.97104" lon="-0.2624">
        <ele>1552.6</ele>
        <time>2016-03-11T11:39:26Z</time>
      </trkpt>
      <trkpt lat="42.97096" lon="-0.26241">
        <ele>1553.3</ele>
        <time>2016-03-11T11:39:31Z</time>
      </trkpt>
      <trkpt lat="42.97088" lon="-0.26241">
        <ele>1553.9</ele>
        <time>2016-03-11T11:39:37Z</time>
      </trkpt>
      <trkpt lat="42.9708" lon="-0.26239">
        <ele>1554.4</ele>
        <time>2016-03-11T11:39:42Z</time>
      </trkpt>
      <trkpt lat="42.97073" lon="-0.26237">
        <ele>1554.1</ele>
        <time>2016-03-11T11:39:46Z</time>
      </trkpt>
      <trkpt lat="42.97065" lon="-0.26234">
        <ele>1554</ele>
        <time>2016-03-11T11:39:52Z</time>
      </trkpt>
      <trkpt lat="42.97063" lon="-0.26233">
        <ele>1554.3</ele>
        <time>2016-03-11T11:39:53Z</time>
      </trkpt>
      <trkpt lat="42.97048" lon="-0.26227">
        <ele>1556.2</ele>
        <time>2016-03-11T11:40:04Z</time>
      </trkpt>
      <trkpt lat="42.9704" lon="-0.26223">
        <ele>1556.7</ele>
        <time>2016-03-11T11:40:10Z</time>
      </trkpt>
      <trkpt lat="42.97033" lon="-0.26219">
        <ele>1557.5</ele>
        <time>2016-03-11T11:40:16Z</time>
      </trkpt>
      <trkpt lat="42.97025" lon="-0.26215">
        <ele>1557.7</ele>
        <time>2016-03-11T11:40:21Z</time>
      </trkpt>
      <trkpt lat="42.97017" lon="-0.26212">
        <ele>1557.8</ele>
        <time>2016-03-11T11:40:27Z</time>
      </trkpt>
      <trkpt lat="42.97009" lon="-0.26212">
        <ele>1558.9</ele>
        <time>2016-03-11T11:40:32Z</time>
      </trkpt>
      <trkpt lat="42.97001" lon="-0.26212">
        <ele>1559.3</ele>
        <time>2016-03-11T11:40:38Z</time>
      </trkpt>
      <trkpt lat="42.96993" lon="-0.26215">
        <ele>1560.4</ele>
        <time>2016-03-11T11:40:44Z</time>
      </trkpt>
      <trkpt lat="42.96986" lon="-0.26219">
        <ele>1561.3</ele>
        <time>2016-03-11T11:40:50Z</time>
      </trkpt>
      <trkpt lat="42.96978" lon="-0.26223">
        <ele>1562.3</ele>
        <time>2016-03-11T11:40:56Z</time>
      </trkpt>
      <trkpt lat="42.96977" lon="-0.26223">
        <ele>1562.6</ele>
        <time>2016-03-11T11:40:57Z</time>
      </trkpt>
      <trkpt lat="42.96962" lon="-0.26223">
        <ele>1564.4</ele>
        <time>2016-03-11T11:41:10Z</time>
      </trkpt>
      <trkpt lat="42.96956" lon="-0.26216">
        <ele>1565.1</ele>
        <time>2016-03-11T11:41:16Z</time>
      </trkpt>
      <trkpt lat="42.9695" lon="-0.26208">
        <ele>1565.6</ele>
        <time>2016-03-11T11:41:22Z</time>
      </trkpt>
      <trkpt lat="42.96944" lon="-0.262">
        <ele>1566.5</ele>
        <time>2016-03-11T11:41:28Z</time>
      </trkpt>
      <trkpt lat="42.96939" lon="-0.26191">
        <ele>1567</ele>
        <time>2016-03-11T11:41:34Z</time>
      </trkpt>
      <trkpt lat="42.96933" lon="-0.26182">
        <ele>1567.8</ele>
        <time>2016-03-11T11:41:40Z</time>
      </trkpt>
      <trkpt lat="42.96927" lon="-0.26174">
        <ele>1567.2</ele>
        <time>2016-03-11T11:41:45Z</time>
      </trkpt>
      <trkpt lat="42.9692" lon="-0.26169">
        <ele>1567.9</ele>
        <time>2016-03-11T11:41:50Z</time>
      </trkpt>
      <trkpt lat="42.96913" lon="-0.26164">
        <ele>1568.1</ele>
        <time>2016-03-11T11:41:55Z</time>
      </trkpt>
      <trkpt lat="42.96906" lon="-0.26158">
        <ele>1568.4</ele>
        <time>2016-03-11T11:42:00Z</time>
      </trkpt>
      <trkpt lat="42.96904" lon="-0.26157">
        <ele>1568.7</ele>
        <time>2016-03-11T11:42:01Z</time>
      </trkpt>
      <trkpt lat="42.96891" lon="-0.26148">
        <ele>1569.5</ele>
        <time>2016-03-11T11:42:10Z</time>
      </trkpt>
      <trkpt lat="42.96883" lon="-0.26144">
        <ele>1570.7</ele>
        <time>2016-03-11T11:42:15Z</time>
      </trkpt>
      <trkpt lat="42.96875" lon="-0.26139">
        <ele>1571.2</ele>
        <time>2016-03-11T11:42:21Z</time>
      </trkpt>
      <trkpt lat="42.96868" lon="-0.26135">
        <ele>1571.8</ele>
        <time>2016-03-11T11:42:26Z</time>
      </trkpt>
      <trkpt lat="42.9686" lon="-0.26131">
        <ele>1572.7</ele>
        <time>2016-03-11T11:42:31Z</time>
      </trkpt>
      <trkpt lat="42.96852" lon="-0.26128">
        <ele>1572.9</ele>
        <time>2016-03-11T11:42:37Z</time>
      </trkpt>
      <trkpt lat="42.96844" lon="-0.26124">
        <ele>1574</ele>
        <time>2016-03-11T11:42:43Z</time>
      </trkpt>
      <trkpt lat="42.96837" lon="-0.2612">
        <ele>1574.6</ele>
        <time>2016-03-11T11:42:49Z</time>
      </trkpt>
      <trkpt lat="42.96829" lon="-0.26116">
        <ele>1575.7</ele>
        <time>2016-03-11T11:42:55Z</time>
      </trkpt>
      <trkpt lat="42.96822" lon="-0.26111">
        <ele>1576.6</ele>
        <time>2016-03-11T11:43:02Z</time>
      </trkpt>
      <trkpt lat="42.9682" lon="-0.2611">
        <ele>1576.8</ele>
        <time>2016-03-11T11:43:03Z</time>
      </trkpt>
      <trkpt lat="42.96806" lon="-0.26099">
        <ele>1577.8</ele>
        <time>2016-03-11T11:43:16Z</time>
      </trkpt>
      <trkpt lat="42.96799" lon="-0.26094">
        <ele>1578.6</ele>
        <time>2016-03-11T11:43:22Z</time>
      </trkpt>
      <trkpt lat="42.96791" lon="-0.2609">
        <ele>1579</ele>
        <time>2016-03-11T11:43:28Z</time>
      </trkpt>
      <trkpt lat="42.96784" lon="-0.26086">
        <ele>1580.1</ele>
        <time>2016-03-11T11:43:33Z</time>
      </trkpt>
      <trkpt lat="42.96776" lon="-0.26081">
        <ele>1580.4</ele>
        <time>2016-03-11T11:43:39Z</time>
      </trkpt>
      <trkpt lat="42.96769" lon="-0.26076">
        <ele>1581.2</ele>
        <time>2016-03-11T11:43:44Z</time>
      </trkpt>
      <trkpt lat="42.96763" lon="-0.26068">
        <ele>1581.8</ele>
        <time>2016-03-11T11:43:50Z</time>
      </trkpt>
      <trkpt lat="42.96759" lon="-0.26058">
        <ele>1582.1</ele>
        <time>2016-03-11T11:43:55Z</time>
      </trkpt>
      <trkpt lat="42.9676" lon="-0.26047">
        <ele>1582.2</ele>
        <time>2016-03-11T11:44:01Z</time>
      </trkpt>
      <trkpt lat="42.96766" lon="-0.26039">
        <ele>1582.2</ele>
        <time>2016-03-11T11:44:05Z</time>
      </trkpt>
      <trkpt lat="42.96768" lon="-0.26038">
        <ele>1582.5</ele>
        <time>2016-03-11T11:44:06Z</time>
      </trkpt>
      <trkpt lat="42.96782" lon="-0.26044">
        <ele>1583.7</ele>
        <time>2016-03-11T11:44:17Z</time>
      </trkpt>
      <trkpt lat="42.9679" lon="-0.26048">
        <ele>1583.5</ele>
        <time>2016-03-11T11:44:22Z</time>
      </trkpt>
      <trkpt lat="42.96798" lon="-0.26052">
        <ele>1582.9</ele>
        <time>2016-03-11T11:44:27Z</time>
      </trkpt>
      <trkpt lat="42.96806" lon="-0.26056">
        <ele>1582.5</ele>
        <time>2016-03-11T11:44:32Z</time>
      </trkpt>
      <trkpt lat="42.96814" lon="-0.26058">
        <ele>1582.5</ele>
        <time>2016-03-11T11:44:36Z</time>
      </trkpt>
      <trkpt lat="42.96821" lon="-0.26061">
        <ele>1582.6</ele>
        <time>2016-03-11T11:44:40Z</time>
      </trkpt>
      <trkpt lat="42.9683" lon="-0.26064">
        <ele>1583</ele>
        <time>2016-03-11T11:44:46Z</time>
      </trkpt>
      <trkpt lat="42.96838" lon="-0.26066">
        <ele>1583.5</ele>
        <time>2016-03-11T11:44:50Z</time>
      </trkpt>
      <trkpt lat="42.96846" lon="-0.26068">
        <ele>1583.2</ele>
        <time>2016-03-11T11:44:55Z</time>
      </trkpt>
      <trkpt lat="42.96855" lon="-0.26069">
        <ele>1583.5</ele>
        <time>2016-03-11T11:45:00Z</time>
      </trkpt>
      <trkpt lat="42.96863" lon="-0.2607">
        <ele>1583.5</ele>
        <time>2016-03-11T11:45:05Z</time>
      </trkpt>
      <trkpt lat="42.96871" lon="-0.2607">
        <ele>1584.1</ele>
        <time>2016-03-11T11:45:11Z</time>
      </trkpt>
      <trkpt lat="42.96873" lon="-0.26071">
        <ele>1584.3</ele>
        <time>2016-03-11T11:45:12Z</time>
      </trkpt>
      <trkpt lat="42.96888" lon="-0.26071">
        <ele>1585.5</ele>
        <time>2016-03-11T11:45:22Z</time>
      </trkpt>
      <trkpt lat="42.96896" lon="-0.26069">
        <ele>1585.9</ele>
        <time>2016-03-11T11:45:28Z</time>
      </trkpt>
      <trkpt lat="42.96904" lon="-0.26067">
        <ele>1586.9</ele>
        <time>2016-03-11T11:45:34Z</time>
      </trkpt>
      <trkpt lat="42.96912" lon="-0.26065">
        <ele>1588.1</ele>
        <time>2016-03-11T11:45:40Z</time>
      </trkpt>
      <trkpt lat="42.96921" lon="-0.26062">
        <ele>1589.5</ele>
        <time>2016-03-11T11:45:46Z</time>
      </trkpt>
      <trkpt lat="42.96929" lon="-0.26059">
        <ele>1591</ele>
        <time>2016-03-11T11:45:52Z</time>
      </trkpt>
      <trkpt lat="42.96937" lon="-0.26055">
        <ele>1592.2</ele>
        <time>2016-03-11T11:45:58Z</time>
      </trkpt>
      <trkpt lat="42.96945" lon="-0.26049">
        <ele>1593.2</ele>
        <time>2016-03-11T11:46:04Z</time>
      </trkpt>
      <trkpt lat="42.96951" lon="-0.26043">
        <ele>1593.3</ele>
        <time>2016-03-11T11:46:09Z</time>
      </trkpt>
      <trkpt lat="42.9696" lon="-0.26038">
        <ele>1593.6</ele>
        <time>2016-03-11T11:46:14Z</time>
      </trkpt>
      <trkpt lat="42.96961" lon="-0.26038">
        <ele>1593.6</ele>
        <time>2016-03-11T11:46:15Z</time>
      </trkpt>
      <trkpt lat="42.96977" lon="-0.26038">
        <ele>1595.1</ele>
        <time>2016-03-11T11:46:28Z</time>
      </trkpt>
      <trkpt lat="42.96985" lon="-0.26039">
        <ele>1597.4</ele>
        <time>2016-03-11T11:46:35Z</time>
      </trkpt>
      <trkpt lat="42.96993" lon="-0.26042">
        <ele>1598.7</ele>
        <time>2016-03-11T11:46:42Z</time>
      </trkpt>
      <trkpt lat="42.97001" lon="-0.26043">
        <ele>1598.6</ele>
        <time>2016-03-11T11:46:47Z</time>
      </trkpt>
      <trkpt lat="42.97009" lon="-0.26044">
        <ele>1599.5</ele>
        <time>2016-03-11T11:46:52Z</time>
      </trkpt>
      <trkpt lat="42.97016" lon="-0.26042">
        <ele>1600.3</ele>
        <time>2016-03-11T11:46:57Z</time>
      </trkpt>
      <trkpt lat="42.97023" lon="-0.26037">
        <ele>1599.7</ele>
        <time>2016-03-11T11:47:03Z</time>
      </trkpt>
      <trkpt lat="42.97027" lon="-0.26026">
        <ele>1600</ele>
        <time>2016-03-11T11:47:09Z</time>
      </trkpt>
      <trkpt lat="42.97027" lon="-0.26015">
        <ele>1601.3</ele>
        <time>2016-03-11T11:47:14Z</time>
      </trkpt>
      <trkpt lat="42.97025" lon="-0.26005">
        <ele>1600.8</ele>
        <time>2016-03-11T11:47:19Z</time>
      </trkpt>
      <trkpt lat="42.97025" lon="-0.26003">
        <ele>1600.7</ele>
        <time>2016-03-11T11:47:20Z</time>
      </trkpt>
      <trkpt lat="42.9702" lon="-0.25985">
        <ele>1601</ele>
        <time>2016-03-11T11:47:30Z</time>
      </trkpt>
      <trkpt lat="42.97019" lon="-0.25974">
        <ele>1601.6</ele>
        <time>2016-03-11T11:47:34Z</time>
      </trkpt>
      <trkpt lat="42.97017" lon="-0.25964">
        <ele>1601.8</ele>
        <time>2016-03-11T11:47:38Z</time>
      </trkpt>
      <trkpt lat="42.97014" lon="-0.25955">
        <ele>1601.5</ele>
        <time>2016-03-11T11:47:42Z</time>
      </trkpt>
      <trkpt lat="42.97009" lon="-0.25945">
        <ele>1601.6</ele>
        <time>2016-03-11T11:47:47Z</time>
      </trkpt>
      <trkpt lat="42.97004" lon="-0.25937">
        <ele>1602.2</ele>
        <time>2016-03-11T11:47:52Z</time>
      </trkpt>
      <trkpt lat="42.96998" lon="-0.25929">
        <ele>1602.9</ele>
        <time>2016-03-11T11:47:57Z</time>
      </trkpt>
      <trkpt lat="42.96993" lon="-0.25922">
        <ele>1603.1</ele>
        <time>2016-03-11T11:48:02Z</time>
      </trkpt>
      <trkpt lat="42.96987" lon="-0.25915">
        <ele>1604.2</ele>
        <time>2016-03-11T11:48:07Z</time>
      </trkpt>
      <trkpt lat="42.96981" lon="-0.25906">
        <ele>1604.1</ele>
        <time>2016-03-11T11:48:12Z</time>
      </trkpt>
      <trkpt lat="42.96975" lon="-0.25899">
        <ele>1604.6</ele>
        <time>2016-03-11T11:48:16Z</time>
      </trkpt>
      <trkpt lat="42.96971" lon="-0.25893">
        <ele>1604.3</ele>
        <time>2016-03-11T11:48:19Z</time>
      </trkpt>
      <trkpt lat="42.96965" lon="-0.25884">
        <ele>1604.1</ele>
        <time>2016-03-11T11:48:22Z</time>
      </trkpt>
      <trkpt lat="42.96963" lon="-0.2588">
        <ele>1604</ele>
        <time>2016-03-11T11:48:23Z</time>
      </trkpt>
      <trkpt lat="42.96957" lon="-0.25868">
        <ele>1603</ele>
        <time>2016-03-11T11:48:26Z</time>
      </trkpt>
      <trkpt lat="42.96953" lon="-0.25859">
        <ele>1602.7</ele>
        <time>2016-03-11T11:48:28Z</time>
      </trkpt>
      <trkpt lat="42.9695" lon="-0.25848">
        <ele>1602</ele>
        <time>2016-03-11T11:48:31Z</time>
      </trkpt>
      <trkpt lat="42.96946" lon="-0.25837">
        <ele>1600.7</ele>
        <time>2016-03-11T11:48:36Z</time>
      </trkpt>
      <trkpt lat="42.96945" lon="-0.25825">
        <ele>1600.5</ele>
        <time>2016-03-11T11:48:40Z</time>
      </trkpt>
      <trkpt lat="42.96944" lon="-0.25816">
        <ele>1600.4</ele>
        <time>2016-03-11T11:48:43Z</time>
      </trkpt>
      <trkpt lat="42.96943" lon="-0.25806">
        <ele>1600.2</ele>
        <time>2016-03-11T11:48:46Z</time>
      </trkpt>
      <trkpt lat="42.96943" lon="-0.25796">
        <ele>1599.8</ele>
        <time>2016-03-11T11:48:49Z</time>
      </trkpt>
      <trkpt lat="42.96943" lon="-0.25786">
        <ele>1599.4</ele>
        <time>2016-03-11T11:48:52Z</time>
      </trkpt>
      <trkpt lat="42.96943" lon="-0.25776">
        <ele>1599</ele>
        <time>2016-03-11T11:48:55Z</time>
      </trkpt>
      <trkpt lat="42.96942" lon="-0.25765">
        <ele>1598.1</ele>
        <time>2016-03-11T11:48:58Z</time>
      </trkpt>
      <trkpt lat="42.96942" lon="-0.25755">
        <ele>1598.5</ele>
        <time>2016-03-11T11:49:01Z</time>
      </trkpt>
      <trkpt lat="42.96943" lon="-0.25743">
        <ele>1597.9</ele>
        <time>2016-03-11T11:49:05Z</time>
      </trkpt>
      <trkpt lat="42.96944" lon="-0.25731">
        <ele>1597.2</ele>
        <time>2016-03-11T11:49:09Z</time>
      </trkpt>
      <trkpt lat="42.96944" lon="-0.25722">
        <ele>1597.6</ele>
        <time>2016-03-11T11:49:12Z</time>
      </trkpt>
      <trkpt lat="42.96945" lon="-0.25711">
        <ele>1597.6</ele>
        <time>2016-03-11T11:49:15Z</time>
      </trkpt>
      <trkpt lat="42.96946" lon="-0.257">
        <ele>1597</ele>
        <time>2016-03-11T11:49:18Z</time>
      </trkpt>
      <trkpt lat="42.96947" lon="-0.25692">
        <ele>1597</ele>
        <time>2016-03-11T11:49:20Z</time>
      </trkpt>
      <trkpt lat="42.96948" lon="-0.25682">
        <ele>1596.7</ele>
        <time>2016-03-11T11:49:22Z</time>
      </trkpt>
      <trkpt lat="42.96949" lon="-0.25673">
        <ele>1596.5</ele>
        <time>2016-03-11T11:49:24Z</time>
      </trkpt>
      <trkpt lat="42.96949" lon="-0.25669">
        <ele>1595.9</ele>
        <time>2016-03-11T11:49:25Z</time>
      </trkpt>
      <trkpt lat="42.96951" lon="-0.25652">
        <ele>1595</ele>
        <time>2016-03-11T11:49:29Z</time>
      </trkpt>
      <trkpt lat="42.96952" lon="-0.2564">
        <ele>1594.4</ele>
        <time>2016-03-11T11:49:32Z</time>
      </trkpt>
      <trkpt lat="42.96954" lon="-0.25628">
        <ele>1593.5</ele>
        <time>2016-03-11T11:49:35Z</time>
      </trkpt>
      <trkpt lat="42.96955" lon="-0.2562">
        <ele>1593</ele>
        <time>2016-03-11T11:49:37Z</time>
      </trkpt>
      <trkpt lat="42.96957" lon="-0.25611">
        <ele>1592.7</ele>
        <time>2016-03-11T11:49:39Z</time>
      </trkpt>
      <trkpt lat="42.96958" lon="-0.25601">
        <ele>1592.3</ele>
        <time>2016-03-11T11:49:41Z</time>
      </trkpt>
      <trkpt lat="42.9696" lon="-0.25592">
        <ele>1591.8</ele>
        <time>2016-03-11T11:49:43Z</time>
      </trkpt>
      <trkpt lat="42.96961" lon="-0.25582">
        <ele>1591.2</ele>
        <time>2016-03-11T11:49:45Z</time>
      </trkpt>
      <trkpt lat="42.96963" lon="-0.25573">
        <ele>1590.3</ele>
        <time>2016-03-11T11:49:47Z</time>
      </trkpt>
      <trkpt lat="42.96965" lon="-0.25564">
        <ele>1589.5</ele>
        <time>2016-03-11T11:49:49Z</time>
      </trkpt>
      <trkpt lat="42.96966" lon="-0.25554">
        <ele>1588.7</ele>
        <time>2016-03-11T11:49:51Z</time>
      </trkpt>
      <trkpt lat="42.96968" lon="-0.25545">
        <ele>1588.2</ele>
        <time>2016-03-11T11:49:53Z</time>
      </trkpt>
      <trkpt lat="42.9697" lon="-0.25533">
        <ele>1587</ele>
        <time>2016-03-11T11:49:56Z</time>
      </trkpt>
      <trkpt lat="42.96972" lon="-0.25523">
        <ele>1586.2</ele>
        <time>2016-03-11T11:49:59Z</time>
      </trkpt>
      <trkpt lat="42.96974" lon="-0.25513">
        <ele>1584.9</ele>
        <time>2016-03-11T11:50:02Z</time>
      </trkpt>
      <trkpt lat="42.96976" lon="-0.25501">
        <ele>1584.4</ele>
        <time>2016-03-11T11:50:06Z</time>
      </trkpt>
      <trkpt lat="42.96978" lon="-0.2549">
        <ele>1584.8</ele>
        <time>2016-03-11T11:50:10Z</time>
      </trkpt>
      <trkpt lat="42.96982" lon="-0.25479">
        <ele>1584.4</ele>
        <time>2016-03-11T11:50:14Z</time>
      </trkpt>
      <trkpt lat="42.96985" lon="-0.25469">
        <ele>1583.9</ele>
        <time>2016-03-11T11:50:18Z</time>
      </trkpt>
      <trkpt lat="42.96989" lon="-0.2546">
        <ele>1584.5</ele>
        <time>2016-03-11T11:50:22Z</time>
      </trkpt>
      <trkpt lat="42.96994" lon="-0.25452">
        <ele>1584.3</ele>
        <time>2016-03-11T11:50:26Z</time>
      </trkpt>
      <trkpt lat="42.96996" lon="-0.2545">
        <ele>1584.2</ele>
        <time>2016-03-11T11:50:27Z</time>
      </trkpt>
      <trkpt lat="42.97006" lon="-0.25437">
        <ele>1583.5</ele>
        <time>2016-03-11T11:50:32Z</time>
      </trkpt>
      <trkpt lat="42.97012" lon="-0.2543">
        <ele>1583</ele>
        <time>2016-03-11T11:50:36Z</time>
      </trkpt>
      <trkpt lat="42.97017" lon="-0.25423">
        <ele>1582.8</ele>
        <time>2016-03-11T11:50:40Z</time>
      </trkpt>
      <trkpt lat="42.97022" lon="-0.25416">
        <ele>1583</ele>
        <time>2016-03-11T11:50:44Z</time>
      </trkpt>
      <trkpt lat="42.97027" lon="-0.25409">
        <ele>1583.2</ele>
        <time>2016-03-11T11:50:48Z</time>
      </trkpt>
      <trkpt lat="42.97033" lon="-0.25401">
        <ele>1583.4</ele>
        <time>2016-03-11T11:50:52Z</time>
      </trkpt>
      <trkpt lat="42.97038" lon="-0.25393">
        <ele>1583.5</ele>
        <time>2016-03-11T11:50:56Z</time>
      </trkpt>
      <trkpt lat="42.97043" lon="-0.25385">
        <ele>1583.7</ele>
        <time>2016-03-11T11:51:00Z</time>
      </trkpt>
      <trkpt lat="42.97049" lon="-0.25376">
        <ele>1584.1</ele>
        <time>2016-03-11T11:51:05Z</time>
      </trkpt>
      <trkpt lat="42.97054" lon="-0.25367">
        <ele>1584.2</ele>
        <time>2016-03-11T11:51:08Z</time>
      </trkpt>
      <trkpt lat="42.97058" lon="-0.2536">
        <ele>1583.9</ele>
        <time>2016-03-11T11:51:11Z</time>
      </trkpt>
      <trkpt lat="42.97063" lon="-0.25352">
        <ele>1583.1</ele>
        <time>2016-03-11T11:51:14Z</time>
      </trkpt>
      <trkpt lat="42.97067" lon="-0.25343">
        <ele>1582.7</ele>
        <time>2016-03-11T11:51:17Z</time>
      </trkpt>
      <trkpt lat="42.9707" lon="-0.25334">
        <ele>1582.3</ele>
        <time>2016-03-11T11:51:20Z</time>
      </trkpt>
      <trkpt lat="42.97073" lon="-0.25323">
        <ele>1582</ele>
        <time>2016-03-11T11:51:24Z</time>
      </trkpt>
      <trkpt lat="42.97076" lon="-0.25312">
        <ele>1582.1</ele>
        <time>2016-03-11T11:51:28Z</time>
      </trkpt>
      <trkpt lat="42.97077" lon="-0.25309">
        <ele>1581.8</ele>
        <time>2016-03-11T11:51:29Z</time>
      </trkpt>
      <trkpt lat="42.97079" lon="-0.2529">
        <ele>1580.8</ele>
        <time>2016-03-11T11:51:36Z</time>
      </trkpt>
      <trkpt lat="42.97079" lon="-0.25279">
        <ele>1580.9</ele>
        <time>2016-03-11T11:51:40Z</time>
      </trkpt>
      <trkpt lat="42.97079" lon="-0.25267">
        <ele>1581</ele>
        <time>2016-03-11T11:51:43Z</time>
      </trkpt>
      <trkpt lat="42.97079" lon="-0.25255">
        <ele>1581</ele>
        <time>2016-03-11T11:51:46Z</time>
      </trkpt>
      <trkpt lat="42.97079" lon="-0.25245">
        <ele>1580.2</ele>
        <time>2016-03-11T11:51:49Z</time>
      </trkpt>
      <trkpt lat="42.97079" lon="-0.25234">
        <ele>1579.8</ele>
        <time>2016-03-11T11:51:52Z</time>
      </trkpt>
      <trkpt lat="42.97078" lon="-0.25222">
        <ele>1579.6</ele>
        <time>2016-03-11T11:51:55Z</time>
      </trkpt>
      <trkpt lat="42.97078" lon="-0.25213">
        <ele>1579.3</ele>
        <time>2016-03-11T11:51:57Z</time>
      </trkpt>
      <trkpt lat="42.97078" lon="-0.25203">
        <ele>1578.2</ele>
        <time>2016-03-11T11:51:59Z</time>
      </trkpt>
      <trkpt lat="42.97078" lon="-0.25193">
        <ele>1577.5</ele>
        <time>2016-03-11T11:52:01Z</time>
      </trkpt>
      <trkpt lat="42.97079" lon="-0.25184">
        <ele>1577.1</ele>
        <time>2016-03-11T11:52:03Z</time>
      </trkpt>
      <trkpt lat="42.9708" lon="-0.25172">
        <ele>1576.4</ele>
        <time>2016-03-11T11:52:06Z</time>
      </trkpt>
      <trkpt lat="42.97081" lon="-0.25163">
        <ele>1575.6</ele>
        <time>2016-03-11T11:52:08Z</time>
      </trkpt>
      <trkpt lat="42.97081" lon="-0.25154">
        <ele>1574.7</ele>
        <time>2016-03-11T11:52:10Z</time>
      </trkpt>
      <trkpt lat="42.97082" lon="-0.25146">
        <ele>1574.4</ele>
        <time>2016-03-11T11:52:12Z</time>
      </trkpt>
      <trkpt lat="42.97083" lon="-0.25134">
        <ele>1573.7</ele>
        <time>2016-03-11T11:52:15Z</time>
      </trkpt>
      <trkpt lat="42.97084" lon="-0.25122">
        <ele>1572.5</ele>
        <time>2016-03-11T11:52:18Z</time>
      </trkpt>
      <trkpt lat="42.97085" lon="-0.25111">
        <ele>1571.8</ele>
        <time>2016-03-11T11:52:21Z</time>
      </trkpt>
      <trkpt lat="42.97085" lon="-0.251">
        <ele>1571.4</ele>
        <time>2016-03-11T11:52:24Z</time>
      </trkpt>
      <trkpt lat="42.97086" lon="-0.2509">
        <ele>1571</ele>
        <time>2016-03-11T11:52:27Z</time>
      </trkpt>
      <trkpt lat="42.97086" lon="-0.25079">
        <ele>1570.5</ele>
        <time>2016-03-11T11:52:30Z</time>
      </trkpt>
      <trkpt lat="42.97086" lon="-0.25075">
        <ele>1570.2</ele>
        <time>2016-03-11T11:52:31Z</time>
      </trkpt>
      <trkpt lat="42.97087" lon="-0.25058">
        <ele>1569.3</ele>
        <time>2016-03-11T11:52:35Z</time>
      </trkpt>
      <trkpt lat="42.97087" lon="-0.2505">
        <ele>1568.8</ele>
        <time>2016-03-11T11:52:37Z</time>
      </trkpt>
      <trkpt lat="42.97087" lon="-0.25039">
        <ele>1567.9</ele>
        <time>2016-03-11T11:52:40Z</time>
      </trkpt>
      <trkpt lat="42.97088" lon="-0.25029">
        <ele>1567.4</ele>
        <time>2016-03-11T11:52:43Z</time>
      </trkpt>
      <trkpt lat="42.97089" lon="-0.25019">
        <ele>1567.1</ele>
        <time>2016-03-11T11:52:46Z</time>
      </trkpt>
      <trkpt lat="42.97091" lon="-0.25007">
        <ele>1566.7</ele>
        <time>2016-03-11T11:52:50Z</time>
      </trkpt>
      <trkpt lat="42.97094" lon="-0.24996">
        <ele>1566.3</ele>
        <time>2016-03-11T11:52:55Z</time>
      </trkpt>
      <trkpt lat="42.97097" lon="-0.24987">
        <ele>1566.1</ele>
        <time>2016-03-11T11:52:59Z</time>
      </trkpt>
      <trkpt lat="42.971" lon="-0.24979">
        <ele>1566</ele>
        <time>2016-03-11T11:53:02Z</time>
      </trkpt>
      <trkpt lat="42.97104" lon="-0.24968">
        <ele>1566</ele>
        <time>2016-03-11T11:53:05Z</time>
      </trkpt>
      <trkpt lat="42.97107" lon="-0.24957">
        <ele>1565.6</ele>
        <time>2016-03-11T11:53:08Z</time>
      </trkpt>
      <trkpt lat="42.9711" lon="-0.24947">
        <ele>1565</ele>
        <time>2016-03-11T11:53:11Z</time>
      </trkpt>
      <trkpt lat="42.97113" lon="-0.24935">
        <ele>1564.5</ele>
        <time>2016-03-11T11:53:14Z</time>
      </trkpt>
      <trkpt lat="42.97114" lon="-0.24927">
        <ele>1564.1</ele>
        <time>2016-03-11T11:53:16Z</time>
      </trkpt>
      <trkpt lat="42.97116" lon="-0.24919">
        <ele>1563.5</ele>
        <time>2016-03-11T11:53:18Z</time>
      </trkpt>
      <trkpt lat="42.97118" lon="-0.24911">
        <ele>1563</ele>
        <time>2016-03-11T11:53:20Z</time>
      </trkpt>
      <trkpt lat="42.97119" lon="-0.24902">
        <ele>1562.4</ele>
        <time>2016-03-11T11:53:22Z</time>
      </trkpt>
      <trkpt lat="42.97121" lon="-0.24894">
        <ele>1561.9</ele>
        <time>2016-03-11T11:53:24Z</time>
      </trkpt>
      <trkpt lat="42.97123" lon="-0.24885">
        <ele>1561.5</ele>
        <time>2016-03-11T11:53:26Z</time>
      </trkpt>
      <trkpt lat="42.97127" lon="-0.24874">
        <ele>1560.5</ele>
        <time>2016-03-11T11:53:28Z</time>
      </trkpt>
      <trkpt lat="42.97129" lon="-0.24869">
        <ele>1560.2</ele>
        <time>2016-03-11T11:53:29Z</time>
      </trkpt>
      <trkpt lat="42.97132" lon="-0.24864">
        <ele>1560</ele>
        <time>2016-03-11T11:53:30Z</time>
      </trkpt>
      <trkpt lat="42.97135" lon="-0.24859">
        <ele>1559.3</ele>
        <time>2016-03-11T11:53:31Z</time>
      </trkpt>
      <trkpt lat="42.97139" lon="-0.24854">
        <ele>1558.7</ele>
        <time>2016-03-11T11:53:32Z</time>
      </trkpt>
      <trkpt lat="42.97144" lon="-0.24846">
        <ele>1557.6</ele>
        <time>2016-03-11T11:53:34Z</time>
      </trkpt>
      <trkpt lat="42.97149" lon="-0.2484">
        <ele>1556.6</ele>
        <time>2016-03-11T11:53:36Z</time>
      </trkpt>
      <trkpt lat="42.97157" lon="-0.24835">
        <ele>1555.2</ele>
        <time>2016-03-11T11:53:39Z</time>
      </trkpt>
      <trkpt lat="42.97164" lon="-0.24832">
        <ele>1554.3</ele>
        <time>2016-03-11T11:53:43Z</time>
      </trkpt>
      <trkpt lat="42.97172" lon="-0.24829">
        <ele>1553.7</ele>
        <time>2016-03-11T11:53:48Z</time>
      </trkpt>
      <trkpt lat="42.97181" lon="-0.24826">
        <ele>1554.3</ele>
        <time>2016-03-11T11:53:54Z</time>
      </trkpt>
      <trkpt lat="42.97188" lon="-0.24823">
        <ele>1554.9</ele>
        <time>2016-03-11T11:53:59Z</time>
      </trkpt>
      <trkpt lat="42.97196" lon="-0.24819">
        <ele>1555.5</ele>
        <time>2016-03-11T11:54:04Z</time>
      </trkpt>
      <trkpt lat="42.97204" lon="-0.24814">
        <ele>1556.2</ele>
        <time>2016-03-11T11:54:08Z</time>
      </trkpt>
      <trkpt lat="42.97211" lon="-0.24809">
        <ele>1555.3</ele>
        <time>2016-03-11T11:54:11Z</time>
      </trkpt>
      <trkpt lat="42.97216" lon="-0.24804">
        <ele>1555.5</ele>
        <time>2016-03-11T11:54:13Z</time>
      </trkpt>
      <trkpt lat="42.97222" lon="-0.24797">
        <ele>1554.9</ele>
        <time>2016-03-11T11:54:16Z</time>
      </trkpt>
      <trkpt lat="42.97227" lon="-0.2479">
        <ele>1554.1</ele>
        <time>2016-03-11T11:54:19Z</time>
      </trkpt>
      <trkpt lat="42.97232" lon="-0.24782">
        <ele>1553.6</ele>
        <time>2016-03-11T11:54:22Z</time>
      </trkpt>
      <trkpt lat="42.97238" lon="-0.24773">
        <ele>1553.2</ele>
        <time>2016-03-11T11:54:25Z</time>
      </trkpt>
      <trkpt lat="42.97243" lon="-0.24763">
        <ele>1552.7</ele>
        <time>2016-03-11T11:54:28Z</time>
      </trkpt>
      <trkpt lat="42.97246" lon="-0.24756">
        <ele>1552.5</ele>
        <time>2016-03-11T11:54:30Z</time>
      </trkpt>
      <trkpt lat="42.9725" lon="-0.24748">
        <ele>1551.4</ele>
        <time>2016-03-11T11:54:32Z</time>
      </trkpt>
      <trkpt lat="42.97252" lon="-0.24743">
        <ele>1551.1</ele>
        <time>2016-03-11T11:54:33Z</time>
      </trkpt>
      <trkpt lat="42.97259" lon="-0.24727">
        <ele>1550</ele>
        <time>2016-03-11T11:54:36Z</time>
      </trkpt>
      <trkpt lat="42.97262" lon="-0.24718">
        <ele>1549.4</ele>
        <time>2016-03-11T11:54:38Z</time>
      </trkpt>
      <trkpt lat="42.97267" lon="-0.24708">
        <ele>1548.8</ele>
        <time>2016-03-11T11:54:40Z</time>
      </trkpt>
      <trkpt lat="42.97271" lon="-0.24699">
        <ele>1547.4</ele>
        <time>2016-03-11T11:54:42Z</time>
      </trkpt>
      <trkpt lat="42.97275" lon="-0.24691">
        <ele>1546.4</ele>
        <time>2016-03-11T11:54:44Z</time>
      </trkpt>
      <trkpt lat="42.9728" lon="-0.24683">
        <ele>1545.4</ele>
        <time>2016-03-11T11:54:47Z</time>
      </trkpt>
      <trkpt lat="42.97285" lon="-0.24674">
        <ele>1544.6</ele>
        <time>2016-03-11T11:54:51Z</time>
      </trkpt>
      <trkpt lat="42.97291" lon="-0.24667">
        <ele>1544.5</ele>
        <time>2016-03-11T11:54:55Z</time>
      </trkpt>
      <trkpt lat="42.97297" lon="-0.24659">
        <ele>1544.9</ele>
        <time>2016-03-11T11:55:00Z</time>
      </trkpt>
      <trkpt lat="42.97303" lon="-0.24651">
        <ele>1545.4</ele>
        <time>2016-03-11T11:55:05Z</time>
      </trkpt>
      <trkpt lat="42.97308" lon="-0.24644">
        <ele>1545.6</ele>
        <time>2016-03-11T11:55:09Z</time>
      </trkpt>
      <trkpt lat="42.97314" lon="-0.24634">
        <ele>1546</ele>
        <time>2016-03-11T11:55:14Z</time>
      </trkpt>
      <trkpt lat="42.9732" lon="-0.24626">
        <ele>1546.7</ele>
        <time>2016-03-11T11:55:19Z</time>
      </trkpt>
      <trkpt lat="42.97327" lon="-0.2462">
        <ele>1545.8</ele>
        <time>2016-03-11T11:55:23Z</time>
      </trkpt>
      <trkpt lat="42.97336" lon="-0.24619">
        <ele>1545.6</ele>
        <time>2016-03-11T11:55:28Z</time>
      </trkpt>
      <trkpt lat="42.97343" lon="-0.24619">
        <ele>1546</ele>
        <time>2016-03-11T11:55:32Z</time>
      </trkpt>
      <trkpt lat="42.97351" lon="-0.24617">
        <ele>1545.8</ele>
        <time>2016-03-11T11:55:36Z</time>
      </trkpt>
      <trkpt lat="42.97354" lon="-0.24616">
        <ele>1545.8</ele>
        <time>2016-03-11T11:55:37Z</time>
      </trkpt>
      <trkpt lat="42.97366" lon="-0.2461">
        <ele>1545</ele>
        <time>2016-03-11T11:55:41Z</time>
      </trkpt>
      <trkpt lat="42.97372" lon="-0.24602">
        <ele>1544.2</ele>
        <time>2016-03-11T11:55:43Z</time>
      </trkpt>
      <trkpt lat="42.97377" lon="-0.24592">
        <ele>1543.1</ele>
        <time>2016-03-11T11:55:45Z</time>
      </trkpt>
      <trkpt lat="42.97382" lon="-0.24582">
        <ele>1542</ele>
        <time>2016-03-11T11:55:47Z</time>
      </trkpt>
      <trkpt lat="42.97385" lon="-0.24577">
        <ele>1541.1</ele>
        <time>2016-03-11T11:55:48Z</time>
      </trkpt>
      <trkpt lat="42.97388" lon="-0.24573">
        <ele>1540.3</ele>
        <time>2016-03-11T11:55:49Z</time>
      </trkpt>
      <trkpt lat="42.97395" lon="-0.24565">
        <ele>1539</ele>
        <time>2016-03-11T11:55:51Z</time>
      </trkpt>
      <trkpt lat="42.97401" lon="-0.24559">
        <ele>1537.8</ele>
        <time>2016-03-11T11:55:53Z</time>
      </trkpt>
      <trkpt lat="42.97408" lon="-0.24553">
        <ele>1537</ele>
        <time>2016-03-11T11:55:56Z</time>
      </trkpt>
      <trkpt lat="42.97414" lon="-0.24545">
        <ele>1536.1</ele>
        <time>2016-03-11T11:56:00Z</time>
      </trkpt>
      <trkpt lat="42.97421" lon="-0.24537">
        <ele>1535.7</ele>
        <time>2016-03-11T11:56:04Z</time>
      </trkpt>
      <trkpt lat="42.97428" lon="-0.2453">
        <ele>1534.7</ele>
        <time>2016-03-11T11:56:08Z</time>
      </trkpt>
      <trkpt lat="42.97432" lon="-0.2452">
        <ele>1535.6</ele>
        <time>2016-03-11T11:56:14Z</time>
      </trkpt>
      <trkpt lat="42.97427" lon="-0.24512">
        <ele>1535.8</ele>
        <time>2016-03-11T11:56:20Z</time>
      </trkpt>
      <trkpt lat="42.97421" lon="-0.24505">
        <ele>1535.5</ele>
        <time>2016-03-11T11:56:25Z</time>
      </trkpt>
      <trkpt lat="42.97417" lon="-0.24496">
        <ele>1533.9</ele>
        <time>2016-03-11T11:56:29Z</time>
      </trkpt>
      <trkpt lat="42.97414" lon="-0.24488">
        <ele>1533.1</ele>
        <time>2016-03-11T11:56:33Z</time>
      </trkpt>
      <trkpt lat="42.97407" lon="-0.2448">
        <ele>1532.7</ele>
        <time>2016-03-11T11:56:36Z</time>
      </trkpt>
      <trkpt lat="42.97399" lon="-0.24478">
        <ele>1532</ele>
        <time>2016-03-11T11:56:39Z</time>
      </trkpt>
      <trkpt lat="42.97397" lon="-0.24477">
        <ele>1531.8</ele>
        <time>2016-03-11T11:56:40Z</time>
      </trkpt>
      <trkpt lat="42.97388" lon="-0.2447">
        <ele>1530</ele>
        <time>2016-03-11T11:56:43Z</time>
      </trkpt>
      <trkpt lat="42.97384" lon="-0.24463">
        <ele>1528.7</ele>
        <time>2016-03-11T11:56:45Z</time>
      </trkpt>
      <trkpt lat="42.97381" lon="-0.24452">
        <ele>1527.4</ele>
        <time>2016-03-11T11:56:48Z</time>
      </trkpt>
      <trkpt lat="42.97389" lon="-0.24458">
        <ele>1526.6</ele>
        <time>2016-03-11T11:57:05Z</time>
      </trkpt>
      <trkpt lat="42.97396" lon="-0.24464">
        <ele>1526.8</ele>
        <time>2016-03-11T11:57:10Z</time>
      </trkpt>
      <trkpt lat="42.97403" lon="-0.24465">
        <ele>1525.5</ele>
        <time>2016-03-11T11:57:15Z</time>
      </trkpt>
      <trkpt lat="42.97411" lon="-0.24463">
        <ele>1525.9</ele>
        <time>2016-03-11T11:57:20Z</time>
      </trkpt>
      <trkpt lat="42.97419" lon="-0.2446">
        <ele>1526</ele>
        <time>2016-03-11T11:57:25Z</time>
      </trkpt>
      <trkpt lat="42.97426" lon="-0.24455">
        <ele>1525.5</ele>
        <time>2016-03-11T11:57:29Z</time>
      </trkpt>
      <trkpt lat="42.97434" lon="-0.24451">
        <ele>1525.5</ele>
        <time>2016-03-11T11:57:33Z</time>
      </trkpt>
      <trkpt lat="42.9744" lon="-0.24448">
        <ele>1525.3</ele>
        <time>2016-03-11T11:57:37Z</time>
      </trkpt>
      <trkpt lat="42.97449" lon="-0.24447">
        <ele>1524.8</ele>
        <time>2016-03-11T11:57:41Z</time>
      </trkpt>
      <trkpt lat="42.97451" lon="-0.24446">
        <ele>1524.7</ele>
        <time>2016-03-11T11:57:42Z</time>
      </trkpt>
      <trkpt lat="42.97465" lon="-0.24444">
        <ele>1524.5</ele>
        <time>2016-03-11T11:57:49Z</time>
      </trkpt>
      <trkpt lat="42.97473" lon="-0.24443">
        <ele>1525</ele>
        <time>2016-03-11T11:57:53Z</time>
      </trkpt>
      <trkpt lat="42.9748" lon="-0.24442">
        <ele>1524.8</ele>
        <time>2016-03-11T11:57:57Z</time>
      </trkpt>
      <trkpt lat="42.97489" lon="-0.24441">
        <ele>1524.9</ele>
        <time>2016-03-11T11:58:01Z</time>
      </trkpt>
      <trkpt lat="42.97495" lon="-0.24439">
        <ele>1524.8</ele>
        <time>2016-03-11T11:58:04Z</time>
      </trkpt>
      <trkpt lat="42.97503" lon="-0.24434">
        <ele>1524.8</ele>
        <time>2016-03-11T11:58:08Z</time>
      </trkpt>
      <trkpt lat="42.9751" lon="-0.24428">
        <ele>1525.1</ele>
        <time>2016-03-11T11:58:13Z</time>
      </trkpt>
      <trkpt lat="42.97517" lon="-0.24421">
        <ele>1524.5</ele>
        <time>2016-03-11T11:58:18Z</time>
      </trkpt>
      <trkpt lat="42.97522" lon="-0.24414">
        <ele>1524.7</ele>
        <time>2016-03-11T11:58:22Z</time>
      </trkpt>
      <trkpt lat="42.97529" lon="-0.24407">
        <ele>1524.6</ele>
        <time>2016-03-11T11:58:26Z</time>
      </trkpt>
      <trkpt lat="42.97536" lon="-0.24402">
        <ele>1525.2</ele>
        <time>2016-03-11T11:58:30Z</time>
      </trkpt>
      <trkpt lat="42.97543" lon="-0.24398">
        <ele>1525</ele>
        <time>2016-03-11T11:58:33Z</time>
      </trkpt>
      <trkpt lat="42.97551" lon="-0.24394">
        <ele>1524.8</ele>
        <time>2016-03-11T11:58:37Z</time>
      </trkpt>
      <trkpt lat="42.97559" lon="-0.2439">
        <ele>1525</ele>
        <time>2016-03-11T11:58:41Z</time>
      </trkpt>
      <trkpt lat="42.97566" lon="-0.24385">
        <ele>1525.1</ele>
        <time>2016-03-11T11:58:45Z</time>
      </trkpt>
      <trkpt lat="42.97567" lon="-0.24383">
        <ele>1525.1</ele>
        <time>2016-03-11T11:58:46Z</time>
      </trkpt>
      <trkpt lat="42.97578" lon="-0.24371">
        <ele>1524.7</ele>
        <time>2016-03-11T11:58:53Z</time>
      </trkpt>
      <trkpt lat="42.97585" lon="-0.24365">
        <ele>1524.4</ele>
        <time>2016-03-11T11:58:57Z</time>
      </trkpt>
      <trkpt lat="42.97592" lon="-0.24359">
        <ele>1524.5</ele>
        <time>2016-03-11T11:59:01Z</time>
      </trkpt>
      <trkpt lat="42.97599" lon="-0.24353">
        <ele>1524.9</ele>
        <time>2016-03-11T11:59:05Z</time>
      </trkpt>
      <trkpt lat="42.97606" lon="-0.24348">
        <ele>1524.9</ele>
        <time>2016-03-11T11:59:09Z</time>
      </trkpt>
      <trkpt lat="42.97612" lon="-0.24343">
        <ele>1524.6</ele>
        <time>2016-03-11T11:59:12Z</time>
      </trkpt>
      <trkpt lat="42.9762" lon="-0.24338">
        <ele>1524.1</ele>
        <time>2016-03-11T11:59:16Z</time>
      </trkpt>
      <trkpt lat="42.97626" lon="-0.24333">
        <ele>1523.8</ele>
        <time>2016-03-11T11:59:19Z</time>
      </trkpt>
      <trkpt lat="42.97633" lon="-0.24327">
        <ele>1524.4</ele>
        <time>2016-03-11T11:59:24Z</time>
      </trkpt>
      <trkpt lat="42.9764" lon="-0.24321">
        <ele>1524.6</ele>
        <time>2016-03-11T11:59:29Z</time>
      </trkpt>
      <trkpt lat="42.97646" lon="-0.24314">
        <ele>1524.6</ele>
        <time>2016-03-11T11:59:33Z</time>
      </trkpt>
      <trkpt lat="42.97653" lon="-0.2431">
        <ele>1525</ele>
        <time>2016-03-11T11:59:38Z</time>
      </trkpt>
      <trkpt lat="42.9766" lon="-0.24306">
        <ele>1525.7</ele>
        <time>2016-03-11T11:59:43Z</time>
      </trkpt>
      <trkpt lat="42.97668" lon="-0.24301">
        <ele>1526.4</ele>
        <time>2016-03-11T11:59:48Z</time>
      </trkpt>
      <trkpt lat="42.97669" lon="-0.243">
        <ele>1526.4</ele>
        <time>2016-03-11T11:59:49Z</time>
      </trkpt>
      <trkpt lat="42.97679" lon="-0.24286">
        <ele>1526</ele>
        <time>2016-03-11T11:59:57Z</time>
      </trkpt>
      <trkpt lat="42.97683" lon="-0.24278">
        <ele>1526.8</ele>
        <time>2016-03-11T12:00:01Z</time>
      </trkpt>
      <trkpt lat="42.97689" lon="-0.24273">
        <ele>1527.4</ele>
        <time>2016-03-11T12:00:05Z</time>
      </trkpt>
      <trkpt lat="42.97698" lon="-0.24271">
        <ele>1525.9</ele>
        <time>2016-03-11T12:00:09Z</time>
      </trkpt>
      <trkpt lat="42.97706" lon="-0.2427">
        <ele>1526</ele>
        <time>2016-03-11T12:00:13Z</time>
      </trkpt>
      <trkpt lat="42.97714" lon="-0.24269">
        <ele>1526.1</ele>
        <time>2016-03-11T12:00:17Z</time>
      </trkpt>
      <trkpt lat="42.97721" lon="-0.24267">
        <ele>1525.4</ele>
        <time>2016-03-11T12:00:21Z</time>
      </trkpt>
      <trkpt lat="42.97729" lon="-0.24263">
        <ele>1525.1</ele>
        <time>2016-03-11T12:00:26Z</time>
      </trkpt>
      <trkpt lat="42.97737" lon="-0.2426">
        <ele>1525.4</ele>
        <time>2016-03-11T12:00:31Z</time>
      </trkpt>
      <trkpt lat="42.97746" lon="-0.24259">
        <ele>1526</ele>
        <time>2016-03-11T12:00:36Z</time>
      </trkpt>
      <trkpt lat="42.97753" lon="-0.24262">
        <ele>1526.2</ele>
        <time>2016-03-11T12:00:40Z</time>
      </trkpt>
      <trkpt lat="42.97761" lon="-0.24267">
        <ele>1525.8</ele>
        <time>2016-03-11T12:00:44Z</time>
      </trkpt>
      <trkpt lat="42.97769" lon="-0.24269">
        <ele>1526.4</ele>
        <time>2016-03-11T12:00:49Z</time>
      </trkpt>
      <trkpt lat="42.9777" lon="-0.24269">
        <ele>1526.4</ele>
        <time>2016-03-11T12:00:50Z</time>
      </trkpt>
      <trkpt lat="42.97784" lon="-0.24265">
        <ele>1527.3</ele>
        <time>2016-03-11T12:00:59Z</time>
      </trkpt>
      <trkpt lat="42.97792" lon="-0.24259">
        <ele>1527</ele>
        <time>2016-03-11T12:01:04Z</time>
      </trkpt>
      <trkpt lat="42.97798" lon="-0.24252">
        <ele>1527</ele>
        <time>2016-03-11T12:01:09Z</time>
      </trkpt>
      <trkpt lat="42.97804" lon="-0.24244">
        <ele>1527</ele>
        <time>2016-03-11T12:01:13Z</time>
      </trkpt>
      <trkpt lat="42.9781" lon="-0.24235">
        <ele>1526.9</ele>
        <time>2016-03-11T12:01:18Z</time>
      </trkpt>
      <trkpt lat="42.97813" lon="-0.24225">
        <ele>1527</ele>
        <time>2016-03-11T12:01:23Z</time>
      </trkpt>
      <trkpt lat="42.97816" lon="-0.24214">
        <ele>1527.3</ele>
        <time>2016-03-11T12:01:28Z</time>
      </trkpt>
      <trkpt lat="42.97818" lon="-0.24205">
        <ele>1528</ele>
        <time>2016-03-11T12:01:32Z</time>
      </trkpt>
      <trkpt lat="42.9782" lon="-0.24196">
        <ele>1528.5</ele>
        <time>2016-03-11T12:01:36Z</time>
      </trkpt>
      <trkpt lat="42.97826" lon="-0.24187">
        <ele>1528.4</ele>
        <time>2016-03-11T12:01:41Z</time>
      </trkpt>
      <trkpt lat="42.97833" lon="-0.24182">
        <ele>1528.8</ele>
        <time>2016-03-11T12:01:47Z</time>
      </trkpt>
      <trkpt lat="42.97842" lon="-0.24179">
        <ele>1529.6</ele>
        <time>2016-03-11T12:01:52Z</time>
      </trkpt>
      <trkpt lat="42.97843" lon="-0.24178">
        <ele>1529.8</ele>
        <time>2016-03-11T12:01:53Z</time>
      </trkpt>
      <trkpt lat="42.97857" lon="-0.24171">
        <ele>1530.7</ele>
        <time>2016-03-11T12:02:03Z</time>
      </trkpt>
      <trkpt lat="42.97865" lon="-0.24167">
        <ele>1531.1</ele>
        <time>2016-03-11T12:02:08Z</time>
      </trkpt>
      <trkpt lat="42.97873" lon="-0.24164">
        <ele>1531.6</ele>
        <time>2016-03-11T12:02:13Z</time>
      </trkpt>
      <trkpt lat="42.97881" lon="-0.24164">
        <ele>1532.5</ele>
        <time>2016-03-11T12:02:18Z</time>
      </trkpt>
      <trkpt lat="42.97889" lon="-0.24165">
        <ele>1533.7</ele>
        <time>2016-03-11T12:02:23Z</time>
      </trkpt>
      <trkpt lat="42.97897" lon="-0.24167">
        <ele>1533.2</ele>
        <time>2016-03-11T12:02:27Z</time>
      </trkpt>
      <trkpt lat="42.97905" lon="-0.24168">
        <ele>1532.7</ele>
        <time>2016-03-11T12:02:31Z</time>
      </trkpt>
      <trkpt lat="42.97914" lon="-0.24168">
        <ele>1532.9</ele>
        <time>2016-03-11T12:02:36Z</time>
      </trkpt>
      <trkpt lat="42.97922" lon="-0.24165">
        <ele>1532.9</ele>
        <time>2016-03-11T12:02:41Z</time>
      </trkpt>
      <trkpt lat="42.97929" lon="-0.2416">
        <ele>1532.9</ele>
        <time>2016-03-11T12:02:46Z</time>
      </trkpt>
      <trkpt lat="42.97937" lon="-0.24155">
        <ele>1533.7</ele>
        <time>2016-03-11T12:02:51Z</time>
      </trkpt>
      <trkpt lat="42.97943" lon="-0.2415">
        <ele>1533.9</ele>
        <time>2016-03-11T12:02:55Z</time>
      </trkpt>
      <trkpt lat="42.97945" lon="-0.24149">
        <ele>1534.1</ele>
        <time>2016-03-11T12:02:56Z</time>
      </trkpt>
      <trkpt lat="42.9796" lon="-0.24148">
        <ele>1534.4</ele>
        <time>2016-03-11T12:03:05Z</time>
      </trkpt>
      <trkpt lat="42.97969" lon="-0.24149">
        <ele>1534.9</ele>
        <time>2016-03-11T12:03:10Z</time>
      </trkpt>
      <trkpt lat="42.97976" lon="-0.24149">
        <ele>1534.9</ele>
        <time>2016-03-11T12:03:15Z</time>
      </trkpt>
      <trkpt lat="42.97985" lon="-0.2415">
        <ele>1535</ele>
        <time>2016-03-11T12:03:21Z</time>
      </trkpt>
      <trkpt lat="42.97994" lon="-0.24149">
        <ele>1535.3</ele>
        <time>2016-03-11T12:03:26Z</time>
      </trkpt>
      <trkpt lat="42.98002" lon="-0.24148">
        <ele>1535.7</ele>
        <time>2016-03-11T12:03:31Z</time>
      </trkpt>
      <trkpt lat="42.98009" lon="-0.24146">
        <ele>1536.1</ele>
        <time>2016-03-11T12:03:35Z</time>
      </trkpt>
      <trkpt lat="42.98017" lon="-0.24144">
        <ele>1536.4</ele>
        <time>2016-03-11T12:03:40Z</time>
      </trkpt>
      <trkpt lat="42.98024" lon="-0.24141">
        <ele>1536.6</ele>
        <time>2016-03-11T12:03:44Z</time>
      </trkpt>
      <trkpt lat="42.98031" lon="-0.24135">
        <ele>1537.2</ele>
        <time>2016-03-11T12:03:49Z</time>
      </trkpt>
      <trkpt lat="42.98036" lon="-0.24127">
        <ele>1537.5</ele>
        <time>2016-03-11T12:03:54Z</time>
      </trkpt>
      <trkpt lat="42.98042" lon="-0.24118">
        <ele>1537.6</ele>
        <time>2016-03-11T12:03:59Z</time>
      </trkpt>
      <trkpt lat="42.98043" lon="-0.24116">
        <ele>1537.5</ele>
        <time>2016-03-11T12:04:00Z</time>
      </trkpt>
      <trkpt lat="42.98055" lon="-0.24106">
        <ele>1536.6</ele>
        <time>2016-03-11T12:04:07Z</time>
      </trkpt>
      <trkpt lat="42.98063" lon="-0.24103">
        <ele>1536.6</ele>
        <time>2016-03-11T12:04:11Z</time>
      </trkpt>
      <trkpt lat="42.98071" lon="-0.24101">
        <ele>1537.1</ele>
        <time>2016-03-11T12:04:16Z</time>
      </trkpt>
      <trkpt lat="42.98079" lon="-0.24099">
        <ele>1537.6</ele>
        <time>2016-03-11T12:04:20Z</time>
      </trkpt>
      <trkpt lat="42.98088" lon="-0.24097">
        <ele>1536.8</ele>
        <time>2016-03-11T12:04:25Z</time>
      </trkpt>
      <trkpt lat="42.98094" lon="-0.24092">
        <ele>1537.3</ele>
        <time>2016-03-11T12:04:30Z</time>
      </trkpt>
      <trkpt lat="42.98099" lon="-0.24083">
        <ele>1537.3</ele>
        <time>2016-03-11T12:04:35Z</time>
      </trkpt>
      <trkpt lat="42.98103" lon="-0.24074">
        <ele>1537.3</ele>
        <time>2016-03-11T12:04:39Z</time>
      </trkpt>
      <trkpt lat="42.98107" lon="-0.24066">
        <ele>1537.2</ele>
        <time>2016-03-11T12:04:44Z</time>
      </trkpt>
      <trkpt lat="42.98112" lon="-0.24056">
        <ele>1538.5</ele>
        <time>2016-03-11T12:04:49Z</time>
      </trkpt>
      <trkpt lat="42.98116" lon="-0.24047">
        <ele>1538.8</ele>
        <time>2016-03-11T12:04:53Z</time>
      </trkpt>
      <trkpt lat="42.98121" lon="-0.24037">
        <ele>1539.2</ele>
        <time>2016-03-11T12:04:58Z</time>
      </trkpt>
      <trkpt lat="42.98127" lon="-0.24029">
        <ele>1539.3</ele>
        <time>2016-03-11T12:05:02Z</time>
      </trkpt>
      <trkpt lat="42.98128" lon="-0.24027">
        <ele>1539.1</ele>
        <time>2016-03-11T12:05:03Z</time>
      </trkpt>
      <trkpt lat="42.98138" lon="-0.24013">
        <ele>1538.8</ele>
        <time>2016-03-11T12:05:12Z</time>
      </trkpt>
      <trkpt lat="42.98145" lon="-0.24006">
        <ele>1539.7</ele>
        <time>2016-03-11T12:05:17Z</time>
      </trkpt>
      <trkpt lat="42.98152" lon="-0.24002">
        <ele>1539.9</ele>
        <time>2016-03-11T12:05:22Z</time>
      </trkpt>
      <trkpt lat="42.98161" lon="-0.24005">
        <ele>1539.5</ele>
        <time>2016-03-11T12:05:28Z</time>
      </trkpt>
      <trkpt lat="42.98166" lon="-0.24015">
        <ele>1540.6</ele>
        <time>2016-03-11T12:05:34Z</time>
      </trkpt>
      <trkpt lat="42.98169" lon="-0.24024">
        <ele>1540.6</ele>
        <time>2016-03-11T12:05:38Z</time>
      </trkpt>
      <trkpt lat="42.98176" lon="-0.24031">
        <ele>1540.3</ele>
        <time>2016-03-11T12:05:43Z</time>
      </trkpt>
      <trkpt lat="42.98184" lon="-0.24033">
        <ele>1540.2</ele>
        <time>2016-03-11T12:05:48Z</time>
      </trkpt>
      <trkpt lat="42.98193" lon="-0.2403">
        <ele>1540.1</ele>
        <time>2016-03-11T12:05:53Z</time>
      </trkpt>
      <trkpt lat="42.982" lon="-0.24025">
        <ele>1540.9</ele>
        <time>2016-03-11T12:05:58Z</time>
      </trkpt>
      <trkpt lat="42.98206" lon="-0.24016">
        <ele>1541.6</ele>
        <time>2016-03-11T12:06:03Z</time>
      </trkpt>
      <trkpt lat="42.98207" lon="-0.24015">
        <ele>1541.4</ele>
        <time>2016-03-11T12:06:04Z</time>
      </trkpt>
      <trkpt lat="42.9822" lon="-0.24005">
        <ele>1541.4</ele>
        <time>2016-03-11T12:06:12Z</time>
      </trkpt>
      <trkpt lat="42.98228" lon="-0.24003">
        <ele>1541.2</ele>
        <time>2016-03-11T12:06:17Z</time>
      </trkpt>
      <trkpt lat="42.98237" lon="-0.24002">
        <ele>1541.9</ele>
        <time>2016-03-11T12:06:22Z</time>
      </trkpt>
      <trkpt lat="42.98244" lon="-0.24003">
        <ele>1542.3</ele>
        <time>2016-03-11T12:06:26Z</time>
      </trkpt>
      <trkpt lat="42.98252" lon="-0.24005">
        <ele>1542</ele>
        <time>2016-03-11T12:06:30Z</time>
      </trkpt>
      <trkpt lat="42.98258" lon="-0.24012">
        <ele>1542.9</ele>
        <time>2016-03-11T12:06:36Z</time>
      </trkpt>
      <trkpt lat="42.9826" lon="-0.24023">
        <ele>1542.9</ele>
        <time>2016-03-11T12:06:43Z</time>
      </trkpt>
      <trkpt lat="42.98262" lon="-0.24033">
        <ele>1544.8</ele>
        <time>2016-03-11T12:06:49Z</time>
      </trkpt>
      <trkpt lat="42.98264" lon="-0.24044">
        <ele>1545.3</ele>
        <time>2016-03-11T12:06:55Z</time>
      </trkpt>
      <trkpt lat="42.98265" lon="-0.24056">
        <ele>1546.4</ele>
        <time>2016-03-11T12:07:02Z</time>
      </trkpt>
      <trkpt lat="42.98268" lon="-0.24066">
        <ele>1546.3</ele>
        <time>2016-03-11T12:07:07Z</time>
      </trkpt>
      <trkpt lat="42.98268" lon="-0.24068">
        <ele>1546.4</ele>
        <time>2016-03-11T12:07:08Z</time>
      </trkpt>
      <trkpt lat="42.98273" lon="-0.24087">
        <ele>1547</ele>
        <time>2016-03-11T12:07:17Z</time>
      </trkpt>
      <trkpt lat="42.98275" lon="-0.24099">
        <ele>1548.7</ele>
        <time>2016-03-11T12:07:25Z</time>
      </trkpt>
      <trkpt lat="42.98266" lon="-0.24101">
        <ele>1547.8</ele>
        <time>2016-03-11T12:09:36Z</time>
      </trkpt>
      <trkpt lat="42.98266" lon="-0.24101">
        <ele>1547.8</ele>
        <time>2016-03-11T12:09:37Z</time>
      </trkpt>
      <trkpt lat="42.98276" lon="-0.24102">
        <ele>1548.1</ele>
        <time>2016-03-11T12:11:15Z</time>
      </trkpt>
      <trkpt lat="42.98279" lon="-0.24113">
        <ele>1547.8</ele>
        <time>2016-03-11T12:14:00Z</time>
      </trkpt>
      <trkpt lat="42.98277" lon="-0.24131">
        <ele>1548.1</ele>
        <time>2016-03-11T12:14:05Z</time>
      </trkpt>
      <trkpt lat="42.98274" lon="-0.24139">
        <ele>1547.4</ele>
        <time>2016-03-11T12:14:07Z</time>
      </trkpt>
      <trkpt lat="42.98271" lon="-0.24147">
        <ele>1546.6</ele>
        <time>2016-03-11T12:14:09Z</time>
      </trkpt>
      <trkpt lat="42.98268" lon="-0.24153">
        <ele>1545.9</ele>
        <time>2016-03-11T12:14:11Z</time>
      </trkpt>
      <trkpt lat="42.98264" lon="-0.24162">
        <ele>1545.4</ele>
        <time>2016-03-11T12:14:13Z</time>
      </trkpt>
      <trkpt lat="42.9826" lon="-0.24171">
        <ele>1544.5</ele>
        <time>2016-03-11T12:14:15Z</time>
      </trkpt>
      <trkpt lat="42.98256" lon="-0.24179">
        <ele>1543.6</ele>
        <time>2016-03-11T12:14:17Z</time>
      </trkpt>
      <trkpt lat="42.98253" lon="-0.24187">
        <ele>1542.5</ele>
        <time>2016-03-11T12:14:19Z</time>
      </trkpt>
      <trkpt lat="42.98248" lon="-0.24197">
        <ele>1541.2</ele>
        <time>2016-03-11T12:14:22Z</time>
      </trkpt>
      <trkpt lat="42.98244" lon="-0.24207">
        <ele>1540.4</ele>
        <time>2016-03-11T12:14:25Z</time>
      </trkpt>
      <trkpt lat="42.98241" lon="-0.24217">
        <ele>1540.1</ele>
        <time>2016-03-11T12:14:28Z</time>
      </trkpt>
      <trkpt lat="42.98238" lon="-0.24227">
        <ele>1539.4</ele>
        <time>2016-03-11T12:14:31Z</time>
      </trkpt>
      <trkpt lat="42.98236" lon="-0.24236">
        <ele>1538.8</ele>
        <time>2016-03-11T12:14:34Z</time>
      </trkpt>
      <trkpt lat="42.98234" lon="-0.24248">
        <ele>1537.9</ele>
        <time>2016-03-11T12:14:38Z</time>
      </trkpt>
      <trkpt lat="42.98232" lon="-0.24258">
        <ele>1537.2</ele>
        <time>2016-03-11T12:14:41Z</time>
      </trkpt>
      <trkpt lat="42.98229" lon="-0.24268">
        <ele>1536.8</ele>
        <time>2016-03-11T12:14:44Z</time>
      </trkpt>
      <trkpt lat="42.98225" lon="-0.24277">
        <ele>1536.5</ele>
        <time>2016-03-11T12:14:47Z</time>
      </trkpt>
      <trkpt lat="42.98219" lon="-0.24287">
        <ele>1536.3</ele>
        <time>2016-03-11T12:14:51Z</time>
      </trkpt>
      <trkpt lat="42.98215" lon="-0.24294">
        <ele>1536.1</ele>
        <time>2016-03-11T12:14:54Z</time>
      </trkpt>
      <trkpt lat="42.98209" lon="-0.24303">
        <ele>1535.7</ele>
        <time>2016-03-11T12:14:58Z</time>
      </trkpt>
      <trkpt lat="42.98203" lon="-0.24309">
        <ele>1535</ele>
        <time>2016-03-11T12:15:02Z</time>
      </trkpt>
      <trkpt lat="42.98201" lon="-0.24312">
        <ele>1535.1</ele>
        <time>2016-03-11T12:15:03Z</time>
      </trkpt>
      <trkpt lat="42.9819" lon="-0.24322">
        <ele>1535.1</ele>
        <time>2016-03-11T12:15:09Z</time>
      </trkpt>
      <trkpt lat="42.98185" lon="-0.24326">
        <ele>1534.1</ele>
        <time>2016-03-11T12:15:11Z</time>
      </trkpt>
      <trkpt lat="42.9818" lon="-0.24331">
        <ele>1533.4</ele>
        <time>2016-03-11T12:15:13Z</time>
      </trkpt>
      <trkpt lat="42.98175" lon="-0.24337">
        <ele>1532.8</ele>
        <time>2016-03-11T12:15:15Z</time>
      </trkpt>
      <trkpt lat="42.98169" lon="-0.24343">
        <ele>1532.2</ele>
        <time>2016-03-11T12:15:17Z</time>
      </trkpt>
      <trkpt lat="42.98164" lon="-0.2435">
        <ele>1531.3</ele>
        <time>2016-03-11T12:15:19Z</time>
      </trkpt>
      <trkpt lat="42.98159" lon="-0.24357">
        <ele>1530.3</ele>
        <time>2016-03-11T12:15:21Z</time>
      </trkpt>
      <trkpt lat="42.98155" lon="-0.24363">
        <ele>1529.5</ele>
        <time>2016-03-11T12:15:23Z</time>
      </trkpt>
      <trkpt lat="42.9815" lon="-0.24373">
        <ele>1528.8</ele>
        <time>2016-03-11T12:15:26Z</time>
      </trkpt>
      <trkpt lat="42.98148" lon="-0.24381">
        <ele>1528.2</ele>
        <time>2016-03-11T12:15:29Z</time>
      </trkpt>
      <trkpt lat="42.98146" lon="-0.24393">
        <ele>1527.8</ele>
        <time>2016-03-11T12:15:33Z</time>
      </trkpt>
      <trkpt lat="42.98145" lon="-0.24404">
        <ele>1527.2</ele>
        <time>2016-03-11T12:15:37Z</time>
      </trkpt>
      <trkpt lat="42.98142" lon="-0.24413">
        <ele>1527.4</ele>
        <time>2016-03-11T12:15:40Z</time>
      </trkpt>
      <trkpt lat="42.98138" lon="-0.2442">
        <ele>1526.6</ele>
        <time>2016-03-11T12:15:43Z</time>
      </trkpt>
      <trkpt lat="42.98131" lon="-0.24427">
        <ele>1526.1</ele>
        <time>2016-03-11T12:15:46Z</time>
      </trkpt>
      <trkpt lat="42.98124" lon="-0.24431">
        <ele>1525.9</ele>
        <time>2016-03-11T12:15:49Z</time>
      </trkpt>
      <trkpt lat="42.98118" lon="-0.24434">
        <ele>1525.7</ele>
        <time>2016-03-11T12:15:52Z</time>
      </trkpt>
      <trkpt lat="42.9811" lon="-0.24438">
        <ele>1524.9</ele>
        <time>2016-03-11T12:15:55Z</time>
      </trkpt>
      <trkpt lat="42.98102" lon="-0.24443">
        <ele>1524</ele>
        <time>2016-03-11T12:15:58Z</time>
      </trkpt>
      <trkpt lat="42.98094" lon="-0.24448">
        <ele>1522.9</ele>
        <time>2016-03-11T12:16:01Z</time>
      </trkpt>
      <trkpt lat="42.98088" lon="-0.24453">
        <ele>1521.8</ele>
        <time>2016-03-11T12:16:04Z</time>
      </trkpt>
      <trkpt lat="42.98086" lon="-0.24455">
        <ele>1521.8</ele>
        <time>2016-03-11T12:16:05Z</time>
      </trkpt>
      <trkpt lat="42.98074" lon="-0.24463">
        <ele>1521</ele>
        <time>2016-03-11T12:16:10Z</time>
      </trkpt>
      <trkpt lat="42.9807" lon="-0.24469">
        <ele>1520.9</ele>
        <time>2016-03-11T12:16:12Z</time>
      </trkpt>
      <trkpt lat="42.98067" lon="-0.24477">
        <ele>1519.9</ele>
        <time>2016-03-11T12:16:14Z</time>
      </trkpt>
      <trkpt lat="42.98065" lon="-0.24486">
        <ele>1519.3</ele>
        <time>2016-03-11T12:16:16Z</time>
      </trkpt>
      <trkpt lat="42.98065" lon="-0.24495">
        <ele>1518.9</ele>
        <time>2016-03-11T12:16:18Z</time>
      </trkpt>
      <trkpt lat="42.98067" lon="-0.24506">
        <ele>1518.6</ele>
        <time>2016-03-11T12:16:22Z</time>
      </trkpt>
      <trkpt lat="42.98069" lon="-0.24517">
        <ele>1517.9</ele>
        <time>2016-03-11T12:16:26Z</time>
      </trkpt>
      <trkpt lat="42.9807" lon="-0.24525">
        <ele>1518</ele>
        <time>2016-03-11T12:16:28Z</time>
      </trkpt>
      <trkpt lat="42.98071" lon="-0.24534">
        <ele>1518</ele>
        <time>2016-03-11T12:16:30Z</time>
      </trkpt>
      <trkpt lat="42.9807" lon="-0.24542">
        <ele>1518</ele>
        <time>2016-03-11T12:16:32Z</time>
      </trkpt>
      <trkpt lat="42.98068" lon="-0.24551">
        <ele>1517.1</ele>
        <time>2016-03-11T12:16:34Z</time>
      </trkpt>
      <trkpt lat="42.98064" lon="-0.24562">
        <ele>1516.2</ele>
        <time>2016-03-11T12:16:37Z</time>
      </trkpt>
      <trkpt lat="42.98061" lon="-0.24569">
        <ele>1515.7</ele>
        <time>2016-03-11T12:16:39Z</time>
      </trkpt>
      <trkpt lat="42.98057" lon="-0.2458">
        <ele>1514.9</ele>
        <time>2016-03-11T12:16:42Z</time>
      </trkpt>
      <trkpt lat="42.98055" lon="-0.2459">
        <ele>1513.7</ele>
        <time>2016-03-11T12:16:45Z</time>
      </trkpt>
      <trkpt lat="42.98053" lon="-0.246">
        <ele>1512.8</ele>
        <time>2016-03-11T12:16:48Z</time>
      </trkpt>
      <trkpt lat="42.98052" lon="-0.24611">
        <ele>1512.8</ele>
        <time>2016-03-11T12:16:51Z</time>
      </trkpt>
      <trkpt lat="42.98052" lon="-0.2462">
        <ele>1512.3</ele>
        <time>2016-03-11T12:16:53Z</time>
      </trkpt>
      <trkpt lat="42.98052" lon="-0.24629">
        <ele>1511.9</ele>
        <time>2016-03-11T12:16:55Z</time>
      </trkpt>
      <trkpt lat="42.98054" lon="-0.2464">
        <ele>1511.5</ele>
        <time>2016-03-11T12:16:57Z</time>
      </trkpt>
      <trkpt lat="42.98055" lon="-0.24651">
        <ele>1511.1</ele>
        <time>2016-03-11T12:16:59Z</time>
      </trkpt>
      <trkpt lat="42.98057" lon="-0.24661">
        <ele>1510.1</ele>
        <time>2016-03-11T12:17:01Z</time>
      </trkpt>
      <trkpt lat="42.98058" lon="-0.24672">
        <ele>1508.9</ele>
        <time>2016-03-11T12:17:03Z</time>
      </trkpt>
      <trkpt lat="42.98059" lon="-0.24682">
        <ele>1508.1</ele>
        <time>2016-03-11T12:17:05Z</time>
      </trkpt>
      <trkpt lat="42.98059" lon="-0.24686">
        <ele>1507.8</ele>
        <time>2016-03-11T12:17:06Z</time>
      </trkpt>
      <trkpt lat="42.98063" lon="-0.247">
        <ele>1507.3</ele>
        <time>2016-03-11T12:17:10Z</time>
      </trkpt>
      <trkpt lat="42.98069" lon="-0.24693">
        <ele>1504.9</ele>
        <time>2016-03-11T12:17:15Z</time>
      </trkpt>
      <trkpt lat="42.9807" lon="-0.24682">
        <ele>1504.3</ele>
        <time>2016-03-11T12:17:18Z</time>
      </trkpt>
      <trkpt lat="42.98069" lon="-0.24671">
        <ele>1503.5</ele>
        <time>2016-03-11T12:17:21Z</time>
      </trkpt>
      <trkpt lat="42.98068" lon="-0.2466">
        <ele>1502.6</ele>
        <time>2016-03-11T12:17:24Z</time>
      </trkpt>
      <trkpt lat="42.98069" lon="-0.24649">
        <ele>1501.4</ele>
        <time>2016-03-11T12:17:27Z</time>
      </trkpt>
      <trkpt lat="42.98069" lon="-0.24639">
        <ele>1500.6</ele>
        <time>2016-03-11T12:17:30Z</time>
      </trkpt>
      <trkpt lat="42.98071" lon="-0.24627">
        <ele>1499.9</ele>
        <time>2016-03-11T12:17:35Z</time>
      </trkpt>
      <trkpt lat="42.98074" lon="-0.24617">
        <ele>1499.1</ele>
        <time>2016-03-11T12:17:39Z</time>
      </trkpt>
      <trkpt lat="42.98077" lon="-0.24609">
        <ele>1497.9</ele>
        <time>2016-03-11T12:17:42Z</time>
      </trkpt>
      <trkpt lat="42.98082" lon="-0.24599">
        <ele>1497.7</ele>
        <time>2016-03-11T12:17:45Z</time>
      </trkpt>
      <trkpt lat="42.98087" lon="-0.24591">
        <ele>1497.1</ele>
        <time>2016-03-11T12:17:48Z</time>
      </trkpt>
      <trkpt lat="42.98092" lon="-0.24585">
        <ele>1496.6</ele>
        <time>2016-03-11T12:17:51Z</time>
      </trkpt>
      <trkpt lat="42.98097" lon="-0.24577">
        <ele>1496.3</ele>
        <time>2016-03-11T12:17:54Z</time>
      </trkpt>
      <trkpt lat="42.98101" lon="-0.24569">
        <ele>1495.2</ele>
        <time>2016-03-11T12:17:57Z</time>
      </trkpt>
      <trkpt lat="42.98107" lon="-0.2456">
        <ele>1494.7</ele>
        <time>2016-03-11T12:18:00Z</time>
      </trkpt>
      <trkpt lat="42.98113" lon="-0.24551">
        <ele>1494.4</ele>
        <time>2016-03-11T12:18:03Z</time>
      </trkpt>
      <trkpt lat="42.98117" lon="-0.24545">
        <ele>1494.2</ele>
        <time>2016-03-11T12:18:05Z</time>
      </trkpt>
      <trkpt lat="42.98121" lon="-0.24538">
        <ele>1494.1</ele>
        <time>2016-03-11T12:18:07Z</time>
      </trkpt>
      <trkpt lat="42.98124" lon="-0.24534">
        <ele>1493.7</ele>
        <time>2016-03-11T12:18:08Z</time>
      </trkpt>
      <trkpt lat="42.98131" lon="-0.24525">
        <ele>1493</ele>
        <time>2016-03-11T12:18:11Z</time>
      </trkpt>
      <trkpt lat="42.98138" lon="-0.24518">
        <ele>1492.4</ele>
        <time>2016-03-11T12:18:14Z</time>
      </trkpt>
      <trkpt lat="42.98146" lon="-0.24513">
        <ele>1490.8</ele>
        <time>2016-03-11T12:18:17Z</time>
      </trkpt>
      <trkpt lat="42.98152" lon="-0.24509">
        <ele>1489.7</ele>
        <time>2016-03-11T12:18:20Z</time>
      </trkpt>
      <trkpt lat="42.98159" lon="-0.24505">
        <ele>1489.2</ele>
        <time>2016-03-11T12:18:23Z</time>
      </trkpt>
      <trkpt lat="42.98167" lon="-0.24501">
        <ele>1488.4</ele>
        <time>2016-03-11T12:18:26Z</time>
      </trkpt>
      <trkpt lat="42.98175" lon="-0.24496">
        <ele>1488.2</ele>
        <time>2016-03-11T12:18:29Z</time>
      </trkpt>
      <trkpt lat="42.98183" lon="-0.24492">
        <ele>1487.7</ele>
        <time>2016-03-11T12:18:32Z</time>
      </trkpt>
      <trkpt lat="42.98191" lon="-0.24489">
        <ele>1486.8</ele>
        <time>2016-03-11T12:18:35Z</time>
      </trkpt>
      <trkpt lat="42.98198" lon="-0.24487">
        <ele>1486.7</ele>
        <time>2016-03-11T12:18:38Z</time>
      </trkpt>
      <trkpt lat="42.98206" lon="-0.24483">
        <ele>1486.7</ele>
        <time>2016-03-11T12:18:42Z</time>
      </trkpt>
      <trkpt lat="42.98213" lon="-0.2448">
        <ele>1486.5</ele>
        <time>2016-03-11T12:18:45Z</time>
      </trkpt>
      <trkpt lat="42.98221" lon="-0.24479">
        <ele>1485.7</ele>
        <time>2016-03-11T12:18:48Z</time>
      </trkpt>
      <trkpt lat="42.9823" lon="-0.2448">
        <ele>1485.1</ele>
        <time>2016-03-11T12:18:52Z</time>
      </trkpt>
      <trkpt lat="42.98237" lon="-0.24482">
        <ele>1484.2</ele>
        <time>2016-03-11T12:18:56Z</time>
      </trkpt>
      <trkpt lat="42.98246" lon="-0.24479">
        <ele>1484</ele>
        <time>2016-03-11T12:19:00Z</time>
      </trkpt>
      <trkpt lat="42.98253" lon="-0.24473">
        <ele>1483.7</ele>
        <time>2016-03-11T12:19:03Z</time>
      </trkpt>
      <trkpt lat="42.98258" lon="-0.24467">
        <ele>1483.4</ele>
        <time>2016-03-11T12:19:06Z</time>
      </trkpt>
      <trkpt lat="42.98264" lon="-0.2446">
        <ele>1483.1</ele>
        <time>2016-03-11T12:19:10Z</time>
      </trkpt>
      <trkpt lat="42.98265" lon="-0.24458">
        <ele>1482.9</ele>
        <time>2016-03-11T12:19:11Z</time>
      </trkpt>
      <trkpt lat="42.98273" lon="-0.24443">
        <ele>1482.9</ele>
        <time>2016-03-11T12:19:18Z</time>
      </trkpt>
      <trkpt lat="42.98277" lon="-0.24434">
        <ele>1483</ele>
        <time>2016-03-11T12:19:21Z</time>
      </trkpt>
      <trkpt lat="42.98281" lon="-0.24427">
        <ele>1481.8</ele>
        <time>2016-03-11T12:19:23Z</time>
      </trkpt>
      <trkpt lat="42.98287" lon="-0.24423">
        <ele>1481.1</ele>
        <time>2016-03-11T12:19:25Z</time>
      </trkpt>
      <trkpt lat="42.98295" lon="-0.24427">
        <ele>1480.2</ele>
        <time>2016-03-11T12:19:28Z</time>
      </trkpt>
      <trkpt lat="42.98301" lon="-0.24434">
        <ele>1479.2</ele>
        <time>2016-03-11T12:19:33Z</time>
      </trkpt>
      <trkpt lat="42.98307" lon="-0.24441">
        <ele>1479.9</ele>
        <time>2016-03-11T12:19:38Z</time>
      </trkpt>
      <trkpt lat="42.98314" lon="-0.24448">
        <ele>1479.9</ele>
        <time>2016-03-11T12:19:43Z</time>
      </trkpt>
      <trkpt lat="42.98321" lon="-0.24452">
        <ele>1479.9</ele>
        <time>2016-03-11T12:19:47Z</time>
      </trkpt>
      <trkpt lat="42.98328" lon="-0.24454">
        <ele>1479.9</ele>
        <time>2016-03-11T12:19:51Z</time>
      </trkpt>
      <trkpt lat="42.98335" lon="-0.24454">
        <ele>1479.9</ele>
        <time>2016-03-11T12:19:54Z</time>
      </trkpt>
      <trkpt lat="42.98343" lon="-0.24452">
        <ele>1480.1</ele>
        <time>2016-03-11T12:19:57Z</time>
      </trkpt>
      <trkpt lat="42.9835" lon="-0.24451">
        <ele>1479.8</ele>
        <time>2016-03-11T12:20:00Z</time>
      </trkpt>
      <trkpt lat="42.98359" lon="-0.24452">
        <ele>1479.2</ele>
        <time>2016-03-11T12:20:04Z</time>
      </trkpt>
      <trkpt lat="42.98367" lon="-0.24456">
        <ele>1478.2</ele>
        <time>2016-03-11T12:20:08Z</time>
      </trkpt>
      <trkpt lat="42.98374" lon="-0.24459">
        <ele>1478.3</ele>
        <time>2016-03-11T12:20:12Z</time>
      </trkpt>
      <trkpt lat="42.98375" lon="-0.24459">
        <ele>1478</ele>
        <time>2016-03-11T12:20:13Z</time>
      </trkpt>
      <trkpt lat="42.98389" lon="-0.24459">
        <ele>1477.5</ele>
        <time>2016-03-11T12:20:20Z</time>
      </trkpt>
      <trkpt lat="42.98395" lon="-0.24462">
        <ele>1476.8</ele>
        <time>2016-03-11T12:20:24Z</time>
      </trkpt>
      <trkpt lat="42.98402" lon="-0.24466">
        <ele>1476.7</ele>
        <time>2016-03-11T12:20:27Z</time>
      </trkpt>
      <trkpt lat="42.98411" lon="-0.2447">
        <ele>1476.5</ele>
        <time>2016-03-11T12:20:31Z</time>
      </trkpt>
      <trkpt lat="42.98417" lon="-0.24473">
        <ele>1476.9</ele>
        <time>2016-03-11T12:20:34Z</time>
      </trkpt>
      <trkpt lat="42.98426" lon="-0.24476">
        <ele>1476</ele>
        <time>2016-03-11T12:20:37Z</time>
      </trkpt>
      <trkpt lat="42.98432" lon="-0.24481">
        <ele>1475.5</ele>
        <time>2016-03-11T12:20:41Z</time>
      </trkpt>
      <trkpt lat="42.98438" lon="-0.24487">
        <ele>1475.5</ele>
        <time>2016-03-11T12:20:45Z</time>
      </trkpt>
      <trkpt lat="42.98445" lon="-0.24494">
        <ele>1475.4</ele>
        <time>2016-03-11T12:20:49Z</time>
      </trkpt>
      <trkpt lat="42.98453" lon="-0.245">
        <ele>1475.4</ele>
        <time>2016-03-11T12:20:53Z</time>
      </trkpt>
      <trkpt lat="42.9846" lon="-0.24506">
        <ele>1475.3</ele>
        <time>2016-03-11T12:20:57Z</time>
      </trkpt>
      <trkpt lat="42.98466" lon="-0.24512">
        <ele>1475</ele>
        <time>2016-03-11T12:21:00Z</time>
      </trkpt>
      <trkpt lat="42.98472" lon="-0.24517">
        <ele>1474.6</ele>
        <time>2016-03-11T12:21:03Z</time>
      </trkpt>
      <trkpt lat="42.98478" lon="-0.24523">
        <ele>1474</ele>
        <time>2016-03-11T12:21:06Z</time>
      </trkpt>
      <trkpt lat="42.98483" lon="-0.24528">
        <ele>1473.3</ele>
        <time>2016-03-11T12:21:08Z</time>
      </trkpt>
      <trkpt lat="42.98488" lon="-0.24534">
        <ele>1472.8</ele>
        <time>2016-03-11T12:21:10Z</time>
      </trkpt>
      <trkpt lat="42.98493" lon="-0.24541">
        <ele>1472.4</ele>
        <time>2016-03-11T12:21:12Z</time>
      </trkpt>
      <trkpt lat="42.98498" lon="-0.24548">
        <ele>1471.7</ele>
        <time>2016-03-11T12:21:14Z</time>
      </trkpt>
      <trkpt lat="42.98501" lon="-0.24552">
        <ele>1471.5</ele>
        <time>2016-03-11T12:21:15Z</time>
      </trkpt>
      <trkpt lat="42.98508" lon="-0.24563">
        <ele>1470.5</ele>
        <time>2016-03-11T12:21:18Z</time>
      </trkpt>
      <trkpt lat="42.98513" lon="-0.2457">
        <ele>1469.8</ele>
        <time>2016-03-11T12:21:20Z</time>
      </trkpt>
      <trkpt lat="42.98517" lon="-0.24577">
        <ele>1469.3</ele>
        <time>2016-03-11T12:21:22Z</time>
      </trkpt>
      <trkpt lat="42.98522" lon="-0.24584">
        <ele>1468.3</ele>
        <time>2016-03-11T12:21:24Z</time>
      </trkpt>
      <trkpt lat="42.98529" lon="-0.24592">
        <ele>1467.3</ele>
        <time>2016-03-11T12:21:27Z</time>
      </trkpt>
      <trkpt lat="42.98536" lon="-0.24596">
        <ele>1466</ele>
        <time>2016-03-11T12:21:30Z</time>
      </trkpt>
      <trkpt lat="42.98544" lon="-0.246">
        <ele>1465.3</ele>
        <time>2016-03-11T12:21:34Z</time>
      </trkpt>
      <trkpt lat="42.98553" lon="-0.24602">
        <ele>1464.6</ele>
        <time>2016-03-11T12:21:37Z</time>
      </trkpt>
      <trkpt lat="42.9856" lon="-0.24603">
        <ele>1464.2</ele>
        <time>2016-03-11T12:21:40Z</time>
      </trkpt>
      <trkpt lat="42.98569" lon="-0.24604">
        <ele>1463.6</ele>
        <time>2016-03-11T12:21:44Z</time>
      </trkpt>
      <trkpt lat="42.98576" lon="-0.24603">
        <ele>1463.8</ele>
        <time>2016-03-11T12:21:47Z</time>
      </trkpt>
      <trkpt lat="42.98584" lon="-0.24602">
        <ele>1462.7</ele>
        <time>2016-03-11T12:21:50Z</time>
      </trkpt>
      <trkpt lat="42.98593" lon="-0.246">
        <ele>1462</ele>
        <time>2016-03-11T12:21:53Z</time>
      </trkpt>
      <trkpt lat="42.986" lon="-0.24599">
        <ele>1461.6</ele>
        <time>2016-03-11T12:21:56Z</time>
      </trkpt>
      <trkpt lat="42.98609" lon="-0.24597">
        <ele>1460.6</ele>
        <time>2016-03-11T12:21:59Z</time>
      </trkpt>
      <trkpt lat="42.98615" lon="-0.24593">
        <ele>1459.9</ele>
        <time>2016-03-11T12:22:02Z</time>
      </trkpt>
      <trkpt lat="42.98621" lon="-0.24588">
        <ele>1459.6</ele>
        <time>2016-03-11T12:22:05Z</time>
      </trkpt>
      <trkpt lat="42.98626" lon="-0.24581">
        <ele>1459.1</ele>
        <time>2016-03-11T12:22:08Z</time>
      </trkpt>
      <trkpt lat="42.98629" lon="-0.24572">
        <ele>1458.2</ele>
        <time>2016-03-11T12:22:11Z</time>
      </trkpt>
      <trkpt lat="42.9863" lon="-0.24563">
        <ele>1457.4</ele>
        <time>2016-03-11T12:22:14Z</time>
      </trkpt>
      <trkpt lat="42.98632" lon="-0.24553">
        <ele>1456.9</ele>
        <time>2016-03-11T12:22:17Z</time>
      </trkpt>
      <trkpt lat="42.98632" lon="-0.2455">
        <ele>1456.7</ele>
        <time>2016-03-11T12:22:18Z</time>
      </trkpt>
      <trkpt lat="42.98633" lon="-0.24533">
        <ele>1456.4</ele>
        <time>2016-03-11T12:22:23Z</time>
      </trkpt>
      <trkpt lat="42.98632" lon="-0.24524">
        <ele>1456.2</ele>
        <time>2016-03-11T12:22:26Z</time>
      </trkpt>
      <trkpt lat="42.98631" lon="-0.24515">
        <ele>1455.1</ele>
        <time>2016-03-11T12:22:29Z</time>
      </trkpt>
      <trkpt lat="42.9863" lon="-0.24504">
        <ele>1454.5</ele>
        <time>2016-03-11T12:22:32Z</time>
      </trkpt>
      <trkpt lat="42.98629" lon="-0.24494">
        <ele>1454.6</ele>
        <time>2016-03-11T12:22:35Z</time>
      </trkpt>
      <trkpt lat="42.98628" lon="-0.24483">
        <ele>1453.7</ele>
        <time>2016-03-11T12:22:38Z</time>
      </trkpt>
      <trkpt lat="42.98628" lon="-0.24471">
        <ele>1454.1</ele>
        <time>2016-03-11T12:22:42Z</time>
      </trkpt>
      <trkpt lat="42.98628" lon="-0.24458">
        <ele>1453.2</ele>
        <time>2016-03-11T12:22:46Z</time>
      </trkpt>
      <trkpt lat="42.98627" lon="-0.24447">
        <ele>1453.1</ele>
        <time>2016-03-11T12:22:50Z</time>
      </trkpt>
      <trkpt lat="42.98625" lon="-0.24435">
        <ele>1453.5</ele>
        <time>2016-03-11T12:22:54Z</time>
      </trkpt>
      <trkpt lat="42.98625" lon="-0.24424">
        <ele>1452.9</ele>
        <time>2016-03-11T12:22:58Z</time>
      </trkpt>
      <trkpt lat="42.98624" lon="-0.24414">
        <ele>1452.7</ele>
        <time>2016-03-11T12:23:02Z</time>
      </trkpt>
      <trkpt lat="42.98623" lon="-0.24403">
        <ele>1452.2</ele>
        <time>2016-03-11T12:23:06Z</time>
      </trkpt>
      <trkpt lat="42.98622" lon="-0.24391">
        <ele>1452.5</ele>
        <time>2016-03-11T12:23:11Z</time>
      </trkpt>
      <trkpt lat="42.98622" lon="-0.24381">
        <ele>1452.5</ele>
        <time>2016-03-11T12:23:16Z</time>
      </trkpt>
      <trkpt lat="42.98622" lon="-0.24371">
        <ele>1452.5</ele>
        <time>2016-03-11T12:23:20Z</time>
      </trkpt>
      <trkpt lat="42.98621" lon="-0.24368">
        <ele>1452.8</ele>
        <time>2016-03-11T12:23:21Z</time>
      </trkpt>
      <trkpt lat="42.98621" lon="-0.24349">
        <ele>1453</ele>
        <time>2016-03-11T12:23:29Z</time>
      </trkpt>
      <trkpt lat="42.98623" lon="-0.24337">
        <ele>1453.3</ele>
        <time>2016-03-11T12:23:35Z</time>
      </trkpt>
      <trkpt lat="42.98626" lon="-0.24327">
        <ele>1453.9</ele>
        <time>2016-03-11T12:23:40Z</time>
      </trkpt>
      <trkpt lat="42.98628" lon="-0.24315">
        <ele>1454.7</ele>
        <time>2016-03-11T12:23:46Z</time>
      </trkpt>
      <trkpt lat="42.98631" lon="-0.24304">
        <ele>1455.3</ele>
        <time>2016-03-11T12:23:52Z</time>
      </trkpt>
      <trkpt lat="42.98632" lon="-0.24292">
        <ele>1456.2</ele>
        <time>2016-03-11T12:23:58Z</time>
      </trkpt>
      <trkpt lat="42.98632" lon="-0.2428">
        <ele>1456.6</ele>
        <time>2016-03-11T12:24:04Z</time>
      </trkpt>
      <trkpt lat="42.98633" lon="-0.24269">
        <ele>1457.4</ele>
        <time>2016-03-11T12:24:10Z</time>
      </trkpt>
      <trkpt lat="42.98635" lon="-0.24257">
        <ele>1459.2</ele>
        <time>2016-03-11T12:24:16Z</time>
      </trkpt>
      <trkpt lat="42.98636" lon="-0.24246">
        <ele>1459</ele>
        <time>2016-03-11T12:24:21Z</time>
      </trkpt>
      <trkpt lat="42.98636" lon="-0.24244">
        <ele>1459.2</ele>
        <time>2016-03-11T12:24:22Z</time>
      </trkpt>
      <trkpt lat="42.98637" lon="-0.24225">
        <ele>1461.2</ele>
        <time>2016-03-11T12:24:32Z</time>
      </trkpt>
      <trkpt lat="42.98638" lon="-0.24213">
        <ele>1461.2</ele>
        <time>2016-03-11T12:24:38Z</time>
      </trkpt>
      <trkpt lat="42.98638" lon="-0.24203">
        <ele>1462</ele>
        <time>2016-03-11T12:24:43Z</time>
      </trkpt>
      <trkpt lat="42.98638" lon="-0.2419">
        <ele>1463.1</ele>
        <time>2016-03-11T12:24:49Z</time>
      </trkpt>
      <trkpt lat="42.98638" lon="-0.2418">
        <ele>1463.2</ele>
        <time>2016-03-11T12:24:55Z</time>
      </trkpt>
      <trkpt lat="42.98639" lon="-0.24167">
        <ele>1464</ele>
        <time>2016-03-11T12:25:01Z</time>
      </trkpt>
      <trkpt lat="42.98638" lon="-0.24155">
        <ele>1464.9</ele>
        <time>2016-03-11T12:25:07Z</time>
      </trkpt>
      <trkpt lat="42.98638" lon="-0.24145">
        <ele>1465.8</ele>
        <time>2016-03-11T12:25:12Z</time>
      </trkpt>
      <trkpt lat="42.98639" lon="-0.24133">
        <ele>1466.2</ele>
        <time>2016-03-11T12:25:18Z</time>
      </trkpt>
      <trkpt lat="42.98641" lon="-0.24121">
        <ele>1467.4</ele>
        <time>2016-03-11T12:25:24Z</time>
      </trkpt>
      <trkpt lat="42.98641" lon="-0.24119">
        <ele>1467.4</ele>
        <time>2016-03-11T12:25:25Z</time>
      </trkpt>
      <trkpt lat="42.98643" lon="-0.24099">
        <ele>1468.4</ele>
        <time>2016-03-11T12:25:35Z</time>
      </trkpt>
      <trkpt lat="42.98645" lon="-0.24087">
        <ele>1469.5</ele>
        <time>2016-03-11T12:25:41Z</time>
      </trkpt>
      <trkpt lat="42.98648" lon="-0.24077">
        <ele>1470.7</ele>
        <time>2016-03-11T12:25:47Z</time>
      </trkpt>
      <trkpt lat="42.98649" lon="-0.24066">
        <ele>1471</ele>
        <time>2016-03-11T12:25:52Z</time>
      </trkpt>
      <trkpt lat="42.98651" lon="-0.24056">
        <ele>1471.9</ele>
        <time>2016-03-11T12:25:57Z</time>
      </trkpt>
      <trkpt lat="42.98652" lon="-0.24044">
        <ele>1473.5</ele>
        <time>2016-03-11T12:26:03Z</time>
      </trkpt>
      <trkpt lat="42.98654" lon="-0.24034">
        <ele>1473.4</ele>
        <time>2016-03-11T12:26:08Z</time>
      </trkpt>
      <trkpt lat="42.98657" lon="-0.24022">
        <ele>1474</ele>
        <time>2016-03-11T12:26:13Z</time>
      </trkpt>
      <trkpt lat="42.98658" lon="-0.24011">
        <ele>1474.3</ele>
        <time>2016-03-11T12:26:18Z</time>
      </trkpt>
      <trkpt lat="42.98659" lon="-0.24">
        <ele>1474.4</ele>
        <time>2016-03-11T12:26:23Z</time>
      </trkpt>
      <trkpt lat="42.98661" lon="-0.23989">
        <ele>1475.6</ele>
        <time>2016-03-11T12:26:28Z</time>
      </trkpt>
      <trkpt lat="42.98661" lon="-0.23987">
        <ele>1475.9</ele>
        <time>2016-03-11T12:26:29Z</time>
      </trkpt>
      <trkpt lat="42.98662" lon="-0.23966">
        <ele>1477.1</ele>
        <time>2016-03-11T12:26:39Z</time>
      </trkpt>
      <trkpt lat="42.98662" lon="-0.23955">
        <ele>1477.5</ele>
        <time>2016-03-11T12:26:44Z</time>
      </trkpt>
      <trkpt lat="42.98662" lon="-0.23943">
        <ele>1477.4</ele>
        <time>2016-03-11T12:26:49Z</time>
      </trkpt>
      <trkpt lat="42.98661" lon="-0.23931">
        <ele>1477.8</ele>
        <time>2016-03-11T12:26:54Z</time>
      </trkpt>
      <trkpt lat="42.98659" lon="-0.23921">
        <ele>1478.9</ele>
        <time>2016-03-11T12:26:58Z</time>
      </trkpt>
      <trkpt lat="42.98657" lon="-0.2391">
        <ele>1478.9</ele>
        <time>2016-03-11T12:27:02Z</time>
      </trkpt>
      <trkpt lat="42.98654" lon="-0.23901">
        <ele>1478.7</ele>
        <time>2016-03-11T12:27:06Z</time>
      </trkpt>
      <trkpt lat="42.98649" lon="-0.23893">
        <ele>1478.7</ele>
        <time>2016-03-11T12:27:10Z</time>
      </trkpt>
      <trkpt lat="42.98643" lon="-0.23886">
        <ele>1478.7</ele>
        <time>2016-03-11T12:27:15Z</time>
      </trkpt>
      <trkpt lat="42.98636" lon="-0.2388">
        <ele>1479.5</ele>
        <time>2016-03-11T12:27:20Z</time>
      </trkpt>
      <trkpt lat="42.98629" lon="-0.23874">
        <ele>1479.8</ele>
        <time>2016-03-11T12:27:25Z</time>
      </trkpt>
      <trkpt lat="42.98623" lon="-0.23869">
        <ele>1480.6</ele>
        <time>2016-03-11T12:27:30Z</time>
      </trkpt>
      <trkpt lat="42.98621" lon="-0.23867">
        <ele>1481</ele>
        <time>2016-03-11T12:27:31Z</time>
      </trkpt>
      <trkpt lat="42.98608" lon="-0.23856">
        <ele>1480.5</ele>
        <time>2016-03-11T12:27:41Z</time>
      </trkpt>
      <trkpt lat="42.98602" lon="-0.23849">
        <ele>1481.2</ele>
        <time>2016-03-11T12:27:46Z</time>
      </trkpt>
      <trkpt lat="42.98596" lon="-0.23843">
        <ele>1481.6</ele>
        <time>2016-03-11T12:27:50Z</time>
      </trkpt>
      <trkpt lat="42.9859" lon="-0.23836">
        <ele>1481.6</ele>
        <time>2016-03-11T12:27:55Z</time>
      </trkpt>
      <trkpt lat="42.98584" lon="-0.23827">
        <ele>1482.6</ele>
        <time>2016-03-11T12:28:00Z</time>
      </trkpt>
      <trkpt lat="42.98579" lon="-0.2382">
        <ele>1483.3</ele>
        <time>2016-03-11T12:28:04Z</time>
      </trkpt>
      <trkpt lat="42.98575" lon="-0.23811">
        <ele>1483.5</ele>
        <time>2016-03-11T12:28:08Z</time>
      </trkpt>
      <trkpt lat="42.98572" lon="-0.23801">
        <ele>1483.8</ele>
        <time>2016-03-11T12:28:13Z</time>
      </trkpt>
      <trkpt lat="42.98571" lon="-0.23791">
        <ele>1484.5</ele>
        <time>2016-03-11T12:28:18Z</time>
      </trkpt>
      <trkpt lat="42.9857" lon="-0.2378">
        <ele>1485.1</ele>
        <time>2016-03-11T12:28:23Z</time>
      </trkpt>
      <trkpt lat="42.98569" lon="-0.2377">
        <ele>1485.5</ele>
        <time>2016-03-11T12:28:28Z</time>
      </trkpt>
      <trkpt lat="42.98568" lon="-0.23759">
        <ele>1485.9</ele>
        <time>2016-03-11T12:28:33Z</time>
      </trkpt>
      <trkpt lat="42.98567" lon="-0.23757">
        <ele>1485.9</ele>
        <time>2016-03-11T12:28:34Z</time>
      </trkpt>
      <trkpt lat="42.98561" lon="-0.2374">
        <ele>1487.1</ele>
        <time>2016-03-11T12:28:43Z</time>
      </trkpt>
      <trkpt lat="42.98561" lon="-0.23729">
        <ele>1487.5</ele>
        <time>2016-03-11T12:28:48Z</time>
      </trkpt>
      <trkpt lat="42.98563" lon="-0.23717">
        <ele>1487.7</ele>
        <time>2016-03-11T12:28:54Z</time>
      </trkpt>
      <trkpt lat="42.98564" lon="-0.23706">
        <ele>1488.1</ele>
        <time>2016-03-11T12:29:00Z</time>
      </trkpt>
      <trkpt lat="42.98562" lon="-0.23695">
        <ele>1489.3</ele>
        <time>2016-03-11T12:29:06Z</time>
      </trkpt>
      <trkpt lat="42.98559" lon="-0.23684">
        <ele>1490.2</ele>
        <time>2016-03-11T12:29:12Z</time>
      </trkpt>
      <trkpt lat="42.98557" lon="-0.23674">
        <ele>1491.7</ele>
        <time>2016-03-11T12:29:18Z</time>
      </trkpt>
      <trkpt lat="42.98555" lon="-0.23664">
        <ele>1492.2</ele>
        <time>2016-03-11T12:29:24Z</time>
      </trkpt>
      <trkpt lat="42.98553" lon="-0.23652">
        <ele>1493.5</ele>
        <time>2016-03-11T12:29:30Z</time>
      </trkpt>
      <trkpt lat="42.98551" lon="-0.23641">
        <ele>1494.1</ele>
        <time>2016-03-11T12:29:36Z</time>
      </trkpt>
      <trkpt lat="42.9855" lon="-0.23639">
        <ele>1494.1</ele>
        <time>2016-03-11T12:29:37Z</time>
      </trkpt>
      <trkpt lat="42.98546" lon="-0.2362">
        <ele>1495.2</ele>
        <time>2016-03-11T12:29:47Z</time>
      </trkpt>
      <trkpt lat="42.98547" lon="-0.23608">
        <ele>1495.9</ele>
        <time>2016-03-11T12:29:53Z</time>
      </trkpt>
      <trkpt lat="42.98548" lon="-0.23596">
        <ele>1497.2</ele>
        <time>2016-03-11T12:29:59Z</time>
      </trkpt>
      <trkpt lat="42.98549" lon="-0.23585">
        <ele>1497.8</ele>
        <time>2016-03-11T12:30:05Z</time>
      </trkpt>
      <trkpt lat="42.9855" lon="-0.23573">
        <ele>1497.9</ele>
        <time>2016-03-11T12:30:11Z</time>
      </trkpt>
      <trkpt lat="42.9855" lon="-0.23561">
        <ele>1499.2</ele>
        <time>2016-03-11T12:30:17Z</time>
      </trkpt>
      <trkpt lat="42.9855" lon="-0.23549">
        <ele>1499.9</ele>
        <time>2016-03-11T12:30:23Z</time>
      </trkpt>
      <trkpt lat="42.98549" lon="-0.23538">
        <ele>1500.6</ele>
        <time>2016-03-11T12:30:28Z</time>
      </trkpt>
      <trkpt lat="42.9855" lon="-0.23528">
        <ele>1501.2</ele>
        <time>2016-03-11T12:30:32Z</time>
      </trkpt>
      <trkpt lat="42.98552" lon="-0.23517">
        <ele>1501.1</ele>
        <time>2016-03-11T12:30:37Z</time>
      </trkpt>
      <trkpt lat="42.98552" lon="-0.23515">
        <ele>1501</ele>
        <time>2016-03-11T12:30:38Z</time>
      </trkpt>
      <trkpt lat="42.98561" lon="-0.23498">
        <ele>1502</ele>
        <time>2016-03-11T12:30:49Z</time>
      </trkpt>
      <trkpt lat="42.98565" lon="-0.23488">
        <ele>1503.7</ele>
        <time>2016-03-11T12:30:55Z</time>
      </trkpt>
      <trkpt lat="42.98568" lon="-0.23477">
        <ele>1504.8</ele>
        <time>2016-03-11T12:31:01Z</time>
      </trkpt>
      <trkpt lat="42.98572" lon="-0.23466">
        <ele>1505.4</ele>
        <time>2016-03-11T12:31:07Z</time>
      </trkpt>
      <trkpt lat="42.98575" lon="-0.23456">
        <ele>1506</ele>
        <time>2016-03-11T12:31:12Z</time>
      </trkpt>
      <trkpt lat="42.98577" lon="-0.23445">
        <ele>1505.9</ele>
        <time>2016-03-11T12:31:18Z</time>
      </trkpt>
      <trkpt lat="42.9858" lon="-0.23434">
        <ele>1506.5</ele>
        <time>2016-03-11T12:31:23Z</time>
      </trkpt>
      <trkpt lat="42.98582" lon="-0.23422">
        <ele>1507.3</ele>
        <time>2016-03-11T12:31:29Z</time>
      </trkpt>
      <trkpt lat="42.98584" lon="-0.2341">
        <ele>1508.3</ele>
        <time>2016-03-11T12:31:35Z</time>
      </trkpt>
      <trkpt lat="42.98585" lon="-0.23399">
        <ele>1509.4</ele>
        <time>2016-03-11T12:31:40Z</time>
      </trkpt>
      <trkpt lat="42.98585" lon="-0.23398">
        <ele>1509.5</ele>
        <time>2016-03-11T12:31:41Z</time>
      </trkpt>
      <trkpt lat="42.98586" lon="-0.23377">
        <ele>1510.5</ele>
        <time>2016-03-11T12:31:51Z</time>
      </trkpt>
      <trkpt lat="42.98586" lon="-0.23365">
        <ele>1511.4</ele>
        <time>2016-03-11T12:31:57Z</time>
      </trkpt>
      <trkpt lat="42.98584" lon="-0.23355">
        <ele>1512.1</ele>
        <time>2016-03-11T12:32:02Z</time>
      </trkpt>
      <trkpt lat="42.98583" lon="-0.23345">
        <ele>1512.7</ele>
        <time>2016-03-11T12:32:07Z</time>
      </trkpt>
      <trkpt lat="42.98579" lon="-0.23335">
        <ele>1513.1</ele>
        <time>2016-03-11T12:32:12Z</time>
      </trkpt>
      <trkpt lat="42.98573" lon="-0.23326">
        <ele>1513.6</ele>
        <time>2016-03-11T12:32:17Z</time>
      </trkpt>
      <trkpt lat="42.98569" lon="-0.23318">
        <ele>1513.7</ele>
        <time>2016-03-11T12:32:22Z</time>
      </trkpt>
      <trkpt lat="42.98566" lon="-0.23307">
        <ele>1514</ele>
        <time>2016-03-11T12:32:27Z</time>
      </trkpt>
      <trkpt lat="42.98566" lon="-0.23296">
        <ele>1514.5</ele>
        <time>2016-03-11T12:32:32Z</time>
      </trkpt>
      <trkpt lat="42.98567" lon="-0.23286">
        <ele>1514.3</ele>
        <time>2016-03-11T12:32:36Z</time>
      </trkpt>
      <trkpt lat="42.98569" lon="-0.23274">
        <ele>1514.2</ele>
        <time>2016-03-11T12:32:40Z</time>
      </trkpt>
      <trkpt lat="42.9857" lon="-0.23263">
        <ele>1514</ele>
        <time>2016-03-11T12:32:44Z</time>
      </trkpt>
      <trkpt lat="42.98571" lon="-0.2326">
        <ele>1513.9</ele>
        <time>2016-03-11T12:32:45Z</time>
      </trkpt>
      <trkpt lat="42.98572" lon="-0.2324">
        <ele>1512.7</ele>
        <time>2016-03-11T12:32:52Z</time>
      </trkpt>
      <trkpt lat="42.98574" lon="-0.2323">
        <ele>1512.3</ele>
        <time>2016-03-11T12:32:56Z</time>
      </trkpt>
      <trkpt lat="42.98575" lon="-0.23219">
        <ele>1512.6</ele>
        <time>2016-03-11T12:33:00Z</time>
      </trkpt>
      <trkpt lat="42.98576" lon="-0.23208">
        <ele>1513.1</ele>
        <time>2016-03-11T12:33:04Z</time>
      </trkpt>
      <trkpt lat="42.98578" lon="-0.23197">
        <ele>1513.9</ele>
        <time>2016-03-11T12:33:09Z</time>
      </trkpt>
      <trkpt lat="42.98579" lon="-0.23186">
        <ele>1513</ele>
        <time>2016-03-11T12:33:14Z</time>
      </trkpt>
      <trkpt lat="42.9858" lon="-0.23175">
        <ele>1513.9</ele>
        <time>2016-03-11T12:33:19Z</time>
      </trkpt>
      <trkpt lat="42.9858" lon="-0.23164">
        <ele>1514.6</ele>
        <time>2016-03-11T12:33:25Z</time>
      </trkpt>
      <trkpt lat="42.9858" lon="-0.23153">
        <ele>1515.4</ele>
        <time>2016-03-11T12:33:31Z</time>
      </trkpt>
      <trkpt lat="42.9858" lon="-0.23142">
        <ele>1515.9</ele>
        <time>2016-03-11T12:33:37Z</time>
      </trkpt>
      <trkpt lat="42.98579" lon="-0.2313">
        <ele>1517.2</ele>
        <time>2016-03-11T12:33:43Z</time>
      </trkpt>
      <trkpt lat="42.98577" lon="-0.23119">
        <ele>1517.9</ele>
        <time>2016-03-11T12:33:49Z</time>
      </trkpt>
      <trkpt lat="42.98577" lon="-0.23117">
        <ele>1518.2</ele>
        <time>2016-03-11T12:33:50Z</time>
      </trkpt>
      <trkpt lat="42.98575" lon="-0.23097">
        <ele>1519.6</ele>
        <time>2016-03-11T12:34:01Z</time>
      </trkpt>
      <trkpt lat="42.98573" lon="-0.23086">
        <ele>1520.5</ele>
        <time>2016-03-11T12:34:07Z</time>
      </trkpt>
      <trkpt lat="42.98571" lon="-0.23074">
        <ele>1521.4</ele>
        <time>2016-03-11T12:34:13Z</time>
      </trkpt>
      <trkpt lat="42.98568" lon="-0.23063">
        <ele>1521.4</ele>
        <time>2016-03-11T12:34:19Z</time>
      </trkpt>
      <trkpt lat="42.98566" lon="-0.23053">
        <ele>1522.5</ele>
        <time>2016-03-11T12:34:24Z</time>
      </trkpt>
      <trkpt lat="42.98563" lon="-0.23043">
        <ele>1523.2</ele>
        <time>2016-03-11T12:34:29Z</time>
      </trkpt>
      <trkpt lat="42.98559" lon="-0.23033">
        <ele>1523.8</ele>
        <time>2016-03-11T12:34:35Z</time>
      </trkpt>
      <trkpt lat="42.98555" lon="-0.23024">
        <ele>1524.4</ele>
        <time>2016-03-11T12:34:40Z</time>
      </trkpt>
      <trkpt lat="42.98549" lon="-0.23015">
        <ele>1524.8</ele>
        <time>2016-03-11T12:34:46Z</time>
      </trkpt>
      <trkpt lat="42.98542" lon="-0.23007">
        <ele>1525.6</ele>
        <time>2016-03-11T12:34:52Z</time>
      </trkpt>
      <trkpt lat="42.98541" lon="-0.23006">
        <ele>1525.7</ele>
        <time>2016-03-11T12:34:53Z</time>
      </trkpt>
      <trkpt lat="42.98532" lon="-0.2299">
        <ele>1526.9</ele>
        <time>2016-03-11T12:35:04Z</time>
      </trkpt>
      <trkpt lat="42.98528" lon="-0.22979">
        <ele>1527.9</ele>
        <time>2016-03-11T12:35:10Z</time>
      </trkpt>
      <trkpt lat="42.98526" lon="-0.22968">
        <ele>1528.6</ele>
        <time>2016-03-11T12:35:17Z</time>
      </trkpt>
      <trkpt lat="42.98523" lon="-0.22956">
        <ele>1529.6</ele>
        <time>2016-03-11T12:35:24Z</time>
      </trkpt>
      <trkpt lat="42.98522" lon="-0.22945">
        <ele>1530.4</ele>
        <time>2016-03-11T12:35:30Z</time>
      </trkpt>
      <trkpt lat="42.98522" lon="-0.22933">
        <ele>1531.4</ele>
        <time>2016-03-11T12:35:37Z</time>
      </trkpt>
      <trkpt lat="42.98522" lon="-0.22922">
        <ele>1531.6</ele>
        <time>2016-03-11T12:35:43Z</time>
      </trkpt>
      <trkpt lat="42.98523" lon="-0.22911">
        <ele>1532.5</ele>
        <time>2016-03-11T12:35:49Z</time>
      </trkpt>
      <trkpt lat="42.98525" lon="-0.229">
        <ele>1533.1</ele>
        <time>2016-03-11T12:35:55Z</time>
      </trkpt>
      <trkpt lat="42.98525" lon="-0.22898">
        <ele>1533.1</ele>
        <time>2016-03-11T12:35:56Z</time>
      </trkpt>
      <trkpt lat="42.9853" lon="-0.22879">
        <ele>1534.3</ele>
        <time>2016-03-11T12:36:07Z</time>
      </trkpt>
      <trkpt lat="42.98537" lon="-0.2287">
        <ele>1535.2</ele>
        <time>2016-03-11T12:36:13Z</time>
      </trkpt>
      <trkpt lat="42.98543" lon="-0.22863">
        <ele>1536</ele>
        <time>2016-03-11T12:36:28Z</time>
      </trkpt>
      <trkpt lat="42.98549" lon="-0.22857">
        <ele>1535.8</ele>
        <time>2016-03-11T12:36:35Z</time>
      </trkpt>
      <trkpt lat="42.98557" lon="-0.22851">
        <ele>1535.6</ele>
        <time>2016-03-11T12:36:40Z</time>
      </trkpt>
      <trkpt lat="42.98564" lon="-0.22844">
        <ele>1536</ele>
        <time>2016-03-11T12:36:45Z</time>
      </trkpt>
      <trkpt lat="42.98572" lon="-0.22839">
        <ele>1535.7</ele>
        <time>2016-03-11T12:36:50Z</time>
      </trkpt>
      <trkpt lat="42.98579" lon="-0.22836">
        <ele>1535.8</ele>
        <time>2016-03-11T12:36:55Z</time>
      </trkpt>
      <trkpt lat="42.98587" lon="-0.22832">
        <ele>1536</ele>
        <time>2016-03-11T12:37:00Z</time>
      </trkpt>
      <trkpt lat="42.98589" lon="-0.22832">
        <ele>1536.2</ele>
        <time>2016-03-11T12:37:01Z</time>
      </trkpt>
      <trkpt lat="42.98602" lon="-0.22827">
        <ele>1536.8</ele>
        <time>2016-03-11T12:37:10Z</time>
      </trkpt>
      <trkpt lat="42.9861" lon="-0.22825">
        <ele>1536.6</ele>
        <time>2016-03-11T12:37:15Z</time>
      </trkpt>
      <trkpt lat="42.98618" lon="-0.22824">
        <ele>1537.2</ele>
        <time>2016-03-11T12:37:20Z</time>
      </trkpt>
      <trkpt lat="42.98625" lon="-0.22822">
        <ele>1536.9</ele>
        <time>2016-03-11T12:37:25Z</time>
      </trkpt>
      <trkpt lat="42.98633" lon="-0.22822">
        <ele>1537.2</ele>
        <time>2016-03-11T12:37:30Z</time>
      </trkpt>
      <trkpt lat="42.98641" lon="-0.22823">
        <ele>1537.4</ele>
        <time>2016-03-11T12:37:35Z</time>
      </trkpt>
      <trkpt lat="42.98649" lon="-0.22823">
        <ele>1538.8</ele>
        <time>2016-03-11T12:37:40Z</time>
      </trkpt>
      <trkpt lat="42.98657" lon="-0.22822">
        <ele>1539.5</ele>
        <time>2016-03-11T12:37:45Z</time>
      </trkpt>
      <trkpt lat="42.98666" lon="-0.22821">
        <ele>1539.1</ele>
        <time>2016-03-11T12:37:50Z</time>
      </trkpt>
      <trkpt lat="42.98674" lon="-0.22821">
        <ele>1539</ele>
        <time>2016-03-11T12:37:55Z</time>
      </trkpt>
      <trkpt lat="42.98682" lon="-0.22818">
        <ele>1539.4</ele>
        <time>2016-03-11T12:38:00Z</time>
      </trkpt>
      <trkpt lat="42.98689" lon="-0.22811">
        <ele>1538.9</ele>
        <time>2016-03-11T12:38:05Z</time>
      </trkpt>
      <trkpt lat="42.9869" lon="-0.2281">
        <ele>1538.9</ele>
        <time>2016-03-11T12:38:06Z</time>
      </trkpt>
      <trkpt lat="42.98697" lon="-0.22792">
        <ele>1539.4</ele>
        <time>2016-03-11T12:38:15Z</time>
      </trkpt>
      <trkpt lat="42.98699" lon="-0.22781">
        <ele>1539.7</ele>
        <time>2016-03-11T12:38:20Z</time>
      </trkpt>
      <trkpt lat="42.98706" lon="-0.22773">
        <ele>1539.6</ele>
        <time>2016-03-11T12:38:25Z</time>
      </trkpt>
      <trkpt lat="42.98712" lon="-0.22768">
        <ele>1539.1</ele>
        <time>2016-03-11T12:38:29Z</time>
      </trkpt>
      <trkpt lat="42.9872" lon="-0.22763">
        <ele>1539.8</ele>
        <time>2016-03-11T12:38:33Z</time>
      </trkpt>
      <trkpt lat="42.98727" lon="-0.22759">
        <ele>1538.4</ele>
        <time>2016-03-11T12:38:36Z</time>
      </trkpt>
      <trkpt lat="42.98733" lon="-0.22756">
        <ele>1538.3</ele>
        <time>2016-03-11T12:38:39Z</time>
      </trkpt>
      <trkpt lat="42.98742" lon="-0.22753">
        <ele>1537.8</ele>
        <time>2016-03-11T12:38:43Z</time>
      </trkpt>
      <trkpt lat="42.98749" lon="-0.22753">
        <ele>1537</ele>
        <time>2016-03-11T12:38:47Z</time>
      </trkpt>
      <trkpt lat="42.98757" lon="-0.22752">
        <ele>1537</ele>
        <time>2016-03-11T12:38:51Z</time>
      </trkpt>
      <trkpt lat="42.98764" lon="-0.22749">
        <ele>1537.8</ele>
        <time>2016-03-11T12:38:55Z</time>
      </trkpt>
      <trkpt lat="42.98772" lon="-0.22746">
        <ele>1538.1</ele>
        <time>2016-03-11T12:38:59Z</time>
      </trkpt>
      <trkpt lat="42.9878" lon="-0.22741">
        <ele>1538.2</ele>
        <time>2016-03-11T12:39:03Z</time>
      </trkpt>
      <trkpt lat="42.98787" lon="-0.22737">
        <ele>1538</ele>
        <time>2016-03-11T12:39:07Z</time>
      </trkpt>
      <trkpt lat="42.98789" lon="-0.22736">
        <ele>1537.9</ele>
        <time>2016-03-11T12:39:08Z</time>
      </trkpt>
      <trkpt lat="42.98801" lon="-0.22729">
        <ele>1537.3</ele>
        <time>2016-03-11T12:39:13Z</time>
      </trkpt>
      <trkpt lat="42.98807" lon="-0.22725">
        <ele>1537.6</ele>
        <time>2016-03-11T12:39:16Z</time>
      </trkpt>
      <trkpt lat="42.98815" lon="-0.22721">
        <ele>1537.5</ele>
        <time>2016-03-11T12:39:20Z</time>
      </trkpt>
      <trkpt lat="42.98822" lon="-0.22719">
        <ele>1536.8</ele>
        <time>2016-03-11T12:39:24Z</time>
      </trkpt>
      <trkpt lat="42.98829" lon="-0.22714">
        <ele>1536.8</ele>
        <time>2016-03-11T12:39:28Z</time>
      </trkpt>
      <trkpt lat="42.98836" lon="-0.22709">
        <ele>1536.7</ele>
        <time>2016-03-11T12:39:32Z</time>
      </trkpt>
      <trkpt lat="42.98845" lon="-0.22706">
        <ele>1537.2</ele>
        <time>2016-03-11T12:39:37Z</time>
      </trkpt>
      <trkpt lat="42.98851" lon="-0.22704">
        <ele>1536.9</ele>
        <time>2016-03-11T12:39:40Z</time>
      </trkpt>
      <trkpt lat="42.98859" lon="-0.22701">
        <ele>1536.3</ele>
        <time>2016-03-11T12:39:44Z</time>
      </trkpt>
      <trkpt lat="42.98867" lon="-0.22699">
        <ele>1535.7</ele>
        <time>2016-03-11T12:39:48Z</time>
      </trkpt>
      <trkpt lat="42.98874" lon="-0.22697">
        <ele>1535.7</ele>
        <time>2016-03-11T12:39:51Z</time>
      </trkpt>
      <trkpt lat="42.98882" lon="-0.22695">
        <ele>1535.8</ele>
        <time>2016-03-11T12:39:55Z</time>
      </trkpt>
      <trkpt lat="42.98891" lon="-0.22692">
        <ele>1535.6</ele>
        <time>2016-03-11T12:39:59Z</time>
      </trkpt>
      <trkpt lat="42.98899" lon="-0.22689">
        <ele>1535.6</ele>
        <time>2016-03-11T12:40:03Z</time>
      </trkpt>
      <trkpt lat="42.98906" lon="-0.22686">
        <ele>1534.9</ele>
        <time>2016-03-11T12:40:06Z</time>
      </trkpt>
      <trkpt lat="42.98913" lon="-0.22683">
        <ele>1534</ele>
        <time>2016-03-11T12:40:09Z</time>
      </trkpt>
      <trkpt lat="42.98914" lon="-0.22682">
        <ele>1534.1</ele>
        <time>2016-03-11T12:40:10Z</time>
      </trkpt>
      <trkpt lat="42.98929" lon="-0.22676">
        <ele>1533.9</ele>
        <time>2016-03-11T12:40:19Z</time>
      </trkpt>
      <trkpt lat="42.98937" lon="-0.22674">
        <ele>1533.5</ele>
        <time>2016-03-11T12:40:23Z</time>
      </trkpt>
      <trkpt lat="42.98945" lon="-0.22674">
        <ele>1533.9</ele>
        <time>2016-03-11T12:40:27Z</time>
      </trkpt>
      <trkpt lat="42.98953" lon="-0.22676">
        <ele>1535</ele>
        <time>2016-03-11T12:40:31Z</time>
      </trkpt>
      <trkpt lat="42.9896" lon="-0.22678">
        <ele>1534.8</ele>
        <time>2016-03-11T12:40:34Z</time>
      </trkpt>
      <trkpt lat="42.98968" lon="-0.2268">
        <ele>1533.9</ele>
        <time>2016-03-11T12:40:37Z</time>
      </trkpt>
      <trkpt lat="42.98976" lon="-0.22683">
        <ele>1533.2</ele>
        <time>2016-03-11T12:40:40Z</time>
      </trkpt>
      <trkpt lat="42.98983" lon="-0.22686">
        <ele>1532.5</ele>
        <time>2016-03-11T12:40:43Z</time>
      </trkpt>
      <trkpt lat="42.98991" lon="-0.22691">
        <ele>1532</ele>
        <time>2016-03-11T12:40:47Z</time>
      </trkpt>
      <trkpt lat="42.98998" lon="-0.22696">
        <ele>1531.6</ele>
        <time>2016-03-11T12:40:50Z</time>
      </trkpt>
      <trkpt lat="42.99003" lon="-0.22699">
        <ele>1531.2</ele>
        <time>2016-03-11T12:40:52Z</time>
      </trkpt>
      <trkpt lat="42.99009" lon="-0.22703">
        <ele>1530.8</ele>
        <time>2016-03-11T12:40:54Z</time>
      </trkpt>
      <trkpt lat="42.99016" lon="-0.22707">
        <ele>1530.4</ele>
        <time>2016-03-11T12:40:57Z</time>
      </trkpt>
      <trkpt lat="42.99024" lon="-0.2271">
        <ele>1530.1</ele>
        <time>2016-03-11T12:41:00Z</time>
      </trkpt>
      <trkpt lat="42.99032" lon="-0.22712">
        <ele>1530.1</ele>
        <time>2016-03-11T12:41:03Z</time>
      </trkpt>
      <trkpt lat="42.99039" lon="-0.22713">
        <ele>1530</ele>
        <time>2016-03-11T12:41:06Z</time>
      </trkpt>
      <trkpt lat="42.99046" lon="-0.22713">
        <ele>1529</ele>
        <time>2016-03-11T12:41:09Z</time>
      </trkpt>
      <trkpt lat="42.99055" lon="-0.22711">
        <ele>1529.1</ele>
        <time>2016-03-11T12:41:13Z</time>
      </trkpt>
      <trkpt lat="42.99057" lon="-0.2271">
        <ele>1529</ele>
        <time>2016-03-11T12:41:14Z</time>
      </trkpt>
      <trkpt lat="42.9907" lon="-0.22704">
        <ele>1528.4</ele>
        <time>2016-03-11T12:41:20Z</time>
      </trkpt>
      <trkpt lat="42.99076" lon="-0.227">
        <ele>1528.4</ele>
        <time>2016-03-11T12:41:23Z</time>
      </trkpt>
      <trkpt lat="42.99082" lon="-0.22696">
        <ele>1528.3</ele>
        <time>2016-03-11T12:41:26Z</time>
      </trkpt>
      <trkpt lat="42.9909" lon="-0.22689">
        <ele>1527.9</ele>
        <time>2016-03-11T12:41:30Z</time>
      </trkpt>
      <trkpt lat="42.99096" lon="-0.22683">
        <ele>1528</ele>
        <time>2016-03-11T12:41:34Z</time>
      </trkpt>
      <trkpt lat="42.99102" lon="-0.22677">
        <ele>1528.3</ele>
        <time>2016-03-11T12:41:38Z</time>
      </trkpt>
      <trkpt lat="42.99109" lon="-0.22671">
        <ele>1528.6</ele>
        <time>2016-03-11T12:41:42Z</time>
      </trkpt>
      <trkpt lat="42.99116" lon="-0.22664">
        <ele>1529</ele>
        <time>2016-03-11T12:41:46Z</time>
      </trkpt>
      <trkpt lat="42.99122" lon="-0.22658">
        <ele>1528.4</ele>
        <time>2016-03-11T12:41:50Z</time>
      </trkpt>
      <trkpt lat="42.99128" lon="-0.2265">
        <ele>1529.1</ele>
        <time>2016-03-11T12:41:55Z</time>
      </trkpt>
      <trkpt lat="42.99134" lon="-0.22642">
        <ele>1529.7</ele>
        <time>2016-03-11T12:42:00Z</time>
      </trkpt>
      <trkpt lat="42.99138" lon="-0.22634">
        <ele>1529.8</ele>
        <time>2016-03-11T12:42:05Z</time>
      </trkpt>
      <trkpt lat="42.99142" lon="-0.22624">
        <ele>1530.3</ele>
        <time>2016-03-11T12:42:10Z</time>
      </trkpt>
      <trkpt lat="42.99143" lon="-0.22613">
        <ele>1530.4</ele>
        <time>2016-03-11T12:42:15Z</time>
      </trkpt>
      <trkpt lat="42.99143" lon="-0.22611">
        <ele>1530.5</ele>
        <time>2016-03-11T12:42:16Z</time>
      </trkpt>
      <trkpt lat="42.99147" lon="-0.22592">
        <ele>1531.7</ele>
        <time>2016-03-11T12:42:25Z</time>
      </trkpt>
      <trkpt lat="42.99143" lon="-0.22582">
        <ele>1531.7</ele>
        <time>2016-03-11T12:43:31Z</time>
      </trkpt>
      <trkpt lat="42.99142" lon="-0.2258">
        <ele>1531.8</ele>
        <time>2016-03-11T12:43:32Z</time>
      </trkpt>
      <trkpt lat="42.99135" lon="-0.22563">
        <ele>1532.2</ele>
        <time>2016-03-11T12:43:40Z</time>
      </trkpt>
      <trkpt lat="42.99129" lon="-0.22554">
        <ele>1532.1</ele>
        <time>2016-03-11T12:43:45Z</time>
      </trkpt>
      <trkpt lat="42.99126" lon="-0.22545">
        <ele>1532.5</ele>
        <time>2016-03-11T12:43:50Z</time>
      </trkpt>
      <trkpt lat="42.99121" lon="-0.22539">
        <ele>1532.5</ele>
        <time>2016-03-11T12:43:54Z</time>
      </trkpt>
      <trkpt lat="42.99115" lon="-0.2253">
        <ele>1532.7</ele>
        <time>2016-03-11T12:43:58Z</time>
      </trkpt>
      <trkpt lat="42.99111" lon="-0.22523">
        <ele>1532.3</ele>
        <time>2016-03-11T12:44:01Z</time>
      </trkpt>
      <trkpt lat="42.99105" lon="-0.22516">
        <ele>1532.3</ele>
        <time>2016-03-11T12:44:05Z</time>
      </trkpt>
      <trkpt lat="42.99101" lon="-0.22507">
        <ele>1533</ele>
        <time>2016-03-11T12:44:10Z</time>
      </trkpt>
      <trkpt lat="42.99099" lon="-0.22496">
        <ele>1532.2</ele>
        <time>2016-03-11T12:44:14Z</time>
      </trkpt>
      <trkpt lat="42.99097" lon="-0.22485">
        <ele>1532.5</ele>
        <time>2016-03-11T12:44:19Z</time>
      </trkpt>
      <trkpt lat="42.99094" lon="-0.22475">
        <ele>1532.2</ele>
        <time>2016-03-11T12:44:23Z</time>
      </trkpt>
      <trkpt lat="42.9909" lon="-0.22464">
        <ele>1531.9</ele>
        <time>2016-03-11T12:44:28Z</time>
      </trkpt>
      <trkpt lat="42.99086" lon="-0.22455">
        <ele>1532.1</ele>
        <time>2016-03-11T12:44:33Z</time>
      </trkpt>
      <trkpt lat="42.99085" lon="-0.22453">
        <ele>1532.1</ele>
        <time>2016-03-11T12:44:34Z</time>
      </trkpt>
      <trkpt lat="42.99079" lon="-0.22433">
        <ele>1534.2</ele>
        <time>2016-03-11T12:44:46Z</time>
      </trkpt>
      <trkpt lat="42.99078" lon="-0.22422">
        <ele>1534.8</ele>
        <time>2016-03-11T12:44:52Z</time>
      </trkpt>
      <trkpt lat="42.99077" lon="-0.22411">
        <ele>1535.5</ele>
        <time>2016-03-11T12:44:57Z</time>
      </trkpt>
      <trkpt lat="42.99074" lon="-0.22399">
        <ele>1535.8</ele>
        <time>2016-03-11T12:45:02Z</time>
      </trkpt>
      <trkpt lat="42.99072" lon="-0.22387">
        <ele>1536</ele>
        <time>2016-03-11T12:45:07Z</time>
      </trkpt>
      <trkpt lat="42.9907" lon="-0.22377">
        <ele>1536.3</ele>
        <time>2016-03-11T12:45:11Z</time>
      </trkpt>
      <trkpt lat="42.99066" lon="-0.22367">
        <ele>1535.7</ele>
        <time>2016-03-11T12:45:15Z</time>
      </trkpt>
      <trkpt lat="42.99063" lon="-0.22357">
        <ele>1535.6</ele>
        <time>2016-03-11T12:45:19Z</time>
      </trkpt>
      <trkpt lat="42.9906" lon="-0.22346">
        <ele>1535.7</ele>
        <time>2016-03-11T12:45:23Z</time>
      </trkpt>
      <trkpt lat="42.99057" lon="-0.22337">
        <ele>1536.8</ele>
        <time>2016-03-11T12:45:27Z</time>
      </trkpt>
      <trkpt lat="42.99053" lon="-0.22328">
        <ele>1536.9</ele>
        <time>2016-03-11T12:45:30Z</time>
      </trkpt>
      <trkpt lat="42.99048" lon="-0.2232">
        <ele>1536.5</ele>
        <time>2016-03-11T12:45:33Z</time>
      </trkpt>
      <trkpt lat="42.99042" lon="-0.22311">
        <ele>1535.8</ele>
        <time>2016-03-11T12:45:36Z</time>
      </trkpt>
      <trkpt lat="42.99041" lon="-0.22308">
        <ele>1535.5</ele>
        <time>2016-03-11T12:45:37Z</time>
      </trkpt>
      <trkpt lat="42.99031" lon="-0.22297">
        <ele>1534.4</ele>
        <time>2016-03-11T12:45:42Z</time>
      </trkpt>
      <trkpt lat="42.99024" lon="-0.2229">
        <ele>1533.9</ele>
        <time>2016-03-11T12:45:46Z</time>
      </trkpt>
      <trkpt lat="42.99018" lon="-0.22284">
        <ele>1533.8</ele>
        <time>2016-03-11T12:45:49Z</time>
      </trkpt>
      <trkpt lat="42.99012" lon="-0.22279">
        <ele>1534.2</ele>
        <time>2016-03-11T12:45:52Z</time>
      </trkpt>
      <trkpt lat="42.99006" lon="-0.22272">
        <ele>1534.6</ele>
        <time>2016-03-11T12:45:56Z</time>
      </trkpt>
      <trkpt lat="42.98999" lon="-0.22265">
        <ele>1535.3</ele>
        <time>2016-03-11T12:46:00Z</time>
      </trkpt>
      <trkpt lat="42.98992" lon="-0.22258">
        <ele>1535.3</ele>
        <time>2016-03-11T12:46:04Z</time>
      </trkpt>
      <trkpt lat="42.98986" lon="-0.22251">
        <ele>1535.5</ele>
        <time>2016-03-11T12:46:08Z</time>
      </trkpt>
      <trkpt lat="42.9898" lon="-0.22243">
        <ele>1535.4</ele>
        <time>2016-03-11T12:46:12Z</time>
      </trkpt>
      <trkpt lat="42.98975" lon="-0.22236">
        <ele>1535.1</ele>
        <time>2016-03-11T12:46:16Z</time>
      </trkpt>
      <trkpt lat="42.98968" lon="-0.22228">
        <ele>1534.7</ele>
        <time>2016-03-11T12:46:20Z</time>
      </trkpt>
      <trkpt lat="42.98962" lon="-0.22221">
        <ele>1534.7</ele>
        <time>2016-03-11T12:46:24Z</time>
      </trkpt>
      <trkpt lat="42.98955" lon="-0.22213">
        <ele>1535.1</ele>
        <time>2016-03-11T12:46:28Z</time>
      </trkpt>
      <trkpt lat="42.98949" lon="-0.22206">
        <ele>1534.1</ele>
        <time>2016-03-11T12:46:33Z</time>
      </trkpt>
      <trkpt lat="42.98942" lon="-0.222">
        <ele>1534.6</ele>
        <time>2016-03-11T12:46:37Z</time>
      </trkpt>
      <trkpt lat="42.9894" lon="-0.22198">
        <ele>1534.7</ele>
        <time>2016-03-11T12:46:38Z</time>
      </trkpt>
      <trkpt lat="42.98929" lon="-0.2219">
        <ele>1534.2</ele>
        <time>2016-03-11T12:46:43Z</time>
      </trkpt>
      <trkpt lat="42.98922" lon="-0.22188">
        <ele>1533.6</ele>
        <time>2016-03-11T12:46:46Z</time>
      </trkpt>
      <trkpt lat="42.98914" lon="-0.22185">
        <ele>1532.8</ele>
        <time>2016-03-11T12:46:50Z</time>
      </trkpt>
      <trkpt lat="42.98905" lon="-0.22184">
        <ele>1533.2</ele>
        <time>2016-03-11T12:46:55Z</time>
      </trkpt>
      <trkpt lat="42.98896" lon="-0.22182">
        <ele>1533.9</ele>
        <time>2016-03-11T12:47:00Z</time>
      </trkpt>
      <trkpt lat="42.9889" lon="-0.22177">
        <ele>1533.7</ele>
        <time>2016-03-11T12:47:03Z</time>
      </trkpt>
      <trkpt lat="42.98884" lon="-0.22171">
        <ele>1533.4</ele>
        <time>2016-03-11T12:47:06Z</time>
      </trkpt>
      <trkpt lat="42.9888" lon="-0.22162">
        <ele>1533.5</ele>
        <time>2016-03-11T12:47:10Z</time>
      </trkpt>
      <trkpt lat="42.98875" lon="-0.22152">
        <ele>1533.4</ele>
        <time>2016-03-11T12:47:15Z</time>
      </trkpt>
      <trkpt lat="42.98871" lon="-0.22144">
        <ele>1533.7</ele>
        <time>2016-03-11T12:47:19Z</time>
      </trkpt>
      <trkpt lat="42.98867" lon="-0.22133">
        <ele>1533.4</ele>
        <time>2016-03-11T12:47:23Z</time>
      </trkpt>
      <trkpt lat="42.98866" lon="-0.22123">
        <ele>1533.5</ele>
        <time>2016-03-11T12:47:28Z</time>
      </trkpt>
      <trkpt lat="42.98865" lon="-0.22112">
        <ele>1533.3</ele>
        <time>2016-03-11T12:47:33Z</time>
      </trkpt>
      <trkpt lat="42.98863" lon="-0.22101">
        <ele>1533.4</ele>
        <time>2016-03-11T12:47:37Z</time>
      </trkpt>
      <trkpt lat="42.98862" lon="-0.22089">
        <ele>1533.4</ele>
        <time>2016-03-11T12:47:42Z</time>
      </trkpt>
      <trkpt lat="42.98862" lon="-0.22087">
        <ele>1533.5</ele>
        <time>2016-03-11T12:47:43Z</time>
      </trkpt>
      <trkpt lat="42.98862" lon="-0.22069">
        <ele>1533.6</ele>
        <time>2016-03-11T12:47:50Z</time>
      </trkpt>
      <trkpt lat="42.98862" lon="-0.22057">
        <ele>1534.1</ele>
        <time>2016-03-11T12:47:55Z</time>
      </trkpt>
      <trkpt lat="42.98865" lon="-0.22048">
        <ele>1534.1</ele>
        <time>2016-03-11T12:47:59Z</time>
      </trkpt>
      <trkpt lat="42.98866" lon="-0.22038">
        <ele>1534.4</ele>
        <time>2016-03-11T12:48:03Z</time>
      </trkpt>
      <trkpt lat="42.98868" lon="-0.22029">
        <ele>1534.7</ele>
        <time>2016-03-11T12:48:06Z</time>
      </trkpt>
      <trkpt lat="42.98868" lon="-0.22019">
        <ele>1534.9</ele>
        <time>2016-03-11T12:48:09Z</time>
      </trkpt>
      <trkpt lat="42.98869" lon="-0.2201">
        <ele>1534.6</ele>
        <time>2016-03-11T12:48:12Z</time>
      </trkpt>
      <trkpt lat="42.9887" lon="-0.21998">
        <ele>1534</ele>
        <time>2016-03-11T12:48:15Z</time>
      </trkpt>
      <trkpt lat="42.98871" lon="-0.21988">
        <ele>1533.9</ele>
        <time>2016-03-11T12:48:17Z</time>
      </trkpt>
      <trkpt lat="42.98872" lon="-0.21979">
        <ele>1533.1</ele>
        <time>2016-03-11T12:48:19Z</time>
      </trkpt>
      <trkpt lat="42.98873" lon="-0.2197">
        <ele>1532.5</ele>
        <time>2016-03-11T12:48:21Z</time>
      </trkpt>
      <trkpt lat="42.98875" lon="-0.21961">
        <ele>1532.1</ele>
        <time>2016-03-11T12:48:23Z</time>
      </trkpt>
      <trkpt lat="42.98879" lon="-0.21953">
        <ele>1531.9</ele>
        <time>2016-03-11T12:48:25Z</time>
      </trkpt>
      <trkpt lat="42.9888" lon="-0.21943">
        <ele>1531.6</ele>
        <time>2016-03-11T12:48:28Z</time>
      </trkpt>
      <trkpt lat="42.98883" lon="-0.21931">
        <ele>1530.7</ele>
        <time>2016-03-11T12:48:32Z</time>
      </trkpt>
      <trkpt lat="42.98885" lon="-0.2192">
        <ele>1530.1</ele>
        <time>2016-03-11T12:48:35Z</time>
      </trkpt>
      <trkpt lat="42.98887" lon="-0.21912">
        <ele>1529.7</ele>
        <time>2016-03-11T12:48:37Z</time>
      </trkpt>
      <trkpt lat="42.9889" lon="-0.21901">
        <ele>1528.8</ele>
        <time>2016-03-11T12:48:40Z</time>
      </trkpt>
      <trkpt lat="42.98892" lon="-0.2189">
        <ele>1528</ele>
        <time>2016-03-11T12:48:43Z</time>
      </trkpt>
      <trkpt lat="42.98894" lon="-0.21886">
        <ele>1528</ele>
        <time>2016-03-11T12:48:44Z</time>
      </trkpt>
      <trkpt lat="42.98898" lon="-0.21873">
        <ele>1527.6</ele>
        <time>2016-03-11T12:48:47Z</time>
      </trkpt>
      <trkpt lat="42.98899" lon="-0.21864">
        <ele>1527.2</ele>
        <time>2016-03-11T12:48:49Z</time>
      </trkpt>
      <trkpt lat="42.98899" lon="-0.21853">
        <ele>1526.5</ele>
        <time>2016-03-11T12:48:52Z</time>
      </trkpt>
      <trkpt lat="42.98898" lon="-0.21842">
        <ele>1526</ele>
        <time>2016-03-11T12:48:56Z</time>
      </trkpt>
      <trkpt lat="42.98896" lon="-0.21831">
        <ele>1526.1</ele>
        <time>2016-03-11T12:49:00Z</time>
      </trkpt>
      <trkpt lat="42.98895" lon="-0.21819">
        <ele>1525.2</ele>
        <time>2016-03-11T12:49:04Z</time>
      </trkpt>
      <trkpt lat="42.98894" lon="-0.21807">
        <ele>1524.7</ele>
        <time>2016-03-11T12:49:07Z</time>
      </trkpt>
      <trkpt lat="42.98894" lon="-0.21798">
        <ele>1524.3</ele>
        <time>2016-03-11T12:49:09Z</time>
      </trkpt>
      <trkpt lat="42.98894" lon="-0.21788">
        <ele>1523.9</ele>
        <time>2016-03-11T12:49:11Z</time>
      </trkpt>
      <trkpt lat="42.98893" lon="-0.21778">
        <ele>1523.7</ele>
        <time>2016-03-11T12:49:13Z</time>
      </trkpt>
      <trkpt lat="42.98892" lon="-0.21768">
        <ele>1522.9</ele>
        <time>2016-03-11T12:49:15Z</time>
      </trkpt>
      <trkpt lat="42.98892" lon="-0.21759">
        <ele>1522</ele>
        <time>2016-03-11T12:49:17Z</time>
      </trkpt>
      <trkpt lat="42.98893" lon="-0.21747">
        <ele>1521.1</ele>
        <time>2016-03-11T12:49:20Z</time>
      </trkpt>
      <trkpt lat="42.98892" lon="-0.21735">
        <ele>1520.4</ele>
        <time>2016-03-11T12:49:23Z</time>
      </trkpt>
      <trkpt lat="42.9889" lon="-0.21724">
        <ele>1519.6</ele>
        <time>2016-03-11T12:49:26Z</time>
      </trkpt>
      <trkpt lat="42.98887" lon="-0.21713">
        <ele>1519</ele>
        <time>2016-03-11T12:49:30Z</time>
      </trkpt>
      <trkpt lat="42.98884" lon="-0.21702">
        <ele>1518</ele>
        <time>2016-03-11T12:49:34Z</time>
      </trkpt>
      <trkpt lat="42.98881" lon="-0.21691">
        <ele>1517.5</ele>
        <time>2016-03-11T12:49:38Z</time>
      </trkpt>
      <trkpt lat="42.98876" lon="-0.21682">
        <ele>1517.7</ele>
        <time>2016-03-11T12:49:42Z</time>
      </trkpt>
      <trkpt lat="42.98871" lon="-0.21673">
        <ele>1517.7</ele>
        <time>2016-03-11T12:49:46Z</time>
      </trkpt>
      <trkpt lat="42.9887" lon="-0.21671">
        <ele>1517.6</ele>
        <time>2016-03-11T12:49:47Z</time>
      </trkpt>
      <trkpt lat="42.98858" lon="-0.21664">
        <ele>1516.9</ele>
        <time>2016-03-11T12:49:54Z</time>
      </trkpt>
      <trkpt lat="42.98849" lon="-0.21662">
        <ele>1516.7</ele>
        <time>2016-03-11T12:49:58Z</time>
      </trkpt>
      <trkpt lat="42.98841" lon="-0.21663">
        <ele>1516.8</ele>
        <time>2016-03-11T12:50:02Z</time>
      </trkpt>
      <trkpt lat="42.98833" lon="-0.21666">
        <ele>1515.4</ele>
        <time>2016-03-11T12:50:05Z</time>
      </trkpt>
      <trkpt lat="42.98824" lon="-0.21669">
        <ele>1514.5</ele>
        <time>2016-03-11T12:50:08Z</time>
      </trkpt>
      <trkpt lat="42.98818" lon="-0.21671">
        <ele>1514.4</ele>
        <time>2016-03-11T12:50:10Z</time>
      </trkpt>
      <trkpt lat="42.98812" lon="-0.21673">
        <ele>1514.4</ele>
        <time>2016-03-11T12:50:12Z</time>
      </trkpt>
      <trkpt lat="42.98806" lon="-0.21676">
        <ele>1514.1</ele>
        <time>2016-03-11T12:50:14Z</time>
      </trkpt>
      <trkpt lat="42.98798" lon="-0.21677">
        <ele>1513.5</ele>
        <time>2016-03-11T12:50:16Z</time>
      </trkpt>
      <trkpt lat="42.9879" lon="-0.21678">
        <ele>1512.9</ele>
        <time>2016-03-11T12:50:18Z</time>
      </trkpt>
      <trkpt lat="42.98783" lon="-0.21679">
        <ele>1511.6</ele>
        <time>2016-03-11T12:50:20Z</time>
      </trkpt>
      <trkpt lat="42.98776" lon="-0.21679">
        <ele>1510.7</ele>
        <time>2016-03-11T12:50:22Z</time>
      </trkpt>
      <trkpt lat="42.98769" lon="-0.21679">
        <ele>1510.2</ele>
        <time>2016-03-11T12:50:24Z</time>
      </trkpt>
      <trkpt lat="42.98762" lon="-0.21677">
        <ele>1509.9</ele>
        <time>2016-03-11T12:50:26Z</time>
      </trkpt>
      <trkpt lat="42.98755" lon="-0.21675">
        <ele>1509.8</ele>
        <time>2016-03-11T12:50:28Z</time>
      </trkpt>
      <trkpt lat="42.98749" lon="-0.21674">
        <ele>1509.5</ele>
        <time>2016-03-11T12:50:30Z</time>
      </trkpt>
      <trkpt lat="42.98741" lon="-0.2167">
        <ele>1508.9</ele>
        <time>2016-03-11T12:50:33Z</time>
      </trkpt>
      <trkpt lat="42.98735" lon="-0.21667">
        <ele>1508.4</ele>
        <time>2016-03-11T12:50:35Z</time>
      </trkpt>
      <trkpt lat="42.98727" lon="-0.21662">
        <ele>1507.8</ele>
        <time>2016-03-11T12:50:38Z</time>
      </trkpt>
      <trkpt lat="42.9872" lon="-0.21658">
        <ele>1507.5</ele>
        <time>2016-03-11T12:50:40Z</time>
      </trkpt>
      <trkpt lat="42.98713" lon="-0.21654">
        <ele>1506.7</ele>
        <time>2016-03-11T12:50:42Z</time>
      </trkpt>
      <trkpt lat="42.98706" lon="-0.21651">
        <ele>1505.9</ele>
        <time>2016-03-11T12:50:44Z</time>
      </trkpt>
      <trkpt lat="42.98698" lon="-0.21649">
        <ele>1505.4</ele>
        <time>2016-03-11T12:50:46Z</time>
      </trkpt>
      <trkpt lat="42.98693" lon="-0.21649">
        <ele>1505.3</ele>
        <time>2016-03-11T12:50:47Z</time>
      </trkpt>
      <trkpt lat="42.98689" lon="-0.21649">
        <ele>1504.8</ele>
        <time>2016-03-11T12:50:48Z</time>
      </trkpt>
      <trkpt lat="42.98677" lon="-0.21652">
        <ele>1503.6</ele>
        <time>2016-03-11T12:50:51Z</time>
      </trkpt>
      <trkpt lat="42.98668" lon="-0.21652">
        <ele>1502.3</ele>
        <time>2016-03-11T12:50:54Z</time>
      </trkpt>
      <trkpt lat="42.9866" lon="-0.21654">
        <ele>1501.6</ele>
        <time>2016-03-11T12:50:57Z</time>
      </trkpt>
      <trkpt lat="42.98653" lon="-0.21656">
        <ele>1501.6</ele>
        <time>2016-03-11T12:51:01Z</time>
      </trkpt>
      <trkpt lat="42.98645" lon="-0.21659">
        <ele>1501.5</ele>
        <time>2016-03-11T12:51:05Z</time>
      </trkpt>
      <trkpt lat="42.98637" lon="-0.21658">
        <ele>1501.2</ele>
        <time>2016-03-11T12:51:08Z</time>
      </trkpt>
      <trkpt lat="42.98635" lon="-0.21648">
        <ele>1500.6</ele>
        <time>2016-03-11T12:51:13Z</time>
      </trkpt>
      <trkpt lat="42.98642" lon="-0.21643">
        <ele>1499.3</ele>
        <time>2016-03-11T12:51:16Z</time>
      </trkpt>
      <trkpt lat="42.9865" lon="-0.21637">
        <ele>1497.5</ele>
        <time>2016-03-11T12:51:24Z</time>
      </trkpt>
      <trkpt lat="42.98657" lon="-0.21636">
        <ele>1496.3</ele>
        <time>2016-03-11T12:51:29Z</time>
      </trkpt>
      <trkpt lat="42.98666" lon="-0.21633">
        <ele>1496.8</ele>
        <time>2016-03-11T12:51:36Z</time>
      </trkpt>
      <trkpt lat="42.98673" lon="-0.21631">
        <ele>1497.5</ele>
        <time>2016-03-11T12:51:41Z</time>
      </trkpt>
      <trkpt lat="42.98682" lon="-0.21631">
        <ele>1498.3</ele>
        <time>2016-03-11T12:51:47Z</time>
      </trkpt>
      <trkpt lat="42.98689" lon="-0.21632">
        <ele>1499</ele>
        <time>2016-03-11T12:51:52Z</time>
      </trkpt>
      <trkpt lat="42.98691" lon="-0.21633">
        <ele>1499.3</ele>
        <time>2016-03-11T12:51:53Z</time>
      </trkpt>
      <trkpt lat="42.98706" lon="-0.21635">
        <ele>1499</ele>
        <time>2016-03-11T12:51:58Z</time>
      </trkpt>
      <trkpt lat="42.98713" lon="-0.21636">
        <ele>1498.4</ele>
        <time>2016-03-11T12:52:00Z</time>
      </trkpt>
      <trkpt lat="42.9872" lon="-0.21637">
        <ele>1498.5</ele>
        <time>2016-03-11T12:52:02Z</time>
      </trkpt>
      <trkpt lat="42.98727" lon="-0.21638">
        <ele>1498.5</ele>
        <time>2016-03-11T12:52:04Z</time>
      </trkpt>
      <trkpt lat="42.98733" lon="-0.21638">
        <ele>1497.9</ele>
        <time>2016-03-11T12:52:06Z</time>
      </trkpt>
      <trkpt lat="42.98741" lon="-0.21641">
        <ele>1496.7</ele>
        <time>2016-03-11T12:52:09Z</time>
      </trkpt>
      <trkpt lat="42.9875" lon="-0.21642">
        <ele>1496.3</ele>
        <time>2016-03-11T12:52:13Z</time>
      </trkpt>
      <trkpt lat="42.98757" lon="-0.2164">
        <ele>1496</ele>
        <time>2016-03-11T12:52:16Z</time>
      </trkpt>
      <trkpt lat="42.98766" lon="-0.21642">
        <ele>1495.8</ele>
        <time>2016-03-11T12:52:20Z</time>
      </trkpt>
      <trkpt lat="42.98772" lon="-0.2164">
        <ele>1495</ele>
        <time>2016-03-11T12:52:24Z</time>
      </trkpt>
      <trkpt lat="42.98781" lon="-0.21638">
        <ele>1495.3</ele>
        <time>2016-03-11T12:52:28Z</time>
      </trkpt>
      <trkpt lat="42.98789" lon="-0.21634">
        <ele>1494.8</ele>
        <time>2016-03-11T12:52:31Z</time>
      </trkpt>
      <trkpt lat="42.98796" lon="-0.21632">
        <ele>1494.3</ele>
        <time>2016-03-11T12:52:33Z</time>
      </trkpt>
      <trkpt lat="42.98803" lon="-0.21626">
        <ele>1493.7</ele>
        <time>2016-03-11T12:52:36Z</time>
      </trkpt>
      <trkpt lat="42.98809" lon="-0.21622">
        <ele>1493.4</ele>
        <time>2016-03-11T12:52:38Z</time>
      </trkpt>
      <trkpt lat="42.98817" lon="-0.21615">
        <ele>1493.2</ele>
        <time>2016-03-11T12:52:41Z</time>
      </trkpt>
      <trkpt lat="42.98821" lon="-0.21609">
        <ele>1492.7</ele>
        <time>2016-03-11T12:52:43Z</time>
      </trkpt>
      <trkpt lat="42.98825" lon="-0.21602">
        <ele>1492.2</ele>
        <time>2016-03-11T12:52:45Z</time>
      </trkpt>
      <trkpt lat="42.98831" lon="-0.21593">
        <ele>1491.6</ele>
        <time>2016-03-11T12:52:48Z</time>
      </trkpt>
      <trkpt lat="42.98839" lon="-0.21587">
        <ele>1490.3</ele>
        <time>2016-03-11T12:52:51Z</time>
      </trkpt>
      <trkpt lat="42.98845" lon="-0.21583">
        <ele>1489.5</ele>
        <time>2016-03-11T12:52:53Z</time>
      </trkpt>
      <trkpt lat="42.98849" lon="-0.21581">
        <ele>1489.3</ele>
        <time>2016-03-11T12:52:54Z</time>
      </trkpt>
      <trkpt lat="42.98857" lon="-0.21577">
        <ele>1488.9</ele>
        <time>2016-03-11T12:52:56Z</time>
      </trkpt>
      <trkpt lat="42.98865" lon="-0.21572">
        <ele>1488.6</ele>
        <time>2016-03-11T12:52:58Z</time>
      </trkpt>
      <trkpt lat="42.98871" lon="-0.21567">
        <ele>1487.9</ele>
        <time>2016-03-11T12:53:00Z</time>
      </trkpt>
      <trkpt lat="42.98877" lon="-0.21559">
        <ele>1486.8</ele>
        <time>2016-03-11T12:53:02Z</time>
      </trkpt>
      <trkpt lat="42.98882" lon="-0.21551">
        <ele>1485.6</ele>
        <time>2016-03-11T12:53:04Z</time>
      </trkpt>
      <trkpt lat="42.98886" lon="-0.21543">
        <ele>1485.3</ele>
        <time>2016-03-11T12:53:06Z</time>
      </trkpt>
      <trkpt lat="42.9889" lon="-0.21534">
        <ele>1484.5</ele>
        <time>2016-03-11T12:53:09Z</time>
      </trkpt>
      <trkpt lat="42.98893" lon="-0.21525">
        <ele>1483.8</ele>
        <time>2016-03-11T12:53:12Z</time>
      </trkpt>
      <trkpt lat="42.98896" lon="-0.21514">
        <ele>1483.3</ele>
        <time>2016-03-11T12:53:15Z</time>
      </trkpt>
      <trkpt lat="42.98898" lon="-0.21504">
        <ele>1482.8</ele>
        <time>2016-03-11T12:53:18Z</time>
      </trkpt>
      <trkpt lat="42.98902" lon="-0.21494">
        <ele>1482.3</ele>
        <time>2016-03-11T12:53:21Z</time>
      </trkpt>
      <trkpt lat="42.98905" lon="-0.21485">
        <ele>1481.9</ele>
        <time>2016-03-11T12:53:24Z</time>
      </trkpt>
      <trkpt lat="42.9891" lon="-0.21477">
        <ele>1481.6</ele>
        <time>2016-03-11T12:53:27Z</time>
      </trkpt>
      <trkpt lat="42.98913" lon="-0.21468">
        <ele>1481.3</ele>
        <time>2016-03-11T12:53:30Z</time>
      </trkpt>
      <trkpt lat="42.98918" lon="-0.21459">
        <ele>1481.3</ele>
        <time>2016-03-11T12:53:33Z</time>
      </trkpt>
      <trkpt lat="42.98922" lon="-0.21451">
        <ele>1481.2</ele>
        <time>2016-03-11T12:53:36Z</time>
      </trkpt>
      <trkpt lat="42.98925" lon="-0.2144">
        <ele>1480.4</ele>
        <time>2016-03-11T12:53:39Z</time>
      </trkpt>
      <trkpt lat="42.98927" lon="-0.2143">
        <ele>1479.9</ele>
        <time>2016-03-11T12:53:42Z</time>
      </trkpt>
      <trkpt lat="42.98929" lon="-0.21422">
        <ele>1479.3</ele>
        <time>2016-03-11T12:53:44Z</time>
      </trkpt>
      <trkpt lat="42.98932" lon="-0.21414">
        <ele>1478.6</ele>
        <time>2016-03-11T12:53:46Z</time>
      </trkpt>
      <trkpt lat="42.98935" lon="-0.21405">
        <ele>1477.6</ele>
        <time>2016-03-11T12:53:48Z</time>
      </trkpt>
      <trkpt lat="42.98939" lon="-0.21398">
        <ele>1477.5</ele>
        <time>2016-03-11T12:53:50Z</time>
      </trkpt>
      <trkpt lat="42.98945" lon="-0.21392">
        <ele>1477.8</ele>
        <time>2016-03-11T12:53:52Z</time>
      </trkpt>
      <trkpt lat="42.9895" lon="-0.21389">
        <ele>1476.6</ele>
        <time>2016-03-11T12:53:54Z</time>
      </trkpt>
      <trkpt lat="42.98953" lon="-0.21387">
        <ele>1476.2</ele>
        <time>2016-03-11T12:53:55Z</time>
      </trkpt>
      <trkpt lat="42.98963" lon="-0.21384">
        <ele>1475.1</ele>
        <time>2016-03-11T12:53:58Z</time>
      </trkpt>
      <trkpt lat="42.98971" lon="-0.21379">
        <ele>1473.9</ele>
        <time>2016-03-11T12:54:01Z</time>
      </trkpt>
      <trkpt lat="42.98977" lon="-0.21374">
        <ele>1473.4</ele>
        <time>2016-03-11T12:54:03Z</time>
      </trkpt>
      <trkpt lat="42.98983" lon="-0.21369">
        <ele>1473</ele>
        <time>2016-03-11T12:54:05Z</time>
      </trkpt>
      <trkpt lat="42.98989" lon="-0.21362">
        <ele>1472.5</ele>
        <time>2016-03-11T12:54:07Z</time>
      </trkpt>
      <trkpt lat="42.98993" lon="-0.21357">
        <ele>1472.3</ele>
        <time>2016-03-11T12:54:08Z</time>
      </trkpt>
      <trkpt lat="42.98996" lon="-0.21353">
        <ele>1471.9</ele>
        <time>2016-03-11T12:54:09Z</time>
      </trkpt>
      <trkpt lat="42.98999" lon="-0.21348">
        <ele>1471.5</ele>
        <time>2016-03-11T12:54:10Z</time>
      </trkpt>
      <trkpt lat="42.99002" lon="-0.21343">
        <ele>1471.3</ele>
        <time>2016-03-11T12:54:11Z</time>
      </trkpt>
      <trkpt lat="42.99004" lon="-0.21337">
        <ele>1470.4</ele>
        <time>2016-03-11T12:54:12Z</time>
      </trkpt>
      <trkpt lat="42.99006" lon="-0.21332">
        <ele>1469.8</ele>
        <time>2016-03-11T12:54:13Z</time>
      </trkpt>
      <trkpt lat="42.99008" lon="-0.21327">
        <ele>1469.3</ele>
        <time>2016-03-11T12:54:14Z</time>
      </trkpt>
      <trkpt lat="42.99012" lon="-0.21316">
        <ele>1468.1</ele>
        <time>2016-03-11T12:54:16Z</time>
      </trkpt>
      <trkpt lat="42.99015" lon="-0.21307">
        <ele>1467.4</ele>
        <time>2016-03-11T12:54:18Z</time>
      </trkpt>
      <trkpt lat="42.99017" lon="-0.21296">
        <ele>1466.8</ele>
        <time>2016-03-11T12:54:21Z</time>
      </trkpt>
      <trkpt lat="42.99018" lon="-0.21287">
        <ele>1467.1</ele>
        <time>2016-03-11T12:54:25Z</time>
      </trkpt>
      <trkpt lat="42.9902" lon="-0.21276">
        <ele>1467</ele>
        <time>2016-03-11T12:54:29Z</time>
      </trkpt>
      <trkpt lat="42.99024" lon="-0.21267">
        <ele>1467.2</ele>
        <time>2016-03-11T12:54:33Z</time>
      </trkpt>
      <trkpt lat="42.99027" lon="-0.21257">
        <ele>1466.8</ele>
        <time>2016-03-11T12:54:37Z</time>
      </trkpt>
      <trkpt lat="42.99032" lon="-0.21249">
        <ele>1466.9</ele>
        <time>2016-03-11T12:54:41Z</time>
      </trkpt>
      <trkpt lat="42.99037" lon="-0.21241">
        <ele>1467.3</ele>
        <time>2016-03-11T12:54:45Z</time>
      </trkpt>
      <trkpt lat="42.99042" lon="-0.21232">
        <ele>1466.8</ele>
        <time>2016-03-11T12:54:50Z</time>
      </trkpt>
      <trkpt lat="42.99047" lon="-0.21223">
        <ele>1467.1</ele>
        <time>2016-03-11T12:54:53Z</time>
      </trkpt>
      <trkpt lat="42.9905" lon="-0.21217">
        <ele>1466.7</ele>
        <time>2016-03-11T12:54:55Z</time>
      </trkpt>
      <trkpt lat="42.99053" lon="-0.21214">
        <ele>1466.6</ele>
        <time>2016-03-11T12:54:56Z</time>
      </trkpt>
      <trkpt lat="42.9906" lon="-0.21201">
        <ele>1464.7</ele>
        <time>2016-03-11T12:54:59Z</time>
      </trkpt>
      <trkpt lat="42.99065" lon="-0.21192">
        <ele>1463.1</ele>
        <time>2016-03-11T12:55:01Z</time>
      </trkpt>
      <trkpt lat="42.9907" lon="-0.21185">
        <ele>1462</ele>
        <time>2016-03-11T12:55:03Z</time>
      </trkpt>
      <trkpt lat="42.99075" lon="-0.21177">
        <ele>1461.3</ele>
        <time>2016-03-11T12:55:05Z</time>
      </trkpt>
      <trkpt lat="42.9908" lon="-0.21169">
        <ele>1460.7</ele>
        <time>2016-03-11T12:55:07Z</time>
      </trkpt>
      <trkpt lat="42.99085" lon="-0.21162">
        <ele>1460.3</ele>
        <time>2016-03-11T12:55:09Z</time>
      </trkpt>
      <trkpt lat="42.9909" lon="-0.21155">
        <ele>1460</ele>
        <time>2016-03-11T12:55:11Z</time>
      </trkpt>
      <trkpt lat="42.99095" lon="-0.21147">
        <ele>1459.3</ele>
        <time>2016-03-11T12:55:13Z</time>
      </trkpt>
      <trkpt lat="42.991" lon="-0.2114">
        <ele>1458.4</ele>
        <time>2016-03-11T12:55:15Z</time>
      </trkpt>
      <trkpt lat="42.99109" lon="-0.21142">
        <ele>1456.3</ele>
        <time>2016-03-11T12:55:25Z</time>
      </trkpt>
      <trkpt lat="42.9911" lon="-0.21151">
        <ele>1455.4</ele>
        <time>2016-03-11T12:55:28Z</time>
      </trkpt>
      <trkpt lat="42.9911" lon="-0.21163">
        <ele>1454.4</ele>
        <time>2016-03-11T12:55:31Z</time>
      </trkpt>
      <trkpt lat="42.9911" lon="-0.21175">
        <ele>1453.1</ele>
        <time>2016-03-11T12:55:34Z</time>
      </trkpt>
      <trkpt lat="42.99109" lon="-0.21185">
        <ele>1452.5</ele>
        <time>2016-03-11T12:55:37Z</time>
      </trkpt>
      <trkpt lat="42.99108" lon="-0.21196">
        <ele>1451.5</ele>
        <time>2016-03-11T12:55:41Z</time>
      </trkpt>
      <trkpt lat="42.99105" lon="-0.21207">
        <ele>1451.3</ele>
        <time>2016-03-11T12:55:46Z</time>
      </trkpt>
      <trkpt lat="42.99102" lon="-0.21216">
        <ele>1451.3</ele>
        <time>2016-03-11T12:55:50Z</time>
      </trkpt>
      <trkpt lat="42.99098" lon="-0.21226">
        <ele>1451.8</ele>
        <time>2016-03-11T12:55:55Z</time>
      </trkpt>
      <trkpt lat="42.99093" lon="-0.21236">
        <ele>1451.5</ele>
        <time>2016-03-11T12:56:00Z</time>
      </trkpt>
      <trkpt lat="42.99092" lon="-0.21238">
        <ele>1451.4</ele>
        <time>2016-03-11T12:56:01Z</time>
      </trkpt>
      <trkpt lat="42.99085" lon="-0.21256">
        <ele>1451.7</ele>
        <time>2016-03-11T12:56:10Z</time>
      </trkpt>
      <trkpt lat="42.9908" lon="-0.21265">
        <ele>1452.1</ele>
        <time>2016-03-11T12:56:15Z</time>
      </trkpt>
      <trkpt lat="42.99076" lon="-0.21274">
        <ele>1452.6</ele>
        <time>2016-03-11T12:56:20Z</time>
      </trkpt>
      <trkpt lat="42.99072" lon="-0.21284">
        <ele>1453.1</ele>
        <time>2016-03-11T12:56:25Z</time>
      </trkpt>
      <trkpt lat="42.99068" lon="-0.21294">
        <ele>1454.1</ele>
        <time>2016-03-11T12:56:31Z</time>
      </trkpt>
      <trkpt lat="42.99064" lon="-0.21305">
        <ele>1454.1</ele>
        <time>2016-03-11T12:56:37Z</time>
      </trkpt>
      <trkpt lat="42.9906" lon="-0.21315">
        <ele>1455.4</ele>
        <time>2016-03-11T12:56:43Z</time>
      </trkpt>
      <trkpt lat="42.99056" lon="-0.21325">
        <ele>1455.6</ele>
        <time>2016-03-11T12:56:49Z</time>
      </trkpt>
      <trkpt lat="42.99054" lon="-0.21335">
        <ele>1456</ele>
        <time>2016-03-11T12:56:54Z</time>
      </trkpt>
      <trkpt lat="42.99051" lon="-0.21345">
        <ele>1457.1</ele>
        <time>2016-03-11T12:56:59Z</time>
      </trkpt>
      <trkpt lat="42.99048" lon="-0.21357">
        <ele>1457</ele>
        <time>2016-03-11T12:57:04Z</time>
      </trkpt>
      <trkpt lat="42.99048" lon="-0.21359">
        <ele>1457</ele>
        <time>2016-03-11T12:57:05Z</time>
      </trkpt>
      <trkpt lat="42.99044" lon="-0.21378">
        <ele>1457.5</ele>
        <time>2016-03-11T12:57:14Z</time>
      </trkpt>
      <trkpt lat="42.99041" lon="-0.21388">
        <ele>1458.1</ele>
        <time>2016-03-11T12:57:18Z</time>
      </trkpt>
      <trkpt lat="42.99038" lon="-0.21399">
        <ele>1457.8</ele>
        <time>2016-03-11T12:57:22Z</time>
      </trkpt>
      <trkpt lat="42.99036" lon="-0.2141">
        <ele>1458.7</ele>
        <time>2016-03-11T12:57:26Z</time>
      </trkpt>
      <trkpt lat="42.99034" lon="-0.21419">
        <ele>1457.8</ele>
        <time>2016-03-11T12:57:29Z</time>
      </trkpt>
      <trkpt lat="42.99032" lon="-0.21431">
        <ele>1458</ele>
        <time>2016-03-11T12:57:33Z</time>
      </trkpt>
      <trkpt lat="42.99031" lon="-0.21443">
        <ele>1456.8</ele>
        <time>2016-03-11T12:57:37Z</time>
      </trkpt>
      <trkpt lat="42.9903" lon="-0.21454">
        <ele>1456.6</ele>
        <time>2016-03-11T12:57:40Z</time>
      </trkpt>
      <trkpt lat="42.9903" lon="-0.21463">
        <ele>1456.6</ele>
        <time>2016-03-11T12:57:43Z</time>
      </trkpt>
      <trkpt lat="42.99029" lon="-0.21473">
        <ele>1456.2</ele>
        <time>2016-03-11T12:57:46Z</time>
      </trkpt>
      <trkpt lat="42.99028" lon="-0.21483">
        <ele>1455.7</ele>
        <time>2016-03-11T12:57:49Z</time>
      </trkpt>
      <trkpt lat="42.99027" lon="-0.21493">
        <ele>1455.1</ele>
        <time>2016-03-11T12:57:52Z</time>
      </trkpt>
      <trkpt lat="42.99026" lon="-0.21505">
        <ele>1454.7</ele>
        <time>2016-03-11T12:57:55Z</time>
      </trkpt>
      <trkpt lat="42.99024" lon="-0.21515">
        <ele>1454.2</ele>
        <time>2016-03-11T12:57:58Z</time>
      </trkpt>
      <trkpt lat="42.99024" lon="-0.21524">
        <ele>1453.8</ele>
        <time>2016-03-11T12:58:01Z</time>
      </trkpt>
      <trkpt lat="42.99023" lon="-0.21534">
        <ele>1453.1</ele>
        <time>2016-03-11T12:58:04Z</time>
      </trkpt>
      <trkpt lat="42.99022" lon="-0.21544">
        <ele>1453.8</ele>
        <time>2016-03-11T12:58:07Z</time>
      </trkpt>
      <trkpt lat="42.99021" lon="-0.21547">
        <ele>1453.3</ele>
        <time>2016-03-11T12:58:08Z</time>
      </trkpt>
      <trkpt lat="42.99018" lon="-0.21564">
        <ele>1451.9</ele>
        <time>2016-03-11T12:58:13Z</time>
      </trkpt>
      <trkpt lat="42.99016" lon="-0.21574">
        <ele>1451.8</ele>
        <time>2016-03-11T12:58:16Z</time>
      </trkpt>
      <trkpt lat="42.99016" lon="-0.21585">
        <ele>1451.4</ele>
        <time>2016-03-11T12:58:19Z</time>
      </trkpt>
      <trkpt lat="42.99014" lon="-0.21595">
        <ele>1450.5</ele>
        <time>2016-03-11T12:58:22Z</time>
      </trkpt>
      <trkpt lat="42.99014" lon="-0.21606">
        <ele>1450.1</ele>
        <time>2016-03-11T12:58:25Z</time>
      </trkpt>
      <trkpt lat="42.99013" lon="-0.21618">
        <ele>1449.4</ele>
        <time>2016-03-11T12:58:28Z</time>
      </trkpt>
      <trkpt lat="42.99012" lon="-0.21629">
        <ele>1449</ele>
        <time>2016-03-11T12:58:31Z</time>
      </trkpt>
      <trkpt lat="42.99012" lon="-0.2164">
        <ele>1448.8</ele>
        <time>2016-03-11T12:58:34Z</time>
      </trkpt>
      <trkpt lat="42.99012" lon="-0.21651">
        <ele>1448.4</ele>
        <time>2016-03-11T12:58:37Z</time>
      </trkpt>
      <trkpt lat="42.99011" lon="-0.21661">
        <ele>1448.4</ele>
        <time>2016-03-11T12:58:40Z</time>
      </trkpt>
      <trkpt lat="42.9901" lon="-0.21673">
        <ele>1448.4</ele>
        <time>2016-03-11T12:58:44Z</time>
      </trkpt>
      <trkpt lat="42.99009" lon="-0.21684">
        <ele>1447.8</ele>
        <time>2016-03-11T12:58:48Z</time>
      </trkpt>
      <trkpt lat="42.99007" lon="-0.21695">
        <ele>1447.5</ele>
        <time>2016-03-11T12:58:52Z</time>
      </trkpt>
      <trkpt lat="42.99005" lon="-0.21706">
        <ele>1448</ele>
        <time>2016-03-11T12:58:56Z</time>
      </trkpt>
      <trkpt lat="42.99005" lon="-0.21718">
        <ele>1448.4</ele>
        <time>2016-03-11T12:59:00Z</time>
      </trkpt>
      <trkpt lat="42.99005" lon="-0.21729">
        <ele>1448.4</ele>
        <time>2016-03-11T12:59:04Z</time>
      </trkpt>
      <trkpt lat="42.99005" lon="-0.21739">
        <ele>1447.6</ele>
        <time>2016-03-11T12:59:08Z</time>
      </trkpt>
      <trkpt lat="42.99005" lon="-0.21742">
        <ele>1447.5</ele>
        <time>2016-03-11T12:59:09Z</time>
      </trkpt>
      <trkpt lat="42.99006" lon="-0.21761">
        <ele>1446.8</ele>
        <time>2016-03-11T12:59:16Z</time>
      </trkpt>
      <trkpt lat="42.99007" lon="-0.2177">
        <ele>1447</ele>
        <time>2016-03-11T12:59:20Z</time>
      </trkpt>
      <trkpt lat="42.99007" lon="-0.21781">
        <ele>1446.9</ele>
        <time>2016-03-11T12:59:24Z</time>
      </trkpt>
      <trkpt lat="42.99008" lon="-0.21792">
        <ele>1446.9</ele>
        <time>2016-03-11T12:59:28Z</time>
      </trkpt>
      <trkpt lat="42.99009" lon="-0.21803">
        <ele>1447.2</ele>
        <time>2016-03-11T12:59:32Z</time>
      </trkpt>
      <trkpt lat="42.99011" lon="-0.21814">
        <ele>1447.3</ele>
        <time>2016-03-11T12:59:36Z</time>
      </trkpt>
      <trkpt lat="42.99012" lon="-0.21825">
        <ele>1447.7</ele>
        <time>2016-03-11T12:59:40Z</time>
      </trkpt>
      <trkpt lat="42.99012" lon="-0.21836">
        <ele>1446.8</ele>
        <time>2016-03-11T12:59:44Z</time>
      </trkpt>
      <trkpt lat="42.99014" lon="-0.21848">
        <ele>1446.3</ele>
        <time>2016-03-11T12:59:49Z</time>
      </trkpt>
      <trkpt lat="42.99015" lon="-0.2186">
        <ele>1445.9</ele>
        <time>2016-03-11T12:59:53Z</time>
      </trkpt>
      <trkpt lat="42.99017" lon="-0.21869">
        <ele>1446.3</ele>
        <time>2016-03-11T12:59:56Z</time>
      </trkpt>
      <trkpt lat="42.99018" lon="-0.21881">
        <ele>1445.8</ele>
        <time>2016-03-11T13:00:00Z</time>
      </trkpt>
      <trkpt lat="42.99018" lon="-0.21891">
        <ele>1446.2</ele>
        <time>2016-03-11T13:00:03Z</time>
      </trkpt>
      <trkpt lat="42.99019" lon="-0.21903">
        <ele>1446.1</ele>
        <time>2016-03-11T13:00:07Z</time>
      </trkpt>
      <trkpt lat="42.99019" lon="-0.21913">
        <ele>1446</ele>
        <time>2016-03-11T13:00:11Z</time>
      </trkpt>
      <trkpt lat="42.9902" lon="-0.21916">
        <ele>1446</ele>
        <time>2016-03-11T13:00:12Z</time>
      </trkpt>
      <trkpt lat="42.99022" lon="-0.21932">
        <ele>1446.1</ele>
        <time>2016-03-11T13:00:18Z</time>
      </trkpt>
      <trkpt lat="42.99025" lon="-0.21942">
        <ele>1446.1</ele>
        <time>2016-03-11T13:00:22Z</time>
      </trkpt>
      <trkpt lat="42.99031" lon="-0.2195">
        <ele>1446.4</ele>
        <time>2016-03-11T13:00:27Z</time>
      </trkpt>
      <trkpt lat="42.99038" lon="-0.21957">
        <ele>1446.6</ele>
        <time>2016-03-11T13:00:31Z</time>
      </trkpt>
      <trkpt lat="42.99043" lon="-0.21963">
        <ele>1447.3</ele>
        <time>2016-03-11T13:00:35Z</time>
      </trkpt>
      <trkpt lat="42.9905" lon="-0.21971">
        <ele>1447.2</ele>
        <time>2016-03-11T13:00:40Z</time>
      </trkpt>
      <trkpt lat="42.99056" lon="-0.21979">
        <ele>1447.9</ele>
        <time>2016-03-11T13:00:47Z</time>
      </trkpt>
      <trkpt lat="42.99063" lon="-0.21986">
        <ele>1448.3</ele>
        <time>2016-03-11T13:00:53Z</time>
      </trkpt>
      <trkpt lat="42.9907" lon="-0.2199">
        <ele>1449.8</ele>
        <time>2016-03-11T13:00:58Z</time>
      </trkpt>
      <trkpt lat="42.99078" lon="-0.21995">
        <ele>1450</ele>
        <time>2016-03-11T13:01:03Z</time>
      </trkpt>
      <trkpt lat="42.99085" lon="-0.22">
        <ele>1450.1</ele>
        <time>2016-03-11T13:01:08Z</time>
      </trkpt>
      <trkpt lat="42.99092" lon="-0.22005">
        <ele>1450.3</ele>
        <time>2016-03-11T13:01:13Z</time>
      </trkpt>
      <trkpt lat="42.99093" lon="-0.22006">
        <ele>1450.5</ele>
        <time>2016-03-11T13:01:14Z</time>
      </trkpt>
      <trkpt lat="42.99106" lon="-0.22016">
        <ele>1451.9</ele>
        <time>2016-03-11T13:01:23Z</time>
      </trkpt>
      <trkpt lat="42.99111" lon="-0.22024">
        <ele>1452.8</ele>
        <time>2016-03-11T13:01:28Z</time>
      </trkpt>
      <trkpt lat="42.99118" lon="-0.22032">
        <ele>1452.8</ele>
        <time>2016-03-11T13:01:33Z</time>
      </trkpt>
      <trkpt lat="42.99126" lon="-0.22037">
        <ele>1452.7</ele>
        <time>2016-03-11T13:01:38Z</time>
      </trkpt>
      <trkpt lat="42.99133" lon="-0.22042">
        <ele>1453</ele>
        <time>2016-03-11T13:01:42Z</time>
      </trkpt>
      <trkpt lat="42.99141" lon="-0.22047">
        <ele>1453</ele>
        <time>2016-03-11T13:01:45Z</time>
      </trkpt>
      <trkpt lat="42.99149" lon="-0.22053">
        <ele>1452.8</ele>
        <time>2016-03-11T13:01:48Z</time>
      </trkpt>
      <trkpt lat="42.99155" lon="-0.22061">
        <ele>1451.9</ele>
        <time>2016-03-11T13:01:51Z</time>
      </trkpt>
      <trkpt lat="42.99162" lon="-0.22068">
        <ele>1451.2</ele>
        <time>2016-03-11T13:01:55Z</time>
      </trkpt>
      <trkpt lat="42.99168" lon="-0.22075">
        <ele>1450.8</ele>
        <time>2016-03-11T13:01:59Z</time>
      </trkpt>
      <trkpt lat="42.99174" lon="-0.22082">
        <ele>1450.9</ele>
        <time>2016-03-11T13:02:03Z</time>
      </trkpt>
      <trkpt lat="42.9918" lon="-0.22087">
        <ele>1451.7</ele>
        <time>2016-03-11T13:02:07Z</time>
      </trkpt>
      <trkpt lat="42.99186" lon="-0.22093">
        <ele>1452</ele>
        <time>2016-03-11T13:02:10Z</time>
      </trkpt>
      <trkpt lat="42.99192" lon="-0.221">
        <ele>1451.9</ele>
        <time>2016-03-11T13:02:13Z</time>
      </trkpt>
      <trkpt lat="42.99197" lon="-0.22107">
        <ele>1451.6</ele>
        <time>2016-03-11T13:02:16Z</time>
      </trkpt>
      <trkpt lat="42.99198" lon="-0.2211">
        <ele>1451.4</ele>
        <time>2016-03-11T13:02:17Z</time>
      </trkpt>
      <trkpt lat="42.99203" lon="-0.22125">
        <ele>1450.6</ele>
        <time>2016-03-11T13:02:22Z</time>
      </trkpt>
      <trkpt lat="42.99205" lon="-0.22135">
        <ele>1449.4</ele>
        <time>2016-03-11T13:02:25Z</time>
      </trkpt>
      <trkpt lat="42.99208" lon="-0.22145">
        <ele>1449</ele>
        <time>2016-03-11T13:02:29Z</time>
      </trkpt>
      <trkpt lat="42.99216" lon="-0.22139">
        <ele>1447.7</ele>
        <time>2016-03-11T13:02:38Z</time>
      </trkpt>
      <trkpt lat="42.99214" lon="-0.22128">
        <ele>1447.3</ele>
        <time>2016-03-11T13:02:43Z</time>
      </trkpt>
      <trkpt lat="42.99212" lon="-0.22118">
        <ele>1446.8</ele>
        <time>2016-03-11T13:02:47Z</time>
      </trkpt>
      <trkpt lat="42.99211" lon="-0.22108">
        <ele>1446.3</ele>
        <time>2016-03-11T13:02:50Z</time>
      </trkpt>
      <trkpt lat="42.99209" lon="-0.22097">
        <ele>1445.8</ele>
        <time>2016-03-11T13:02:54Z</time>
      </trkpt>
      <trkpt lat="42.99208" lon="-0.22085">
        <ele>1445.4</ele>
        <time>2016-03-11T13:02:57Z</time>
      </trkpt>
      <trkpt lat="42.99212" lon="-0.22076">
        <ele>1444.7</ele>
        <time>2016-03-11T13:02:59Z</time>
      </trkpt>
      <trkpt lat="42.99216" lon="-0.22066">
        <ele>1443.9</ele>
        <time>2016-03-11T13:03:01Z</time>
      </trkpt>
      <trkpt lat="42.99219" lon="-0.22054">
        <ele>1443.1</ele>
        <time>2016-03-11T13:03:03Z</time>
      </trkpt>
      <trkpt lat="42.99223" lon="-0.22044">
        <ele>1441.9</ele>
        <time>2016-03-11T13:03:05Z</time>
      </trkpt>
      <trkpt lat="42.99228" lon="-0.22036">
        <ele>1440.8</ele>
        <time>2016-03-11T13:03:07Z</time>
      </trkpt>
      <trkpt lat="42.99233" lon="-0.22028">
        <ele>1439.8</ele>
        <time>2016-03-11T13:03:09Z</time>
      </trkpt>
      <trkpt lat="42.99237" lon="-0.22019">
        <ele>1439.3</ele>
        <time>2016-03-11T13:03:11Z</time>
      </trkpt>
      <trkpt lat="42.9924" lon="-0.22011">
        <ele>1438.3</ele>
        <time>2016-03-11T13:03:13Z</time>
      </trkpt>
      <trkpt lat="42.99243" lon="-0.22003">
        <ele>1437.6</ele>
        <time>2016-03-11T13:03:15Z</time>
      </trkpt>
      <trkpt lat="42.99246" lon="-0.21995">
        <ele>1437.2</ele>
        <time>2016-03-11T13:03:17Z</time>
      </trkpt>
      <trkpt lat="42.99248" lon="-0.21992">
        <ele>1436.8</ele>
        <time>2016-03-11T13:03:18Z</time>
      </trkpt>
      <trkpt lat="42.99258" lon="-0.21977">
        <ele>1435.8</ele>
        <time>2016-03-11T13:03:23Z</time>
      </trkpt>
      <trkpt lat="42.99262" lon="-0.21967">
        <ele>1435</ele>
        <time>2016-03-11T13:03:26Z</time>
      </trkpt>
      <trkpt lat="42.99264" lon="-0.21958">
        <ele>1434.8</ele>
        <time>2016-03-11T13:03:28Z</time>
      </trkpt>
      <trkpt lat="42.99267" lon="-0.2195">
        <ele>1434.7</ele>
        <time>2016-03-11T13:03:30Z</time>
      </trkpt>
      <trkpt lat="42.99271" lon="-0.21942">
        <ele>1434.3</ele>
        <time>2016-03-11T13:03:32Z</time>
      </trkpt>
      <trkpt lat="42.99278" lon="-0.21935">
        <ele>1433.4</ele>
        <time>2016-03-11T13:03:34Z</time>
      </trkpt>
      <trkpt lat="42.9928" lon="-0.21926">
        <ele>1432.4</ele>
        <time>2016-03-11T13:03:36Z</time>
      </trkpt>
      <trkpt lat="42.99285" lon="-0.21916">
        <ele>1430.9</ele>
        <time>2016-03-11T13:03:41Z</time>
      </trkpt>
      <trkpt lat="42.9929" lon="-0.21924">
        <ele>1429.8</ele>
        <time>2016-03-11T13:03:46Z</time>
      </trkpt>
      <trkpt lat="42.99291" lon="-0.21936">
        <ele>1428.9</ele>
        <time>2016-03-11T13:03:50Z</time>
      </trkpt>
      <trkpt lat="42.9929" lon="-0.21945">
        <ele>1428</ele>
        <time>2016-03-11T13:03:53Z</time>
      </trkpt>
      <trkpt lat="42.9929" lon="-0.21956">
        <ele>1427</ele>
        <time>2016-03-11T13:03:56Z</time>
      </trkpt>
      <trkpt lat="42.9929" lon="-0.21965">
        <ele>1426.3</ele>
        <time>2016-03-11T13:03:59Z</time>
      </trkpt>
      <trkpt lat="42.9929" lon="-0.21976">
        <ele>1425.9</ele>
        <time>2016-03-11T13:04:03Z</time>
      </trkpt>
      <trkpt lat="42.99291" lon="-0.21987">
        <ele>1425.2</ele>
        <time>2016-03-11T13:04:07Z</time>
      </trkpt>
      <trkpt lat="42.9929" lon="-0.21998">
        <ele>1424.6</ele>
        <time>2016-03-11T13:04:11Z</time>
      </trkpt>
      <trkpt lat="42.99289" lon="-0.2201">
        <ele>1424.2</ele>
        <time>2016-03-11T13:04:15Z</time>
      </trkpt>
      <trkpt lat="42.99297" lon="-0.2201">
        <ele>1422.6</ele>
        <time>2016-03-11T13:04:25Z</time>
      </trkpt>
      <trkpt lat="42.99299" lon="-0.22006">
        <ele>1422.1</ele>
        <time>2016-03-11T13:04:26Z</time>
      </trkpt>
      <trkpt lat="42.99304" lon="-0.21995">
        <ele>1421.2</ele>
        <time>2016-03-11T13:04:29Z</time>
      </trkpt>
      <trkpt lat="42.99309" lon="-0.21987">
        <ele>1420.5</ele>
        <time>2016-03-11T13:04:31Z</time>
      </trkpt>
      <trkpt lat="42.99313" lon="-0.21979">
        <ele>1419.8</ele>
        <time>2016-03-11T13:04:33Z</time>
      </trkpt>
      <trkpt lat="42.99317" lon="-0.2197">
        <ele>1419.3</ele>
        <time>2016-03-11T13:04:35Z</time>
      </trkpt>
      <trkpt lat="42.99321" lon="-0.21961">
        <ele>1419</ele>
        <time>2016-03-11T13:04:37Z</time>
      </trkpt>
      <trkpt lat="42.99325" lon="-0.21953">
        <ele>1418.2</ele>
        <time>2016-03-11T13:04:39Z</time>
      </trkpt>
      <trkpt lat="42.99329" lon="-0.21945">
        <ele>1417.6</ele>
        <time>2016-03-11T13:04:41Z</time>
      </trkpt>
      <trkpt lat="42.99331" lon="-0.21937">
        <ele>1417.2</ele>
        <time>2016-03-11T13:04:43Z</time>
      </trkpt>
      <trkpt lat="42.99334" lon="-0.21929">
        <ele>1416.2</ele>
        <time>2016-03-11T13:04:45Z</time>
      </trkpt>
      <trkpt lat="42.99337" lon="-0.21921">
        <ele>1415.5</ele>
        <time>2016-03-11T13:04:47Z</time>
      </trkpt>
      <trkpt lat="42.9934" lon="-0.21912">
        <ele>1415.1</ele>
        <time>2016-03-11T13:04:49Z</time>
      </trkpt>
      <trkpt lat="42.99342" lon="-0.21904">
        <ele>1414.2</ele>
        <time>2016-03-11T13:04:51Z</time>
      </trkpt>
      <trkpt lat="42.99345" lon="-0.21895">
        <ele>1413.3</ele>
        <time>2016-03-11T13:04:53Z</time>
      </trkpt>
      <trkpt lat="42.99347" lon="-0.21886">
        <ele>1412.3</ele>
        <time>2016-03-11T13:04:55Z</time>
      </trkpt>
      <trkpt lat="42.99349" lon="-0.21876">
        <ele>1411.7</ele>
        <time>2016-03-11T13:04:57Z</time>
      </trkpt>
      <trkpt lat="42.99352" lon="-0.21868">
        <ele>1411.4</ele>
        <time>2016-03-11T13:04:59Z</time>
      </trkpt>
      <trkpt lat="42.99354" lon="-0.21858">
        <ele>1410.3</ele>
        <time>2016-03-11T13:05:01Z</time>
      </trkpt>
      <trkpt lat="42.99357" lon="-0.21849">
        <ele>1409.2</ele>
        <time>2016-03-11T13:05:03Z</time>
      </trkpt>
      <trkpt lat="42.99359" lon="-0.2184">
        <ele>1408.2</ele>
        <time>2016-03-11T13:05:05Z</time>
      </trkpt>
      <trkpt lat="42.9936" lon="-0.21831">
        <ele>1407.8</ele>
        <time>2016-03-11T13:05:07Z</time>
      </trkpt>
      <trkpt lat="42.99359" lon="-0.21822">
        <ele>1407.5</ele>
        <time>2016-03-11T13:05:09Z</time>
      </trkpt>
      <trkpt lat="42.99355" lon="-0.21815">
        <ele>1407.2</ele>
        <time>2016-03-11T13:05:11Z</time>
      </trkpt>
      <trkpt lat="42.99348" lon="-0.21809">
        <ele>1405.8</ele>
        <time>2016-03-11T13:05:14Z</time>
      </trkpt>
      <trkpt lat="42.99342" lon="-0.21804">
        <ele>1405.2</ele>
        <time>2016-03-11T13:05:16Z</time>
      </trkpt>
      <trkpt lat="42.99334" lon="-0.21798">
        <ele>1404.5</ele>
        <time>2016-03-11T13:05:19Z</time>
      </trkpt>
      <trkpt lat="42.99329" lon="-0.21792">
        <ele>1404.1</ele>
        <time>2016-03-11T13:05:21Z</time>
      </trkpt>
      <trkpt lat="42.99324" lon="-0.21786">
        <ele>1403.7</ele>
        <time>2016-03-11T13:05:23Z</time>
      </trkpt>
      <trkpt lat="42.99319" lon="-0.21781">
        <ele>1403.5</ele>
        <time>2016-03-11T13:05:25Z</time>
      </trkpt>
      <trkpt lat="42.99313" lon="-0.21778">
        <ele>1402.7</ele>
        <time>2016-03-11T13:05:27Z</time>
      </trkpt>
      <trkpt lat="42.9931" lon="-0.21778">
        <ele>1402.4</ele>
        <time>2016-03-11T13:05:28Z</time>
      </trkpt>
      <trkpt lat="42.99301" lon="-0.21778">
        <ele>1401.4</ele>
        <time>2016-03-11T13:05:31Z</time>
      </trkpt>
      <trkpt lat="42.99294" lon="-0.21777">
        <ele>1401</ele>
        <time>2016-03-11T13:05:33Z</time>
      </trkpt>
      <trkpt lat="42.99287" lon="-0.21777">
        <ele>1400.3</ele>
        <time>2016-03-11T13:05:35Z</time>
      </trkpt>
      <trkpt lat="42.99281" lon="-0.21777">
        <ele>1399.5</ele>
        <time>2016-03-11T13:05:37Z</time>
      </trkpt>
      <trkpt lat="42.99275" lon="-0.21777">
        <ele>1398.8</ele>
        <time>2016-03-11T13:05:39Z</time>
      </trkpt>
      <trkpt lat="42.99268" lon="-0.21776">
        <ele>1398.5</ele>
        <time>2016-03-11T13:05:41Z</time>
      </trkpt>
      <trkpt lat="42.99262" lon="-0.21775">
        <ele>1398.2</ele>
        <time>2016-03-11T13:05:43Z</time>
      </trkpt>
      <trkpt lat="42.99254" lon="-0.21771">
        <ele>1397.6</ele>
        <time>2016-03-11T13:05:46Z</time>
      </trkpt>
      <trkpt lat="42.99247" lon="-0.21769">
        <ele>1397.4</ele>
        <time>2016-03-11T13:05:49Z</time>
      </trkpt>
      <trkpt lat="42.9924" lon="-0.21767">
        <ele>1397</ele>
        <time>2016-03-11T13:05:52Z</time>
      </trkpt>
      <trkpt lat="42.99233" lon="-0.21761">
        <ele>1396.7</ele>
        <time>2016-03-11T13:05:55Z</time>
      </trkpt>
      <trkpt lat="42.99227" lon="-0.21753">
        <ele>1396.5</ele>
        <time>2016-03-11T13:06:00Z</time>
      </trkpt>
      <trkpt lat="42.99222" lon="-0.21747">
        <ele>1397.7</ele>
        <time>2016-03-11T13:06:03Z</time>
      </trkpt>
      <trkpt lat="42.99214" lon="-0.21743">
        <ele>1397</ele>
        <time>2016-03-11T13:06:06Z</time>
      </trkpt>
      <trkpt lat="42.99206" lon="-0.21741">
        <ele>1396.3</ele>
        <time>2016-03-11T13:06:08Z</time>
      </trkpt>
      <trkpt lat="42.99202" lon="-0.21739">
        <ele>1396.1</ele>
        <time>2016-03-11T13:06:09Z</time>
      </trkpt>
      <trkpt lat="42.99196" lon="-0.21737">
        <ele>1395.6</ele>
        <time>2016-03-11T13:06:10Z</time>
      </trkpt>
      <trkpt lat="42.99191" lon="-0.21736">
        <ele>1395.2</ele>
        <time>2016-03-11T13:06:11Z</time>
      </trkpt>
      <trkpt lat="42.99185" lon="-0.21737">
        <ele>1394.9</ele>
        <time>2016-03-11T13:06:12Z</time>
      </trkpt>
      <trkpt lat="42.99179" lon="-0.21738">
        <ele>1393.8</ele>
        <time>2016-03-11T13:06:13Z</time>
      </trkpt>
      <trkpt lat="42.99174" lon="-0.21739">
        <ele>1393</ele>
        <time>2016-03-11T13:06:14Z</time>
      </trkpt>
      <trkpt lat="42.99169" lon="-0.21741">
        <ele>1392.4</ele>
        <time>2016-03-11T13:06:15Z</time>
      </trkpt>
      <trkpt lat="42.99165" lon="-0.21744">
        <ele>1392</ele>
        <time>2016-03-11T13:06:16Z</time>
      </trkpt>
      <trkpt lat="42.99157" lon="-0.21748">
        <ele>1390.7</ele>
        <time>2016-03-11T13:06:18Z</time>
      </trkpt>
      <trkpt lat="42.9915" lon="-0.21753">
        <ele>1390</ele>
        <time>2016-03-11T13:06:20Z</time>
      </trkpt>
      <trkpt lat="42.99142" lon="-0.21757">
        <ele>1389.2</ele>
        <time>2016-03-11T13:06:23Z</time>
      </trkpt>
      <trkpt lat="42.99134" lon="-0.21763">
        <ele>1388.9</ele>
        <time>2016-03-11T13:06:27Z</time>
      </trkpt>
      <trkpt lat="42.99126" lon="-0.21768">
        <ele>1387.8</ele>
        <time>2016-03-11T13:06:31Z</time>
      </trkpt>
      <trkpt lat="42.99126" lon="-0.21768">
        <ele>1387.6</ele>
        <time>2016-03-11T13:06:32Z</time>
      </trkpt>
      <trkpt lat="42.99124" lon="-0.21746">
        <ele>1387.8</ele>
        <time>2016-03-11T13:06:47Z</time>
      </trkpt>
      <trkpt lat="42.99125" lon="-0.21735">
        <ele>1388.4</ele>
        <time>2016-03-11T13:06:52Z</time>
      </trkpt>
      <trkpt lat="42.99126" lon="-0.21724">
        <ele>1388.4</ele>
        <time>2016-03-11T13:06:57Z</time>
      </trkpt>
      <trkpt lat="42.99125" lon="-0.21712">
        <ele>1389.1</ele>
        <time>2016-03-11T13:07:02Z</time>
      </trkpt>
      <trkpt lat="42.99125" lon="-0.21702">
        <ele>1388.7</ele>
        <time>2016-03-11T13:07:07Z</time>
      </trkpt>
      <trkpt lat="42.99127" lon="-0.21692">
        <ele>1388.1</ele>
        <time>2016-03-11T13:07:12Z</time>
      </trkpt>
      <trkpt lat="42.9913" lon="-0.21682">
        <ele>1388.8</ele>
        <time>2016-03-11T13:07:17Z</time>
      </trkpt>
      <trkpt lat="42.99128" lon="-0.21673">
        <ele>1388.8</ele>
        <time>2016-03-11T13:07:21Z</time>
      </trkpt>
      <trkpt lat="42.99127" lon="-0.21662">
        <ele>1388.7</ele>
        <time>2016-03-11T13:07:25Z</time>
      </trkpt>
      <trkpt lat="42.99125" lon="-0.21651">
        <ele>1388.9</ele>
        <time>2016-03-11T13:07:30Z</time>
      </trkpt>
      <trkpt lat="42.99125" lon="-0.21641">
        <ele>1389.9</ele>
        <time>2016-03-11T13:07:35Z</time>
      </trkpt>
      <trkpt lat="42.99125" lon="-0.21639">
        <ele>1390.1</ele>
        <time>2016-03-11T13:07:36Z</time>
      </trkpt>
      <trkpt lat="42.99126" lon="-0.21618">
        <ele>1391.7</ele>
        <time>2016-03-11T13:07:47Z</time>
      </trkpt>
      <trkpt lat="42.99117" lon="-0.21616">
        <ele>1393</ele>
        <time>2016-03-11T13:07:56Z</time>
      </trkpt>
      <trkpt lat="42.99112" lon="-0.21626">
        <ele>1394.2</ele>
        <time>2016-03-11T13:08:04Z</time>
      </trkpt>
      <trkpt lat="42.99107" lon="-0.21636">
        <ele>1395.2</ele>
        <time>2016-03-11T13:08:12Z</time>
      </trkpt>
      <trkpt lat="42.99103" lon="-0.21647">
        <ele>1395.9</ele>
        <time>2016-03-11T13:08:19Z</time>
      </trkpt>
      <trkpt lat="42.991" lon="-0.21658">
        <ele>1395.7</ele>
        <time>2016-03-11T13:08:26Z</time>
      </trkpt>
      <trkpt lat="42.99098" lon="-0.21668">
        <ele>1396.9</ele>
        <time>2016-03-11T13:08:32Z</time>
      </trkpt>
      <trkpt lat="42.99094" lon="-0.21677">
        <ele>1397.8</ele>
        <time>2016-03-11T13:08:38Z</time>
      </trkpt>
      <trkpt lat="42.99093" lon="-0.21679">
        <ele>1397.9</ele>
        <time>2016-03-11T13:08:39Z</time>
      </trkpt>
      <trkpt lat="42.99086" lon="-0.21678">
        <ele>1401.5</ele>
        <time>2016-03-11T13:08:59Z</time>
      </trkpt>
      <trkpt lat="42.99085" lon="-0.21667">
        <ele>1402.5</ele>
        <time>2016-03-11T13:09:05Z</time>
      </trkpt>
      <trkpt lat="42.99086" lon="-0.21655">
        <ele>1402.6</ele>
        <time>2016-03-11T13:09:12Z</time>
      </trkpt>
      <trkpt lat="42.99088" lon="-0.21644">
        <ele>1403.6</ele>
        <time>2016-03-11T13:09:19Z</time>
      </trkpt>
      <trkpt lat="42.9909" lon="-0.21633">
        <ele>1404.4</ele>
        <time>2016-03-11T13:09:25Z</time>
      </trkpt>
      <trkpt lat="42.9909" lon="-0.21623">
        <ele>1405</ele>
        <time>2016-03-11T13:09:31Z</time>
      </trkpt>
      <trkpt lat="42.99089" lon="-0.21611">
        <ele>1405.9</ele>
        <time>2016-03-11T13:09:37Z</time>
      </trkpt>
      <trkpt lat="42.99088" lon="-0.21599">
        <ele>1406.1</ele>
        <time>2016-03-11T13:09:43Z</time>
      </trkpt>
      <trkpt lat="42.99088" lon="-0.21597">
        <ele>1406.2</ele>
        <time>2016-03-11T13:09:44Z</time>
      </trkpt>
      <trkpt lat="42.99089" lon="-0.21578">
        <ele>1407.5</ele>
        <time>2016-03-11T13:09:55Z</time>
      </trkpt>
      <trkpt lat="42.9909" lon="-0.21567">
        <ele>1409</ele>
        <time>2016-03-11T13:10:01Z</time>
      </trkpt>
      <trkpt lat="42.99092" lon="-0.21557">
        <ele>1409.6</ele>
        <time>2016-03-11T13:10:06Z</time>
      </trkpt>
      <trkpt lat="42.99093" lon="-0.21546">
        <ele>1409.8</ele>
        <time>2016-03-11T13:10:11Z</time>
      </trkpt>
      <trkpt lat="42.99094" lon="-0.21536">
        <ele>1410.7</ele>
        <time>2016-03-11T13:10:16Z</time>
      </trkpt>
      <trkpt lat="42.99094" lon="-0.21525">
        <ele>1410.7</ele>
        <time>2016-03-11T13:10:21Z</time>
      </trkpt>
      <trkpt lat="42.99095" lon="-0.21514">
        <ele>1411.3</ele>
        <time>2016-03-11T13:10:26Z</time>
      </trkpt>
      <trkpt lat="42.99096" lon="-0.21503">
        <ele>1411.6</ele>
        <time>2016-03-11T13:10:31Z</time>
      </trkpt>
      <trkpt lat="42.99096" lon="-0.21492">
        <ele>1411.7</ele>
        <time>2016-03-11T13:10:36Z</time>
      </trkpt>
      <trkpt lat="42.99097" lon="-0.2148">
        <ele>1413.1</ele>
        <time>2016-03-11T13:10:42Z</time>
      </trkpt>
      <trkpt lat="42.99099" lon="-0.21469">
        <ele>1413.9</ele>
        <time>2016-03-11T13:10:47Z</time>
      </trkpt>
      <trkpt lat="42.99099" lon="-0.21467">
        <ele>1414</ele>
        <time>2016-03-11T13:10:48Z</time>
      </trkpt>
      <trkpt lat="42.99104" lon="-0.21449">
        <ele>1415</ele>
        <time>2016-03-11T13:10:57Z</time>
      </trkpt>
      <trkpt lat="42.99106" lon="-0.21438">
        <ele>1415.1</ele>
        <time>2016-03-11T13:11:03Z</time>
      </trkpt>
      <trkpt lat="42.99108" lon="-0.21427">
        <ele>1415.5</ele>
        <time>2016-03-11T13:11:09Z</time>
      </trkpt>
      <trkpt lat="42.9911" lon="-0.21415">
        <ele>1416.3</ele>
        <time>2016-03-11T13:11:15Z</time>
      </trkpt>
      <trkpt lat="42.99113" lon="-0.21404">
        <ele>1416.9</ele>
        <time>2016-03-11T13:11:21Z</time>
      </trkpt>
      <trkpt lat="42.99116" lon="-0.21395">
        <ele>1418.2</ele>
        <time>2016-03-11T13:11:26Z</time>
      </trkpt>
      <trkpt lat="42.99119" lon="-0.21385">
        <ele>1418.4</ele>
        <time>2016-03-11T13:11:31Z</time>
      </trkpt>
      <trkpt lat="42.99121" lon="-0.21375">
        <ele>1419.6</ele>
        <time>2016-03-11T13:11:36Z</time>
      </trkpt>
      <trkpt lat="42.99123" lon="-0.21364">
        <ele>1419.8</ele>
        <time>2016-03-11T13:11:41Z</time>
      </trkpt>
      <trkpt lat="42.99125" lon="-0.21353">
        <ele>1420.7</ele>
        <time>2016-03-11T13:11:47Z</time>
      </trkpt>
      <trkpt lat="42.99127" lon="-0.21341">
        <ele>1421.5</ele>
        <time>2016-03-11T13:11:53Z</time>
      </trkpt>
      <trkpt lat="42.99127" lon="-0.21339">
        <ele>1421.6</ele>
        <time>2016-03-11T13:11:54Z</time>
      </trkpt>
      <trkpt lat="42.99134" lon="-0.21319">
        <ele>1422</ele>
        <time>2016-03-11T13:12:05Z</time>
      </trkpt>
      <trkpt lat="42.99137" lon="-0.21309">
        <ele>1423.5</ele>
        <time>2016-03-11T13:12:11Z</time>
      </trkpt>
      <trkpt lat="42.99141" lon="-0.21298">
        <ele>1423.6</ele>
        <time>2016-03-11T13:12:17Z</time>
      </trkpt>
      <trkpt lat="42.99145" lon="-0.21288">
        <ele>1424.2</ele>
        <time>2016-03-11T13:12:22Z</time>
      </trkpt>
      <trkpt lat="42.9915" lon="-0.2128">
        <ele>1424.3</ele>
        <time>2016-03-11T13:12:26Z</time>
      </trkpt>
      <trkpt lat="42.99156" lon="-0.21272">
        <ele>1424.6</ele>
        <time>2016-03-11T13:12:30Z</time>
      </trkpt>
      <trkpt lat="42.99161" lon="-0.21265">
        <ele>1424.1</ele>
        <time>2016-03-11T13:12:33Z</time>
      </trkpt>
      <trkpt lat="42.99166" lon="-0.21258">
        <ele>1423.9</ele>
        <time>2016-03-11T13:12:36Z</time>
      </trkpt>
      <trkpt lat="42.99171" lon="-0.21251">
        <ele>1423.9</ele>
        <time>2016-03-11T13:12:39Z</time>
      </trkpt>
      <trkpt lat="42.99176" lon="-0.21243">
        <ele>1423.6</ele>
        <time>2016-03-11T13:12:42Z</time>
      </trkpt>
      <trkpt lat="42.99179" lon="-0.21233">
        <ele>1422.8</ele>
        <time>2016-03-11T13:12:46Z</time>
      </trkpt>
      <trkpt lat="42.99183" lon="-0.21224">
        <ele>1422.3</ele>
        <time>2016-03-11T13:12:49Z</time>
      </trkpt>
      <trkpt lat="42.99188" lon="-0.21215">
        <ele>1422</ele>
        <time>2016-03-11T13:12:53Z</time>
      </trkpt>
      <trkpt lat="42.99193" lon="-0.21205">
        <ele>1421.1</ele>
        <time>2016-03-11T13:12:57Z</time>
      </trkpt>
      <trkpt lat="42.99194" lon="-0.21203">
        <ele>1420.8</ele>
        <time>2016-03-11T13:12:58Z</time>
      </trkpt>
      <trkpt lat="42.99204" lon="-0.21193">
        <ele>1419.7</ele>
        <time>2016-03-11T13:13:03Z</time>
      </trkpt>
      <trkpt lat="42.99208" lon="-0.21184">
        <ele>1419.5</ele>
        <time>2016-03-11T13:13:06Z</time>
      </trkpt>
      <trkpt lat="42.99212" lon="-0.21174">
        <ele>1418.8</ele>
        <time>2016-03-11T13:13:10Z</time>
      </trkpt>
      <trkpt lat="42.99216" lon="-0.21166">
        <ele>1418.7</ele>
        <time>2016-03-11T13:13:13Z</time>
      </trkpt>
      <trkpt lat="42.9922" lon="-0.21159">
        <ele>1418.6</ele>
        <time>2016-03-11T13:13:15Z</time>
      </trkpt>
      <trkpt lat="42.99226" lon="-0.21153">
        <ele>1418.4</ele>
        <time>2016-03-11T13:13:17Z</time>
      </trkpt>
      <trkpt lat="42.99233" lon="-0.21148">
        <ele>1418.2</ele>
        <time>2016-03-11T13:13:20Z</time>
      </trkpt>
      <trkpt lat="42.9924" lon="-0.21142">
        <ele>1417.4</ele>
        <time>2016-03-11T13:13:24Z</time>
      </trkpt>
      <trkpt lat="42.99248" lon="-0.21137">
        <ele>1416.6</ele>
        <time>2016-03-11T13:13:27Z</time>
      </trkpt>
      <trkpt lat="42.99256" lon="-0.21136">
        <ele>1416.2</ele>
        <time>2016-03-11T13:13:30Z</time>
      </trkpt>
      <trkpt lat="42.99263" lon="-0.21136">
        <ele>1416.2</ele>
        <time>2016-03-11T13:13:33Z</time>
      </trkpt>
      <trkpt lat="42.99271" lon="-0.21134">
        <ele>1415.1</ele>
        <time>2016-03-11T13:13:38Z</time>
      </trkpt>
      <trkpt lat="42.99279" lon="-0.21133">
        <ele>1415.1</ele>
        <time>2016-03-11T13:13:44Z</time>
      </trkpt>
      <trkpt lat="42.99288" lon="-0.2113">
        <ele>1415.5</ele>
        <time>2016-03-11T13:13:50Z</time>
      </trkpt>
      <trkpt lat="42.99297" lon="-0.21128">
        <ele>1415.9</ele>
        <time>2016-03-11T13:13:56Z</time>
      </trkpt>
      <trkpt lat="42.99306" lon="-0.21129">
        <ele>1416.7</ele>
        <time>2016-03-11T13:14:03Z</time>
      </trkpt>
      <trkpt lat="42.99306" lon="-0.21129">
        <ele>1416.8</ele>
        <time>2016-03-11T13:14:04Z</time>
      </trkpt>
      <trkpt lat="42.99321" lon="-0.21129">
        <ele>1417.5</ele>
        <time>2016-03-11T13:14:14Z</time>
      </trkpt>
      <trkpt lat="42.99329" lon="-0.2113">
        <ele>1418</ele>
        <time>2016-03-11T13:14:18Z</time>
      </trkpt>
      <trkpt lat="42.99337" lon="-0.21131">
        <ele>1418.2</ele>
        <time>2016-03-11T13:14:23Z</time>
      </trkpt>
      <trkpt lat="42.99345" lon="-0.21132">
        <ele>1418.7</ele>
        <time>2016-03-11T13:14:28Z</time>
      </trkpt>
      <trkpt lat="42.99354" lon="-0.21133">
        <ele>1418.6</ele>
        <time>2016-03-11T13:14:34Z</time>
      </trkpt>
      <trkpt lat="42.99362" lon="-0.21133">
        <ele>1419.9</ele>
        <time>2016-03-11T13:14:39Z</time>
      </trkpt>
      <trkpt lat="42.99369" lon="-0.21133">
        <ele>1420.3</ele>
        <time>2016-03-11T13:14:44Z</time>
      </trkpt>
      <trkpt lat="42.99378" lon="-0.21135">
        <ele>1420.5</ele>
        <time>2016-03-11T13:14:50Z</time>
      </trkpt>
      <trkpt lat="42.99386" lon="-0.21136">
        <ele>1421.8</ele>
        <time>2016-03-11T13:14:55Z</time>
      </trkpt>
      <trkpt lat="42.99394" lon="-0.21134">
        <ele>1421.4</ele>
        <time>2016-03-11T13:15:00Z</time>
      </trkpt>
      <trkpt lat="42.99402" lon="-0.21133">
        <ele>1422.5</ele>
        <time>2016-03-11T13:15:05Z</time>
      </trkpt>
      <trkpt lat="42.99403" lon="-0.21133">
        <ele>1422.6</ele>
        <time>2016-03-11T13:15:06Z</time>
      </trkpt>
      <trkpt lat="42.99419" lon="-0.21133">
        <ele>1425</ele>
        <time>2016-03-11T13:15:17Z</time>
      </trkpt>
      <trkpt lat="42.99427" lon="-0.21132">
        <ele>1425.2</ele>
        <time>2016-03-11T13:15:22Z</time>
      </trkpt>
      <trkpt lat="42.99434" lon="-0.21132">
        <ele>1425.4</ele>
        <time>2016-03-11T13:15:26Z</time>
      </trkpt>
      <trkpt lat="42.99443" lon="-0.21131">
        <ele>1425.5</ele>
        <time>2016-03-11T13:15:30Z</time>
      </trkpt>
      <trkpt lat="42.99451" lon="-0.2113">
        <ele>1425.3</ele>
        <time>2016-03-11T13:15:34Z</time>
      </trkpt>
      <trkpt lat="42.99459" lon="-0.21129">
        <ele>1424.8</ele>
        <time>2016-03-11T13:15:37Z</time>
      </trkpt>
      <trkpt lat="42.99466" lon="-0.21133">
        <ele>1425.1</ele>
        <time>2016-03-11T13:15:40Z</time>
      </trkpt>
      <trkpt lat="42.99474" lon="-0.21138">
        <ele>1424.4</ele>
        <time>2016-03-11T13:15:43Z</time>
      </trkpt>
      <trkpt lat="42.9948" lon="-0.21142">
        <ele>1424</ele>
        <time>2016-03-11T13:15:45Z</time>
      </trkpt>
      <trkpt lat="42.99487" lon="-0.21146">
        <ele>1423.7</ele>
        <time>2016-03-11T13:15:47Z</time>
      </trkpt>
      <trkpt lat="42.99495" lon="-0.2115">
        <ele>1422.7</ele>
        <time>2016-03-11T13:15:49Z</time>
      </trkpt>
      <trkpt lat="42.99499" lon="-0.21152">
        <ele>1422.4</ele>
        <time>2016-03-11T13:15:50Z</time>
      </trkpt>
      <trkpt lat="42.99504" lon="-0.21154">
        <ele>1421.6</ele>
        <time>2016-03-11T13:15:51Z</time>
      </trkpt>
      <trkpt lat="42.99512" lon="-0.21158">
        <ele>1420.5</ele>
        <time>2016-03-11T13:15:53Z</time>
      </trkpt>
      <trkpt lat="42.9952" lon="-0.2116">
        <ele>1419.2</ele>
        <time>2016-03-11T13:15:55Z</time>
      </trkpt>
      <trkpt lat="42.99528" lon="-0.21163">
        <ele>1418.4</ele>
        <time>2016-03-11T13:15:57Z</time>
      </trkpt>
      <trkpt lat="42.99534" lon="-0.21164">
        <ele>1417.9</ele>
        <time>2016-03-11T13:15:59Z</time>
      </trkpt>
      <trkpt lat="42.99541" lon="-0.21167">
        <ele>1417.3</ele>
        <time>2016-03-11T13:16:01Z</time>
      </trkpt>
      <trkpt lat="42.99548" lon="-0.21167">
        <ele>1416.7</ele>
        <time>2016-03-11T13:16:03Z</time>
      </trkpt>
      <trkpt lat="42.99556" lon="-0.21169">
        <ele>1415.7</ele>
        <time>2016-03-11T13:16:06Z</time>
      </trkpt>
      <trkpt lat="42.99559" lon="-0.2117">
        <ele>1415.7</ele>
        <time>2016-03-11T13:16:07Z</time>
      </trkpt>
      <trkpt lat="42.99572" lon="-0.21175">
        <ele>1414.5</ele>
        <time>2016-03-11T13:16:12Z</time>
      </trkpt>
      <trkpt lat="42.9958" lon="-0.21176">
        <ele>1413.9</ele>
        <time>2016-03-11T13:16:15Z</time>
      </trkpt>
      <trkpt lat="42.99587" lon="-0.21177">
        <ele>1413.6</ele>
        <time>2016-03-11T13:16:17Z</time>
      </trkpt>
      <trkpt lat="42.99593" lon="-0.21179">
        <ele>1413.4</ele>
        <time>2016-03-11T13:16:19Z</time>
      </trkpt>
      <trkpt lat="42.996" lon="-0.2118">
        <ele>1413.1</ele>
        <time>2016-03-11T13:16:21Z</time>
      </trkpt>
      <trkpt lat="42.99607" lon="-0.21181">
        <ele>1412.5</ele>
        <time>2016-03-11T13:16:23Z</time>
      </trkpt>
      <trkpt lat="42.99614" lon="-0.21181">
        <ele>1412</ele>
        <time>2016-03-11T13:16:25Z</time>
      </trkpt>
      <trkpt lat="42.9962" lon="-0.21181">
        <ele>1411.1</ele>
        <time>2016-03-11T13:16:27Z</time>
      </trkpt>
      <trkpt lat="42.99627" lon="-0.21179">
        <ele>1410.4</ele>
        <time>2016-03-11T13:16:29Z</time>
      </trkpt>
      <trkpt lat="42.99635" lon="-0.21176">
        <ele>1409.6</ele>
        <time>2016-03-11T13:16:32Z</time>
      </trkpt>
      <trkpt lat="42.99643" lon="-0.21174">
        <ele>1408.9</ele>
        <time>2016-03-11T13:16:35Z</time>
      </trkpt>
      <trkpt lat="42.99651" lon="-0.2117">
        <ele>1408.7</ele>
        <time>2016-03-11T13:16:38Z</time>
      </trkpt>
      <trkpt lat="42.99658" lon="-0.21165">
        <ele>1408.1</ele>
        <time>2016-03-11T13:16:41Z</time>
      </trkpt>
      <trkpt lat="42.99664" lon="-0.21159">
        <ele>1408.2</ele>
        <time>2016-03-11T13:16:44Z</time>
      </trkpt>
      <trkpt lat="42.9967" lon="-0.21152">
        <ele>1407.3</ele>
        <time>2016-03-11T13:16:47Z</time>
      </trkpt>
      <trkpt lat="42.99675" lon="-0.21145">
        <ele>1406.6</ele>
        <time>2016-03-11T13:16:51Z</time>
      </trkpt>
      <trkpt lat="42.99681" lon="-0.21137">
        <ele>1406.9</ele>
        <time>2016-03-11T13:16:56Z</time>
      </trkpt>
      <trkpt lat="42.99687" lon="-0.21129">
        <ele>1407.4</ele>
        <time>2016-03-11T13:17:01Z</time>
      </trkpt>
      <trkpt lat="42.99694" lon="-0.21122">
        <ele>1407.5</ele>
        <time>2016-03-11T13:17:06Z</time>
      </trkpt>
      <trkpt lat="42.99699" lon="-0.21112">
        <ele>1406.6</ele>
        <time>2016-03-11T13:17:11Z</time>
      </trkpt>
      <trkpt lat="42.997" lon="-0.2111">
        <ele>1406.5</ele>
        <time>2016-03-11T13:17:12Z</time>
      </trkpt>
      <trkpt lat="42.99712" lon="-0.21101">
        <ele>1406.3</ele>
        <time>2016-03-11T13:17:18Z</time>
      </trkpt>
      <trkpt lat="42.99719" lon="-0.21094">
        <ele>1406.3</ele>
        <time>2016-03-11T13:17:21Z</time>
      </trkpt>
      <trkpt lat="42.99727" lon="-0.21089">
        <ele>1406</ele>
        <time>2016-03-11T13:17:24Z</time>
      </trkpt>
      <trkpt lat="42.99735" lon="-0.21085">
        <ele>1405.8</ele>
        <time>2016-03-11T13:17:27Z</time>
      </trkpt>
      <trkpt lat="42.99741" lon="-0.21079">
        <ele>1405.2</ele>
        <time>2016-03-11T13:17:30Z</time>
      </trkpt>
      <trkpt lat="42.99748" lon="-0.21074">
        <ele>1404.5</ele>
        <time>2016-03-11T13:17:33Z</time>
      </trkpt>
      <trkpt lat="42.99754" lon="-0.21071">
        <ele>1404.4</ele>
        <time>2016-03-11T13:17:35Z</time>
      </trkpt>
      <trkpt lat="42.99762" lon="-0.21066">
        <ele>1403.7</ele>
        <time>2016-03-11T13:17:38Z</time>
      </trkpt>
      <trkpt lat="42.99771" lon="-0.21062">
        <ele>1403</ele>
        <time>2016-03-11T13:17:41Z</time>
      </trkpt>
      <trkpt lat="42.99777" lon="-0.21059">
        <ele>1401.8</ele>
        <time>2016-03-11T13:17:44Z</time>
      </trkpt>
      <trkpt lat="42.99785" lon="-0.21054">
        <ele>1401</ele>
        <time>2016-03-11T13:17:47Z</time>
      </trkpt>
      <trkpt lat="42.99791" lon="-0.2105">
        <ele>1400.5</ele>
        <time>2016-03-11T13:17:49Z</time>
      </trkpt>
      <trkpt lat="42.99799" lon="-0.21047">
        <ele>1399.8</ele>
        <time>2016-03-11T13:17:52Z</time>
      </trkpt>
      <trkpt lat="42.99807" lon="-0.21042">
        <ele>1399.1</ele>
        <time>2016-03-11T13:17:56Z</time>
      </trkpt>
      <trkpt lat="42.99815" lon="-0.21037">
        <ele>1398.7</ele>
        <time>2016-03-11T13:18:01Z</time>
      </trkpt>
      <trkpt lat="42.99823" lon="-0.21033">
        <ele>1398.9</ele>
        <time>2016-03-11T13:18:06Z</time>
      </trkpt>
      <trkpt lat="42.99831" lon="-0.2103">
        <ele>1399.6</ele>
        <time>2016-03-11T13:18:10Z</time>
      </trkpt>
      <trkpt lat="42.99839" lon="-0.21026">
        <ele>1399.6</ele>
        <time>2016-03-11T13:18:14Z</time>
      </trkpt>
      <trkpt lat="42.99841" lon="-0.21025">
        <ele>1399.6</ele>
        <time>2016-03-11T13:18:15Z</time>
      </trkpt>
      <trkpt lat="42.99852" lon="-0.21019">
        <ele>1399.6</ele>
        <time>2016-03-11T13:18:21Z</time>
      </trkpt>
      <trkpt lat="42.99859" lon="-0.21014">
        <ele>1399.7</ele>
        <time>2016-03-11T13:18:25Z</time>
      </trkpt>
      <trkpt lat="42.99866" lon="-0.21008">
        <ele>1399.5</ele>
        <time>2016-03-11T13:18:29Z</time>
      </trkpt>
      <trkpt lat="42.99872" lon="-0.21003">
        <ele>1399.5</ele>
        <time>2016-03-11T13:18:32Z</time>
      </trkpt>
      <trkpt lat="42.99878" lon="-0.20995">
        <ele>1400.3</ele>
        <time>2016-03-11T13:18:36Z</time>
      </trkpt>
      <trkpt lat="42.99884" lon="-0.20987">
        <ele>1400.1</ele>
        <time>2016-03-11T13:18:40Z</time>
      </trkpt>
      <trkpt lat="42.9989" lon="-0.2098">
        <ele>1399.6</ele>
        <time>2016-03-11T13:18:44Z</time>
      </trkpt>
      <trkpt lat="42.99895" lon="-0.20969">
        <ele>1399.5</ele>
        <time>2016-03-11T13:18:48Z</time>
      </trkpt>
      <trkpt lat="42.99896" lon="-0.20958">
        <ele>1399.4</ele>
        <time>2016-03-11T13:18:51Z</time>
      </trkpt>
      <trkpt lat="42.99895" lon="-0.20949">
        <ele>1398.8</ele>
        <time>2016-03-11T13:18:53Z</time>
      </trkpt>
      <trkpt lat="42.99892" lon="-0.20939">
        <ele>1398.1</ele>
        <time>2016-03-11T13:18:55Z</time>
      </trkpt>
      <trkpt lat="42.9989" lon="-0.20928">
        <ele>1397.5</ele>
        <time>2016-03-11T13:18:57Z</time>
      </trkpt>
      <trkpt lat="42.99888" lon="-0.20922">
        <ele>1397.3</ele>
        <time>2016-03-11T13:18:58Z</time>
      </trkpt>
      <trkpt lat="42.99887" lon="-0.20916">
        <ele>1397.1</ele>
        <time>2016-03-11T13:18:59Z</time>
      </trkpt>
      <trkpt lat="42.99886" lon="-0.2091">
        <ele>1396.5</ele>
        <time>2016-03-11T13:19:00Z</time>
      </trkpt>
      <trkpt lat="42.99884" lon="-0.20904">
        <ele>1396</ele>
        <time>2016-03-11T13:19:01Z</time>
      </trkpt>
      <trkpt lat="42.99883" lon="-0.20897">
        <ele>1395.6</ele>
        <time>2016-03-11T13:19:02Z</time>
      </trkpt>
      <trkpt lat="42.99882" lon="-0.20891">
        <ele>1394.9</ele>
        <time>2016-03-11T13:19:03Z</time>
      </trkpt>
      <trkpt lat="42.99881" lon="-0.20884">
        <ele>1394.4</ele>
        <time>2016-03-11T13:19:04Z</time>
      </trkpt>
      <trkpt lat="42.9988" lon="-0.20878">
        <ele>1394.1</ele>
        <time>2016-03-11T13:19:05Z</time>
      </trkpt>
      <trkpt lat="42.9988" lon="-0.20872">
        <ele>1393.2</ele>
        <time>2016-03-11T13:19:06Z</time>
      </trkpt>
      <trkpt lat="42.99879" lon="-0.2086">
        <ele>1392.1</ele>
        <time>2016-03-11T13:19:08Z</time>
      </trkpt>
      <trkpt lat="42.99878" lon="-0.20849">
        <ele>1391.1</ele>
        <time>2016-03-11T13:19:10Z</time>
      </trkpt>
      <trkpt lat="42.99878" lon="-0.2084">
        <ele>1390.1</ele>
        <time>2016-03-11T13:19:12Z</time>
      </trkpt>
      <trkpt lat="42.99876" lon="-0.20829">
        <ele>1389.2</ele>
        <time>2016-03-11T13:19:15Z</time>
      </trkpt>
      <trkpt lat="42.99875" lon="-0.20826">
        <ele>1389.1</ele>
        <time>2016-03-11T13:19:16Z</time>
      </trkpt>
      <trkpt lat="42.99873" lon="-0.20808">
        <ele>1388.8</ele>
        <time>2016-03-11T13:19:23Z</time>
      </trkpt>
      <trkpt lat="42.99873" lon="-0.20799">
        <ele>1388.7</ele>
        <time>2016-03-11T13:19:26Z</time>
      </trkpt>
      <trkpt lat="42.99873" lon="-0.20788">
        <ele>1388.3</ele>
        <time>2016-03-11T13:19:29Z</time>
      </trkpt>
      <trkpt lat="42.99871" lon="-0.20777">
        <ele>1388</ele>
        <time>2016-03-11T13:19:32Z</time>
      </trkpt>
      <trkpt lat="42.99873" lon="-0.20766">
        <ele>1387.8</ele>
        <time>2016-03-11T13:19:36Z</time>
      </trkpt>
      <trkpt lat="42.99874" lon="-0.20755">
        <ele>1387.7</ele>
        <time>2016-03-11T13:19:40Z</time>
      </trkpt>
      <trkpt lat="42.99876" lon="-0.20744">
        <ele>1387.4</ele>
        <time>2016-03-11T13:19:45Z</time>
      </trkpt>
      <trkpt lat="42.99875" lon="-0.20732">
        <ele>1387.9</ele>
        <time>2016-03-11T13:19:50Z</time>
      </trkpt>
      <trkpt lat="42.99873" lon="-0.20721">
        <ele>1388.3</ele>
        <time>2016-03-11T13:19:55Z</time>
      </trkpt>
      <trkpt lat="42.99872" lon="-0.2071">
        <ele>1388.2</ele>
        <time>2016-03-11T13:20:00Z</time>
      </trkpt>
      <trkpt lat="42.99871" lon="-0.20699">
        <ele>1389</ele>
        <time>2016-03-11T13:20:05Z</time>
      </trkpt>
      <trkpt lat="42.99873" lon="-0.20687">
        <ele>1389.7</ele>
        <time>2016-03-11T13:20:10Z</time>
      </trkpt>
      <trkpt lat="42.99876" lon="-0.20676">
        <ele>1389.7</ele>
        <time>2016-03-11T13:20:15Z</time>
      </trkpt>
      <trkpt lat="42.99878" lon="-0.20664">
        <ele>1390.2</ele>
        <time>2016-03-11T13:20:20Z</time>
      </trkpt>
      <trkpt lat="42.99878" lon="-0.20662">
        <ele>1390.2</ele>
        <time>2016-03-11T13:20:21Z</time>
      </trkpt>
      <trkpt lat="42.99881" lon="-0.20643">
        <ele>1391.3</ele>
        <time>2016-03-11T13:20:30Z</time>
      </trkpt>
      <trkpt lat="42.99884" lon="-0.20633">
        <ele>1391.9</ele>
        <time>2016-03-11T13:20:35Z</time>
      </trkpt>
      <trkpt lat="42.99885" lon="-0.20622">
        <ele>1392.8</ele>
        <time>2016-03-11T13:20:40Z</time>
      </trkpt>
      <trkpt lat="42.99887" lon="-0.20611">
        <ele>1393</ele>
        <time>2016-03-11T13:20:45Z</time>
      </trkpt>
      <trkpt lat="42.99888" lon="-0.20601">
        <ele>1393.9</ele>
        <time>2016-03-11T13:20:49Z</time>
      </trkpt>
      <trkpt lat="42.9989" lon="-0.2059">
        <ele>1393.5</ele>
        <time>2016-03-11T13:20:53Z</time>
      </trkpt>
      <trkpt lat="42.99892" lon="-0.20579">
        <ele>1394.1</ele>
        <time>2016-03-11T13:20:57Z</time>
      </trkpt>
      <trkpt lat="42.99894" lon="-0.20568">
        <ele>1394.2</ele>
        <time>2016-03-11T13:21:01Z</time>
      </trkpt>
      <trkpt lat="42.99897" lon="-0.20559">
        <ele>1394.3</ele>
        <time>2016-03-11T13:21:04Z</time>
      </trkpt>
      <trkpt lat="42.99899" lon="-0.20549">
        <ele>1393.8</ele>
        <time>2016-03-11T13:21:07Z</time>
      </trkpt>
      <trkpt lat="42.99902" lon="-0.2054">
        <ele>1393.1</ele>
        <time>2016-03-11T13:21:10Z</time>
      </trkpt>
      <trkpt lat="42.99906" lon="-0.20529">
        <ele>1393</ele>
        <time>2016-03-11T13:21:13Z</time>
      </trkpt>
      <trkpt lat="42.99905" lon="-0.20518">
        <ele>1392.4</ele>
        <time>2016-03-11T13:21:16Z</time>
      </trkpt>
      <trkpt lat="42.99898" lon="-0.20512">
        <ele>1391.5</ele>
        <time>2016-03-11T13:21:22Z</time>
      </trkpt>
      <trkpt lat="42.99896" lon="-0.20513">
        <ele>1391.4</ele>
        <time>2016-03-11T13:21:23Z</time>
      </trkpt>
      <trkpt lat="42.99882" lon="-0.20518">
        <ele>1390.8</ele>
        <time>2016-03-11T13:21:31Z</time>
      </trkpt>
      <trkpt lat="42.99874" lon="-0.2052">
        <ele>1390.5</ele>
        <time>2016-03-11T13:21:35Z</time>
      </trkpt>
      <trkpt lat="42.99866" lon="-0.2052">
        <ele>1390.7</ele>
        <time>2016-03-11T13:21:38Z</time>
      </trkpt>
      <trkpt lat="42.99857" lon="-0.20518">
        <ele>1389.8</ele>
        <time>2016-03-11T13:21:42Z</time>
      </trkpt>
      <trkpt lat="42.99848" lon="-0.20518">
        <ele>1389.4</ele>
        <time>2016-03-11T13:21:47Z</time>
      </trkpt>
      <trkpt lat="42.99841" lon="-0.20519">
        <ele>1389</ele>
        <time>2016-03-11T13:21:52Z</time>
      </trkpt>
      <trkpt lat="42.99834" lon="-0.20519">
        <ele>1388.7</ele>
        <time>2016-03-11T13:21:56Z</time>
      </trkpt>
      <trkpt lat="42.99826" lon="-0.20515">
        <ele>1389.3</ele>
        <time>2016-03-11T13:22:01Z</time>
      </trkpt>
      <trkpt lat="42.99817" lon="-0.20511">
        <ele>1389.1</ele>
        <time>2016-03-11T13:22:06Z</time>
      </trkpt>
      <trkpt lat="42.99809" lon="-0.20507">
        <ele>1388.8</ele>
        <time>2016-03-11T13:22:12Z</time>
      </trkpt>
      <trkpt lat="42.99802" lon="-0.20505">
        <ele>1388.6</ele>
        <time>2016-03-11T13:22:17Z</time>
      </trkpt>
      <trkpt lat="42.99794" lon="-0.20505">
        <ele>1388.4</ele>
        <time>2016-03-11T13:22:21Z</time>
      </trkpt>
      <trkpt lat="42.99787" lon="-0.20504">
        <ele>1387.8</ele>
        <time>2016-03-11T13:22:25Z</time>
      </trkpt>
      <trkpt lat="42.99784" lon="-0.20503">
        <ele>1387.7</ele>
        <time>2016-03-11T13:22:26Z</time>
      </trkpt>
      <trkpt lat="42.99771" lon="-0.205">
        <ele>1387.8</ele>
        <time>2016-03-11T13:22:31Z</time>
      </trkpt>
      <trkpt lat="42.99763" lon="-0.20497">
        <ele>1387.6</ele>
        <time>2016-03-11T13:22:35Z</time>
      </trkpt>
      <trkpt lat="42.99756" lon="-0.20494">
        <ele>1387.2</ele>
        <time>2016-03-11T13:22:39Z</time>
      </trkpt>
      <trkpt lat="42.99747" lon="-0.20489">
        <ele>1387.4</ele>
        <time>2016-03-11T13:22:43Z</time>
      </trkpt>
      <trkpt lat="42.9974" lon="-0.20483">
        <ele>1387.4</ele>
        <time>2016-03-11T13:22:47Z</time>
      </trkpt>
      <trkpt lat="42.99732" lon="-0.20478">
        <ele>1387.5</ele>
        <time>2016-03-11T13:22:51Z</time>
      </trkpt>
      <trkpt lat="42.99724" lon="-0.20473">
        <ele>1387</ele>
        <time>2016-03-11T13:22:55Z</time>
      </trkpt>
      <trkpt lat="42.99717" lon="-0.20469">
        <ele>1387.5</ele>
        <time>2016-03-11T13:22:59Z</time>
      </trkpt>
      <trkpt lat="42.99709" lon="-0.20466">
        <ele>1387.5</ele>
        <time>2016-03-11T13:23:03Z</time>
      </trkpt>
      <trkpt lat="42.99703" lon="-0.2046">
        <ele>1388.4</ele>
        <time>2016-03-11T13:23:07Z</time>
      </trkpt>
      <trkpt lat="42.99695" lon="-0.20455">
        <ele>1389.6</ele>
        <time>2016-03-11T13:23:11Z</time>
      </trkpt>
      <trkpt lat="42.99688" lon="-0.2045">
        <ele>1390.2</ele>
        <time>2016-03-11T13:23:14Z</time>
      </trkpt>
      <trkpt lat="42.99681" lon="-0.20447">
        <ele>1389.7</ele>
        <time>2016-03-11T13:23:16Z</time>
      </trkpt>
      <trkpt lat="42.99675" lon="-0.20443">
        <ele>1389.6</ele>
        <time>2016-03-11T13:23:18Z</time>
      </trkpt>
      <trkpt lat="42.99668" lon="-0.20442">
        <ele>1389.6</ele>
        <time>2016-03-11T13:23:21Z</time>
      </trkpt>
      <trkpt lat="42.9966" lon="-0.20444">
        <ele>1389.9</ele>
        <time>2016-03-11T13:23:25Z</time>
      </trkpt>
      <trkpt lat="42.99652" lon="-0.20448">
        <ele>1389.5</ele>
        <time>2016-03-11T13:23:29Z</time>
      </trkpt>
      <trkpt lat="42.9965" lon="-0.2045">
        <ele>1389.3</ele>
        <time>2016-03-11T13:23:30Z</time>
      </trkpt>
      <trkpt lat="42.99639" lon="-0.2046">
        <ele>1389.8</ele>
        <time>2016-03-11T13:23:37Z</time>
      </trkpt>
      <trkpt lat="42.99632" lon="-0.20466">
        <ele>1389.9</ele>
        <time>2016-03-11T13:23:41Z</time>
      </trkpt>
      <trkpt lat="42.99625" lon="-0.20469">
        <ele>1389.9</ele>
        <time>2016-03-11T13:23:45Z</time>
      </trkpt>
      <trkpt lat="42.99618" lon="-0.20474">
        <ele>1389.7</ele>
        <time>2016-03-11T13:23:49Z</time>
      </trkpt>
      <trkpt lat="42.99611" lon="-0.20479">
        <ele>1390.2</ele>
        <time>2016-03-11T13:23:53Z</time>
      </trkpt>
      <trkpt lat="42.99605" lon="-0.20487">
        <ele>1390.5</ele>
        <time>2016-03-11T13:23:58Z</time>
      </trkpt>
      <trkpt lat="42.99599" lon="-0.20492">
        <ele>1390</ele>
        <time>2016-03-11T13:24:02Z</time>
      </trkpt>
      <trkpt lat="42.99591" lon="-0.20498">
        <ele>1391.6</ele>
        <time>2016-03-11T13:24:07Z</time>
      </trkpt>
      <trkpt lat="42.99584" lon="-0.20502">
        <ele>1391.9</ele>
        <time>2016-03-11T13:24:12Z</time>
      </trkpt>
      <trkpt lat="42.99577" lon="-0.20508">
        <ele>1393.7</ele>
        <time>2016-03-11T13:24:18Z</time>
      </trkpt>
      <trkpt lat="42.99571" lon="-0.20514">
        <ele>1394.3</ele>
        <time>2016-03-11T13:24:23Z</time>
      </trkpt>
      <trkpt lat="42.99567" lon="-0.20524">
        <ele>1394.9</ele>
        <time>2016-03-11T13:24:28Z</time>
      </trkpt>
      <trkpt lat="42.99564" lon="-0.20535">
        <ele>1394.5</ele>
        <time>2016-03-11T13:24:33Z</time>
      </trkpt>
      <trkpt lat="42.99563" lon="-0.20537">
        <ele>1394.4</ele>
        <time>2016-03-11T13:24:34Z</time>
      </trkpt>
      <trkpt lat="42.99556" lon="-0.20556">
        <ele>1395.8</ele>
        <time>2016-03-11T13:24:43Z</time>
      </trkpt>
      <trkpt lat="42.9955" lon="-0.20565">
        <ele>1395.5</ele>
        <time>2016-03-11T13:24:47Z</time>
      </trkpt>
      <trkpt lat="42.99544" lon="-0.20573">
        <ele>1395.1</ele>
        <time>2016-03-11T13:24:51Z</time>
      </trkpt>
      <trkpt lat="42.99538" lon="-0.2058">
        <ele>1394.7</ele>
        <time>2016-03-11T13:24:54Z</time>
      </trkpt>
      <trkpt lat="42.99531" lon="-0.20584">
        <ele>1394.6</ele>
        <time>2016-03-11T13:24:57Z</time>
      </trkpt>
      <trkpt lat="42.99523" lon="-0.20588">
        <ele>1394.5</ele>
        <time>2016-03-11T13:25:01Z</time>
      </trkpt>
      <trkpt lat="42.99515" lon="-0.20592">
        <ele>1394.3</ele>
        <time>2016-03-11T13:25:05Z</time>
      </trkpt>
      <trkpt lat="42.99508" lon="-0.20595">
        <ele>1393.8</ele>
        <time>2016-03-11T13:25:08Z</time>
      </trkpt>
      <trkpt lat="42.99502" lon="-0.20598">
        <ele>1393.2</ele>
        <time>2016-03-11T13:25:11Z</time>
      </trkpt>
      <trkpt lat="42.99493" lon="-0.20601">
        <ele>1393</ele>
        <time>2016-03-11T13:25:15Z</time>
      </trkpt>
      <trkpt lat="42.99485" lon="-0.20602">
        <ele>1391.5</ele>
        <time>2016-03-11T13:25:21Z</time>
      </trkpt>
      <trkpt lat="42.99478" lon="-0.20601">
        <ele>1391.5</ele>
        <time>2016-03-11T13:25:24Z</time>
      </trkpt>
      <trkpt lat="42.9947" lon="-0.20602">
        <ele>1389.2</ele>
        <time>2016-03-11T13:25:30Z</time>
      </trkpt>
      <trkpt lat="42.99462" lon="-0.20599">
        <ele>1388.9</ele>
        <time>2016-03-11T13:25:34Z</time>
      </trkpt>
      <trkpt lat="42.9946" lon="-0.20598">
        <ele>1388.8</ele>
        <time>2016-03-11T13:25:35Z</time>
      </trkpt>
      <trkpt lat="42.99448" lon="-0.20591">
        <ele>1388.1</ele>
        <time>2016-03-11T13:25:40Z</time>
      </trkpt>
      <trkpt lat="42.99442" lon="-0.20586">
        <ele>1388.8</ele>
        <time>2016-03-11T13:25:44Z</time>
      </trkpt>
      <trkpt lat="42.99436" lon="-0.20581">
        <ele>1388.8</ele>
        <time>2016-03-11T13:25:47Z</time>
      </trkpt>
      <trkpt lat="42.99429" lon="-0.20578">
        <ele>1388.1</ele>
        <time>2016-03-11T13:25:50Z</time>
      </trkpt>
      <trkpt lat="42.99422" lon="-0.20572">
        <ele>1388</ele>
        <time>2016-03-11T13:25:53Z</time>
      </trkpt>
      <trkpt lat="42.99417" lon="-0.20564">
        <ele>1387.8</ele>
        <time>2016-03-11T13:25:56Z</time>
      </trkpt>
      <trkpt lat="42.99411" lon="-0.20558">
        <ele>1388.2</ele>
        <time>2016-03-11T13:25:59Z</time>
      </trkpt>
      <trkpt lat="42.99406" lon="-0.2055">
        <ele>1388.2</ele>
        <time>2016-03-11T13:26:02Z</time>
      </trkpt>
      <trkpt lat="42.99401" lon="-0.2054">
        <ele>1388.1</ele>
        <time>2016-03-11T13:26:05Z</time>
      </trkpt>
      <trkpt lat="42.99396" lon="-0.20532">
        <ele>1387.7</ele>
        <time>2016-03-11T13:26:08Z</time>
      </trkpt>
      <trkpt lat="42.99391" lon="-0.20523">
        <ele>1387.8</ele>
        <time>2016-03-11T13:26:12Z</time>
      </trkpt>
      <trkpt lat="42.99385" lon="-0.20513">
        <ele>1387.3</ele>
        <time>2016-03-11T13:26:16Z</time>
      </trkpt>
      <trkpt lat="42.99379" lon="-0.20505">
        <ele>1388</ele>
        <time>2016-03-11T13:26:20Z</time>
      </trkpt>
      <trkpt lat="42.99374" lon="-0.20497">
        <ele>1387.9</ele>
        <time>2016-03-11T13:26:24Z</time>
      </trkpt>
      <trkpt lat="42.99368" lon="-0.20491">
        <ele>1387.4</ele>
        <time>2016-03-11T13:26:28Z</time>
      </trkpt>
      <trkpt lat="42.99362" lon="-0.20483">
        <ele>1388.1</ele>
        <time>2016-03-11T13:26:34Z</time>
      </trkpt>
      <trkpt lat="42.99355" lon="-0.20481">
        <ele>1389</ele>
        <time>2016-03-11T13:26:39Z</time>
      </trkpt>
      <trkpt lat="42.99353" lon="-0.20481">
        <ele>1389</ele>
        <time>2016-03-11T13:26:40Z</time>
      </trkpt>
      <trkpt lat="42.99339" lon="-0.20479">
        <ele>1389.9</ele>
        <time>2016-03-11T13:26:47Z</time>
      </trkpt>
      <trkpt lat="42.99331" lon="-0.20477">
        <ele>1390.1</ele>
        <time>2016-03-11T13:26:51Z</time>
      </trkpt>
      <trkpt lat="42.99324" lon="-0.20475">
        <ele>1389.8</ele>
        <time>2016-03-11T13:26:54Z</time>
      </trkpt>
      <trkpt lat="42.99317" lon="-0.20473">
        <ele>1388.9</ele>
        <time>2016-03-11T13:26:57Z</time>
      </trkpt>
      <trkpt lat="42.9931" lon="-0.2047">
        <ele>1388.1</ele>
        <time>2016-03-11T13:27:01Z</time>
      </trkpt>
      <trkpt lat="42.99303" lon="-0.20466">
        <ele>1387.7</ele>
        <time>2016-03-11T13:27:03Z</time>
      </trkpt>
      <trkpt lat="42.99295" lon="-0.20462">
        <ele>1387.1</ele>
        <time>2016-03-11T13:27:05Z</time>
      </trkpt>
      <trkpt lat="42.99289" lon="-0.20455">
        <ele>1386.6</ele>
        <time>2016-03-11T13:27:07Z</time>
      </trkpt>
      <trkpt lat="42.99283" lon="-0.20449">
        <ele>1385.7</ele>
        <time>2016-03-11T13:27:09Z</time>
      </trkpt>
      <trkpt lat="42.99279" lon="-0.20442">
        <ele>1385</ele>
        <time>2016-03-11T13:27:11Z</time>
      </trkpt>
      <trkpt lat="42.99273" lon="-0.20436">
        <ele>1384.5</ele>
        <time>2016-03-11T13:27:13Z</time>
      </trkpt>
      <trkpt lat="42.99267" lon="-0.20428">
        <ele>1384.3</ele>
        <time>2016-03-11T13:27:15Z</time>
      </trkpt>
      <trkpt lat="42.99261" lon="-0.20421">
        <ele>1383.5</ele>
        <time>2016-03-11T13:27:17Z</time>
      </trkpt>
      <trkpt lat="42.99257" lon="-0.20417">
        <ele>1382.9</ele>
        <time>2016-03-11T13:27:18Z</time>
      </trkpt>
      <trkpt lat="42.99253" lon="-0.20414">
        <ele>1382.5</ele>
        <time>2016-03-11T13:27:19Z</time>
      </trkpt>
      <trkpt lat="42.99245" lon="-0.20408">
        <ele>1381.4</ele>
        <time>2016-03-11T13:27:21Z</time>
      </trkpt>
      <trkpt lat="42.99241" lon="-0.20406">
        <ele>1380.9</ele>
        <time>2016-03-11T13:27:22Z</time>
      </trkpt>
      <trkpt lat="42.99236" lon="-0.20402">
        <ele>1380.4</ele>
        <time>2016-03-11T13:27:23Z</time>
      </trkpt>
      <trkpt lat="42.9923" lon="-0.20399">
        <ele>1379.6</ele>
        <time>2016-03-11T13:27:24Z</time>
      </trkpt>
      <trkpt lat="42.99225" lon="-0.20395">
        <ele>1379</ele>
        <time>2016-03-11T13:27:25Z</time>
      </trkpt>
      <trkpt lat="42.9922" lon="-0.20391">
        <ele>1378.5</ele>
        <time>2016-03-11T13:27:26Z</time>
      </trkpt>
      <trkpt lat="42.99215" lon="-0.20387">
        <ele>1377.6</ele>
        <time>2016-03-11T13:27:27Z</time>
      </trkpt>
      <trkpt lat="42.99211" lon="-0.20384">
        <ele>1377</ele>
        <time>2016-03-11T13:27:28Z</time>
      </trkpt>
      <trkpt lat="42.99206" lon="-0.20381">
        <ele>1376.5</ele>
        <time>2016-03-11T13:27:29Z</time>
      </trkpt>
      <trkpt lat="42.99202" lon="-0.20377">
        <ele>1375.6</ele>
        <time>2016-03-11T13:27:30Z</time>
      </trkpt>
      <trkpt lat="42.99198" lon="-0.20374">
        <ele>1374.9</ele>
        <time>2016-03-11T13:27:31Z</time>
      </trkpt>
      <trkpt lat="42.99193" lon="-0.20371">
        <ele>1374.5</ele>
        <time>2016-03-11T13:27:32Z</time>
      </trkpt>
      <trkpt lat="42.99189" lon="-0.20368">
        <ele>1374</ele>
        <time>2016-03-11T13:27:33Z</time>
      </trkpt>
      <trkpt lat="42.99185" lon="-0.20365">
        <ele>1373.6</ele>
        <time>2016-03-11T13:27:34Z</time>
      </trkpt>
      <trkpt lat="42.9918" lon="-0.20361">
        <ele>1373.4</ele>
        <time>2016-03-11T13:27:35Z</time>
      </trkpt>
      <trkpt lat="42.99176" lon="-0.20358">
        <ele>1372.5</ele>
        <time>2016-03-11T13:27:36Z</time>
      </trkpt>
      <trkpt lat="42.99171" lon="-0.20355">
        <ele>1371.8</ele>
        <time>2016-03-11T13:27:37Z</time>
      </trkpt>
      <trkpt lat="42.99163" lon="-0.20352">
        <ele>1370.9</ele>
        <time>2016-03-11T13:27:39Z</time>
      </trkpt>
      <trkpt lat="42.99157" lon="-0.20349">
        <ele>1370.1</ele>
        <time>2016-03-11T13:27:41Z</time>
      </trkpt>
      <trkpt lat="42.99154" lon="-0.20348">
        <ele>1369.8</ele>
        <time>2016-03-11T13:27:42Z</time>
      </trkpt>
      <trkpt lat="42.99143" lon="-0.2034">
        <ele>1368.9</ele>
        <time>2016-03-11T13:27:48Z</time>
      </trkpt>
      <trkpt lat="42.99141" lon="-0.20332">
        <ele>1368.4</ele>
        <time>2016-03-11T13:27:50Z</time>
      </trkpt>
      <trkpt lat="42.99139" lon="-0.20322">
        <ele>1368.2</ele>
        <time>2016-03-11T13:27:52Z</time>
      </trkpt>
      <trkpt lat="42.99136" lon="-0.20314">
        <ele>1367.2</ele>
        <time>2016-03-11T13:27:54Z</time>
      </trkpt>
      <trkpt lat="42.99131" lon="-0.20306">
        <ele>1365.3</ele>
        <time>2016-03-11T13:27:58Z</time>
      </trkpt>
      <trkpt lat="42.99123" lon="-0.20301">
        <ele>1364.5</ele>
        <time>2016-03-11T13:28:13Z</time>
      </trkpt>
      <trkpt lat="42.99114" lon="-0.203">
        <ele>1365.1</ele>
        <time>2016-03-11T13:29:09Z</time>
      </trkpt>
      <trkpt lat="42.99113" lon="-0.203">
        <ele>1365</ele>
        <time>2016-03-11T13:29:10Z</time>
      </trkpt>
      <trkpt lat="42.99103" lon="-0.20295">
        <ele>1364.4</ele>
        <time>2016-03-11T13:30:13Z</time>
      </trkpt>
      <trkpt lat="42.99102" lon="-0.20294">
        <ele>1364.4</ele>
        <time>2016-03-11T13:30:14Z</time>
      </trkpt>
      <trkpt lat="42.99094" lon="-0.20277">
        <ele>1363.3</ele>
        <time>2016-03-11T13:30:25Z</time>
      </trkpt>
      <trkpt lat="42.99089" lon="-0.2027">
        <ele>1363.7</ele>
        <time>2016-03-11T13:30:30Z</time>
      </trkpt>
      <trkpt lat="42.99082" lon="-0.20263">
        <ele>1363.3</ele>
        <time>2016-03-11T13:30:36Z</time>
      </trkpt>
      <trkpt lat="42.99075" lon="-0.20256">
        <ele>1364.3</ele>
        <time>2016-03-11T13:30:43Z</time>
      </trkpt>
      <trkpt lat="42.9907" lon="-0.20247">
        <ele>1364.2</ele>
        <time>2016-03-11T13:30:50Z</time>
      </trkpt>
      <trkpt lat="42.99065" lon="-0.20237">
        <ele>1365.1</ele>
        <time>2016-03-11T13:30:57Z</time>
      </trkpt>
      <trkpt lat="42.99061" lon="-0.20227">
        <ele>1364.7</ele>
        <time>2016-03-11T13:31:04Z</time>
      </trkpt>
      <trkpt lat="42.99059" lon="-0.20215">
        <ele>1364.8</ele>
        <time>2016-03-11T13:31:13Z</time>
      </trkpt>
      <trkpt lat="42.99055" lon="-0.20208">
        <ele>1365.5</ele>
        <time>2016-03-11T13:32:33Z</time>
      </trkpt>
      <trkpt lat="42.99055" lon="-0.20208">
        <ele>1365.5</ele>
        <time>2016-03-11T13:32:33Z</time>
      </trkpt>
    </trkseg>
  </trk>
</gpx>